<?xml version="1.0" encoding="UTF-8" standalone="no" ?><gpx xmlns="http://www.topografix.com/GPX/1/1" xmlns:gpxx="http://www.garmin.com/xmlschemas/GpxExtensions/v3" xmlns:wptx1="http://www.garmin.com/xmlschemas/WaypointExtension/v1" xmlns:gpxtpx="http://www.garmin.com/xmlschemas/TrackPointExtension/v1" creator="GuideVTT.com" version="1.1" xmlns:xsi="http://www.w3.org/2001/XMLSchema-instance" xsi:schemaLocation="http://www.topografix.com/GPX/1/1 http://www.topografix.com/GPX/1/1/gpx.xsd http://www.garmin.com/xmlschemas/GpxExtensions/v3 http://www8.garmin.com/xmlschemas/GpxExtensionsv3.xsd http://www.garmin.com/xmlschemas/WaypointExtension/v1 http://www8.garmin.com/xmlschemas/WaypointExtensionv1.xsd http://www.garmin.com/xmlschemas/TrackPointExtension/v1 http://www.garmin.com/xmlschemas/TrackPointExtensionv1.xsd">
<metadata><link href="http://www.garmin.com"><text>Garmin International</text></link><time>2013-06-22T15:13:50Z</time></metadata>
<trk><name>panazol.gpx</name><extensions><gpxx:TrackExtension><gpxx:DisplayColor>Cyan</gpxx:DisplayColor></gpxx:TrackExtension></extensions><trkseg>
<trkpt lat="45.8279" lon="1.309055"><ele></ele><time>2014-6-3T14:30:41Z</time></trkpt>
<trkpt lat="45.827859" lon="1.309094"><ele></ele><time>2014-6-3T14:30:44Z</time></trkpt>
<trkpt lat="45.827824" lon="1.309159"><ele></ele><time>2014-6-3T14:30:47Z</time></trkpt>
<trkpt lat="45.827802" lon="1.309236"><ele></ele><time>2014-6-3T14:30:50Z</time></trkpt>
<trkpt lat="45.827787" lon="1.309308"><ele></ele><time>2014-6-3T14:30:53Z</time></trkpt>
<trkpt lat="45.827775" lon="1.30939"><ele></ele><time>2014-6-3T14:30:56Z</time></trkpt>
<trkpt lat="45.827761" lon="1.309465"><ele></ele><time>2014-6-3T14:30:59Z</time></trkpt>
<trkpt lat="45.827739" lon="1.309573"><ele></ele><time>2014-6-3T14:31:2Z</time></trkpt>
<trkpt lat="45.827738" lon="1.309652"><ele></ele><time>2014-6-3T14:31:5Z</time></trkpt>
<trkpt lat="45.827737" lon="1.309718"><ele></ele><time>2014-6-3T14:31:8Z</time></trkpt>
<trkpt lat="45.827709" lon="1.309806"><ele></ele><time>2014-6-3T14:31:11Z</time></trkpt>
<trkpt lat="45.827698" lon="1.309872"><ele></ele><time>2014-6-3T14:31:14Z</time></trkpt>
<trkpt lat="45.827683" lon="1.309977"><ele></ele><time>2014-6-3T14:31:17Z</time></trkpt>
<trkpt lat="45.827648" lon="1.310097"><ele></ele><time>2014-6-3T14:31:20Z</time></trkpt>
<trkpt lat="45.827624" lon="1.310152"><ele></ele><time>2014-6-3T14:31:23Z</time></trkpt>
<trkpt lat="45.827606" lon="1.31026"><ele></ele><time>2014-6-3T14:31:26Z</time></trkpt>
<trkpt lat="45.827593" lon="1.310347"><ele></ele><time>2014-6-3T14:31:29Z</time></trkpt>
<trkpt lat="45.82756" lon="1.310448"><ele></ele><time>2014-6-3T14:31:32Z</time></trkpt>
<trkpt lat="45.82756" lon="1.310519"><ele></ele><time>2014-6-3T14:31:35Z</time></trkpt>
<trkpt lat="45.827554" lon="1.310584"><ele></ele><time>2014-6-3T14:31:38Z</time></trkpt>
<trkpt lat="45.827552" lon="1.310663"><ele></ele><time>2014-6-3T14:31:41Z</time></trkpt>
<trkpt lat="45.827543" lon="1.310754"><ele></ele><time>2014-6-3T14:31:44Z</time></trkpt>
<trkpt lat="45.827525" lon="1.310835"><ele></ele><time>2014-6-3T14:31:47Z</time></trkpt>
<trkpt lat="45.827482" lon="1.310867"><ele></ele><time>2014-6-3T14:31:50Z</time></trkpt>
<trkpt lat="45.82743" lon="1.311009"><ele></ele><time>2014-6-3T14:31:53Z</time></trkpt>
<trkpt lat="45.827418" lon="1.311103"><ele></ele><time>2014-6-3T14:31:56Z</time></trkpt>
<trkpt lat="45.827418" lon="1.311169"><ele></ele><time>2014-6-3T14:31:59Z</time></trkpt>
<trkpt lat="45.827427" lon="1.311235"><ele></ele><time>2014-6-3T14:32:2Z</time></trkpt>
<trkpt lat="45.827419" lon="1.311358"><ele></ele><time>2014-6-3T14:32:5Z</time></trkpt>
<trkpt lat="45.827378" lon="1.311459"><ele></ele><time>2014-6-3T14:32:8Z</time></trkpt>
<trkpt lat="45.827357" lon="1.311545"><ele></ele><time>2014-6-3T14:32:11Z</time></trkpt>
<trkpt lat="45.827338" lon="1.311629"><ele></ele><time>2014-6-3T14:32:14Z</time></trkpt>
<trkpt lat="45.827305" lon="1.311769"><ele></ele><time>2014-6-3T14:32:17Z</time></trkpt>
<trkpt lat="45.827335" lon="1.31188"><ele></ele><time>2014-6-3T14:32:20Z</time></trkpt>
<trkpt lat="45.827334" lon="1.311966"><ele></ele><time>2014-6-3T14:32:23Z</time></trkpt>
<trkpt lat="45.827341" lon="1.312039"><ele></ele><time>2014-6-3T14:32:26Z</time></trkpt>
<trkpt lat="45.827325" lon="1.312102"><ele></ele><time>2014-6-3T14:32:29Z</time></trkpt>
<trkpt lat="45.827301" lon="1.312169"><ele></ele><time>2014-6-3T14:32:32Z</time></trkpt>
<trkpt lat="45.827288" lon="1.312235"><ele></ele><time>2014-6-3T14:32:35Z</time></trkpt>
<trkpt lat="45.827282" lon="1.312306"><ele></ele><time>2014-6-3T14:32:38Z</time></trkpt>
<trkpt lat="45.827276" lon="1.312429"><ele></ele><time>2014-6-3T14:32:41Z</time></trkpt>
<trkpt lat="45.827269" lon="1.312504"><ele></ele><time>2014-6-3T14:32:44Z</time></trkpt>
<trkpt lat="45.82724" lon="1.312599"><ele></ele><time>2014-6-3T14:32:47Z</time></trkpt>
<trkpt lat="45.827202" lon="1.312733"><ele></ele><time>2014-6-3T14:32:50Z</time></trkpt>
<trkpt lat="45.827191" lon="1.312816"><ele></ele><time>2014-6-3T14:32:53Z</time></trkpt>
<trkpt lat="45.827161" lon="1.31288"><ele></ele><time>2014-6-3T14:32:56Z</time></trkpt>
<trkpt lat="45.827117" lon="1.312923"><ele></ele><time>2014-6-3T14:32:59Z</time></trkpt>
<trkpt lat="45.827064" lon="1.313041"><ele></ele><time>2014-6-3T14:33:2Z</time></trkpt>
<trkpt lat="45.827034" lon="1.313112"><ele></ele><time>2014-6-3T14:33:5Z</time></trkpt>
<trkpt lat="45.82701" lon="1.313185"><ele></ele><time>2014-6-3T14:33:8Z</time></trkpt>
<trkpt lat="45.826973" lon="1.313231"><ele></ele><time>2014-6-3T14:33:11Z</time></trkpt>
<trkpt lat="45.826929" lon="1.313298"><ele></ele><time>2014-6-3T14:33:14Z</time></trkpt>
<trkpt lat="45.82689" lon="1.313349"><ele></ele><time>2014-6-3T14:33:17Z</time></trkpt>
<trkpt lat="45.826842" lon="1.313388"><ele></ele><time>2014-6-3T14:33:20Z</time></trkpt>
<trkpt lat="45.826782" lon="1.31343"><ele></ele><time>2014-6-3T14:33:23Z</time></trkpt>
<trkpt lat="45.826738" lon="1.313472"><ele></ele><time>2014-6-3T14:33:26Z</time></trkpt>
<trkpt lat="45.826672" lon="1.313509"><ele></ele><time>2014-6-3T14:33:29Z</time></trkpt>
<trkpt lat="45.826614" lon="1.313552"><ele></ele><time>2014-6-3T14:33:32Z</time></trkpt>
<trkpt lat="45.82655" lon="1.3136"><ele></ele><time>2014-6-3T14:33:35Z</time></trkpt>
<trkpt lat="45.826495" lon="1.313648"><ele></ele><time>2014-6-3T14:33:38Z</time></trkpt>
<trkpt lat="45.826433" lon="1.313698"><ele></ele><time>2014-6-3T14:33:41Z</time></trkpt>
<trkpt lat="45.8264" lon="1.313775"><ele></ele><time>2014-6-3T14:33:44Z</time></trkpt>
<trkpt lat="45.82636" lon="1.313822"><ele></ele><time>2014-6-3T14:33:47Z</time></trkpt>
<trkpt lat="45.826327" lon="1.313869"><ele></ele><time>2014-6-3T14:33:50Z</time></trkpt>
<trkpt lat="45.826293" lon="1.313942"><ele></ele><time>2014-6-3T14:33:53Z</time></trkpt>
<trkpt lat="45.826222" lon="1.31399"><ele></ele><time>2014-6-3T14:33:56Z</time></trkpt>
<trkpt lat="45.826156" lon="1.314039"><ele></ele><time>2014-6-3T14:33:59Z</time></trkpt>
<trkpt lat="45.826111" lon="1.314069"><ele></ele><time>2014-6-3T14:34:2Z</time></trkpt>
<trkpt lat="45.826048" lon="1.314097"><ele></ele><time>2014-6-3T14:34:5Z</time></trkpt>
<trkpt lat="45.825989" lon="1.314128"><ele></ele><time>2014-6-3T14:34:8Z</time></trkpt>
<trkpt lat="45.825938" lon="1.314185"><ele></ele><time>2014-6-3T14:34:11Z</time></trkpt>
<trkpt lat="45.825965" lon="1.314326"><ele></ele><time>2014-6-3T14:34:14Z</time></trkpt>
<trkpt lat="45.825932" lon="1.314373"><ele></ele><time>2014-6-3T14:34:17Z</time></trkpt>
<trkpt lat="45.825906" lon="1.314426"><ele></ele><time>2014-6-3T14:34:20Z</time></trkpt>
<trkpt lat="45.825881" lon="1.314537"><ele></ele><time>2014-6-3T14:34:23Z</time></trkpt>
<trkpt lat="45.825864" lon="1.314651"><ele></ele><time>2014-6-3T14:34:26Z</time></trkpt>
<trkpt lat="45.825866" lon="1.314723"><ele></ele><time>2014-6-3T14:34:29Z</time></trkpt>
<trkpt lat="45.825869" lon="1.314806"><ele></ele><time>2014-6-3T14:34:32Z</time></trkpt>
<trkpt lat="45.82587" lon="1.314877"><ele></ele><time>2014-6-3T14:34:35Z</time></trkpt>
<trkpt lat="45.825868" lon="1.315002"><ele></ele><time>2014-6-3T14:34:38Z</time></trkpt>
<trkpt lat="45.825872" lon="1.315086"><ele></ele><time>2014-6-3T14:34:41Z</time></trkpt>
<trkpt lat="45.825987" lon="1.315202"><ele></ele><time>2014-6-3T14:34:44Z</time></trkpt>
<trkpt lat="45.826022" lon="1.315285"><ele></ele><time>2014-6-3T14:34:47Z</time></trkpt>
<trkpt lat="45.825994" lon="1.315344"><ele></ele><time>2014-6-3T14:34:50Z</time></trkpt>
<trkpt lat="45.825987" lon="1.315413"><ele></ele><time>2014-6-3T14:34:53Z</time></trkpt>
<trkpt lat="45.825935" lon="1.315487"><ele></ele><time>2014-6-3T14:34:56Z</time></trkpt>
<trkpt lat="45.825946" lon="1.315575"><ele></ele><time>2014-6-3T14:34:59Z</time></trkpt>
<trkpt lat="45.825972" lon="1.315655"><ele></ele><time>2014-6-3T14:35:2Z</time></trkpt>
<trkpt lat="45.826018" lon="1.315753"><ele></ele><time>2014-6-3T14:35:5Z</time></trkpt>
<trkpt lat="45.826028" lon="1.315833"><ele></ele><time>2014-6-3T14:35:8Z</time></trkpt>
<trkpt lat="45.826053" lon="1.315903"><ele></ele><time>2014-6-3T14:35:11Z</time></trkpt>
<trkpt lat="45.826086" lon="1.315949"><ele></ele><time>2014-6-3T14:35:14Z</time></trkpt>
<trkpt lat="45.826113" lon="1.316023"><ele></ele><time>2014-6-3T14:35:17Z</time></trkpt>
<trkpt lat="45.826135" lon="1.31608"><ele></ele><time>2014-6-3T14:35:20Z</time></trkpt>
<trkpt lat="45.826104" lon="1.316129"><ele></ele><time>2014-6-3T14:35:23Z</time></trkpt>
<trkpt lat="45.826119" lon="1.316199"><ele></ele><time>2014-6-3T14:35:26Z</time></trkpt>
<trkpt lat="45.826133" lon="1.316259"><ele></ele><time>2014-6-3T14:35:29Z</time></trkpt>
<trkpt lat="45.826145" lon="1.316329"><ele></ele><time>2014-6-3T14:35:32Z</time></trkpt>
<trkpt lat="45.826172" lon="1.316442"><ele></ele><time>2014-6-3T14:35:35Z</time></trkpt>
<trkpt lat="45.826179" lon="1.316514"><ele></ele><time>2014-6-3T14:35:38Z</time></trkpt>
<trkpt lat="45.826185" lon="1.316621"><ele></ele><time>2014-6-3T14:35:41Z</time></trkpt>
<trkpt lat="45.826146" lon="1.316672"><ele></ele><time>2014-6-3T14:35:44Z</time></trkpt>
<trkpt lat="45.826129" lon="1.316781"><ele></ele><time>2014-6-3T14:35:47Z</time></trkpt>
<trkpt lat="45.826123" lon="1.316879"><ele></ele><time>2014-6-3T14:35:50Z</time></trkpt>
<trkpt lat="45.826112" lon="1.31699"><ele></ele><time>2014-6-3T14:35:53Z</time></trkpt>
<trkpt lat="45.82611" lon="1.317061"><ele></ele><time>2014-6-3T14:35:56Z</time></trkpt>
<trkpt lat="45.826112" lon="1.317131"><ele></ele><time>2014-6-3T14:35:59Z</time></trkpt>
<trkpt lat="45.826108" lon="1.317196"><ele></ele><time>2014-6-3T14:36:2Z</time></trkpt>
<trkpt lat="45.826105" lon="1.317261"><ele></ele><time>2014-6-3T14:36:5Z</time></trkpt>
<trkpt lat="45.826102" lon="1.317331"><ele></ele><time>2014-6-3T14:36:8Z</time></trkpt>
<trkpt lat="45.826101" lon="1.317396"><ele></ele><time>2014-6-3T14:36:11Z</time></trkpt>
<trkpt lat="45.826117" lon="1.31746"><ele></ele><time>2014-6-3T14:36:14Z</time></trkpt>
<trkpt lat="45.826145" lon="1.317559"><ele></ele><time>2014-6-3T14:36:17Z</time></trkpt>
<trkpt lat="45.826131" lon="1.317645"><ele></ele><time>2014-6-3T14:36:20Z</time></trkpt>
<trkpt lat="45.826102" lon="1.317713"><ele></ele><time>2014-6-3T14:36:23Z</time></trkpt>
<trkpt lat="45.826111" lon="1.3178"><ele></ele><time>2014-6-3T14:36:26Z</time></trkpt>
<trkpt lat="45.826121" lon="1.317902"><ele></ele><time>2014-6-3T14:36:29Z</time></trkpt>
<trkpt lat="45.826128" lon="1.317987"><ele></ele><time>2014-6-3T14:36:32Z</time></trkpt>
<trkpt lat="45.826147" lon="1.318073"><ele></ele><time>2014-6-3T14:36:35Z</time></trkpt>
<trkpt lat="45.826166" lon="1.318173"><ele></ele><time>2014-6-3T14:36:38Z</time></trkpt>
<trkpt lat="45.826209" lon="1.318251"><ele></ele><time>2014-6-3T14:36:41Z</time></trkpt>
<trkpt lat="45.826245" lon="1.318324"><ele></ele><time>2014-6-3T14:36:44Z</time></trkpt>
<trkpt lat="45.82629" lon="1.318403"><ele></ele><time>2014-6-3T14:36:47Z</time></trkpt>
<trkpt lat="45.826322" lon="1.318467"><ele></ele><time>2014-6-3T14:36:50Z</time></trkpt>
<trkpt lat="45.82631" lon="1.318576"><ele></ele><time>2014-6-3T14:36:53Z</time></trkpt>
<trkpt lat="45.826272" lon="1.31866"><ele></ele><time>2014-6-3T14:36:56Z</time></trkpt>
<trkpt lat="45.826238" lon="1.318744"><ele></ele><time>2014-6-3T14:36:59Z</time></trkpt>
<trkpt lat="45.826192" lon="1.318834"><ele></ele><time>2014-6-3T14:37:2Z</time></trkpt>
<trkpt lat="45.826171" lon="1.318913"><ele></ele><time>2014-6-3T14:37:5Z</time></trkpt>
<trkpt lat="45.826164" lon="1.318994"><ele></ele><time>2014-6-3T14:37:8Z</time></trkpt>
<trkpt lat="45.826198" lon="1.319079"><ele></ele><time>2014-6-3T14:37:11Z</time></trkpt>
<trkpt lat="45.826193" lon="1.319175"><ele></ele><time>2014-6-3T14:37:14Z</time></trkpt>
<trkpt lat="45.826196" lon="1.319269"><ele></ele><time>2014-6-3T14:37:17Z</time></trkpt>
<trkpt lat="45.826206" lon="1.319367"><ele></ele><time>2014-6-3T14:37:20Z</time></trkpt>
<trkpt lat="45.826216" lon="1.31946"><ele></ele><time>2014-6-3T14:37:23Z</time></trkpt>
<trkpt lat="45.826229" lon="1.31955"><ele></ele><time>2014-6-3T14:37:26Z</time></trkpt>
<trkpt lat="45.826277" lon="1.319633"><ele></ele><time>2014-6-3T14:37:29Z</time></trkpt>
<trkpt lat="45.826303" lon="1.319716"><ele></ele><time>2014-6-3T14:37:32Z</time></trkpt>
<trkpt lat="45.82633" lon="1.319794"><ele></ele><time>2014-6-3T14:37:35Z</time></trkpt>
<trkpt lat="45.826346" lon="1.319868"><ele></ele><time>2014-6-3T14:37:38Z</time></trkpt>
<trkpt lat="45.826363" lon="1.319951"><ele></ele><time>2014-6-3T14:37:41Z</time></trkpt>
<trkpt lat="45.82638" lon="1.320019"><ele></ele><time>2014-6-3T14:37:44Z</time></trkpt>
<trkpt lat="45.826413" lon="1.320096"><ele></ele><time>2014-6-3T14:37:47Z</time></trkpt>
<trkpt lat="45.826437" lon="1.32016"><ele></ele><time>2014-6-3T14:37:50Z</time></trkpt>
<trkpt lat="45.82646" lon="1.320234"><ele></ele><time>2014-6-3T14:37:53Z</time></trkpt>
<trkpt lat="45.826494" lon="1.320296"><ele></ele><time>2014-6-3T14:37:56Z</time></trkpt>
<trkpt lat="45.826524" lon="1.320352"><ele></ele><time>2014-6-3T14:37:59Z</time></trkpt>
<trkpt lat="45.826551" lon="1.320405"><ele></ele><time>2014-6-3T14:38:2Z</time></trkpt>
<trkpt lat="45.826577" lon="1.320487"><ele></ele><time>2014-6-3T14:38:5Z</time></trkpt>
<trkpt lat="45.826604" lon="1.320564"><ele></ele><time>2014-6-3T14:38:8Z</time></trkpt>
<trkpt lat="45.826643" lon="1.320644"><ele></ele><time>2014-6-3T14:38:11Z</time></trkpt>
<trkpt lat="45.826687" lon="1.320723"><ele></ele><time>2014-6-3T14:38:14Z</time></trkpt>
<trkpt lat="45.826709" lon="1.320788"><ele></ele><time>2014-6-3T14:38:17Z</time></trkpt>
<trkpt lat="45.82673" lon="1.320866"><ele></ele><time>2014-6-3T14:38:20Z</time></trkpt>
<trkpt lat="45.826749" lon="1.320954"><ele></ele><time>2014-6-3T14:38:23Z</time></trkpt>
<trkpt lat="45.826758" lon="1.321022"><ele></ele><time>2014-6-3T14:38:26Z</time></trkpt>
<trkpt lat="45.826742" lon="1.321115"><ele></ele><time>2014-6-3T14:38:29Z</time></trkpt>
<trkpt lat="45.826712" lon="1.321183"><ele></ele><time>2014-6-3T14:38:32Z</time></trkpt>
<trkpt lat="45.826711" lon="1.321271"><ele></ele><time>2014-6-3T14:38:35Z</time></trkpt>
<trkpt lat="45.826702" lon="1.32137"><ele></ele><time>2014-6-3T14:38:38Z</time></trkpt>
<trkpt lat="45.826695" lon="1.321442"><ele></ele><time>2014-6-3T14:38:41Z</time></trkpt>
<trkpt lat="45.826715" lon="1.321517"><ele></ele><time>2014-6-3T14:38:44Z</time></trkpt>
<trkpt lat="45.826775" lon="1.32153"><ele></ele><time>2014-6-3T14:38:47Z</time></trkpt>
<trkpt lat="45.826827" lon="1.321547"><ele></ele><time>2014-6-3T14:38:50Z</time></trkpt>
<trkpt lat="45.826879" lon="1.321559"><ele></ele><time>2014-6-3T14:38:53Z</time></trkpt>
<trkpt lat="45.826928" lon="1.32157"><ele></ele><time>2014-6-3T14:38:56Z</time></trkpt>
<trkpt lat="45.826987" lon="1.32157"><ele></ele><time>2014-6-3T14:38:59Z</time></trkpt>
<trkpt lat="45.82705" lon="1.321564"><ele></ele><time>2014-6-3T14:39:2Z</time></trkpt>
<trkpt lat="45.827102" lon="1.321566"><ele></ele><time>2014-6-3T14:39:5Z</time></trkpt>
<trkpt lat="45.82714" lon="1.321619"><ele></ele><time>2014-6-3T14:39:8Z</time></trkpt>
<trkpt lat="45.82716" lon="1.321699"><ele></ele><time>2014-6-3T14:39:11Z</time></trkpt>
<trkpt lat="45.827164" lon="1.321775"><ele></ele><time>2014-6-3T14:39:14Z</time></trkpt>
<trkpt lat="45.827175" lon="1.32184"><ele></ele><time>2014-6-3T14:39:17Z</time></trkpt>
<trkpt lat="45.827189" lon="1.321912"><ele></ele><time>2014-6-3T14:39:20Z</time></trkpt>
<trkpt lat="45.827209" lon="1.321977"><ele></ele><time>2014-6-3T14:39:23Z</time></trkpt>
<trkpt lat="45.827219" lon="1.32204"><ele></ele><time>2014-6-3T14:39:26Z</time></trkpt>
<trkpt lat="45.827239" lon="1.322109"><ele></ele><time>2014-6-3T14:39:29Z</time></trkpt>
<trkpt lat="45.827271" lon="1.322154"><ele></ele><time>2014-6-3T14:39:32Z</time></trkpt>
<trkpt lat="45.827336" lon="1.322191"><ele></ele><time>2014-6-3T14:39:35Z</time></trkpt>
<trkpt lat="45.827378" lon="1.322215"><ele></ele><time>2014-6-3T14:39:38Z</time></trkpt>
<trkpt lat="45.827437" lon="1.322235"><ele></ele><time>2014-6-3T14:39:41Z</time></trkpt>
<trkpt lat="45.827499" lon="1.322232"><ele></ele><time>2014-6-3T14:39:44Z</time></trkpt>
<trkpt lat="45.82756" lon="1.322247"><ele></ele><time>2014-6-3T14:39:47Z</time></trkpt>
<trkpt lat="45.827622" lon="1.322267"><ele></ele><time>2014-6-3T14:39:50Z</time></trkpt>
<trkpt lat="45.827682" lon="1.322285"><ele></ele><time>2014-6-3T14:39:53Z</time></trkpt>
<trkpt lat="45.82774" lon="1.322299"><ele></ele><time>2014-6-3T14:39:56Z</time></trkpt>
<trkpt lat="45.827797" lon="1.322317"><ele></ele><time>2014-6-3T14:39:59Z</time></trkpt>
<trkpt lat="45.827843" lon="1.322332"><ele></ele><time>2014-6-3T14:40:2Z</time></trkpt>
<trkpt lat="45.827889" lon="1.322338"><ele></ele><time>2014-6-3T14:40:5Z</time></trkpt>
<trkpt lat="45.827953" lon="1.322348"><ele></ele><time>2014-6-3T14:40:8Z</time></trkpt>
<trkpt lat="45.828" lon="1.322362"><ele></ele><time>2014-6-3T14:40:11Z</time></trkpt>
<trkpt lat="45.828052" lon="1.322373"><ele></ele><time>2014-6-3T14:40:14Z</time></trkpt>
<trkpt lat="45.82812" lon="1.322393"><ele></ele><time>2014-6-3T14:40:17Z</time></trkpt>
<trkpt lat="45.828171" lon="1.322405"><ele></ele><time>2014-6-3T14:40:20Z</time></trkpt>
<trkpt lat="45.828237" lon="1.32243"><ele></ele><time>2014-6-3T14:40:23Z</time></trkpt>
<trkpt lat="45.828293" lon="1.322458"><ele></ele><time>2014-6-3T14:40:26Z</time></trkpt>
<trkpt lat="45.828343" lon="1.322472"><ele></ele><time>2014-6-3T14:40:29Z</time></trkpt>
<trkpt lat="45.828396" lon="1.322483"><ele></ele><time>2014-6-3T14:40:32Z</time></trkpt>
<trkpt lat="45.82845" lon="1.322489"><ele></ele><time>2014-6-3T14:40:35Z</time></trkpt>
<trkpt lat="45.828494" lon="1.322503"><ele></ele><time>2014-6-3T14:40:38Z</time></trkpt>
<trkpt lat="45.828538" lon="1.322525"><ele></ele><time>2014-6-3T14:40:41Z</time></trkpt>
<trkpt lat="45.828594" lon="1.32254"><ele></ele><time>2014-6-3T14:40:44Z</time></trkpt>
<trkpt lat="45.82864" lon="1.322553"><ele></ele><time>2014-6-3T14:40:47Z</time></trkpt>
<trkpt lat="45.828692" lon="1.32255"><ele></ele><time>2014-6-3T14:40:50Z</time></trkpt>
<trkpt lat="45.828742" lon="1.322566"><ele></ele><time>2014-6-3T14:40:53Z</time></trkpt>
<trkpt lat="45.828796" lon="1.322598"><ele></ele><time>2014-6-3T14:40:56Z</time></trkpt>
<trkpt lat="45.828847" lon="1.322621"><ele></ele><time>2014-6-3T14:40:59Z</time></trkpt>
<trkpt lat="45.828894" lon="1.322623"><ele></ele><time>2014-6-3T14:41:2Z</time></trkpt>
<trkpt lat="45.828942" lon="1.322638"><ele></ele><time>2014-6-3T14:41:5Z</time></trkpt>
<trkpt lat="45.828997" lon="1.322652"><ele></ele><time>2014-6-3T14:41:8Z</time></trkpt>
<trkpt lat="45.829048" lon="1.322676"><ele></ele><time>2014-6-3T14:41:11Z</time></trkpt>
<trkpt lat="45.829105" lon="1.322678"><ele></ele><time>2014-6-3T14:41:14Z</time></trkpt>
<trkpt lat="45.829159" lon="1.322703"><ele></ele><time>2014-6-3T14:41:17Z</time></trkpt>
<trkpt lat="45.829205" lon="1.322724"><ele></ele><time>2014-6-3T14:41:20Z</time></trkpt>
<trkpt lat="45.829249" lon="1.322747"><ele></ele><time>2014-6-3T14:41:23Z</time></trkpt>
<trkpt lat="45.829297" lon="1.322758"><ele></ele><time>2014-6-3T14:41:26Z</time></trkpt>
<trkpt lat="45.829345" lon="1.322765"><ele></ele><time>2014-6-3T14:41:29Z</time></trkpt>
<trkpt lat="45.829406" lon="1.32278"><ele></ele><time>2014-6-3T14:41:32Z</time></trkpt>
<trkpt lat="45.829474" lon="1.322775"><ele></ele><time>2014-6-3T14:41:35Z</time></trkpt>
<trkpt lat="45.829538" lon="1.322747"><ele></ele><time>2014-6-3T14:41:38Z</time></trkpt>
<trkpt lat="45.829582" lon="1.3227"><ele></ele><time>2014-6-3T14:41:41Z</time></trkpt>
<trkpt lat="45.829619" lon="1.322631"><ele></ele><time>2014-6-3T14:41:44Z</time></trkpt>
<trkpt lat="45.829658" lon="1.322563"><ele></ele><time>2014-6-3T14:41:47Z</time></trkpt>
<trkpt lat="45.829703" lon="1.322498"><ele></ele><time>2014-6-3T14:41:50Z</time></trkpt>
<trkpt lat="45.829755" lon="1.322459"><ele></ele><time>2014-6-3T14:41:53Z</time></trkpt>
<trkpt lat="45.829824" lon="1.322465"><ele></ele><time>2014-6-3T14:41:56Z</time></trkpt>
<trkpt lat="45.829872" lon="1.322493"><ele></ele><time>2014-6-3T14:41:59Z</time></trkpt>
<trkpt lat="45.829918" lon="1.322512"><ele></ele><time>2014-6-3T14:42:2Z</time></trkpt>
<trkpt lat="45.829974" lon="1.322526"><ele></ele><time>2014-6-3T14:42:5Z</time></trkpt>
<trkpt lat="45.83005" lon="1.322548"><ele></ele><time>2014-6-3T14:42:8Z</time></trkpt>
<trkpt lat="45.830096" lon="1.322557"><ele></ele><time>2014-6-3T14:42:11Z</time></trkpt>
<trkpt lat="45.830165" lon="1.322578"><ele></ele><time>2014-6-3T14:42:14Z</time></trkpt>
<trkpt lat="45.830246" lon="1.322587"><ele></ele><time>2014-6-3T14:42:17Z</time></trkpt>
<trkpt lat="45.830317" lon="1.322593"><ele></ele><time>2014-6-3T14:42:20Z</time></trkpt>
<trkpt lat="45.830384" lon="1.322599"><ele></ele><time>2014-6-3T14:42:23Z</time></trkpt>
<trkpt lat="45.830442" lon="1.322587"><ele></ele><time>2014-6-3T14:42:26Z</time></trkpt>
<trkpt lat="45.830505" lon="1.32256"><ele></ele><time>2014-6-3T14:42:29Z</time></trkpt>
<trkpt lat="45.830574" lon="1.322527"><ele></ele><time>2014-6-3T14:42:32Z</time></trkpt>
<trkpt lat="45.83061" lon="1.322454"><ele></ele><time>2014-6-3T14:42:35Z</time></trkpt>
<trkpt lat="45.830646" lon="1.322378"><ele></ele><time>2014-6-3T14:42:38Z</time></trkpt>
<trkpt lat="45.830672" lon="1.322301"><ele></ele><time>2014-6-3T14:42:41Z</time></trkpt>
<trkpt lat="45.830728" lon="1.322196"><ele></ele><time>2014-6-3T14:42:44Z</time></trkpt>
<trkpt lat="45.830765" lon="1.322133"><ele></ele><time>2014-6-3T14:42:47Z</time></trkpt>
<trkpt lat="45.830825" lon="1.322087"><ele></ele><time>2014-6-3T14:42:50Z</time></trkpt>
<trkpt lat="45.830871" lon="1.322134"><ele></ele><time>2014-6-3T14:42:53Z</time></trkpt>
<trkpt lat="45.830921" lon="1.322194"><ele></ele><time>2014-6-3T14:42:56Z</time></trkpt>
<trkpt lat="45.830961" lon="1.322254"><ele></ele><time>2014-6-3T14:42:59Z</time></trkpt>
<trkpt lat="45.831002" lon="1.322311"><ele></ele><time>2014-6-3T14:43:2Z</time></trkpt>
<trkpt lat="45.831045" lon="1.322344"><ele></ele><time>2014-6-3T14:43:5Z</time></trkpt>
<trkpt lat="45.831104" lon="1.322423"><ele></ele><time>2014-6-3T14:43:8Z</time></trkpt>
<trkpt lat="45.83117" lon="1.322496"><ele></ele><time>2014-6-3T14:43:11Z</time></trkpt>
<trkpt lat="45.831222" lon="1.322552"><ele></ele><time>2014-6-3T14:43:14Z</time></trkpt>
<trkpt lat="45.831287" lon="1.322613"><ele></ele><time>2014-6-3T14:43:17Z</time></trkpt>
<trkpt lat="45.831365" lon="1.322669"><ele></ele><time>2014-6-3T14:43:20Z</time></trkpt>
<trkpt lat="45.83141" lon="1.322709"><ele></ele><time>2014-6-3T14:43:23Z</time></trkpt>
<trkpt lat="45.831477" lon="1.322757"><ele></ele><time>2014-6-3T14:43:26Z</time></trkpt>
<trkpt lat="45.831551" lon="1.322799"><ele></ele><time>2014-6-3T14:43:29Z</time></trkpt>
<trkpt lat="45.83164" lon="1.322854"><ele></ele><time>2014-6-3T14:43:32Z</time></trkpt>
<trkpt lat="45.831722" lon="1.322891"><ele></ele><time>2014-6-3T14:43:35Z</time></trkpt>
<trkpt lat="45.831766" lon="1.322914"><ele></ele><time>2014-6-3T14:43:38Z</time></trkpt>
<trkpt lat="45.831816" lon="1.322925"><ele></ele><time>2014-6-3T14:43:41Z</time></trkpt>
<trkpt lat="45.831859" lon="1.322941"><ele></ele><time>2014-6-3T14:43:44Z</time></trkpt>
<trkpt lat="45.831938" lon="1.32296"><ele></ele><time>2014-6-3T14:43:47Z</time></trkpt>
<trkpt lat="45.832002" lon="1.322983"><ele></ele><time>2014-6-3T14:43:50Z</time></trkpt>
<trkpt lat="45.832053" lon="1.323011"><ele></ele><time>2014-6-3T14:43:53Z</time></trkpt>
<trkpt lat="45.832128" lon="1.323032"><ele></ele><time>2014-6-3T14:43:56Z</time></trkpt>
<trkpt lat="45.83217" lon="1.323059"><ele></ele><time>2014-6-3T14:43:59Z</time></trkpt>
<trkpt lat="45.832237" lon="1.323101"><ele></ele><time>2014-6-3T14:44:2Z</time></trkpt>
<trkpt lat="45.832309" lon="1.323146"><ele></ele><time>2014-6-3T14:44:5Z</time></trkpt>
<trkpt lat="45.832353" lon="1.323164"><ele></ele><time>2014-6-3T14:44:8Z</time></trkpt>
<trkpt lat="45.832397" lon="1.323189"><ele></ele><time>2014-6-3T14:44:11Z</time></trkpt>
<trkpt lat="45.832483" lon="1.323199"><ele></ele><time>2014-6-3T14:44:14Z</time></trkpt>
<trkpt lat="45.832533" lon="1.323198"><ele></ele><time>2014-6-3T14:44:17Z</time></trkpt>
<trkpt lat="45.83259" lon="1.323212"><ele></ele><time>2014-6-3T14:44:20Z</time></trkpt>
<trkpt lat="45.832657" lon="1.323229"><ele></ele><time>2014-6-3T14:44:23Z</time></trkpt>
<trkpt lat="45.832725" lon="1.323243"><ele></ele><time>2014-6-3T14:44:26Z</time></trkpt>
<trkpt lat="45.832792" lon="1.323265"><ele></ele><time>2014-6-3T14:44:29Z</time></trkpt>
<trkpt lat="45.832841" lon="1.323275"><ele></ele><time>2014-6-3T14:44:32Z</time></trkpt>
<trkpt lat="45.83294" lon="1.323293"><ele></ele><time>2014-6-3T14:44:35Z</time></trkpt>
<trkpt lat="45.833002" lon="1.323308"><ele></ele><time>2014-6-3T14:44:38Z</time></trkpt>
<trkpt lat="45.833063" lon="1.323314"><ele></ele><time>2014-6-3T14:44:41Z</time></trkpt>
<trkpt lat="45.833127" lon="1.323332"><ele></ele><time>2014-6-3T14:44:44Z</time></trkpt>
<trkpt lat="45.833166" lon="1.323367"><ele></ele><time>2014-6-3T14:44:47Z</time></trkpt>
<trkpt lat="45.83318" lon="1.323431"><ele></ele><time>2014-6-3T14:44:50Z</time></trkpt>
<trkpt lat="45.833142" lon="1.323541"><ele></ele><time>2014-6-3T14:44:53Z</time></trkpt>
<trkpt lat="45.833116" lon="1.323603"><ele></ele><time>2014-6-3T14:44:56Z</time></trkpt>
<trkpt lat="45.833065" lon="1.323708"><ele></ele><time>2014-6-3T14:44:59Z</time></trkpt>
<trkpt lat="45.833028" lon="1.323813"><ele></ele><time>2014-6-3T14:45:2Z</time></trkpt>
<trkpt lat="45.832972" lon="1.323942"><ele></ele><time>2014-6-3T14:45:5Z</time></trkpt>
<trkpt lat="45.83293" lon="1.324044"><ele></ele><time>2014-6-3T14:45:8Z</time></trkpt>
<trkpt lat="45.832878" lon="1.324134"><ele></ele><time>2014-6-3T14:45:11Z</time></trkpt>
<trkpt lat="45.832827" lon="1.324188"><ele></ele><time>2014-6-3T14:45:14Z</time></trkpt>
<trkpt lat="45.832795" lon="1.324256"><ele></ele><time>2014-6-3T14:45:17Z</time></trkpt>
<trkpt lat="45.832789" lon="1.324328"><ele></ele><time>2014-6-3T14:45:20Z</time></trkpt>
<trkpt lat="45.832782" lon="1.324399"><ele></ele><time>2014-6-3T14:45:23Z</time></trkpt>
<trkpt lat="45.832824" lon="1.324458"><ele></ele><time>2014-6-3T14:45:26Z</time></trkpt>
<trkpt lat="45.832859" lon="1.324502"><ele></ele><time>2014-6-3T14:45:29Z</time></trkpt>
<trkpt lat="45.832916" lon="1.324547"><ele></ele><time>2014-6-3T14:45:32Z</time></trkpt>
<trkpt lat="45.832974" lon="1.324596"><ele></ele><time>2014-6-3T14:45:35Z</time></trkpt>
<trkpt lat="45.833047" lon="1.324623"><ele></ele><time>2014-6-3T14:45:38Z</time></trkpt>
<trkpt lat="45.8331" lon="1.324657"><ele></ele><time>2014-6-3T14:45:41Z</time></trkpt>
<trkpt lat="45.833141" lon="1.324698"><ele></ele><time>2014-6-3T14:45:44Z</time></trkpt>
<trkpt lat="45.833206" lon="1.32473"><ele></ele><time>2014-6-3T14:45:47Z</time></trkpt>
<trkpt lat="45.83325" lon="1.324752"><ele></ele><time>2014-6-3T14:45:50Z</time></trkpt>
<trkpt lat="45.833288" lon="1.324791"><ele></ele><time>2014-6-3T14:45:53Z</time></trkpt>
<trkpt lat="45.833338" lon="1.324811"><ele></ele><time>2014-6-3T14:45:56Z</time></trkpt>
<trkpt lat="45.833384" lon="1.324841"><ele></ele><time>2014-6-3T14:45:59Z</time></trkpt>
<trkpt lat="45.833456" lon="1.324896"><ele></ele><time>2014-6-3T14:46:2Z</time></trkpt>
<trkpt lat="45.833512" lon="1.324925"><ele></ele><time>2014-6-3T14:46:5Z</time></trkpt>
<trkpt lat="45.833562" lon="1.324974"><ele></ele><time>2014-6-3T14:46:8Z</time></trkpt>
<trkpt lat="45.833601" lon="1.325021"><ele></ele><time>2014-6-3T14:46:11Z</time></trkpt>
<trkpt lat="45.8337" lon="1.325072"><ele></ele><time>2014-6-3T14:46:14Z</time></trkpt>
<trkpt lat="45.833743" lon="1.325126"><ele></ele><time>2014-6-3T14:46:17Z</time></trkpt>
<trkpt lat="45.833808" lon="1.325214"><ele></ele><time>2014-6-3T14:46:20Z</time></trkpt>
<trkpt lat="45.833866" lon="1.325246"><ele></ele><time>2014-6-3T14:46:23Z</time></trkpt>
<trkpt lat="45.833932" lon="1.325311"><ele></ele><time>2014-6-3T14:46:26Z</time></trkpt>
<trkpt lat="45.83398" lon="1.32536"><ele></ele><time>2014-6-3T14:46:29Z</time></trkpt>
<trkpt lat="45.834029" lon="1.325428"><ele></ele><time>2014-6-3T14:46:32Z</time></trkpt>
<trkpt lat="45.834092" lon="1.32549"><ele></ele><time>2014-6-3T14:46:35Z</time></trkpt>
<trkpt lat="45.834125" lon="1.325556"><ele></ele><time>2014-6-3T14:46:38Z</time></trkpt>
<trkpt lat="45.83418" lon="1.325616"><ele></ele><time>2014-6-3T14:46:41Z</time></trkpt>
<trkpt lat="45.834236" lon="1.325692"><ele></ele><time>2014-6-3T14:46:44Z</time></trkpt>
<trkpt lat="45.834305" lon="1.325747"><ele></ele><time>2014-6-3T14:46:47Z</time></trkpt>
<trkpt lat="45.834365" lon="1.325814"><ele></ele><time>2014-6-3T14:46:50Z</time></trkpt>
<trkpt lat="45.834421" lon="1.325872"><ele></ele><time>2014-6-3T14:46:53Z</time></trkpt>
<trkpt lat="45.834454" lon="1.325916"><ele></ele><time>2014-6-3T14:46:56Z</time></trkpt>
<trkpt lat="45.834492" lon="1.325953"><ele></ele><time>2014-6-3T14:46:59Z</time></trkpt>
<trkpt lat="45.834546" lon="1.326006"><ele></ele><time>2014-6-3T14:47:2Z</time></trkpt>
<trkpt lat="45.834604" lon="1.326068"><ele></ele><time>2014-6-3T14:47:5Z</time></trkpt>
<trkpt lat="45.834654" lon="1.326121"><ele></ele><time>2014-6-3T14:47:8Z</time></trkpt>
<trkpt lat="45.834697" lon="1.326145"><ele></ele><time>2014-6-3T14:47:11Z</time></trkpt>
<trkpt lat="45.834743" lon="1.326177"><ele></ele><time>2014-6-3T14:47:14Z</time></trkpt>
<trkpt lat="45.834781" lon="1.326215"><ele></ele><time>2014-6-3T14:47:17Z</time></trkpt>
<trkpt lat="45.834828" lon="1.326239"><ele></ele><time>2014-6-3T14:47:20Z</time></trkpt>
<trkpt lat="45.834898" lon="1.326283"><ele></ele><time>2014-6-3T14:47:23Z</time></trkpt>
<trkpt lat="45.83497" lon="1.326345"><ele></ele><time>2014-6-3T14:47:26Z</time></trkpt>
<trkpt lat="45.835012" lon="1.326367"><ele></ele><time>2014-6-3T14:47:29Z</time></trkpt>
<trkpt lat="45.83506" lon="1.326395"><ele></ele><time>2014-6-3T14:47:32Z</time></trkpt>
<trkpt lat="45.835128" lon="1.326447"><ele></ele><time>2014-6-3T14:47:35Z</time></trkpt>
<trkpt lat="45.835197" lon="1.326563"><ele></ele><time>2014-6-3T14:47:38Z</time></trkpt>
<trkpt lat="45.835238" lon="1.32663"><ele></ele><time>2014-6-3T14:47:41Z</time></trkpt>
<trkpt lat="45.83527" lon="1.326682"><ele></ele><time>2014-6-3T14:47:44Z</time></trkpt>
<trkpt lat="45.835223" lon="1.326762"><ele></ele><time>2014-6-3T14:47:47Z</time></trkpt>
<trkpt lat="45.835184" lon="1.326911"><ele></ele><time>2014-6-3T14:47:50Z</time></trkpt>
<trkpt lat="45.835138" lon="1.326997"><ele></ele><time>2014-6-3T14:47:53Z</time></trkpt>
<trkpt lat="45.835124" lon="1.327074"><ele></ele><time>2014-6-3T14:47:56Z</time></trkpt>
<trkpt lat="45.835111" lon="1.327193"><ele></ele><time>2014-6-3T14:47:59Z</time></trkpt>
<trkpt lat="45.835103" lon="1.327274"><ele></ele><time>2014-6-3T14:48:2Z</time></trkpt>
<trkpt lat="45.835088" lon="1.327366"><ele></ele><time>2014-6-3T14:48:5Z</time></trkpt>
<trkpt lat="45.835073" lon="1.327458"><ele></ele><time>2014-6-3T14:48:8Z</time></trkpt>
<trkpt lat="45.835039" lon="1.327599"><ele></ele><time>2014-6-3T14:48:11Z</time></trkpt>
<trkpt lat="45.835022" lon="1.327669"><ele></ele><time>2014-6-3T14:48:14Z</time></trkpt>
<trkpt lat="45.835004" lon="1.327794"><ele></ele><time>2014-6-3T14:48:17Z</time></trkpt>
<trkpt lat="45.834977" lon="1.327894"><ele></ele><time>2014-6-3T14:48:20Z</time></trkpt>
<trkpt lat="45.834936" lon="1.327948"><ele></ele><time>2014-6-3T14:48:23Z</time></trkpt>
<trkpt lat="45.834889" lon="1.328015"><ele></ele><time>2014-6-3T14:48:26Z</time></trkpt>
<trkpt lat="45.834824" lon="1.328069"><ele></ele><time>2014-6-3T14:48:29Z</time></trkpt>
<trkpt lat="45.834782" lon="1.328099"><ele></ele><time>2014-6-3T14:48:32Z</time></trkpt>
<trkpt lat="45.834733" lon="1.328139"><ele></ele><time>2014-6-3T14:48:35Z</time></trkpt>
<trkpt lat="45.834686" lon="1.328164"><ele></ele><time>2014-6-3T14:48:38Z</time></trkpt>
<trkpt lat="45.834607" lon="1.32816"><ele></ele><time>2014-6-3T14:48:41Z</time></trkpt>
<trkpt lat="45.83456" lon="1.328149"><ele></ele><time>2014-6-3T14:48:44Z</time></trkpt>
<trkpt lat="45.834469" lon="1.328109"><ele></ele><time>2014-6-3T14:48:47Z</time></trkpt>
<trkpt lat="45.834412" lon="1.328082"><ele></ele><time>2014-6-3T14:48:50Z</time></trkpt>
<trkpt lat="45.834347" lon="1.328066"><ele></ele><time>2014-6-3T14:48:53Z</time></trkpt>
<trkpt lat="45.834295" lon="1.328109"><ele></ele><time>2014-6-3T14:48:56Z</time></trkpt>
<trkpt lat="45.834366" lon="1.328167"><ele></ele><time>2014-6-3T14:48:59Z</time></trkpt>
<trkpt lat="45.834385" lon="1.328246"><ele></ele><time>2014-6-3T14:49:2Z</time></trkpt>
<trkpt lat="45.834432" lon="1.328345"><ele></ele><time>2014-6-3T14:49:5Z</time></trkpt>
<trkpt lat="45.834449" lon="1.328447"><ele></ele><time>2014-6-3T14:49:8Z</time></trkpt>
<trkpt lat="45.834467" lon="1.328505"><ele></ele><time>2014-6-3T14:49:11Z</time></trkpt>
<trkpt lat="45.834424" lon="1.328625"><ele></ele><time>2014-6-3T14:49:14Z</time></trkpt>
<trkpt lat="45.834372" lon="1.328714"><ele></ele><time>2014-6-3T14:49:17Z</time></trkpt>
<trkpt lat="45.834336" lon="1.328754"><ele></ele><time>2014-6-3T14:49:20Z</time></trkpt>
<trkpt lat="45.834307" lon="1.328804"><ele></ele><time>2014-6-3T14:49:23Z</time></trkpt>
<trkpt lat="45.834272" lon="1.328845"><ele></ele><time>2014-6-3T14:49:26Z</time></trkpt>
<trkpt lat="45.834234" lon="1.328885"><ele></ele><time>2014-6-3T14:49:29Z</time></trkpt>
<trkpt lat="45.834173" lon="1.328982"><ele></ele><time>2014-6-3T14:49:32Z</time></trkpt>
<trkpt lat="45.834138" lon="1.329029"><ele></ele><time>2014-6-3T14:49:35Z</time></trkpt>
<trkpt lat="45.834088" lon="1.329113"><ele></ele><time>2014-6-3T14:49:38Z</time></trkpt>
<trkpt lat="45.834029" lon="1.329191"><ele></ele><time>2014-6-3T14:49:41Z</time></trkpt>
<trkpt lat="45.833977" lon="1.329273"><ele></ele><time>2014-6-3T14:49:44Z</time></trkpt>
<trkpt lat="45.833928" lon="1.329343"><ele></ele><time>2014-6-3T14:49:47Z</time></trkpt>
<trkpt lat="45.833884" lon="1.329401"><ele></ele><time>2014-6-3T14:49:50Z</time></trkpt>
<trkpt lat="45.833854" lon="1.329489"><ele></ele><time>2014-6-3T14:49:53Z</time></trkpt>
<trkpt lat="45.833817" lon="1.329534"><ele></ele><time>2014-6-3T14:49:56Z</time></trkpt>
<trkpt lat="45.833768" lon="1.329591"><ele></ele><time>2014-6-3T14:49:59Z</time></trkpt>
<trkpt lat="45.833713" lon="1.329643"><ele></ele><time>2014-6-3T14:50:2Z</time></trkpt>
<trkpt lat="45.833683" lon="1.329702"><ele></ele><time>2014-6-3T14:50:5Z</time></trkpt>
<trkpt lat="45.833656" lon="1.329757"><ele></ele><time>2014-6-3T14:50:8Z</time></trkpt>
<trkpt lat="45.833617" lon="1.329813"><ele></ele><time>2014-6-3T14:50:11Z</time></trkpt>
<trkpt lat="45.833587" lon="1.329875"><ele></ele><time>2014-6-3T14:50:14Z</time></trkpt>
<trkpt lat="45.833553" lon="1.329925"><ele></ele><time>2014-6-3T14:50:17Z</time></trkpt>
<trkpt lat="45.833505" lon="1.329982"><ele></ele><time>2014-6-3T14:50:20Z</time></trkpt>
<trkpt lat="45.833477" lon="1.330039"><ele></ele><time>2014-6-3T14:50:23Z</time></trkpt>
<trkpt lat="45.833419" lon="1.330097"><ele></ele><time>2014-6-3T14:50:26Z</time></trkpt>
<trkpt lat="45.833394" lon="1.330174"><ele></ele><time>2014-6-3T14:50:29Z</time></trkpt>
<trkpt lat="45.833355" lon="1.330227"><ele></ele><time>2014-6-3T14:50:32Z</time></trkpt>
<trkpt lat="45.833309" lon="1.330298"><ele></ele><time>2014-6-3T14:50:35Z</time></trkpt>
<trkpt lat="45.833267" lon="1.330346"><ele></ele><time>2014-6-3T14:50:38Z</time></trkpt>
<trkpt lat="45.833258" lon="1.330415"><ele></ele><time>2014-6-3T14:50:41Z</time></trkpt>
<trkpt lat="45.833232" lon="1.330472"><ele></ele><time>2014-6-3T14:50:44Z</time></trkpt>
<trkpt lat="45.833184" lon="1.330546"><ele></ele><time>2014-6-3T14:50:47Z</time></trkpt>
<trkpt lat="45.833161" lon="1.330606"><ele></ele><time>2014-6-3T14:50:50Z</time></trkpt>
<trkpt lat="45.833123" lon="1.33066"><ele></ele><time>2014-6-3T14:50:53Z</time></trkpt>
<trkpt lat="45.833065" lon="1.330717"><ele></ele><time>2014-6-3T14:50:56Z</time></trkpt>
<trkpt lat="45.833002" lon="1.330756"><ele></ele><time>2014-6-3T14:50:59Z</time></trkpt>
<trkpt lat="45.832951" lon="1.330794"><ele></ele><time>2014-6-3T14:51:2Z</time></trkpt>
<trkpt lat="45.832903" lon="1.330854"><ele></ele><time>2014-6-3T14:51:5Z</time></trkpt>
<trkpt lat="45.832859" lon="1.330897"><ele></ele><time>2014-6-3T14:51:8Z</time></trkpt>
<trkpt lat="45.832786" lon="1.330981"><ele></ele><time>2014-6-3T14:51:11Z</time></trkpt>
<trkpt lat="45.832733" lon="1.331037"><ele></ele><time>2014-6-3T14:51:14Z</time></trkpt>
<trkpt lat="45.83268" lon="1.331086"><ele></ele><time>2014-6-3T14:51:17Z</time></trkpt>
<trkpt lat="45.832636" lon="1.331141"><ele></ele><time>2014-6-3T14:51:20Z</time></trkpt>
<trkpt lat="45.832588" lon="1.331185"><ele></ele><time>2014-6-3T14:51:23Z</time></trkpt>
<trkpt lat="45.832545" lon="1.331231"><ele></ele><time>2014-6-3T14:51:26Z</time></trkpt>
<trkpt lat="45.832498" lon="1.33128"><ele></ele><time>2014-6-3T14:51:29Z</time></trkpt>
<trkpt lat="45.832448" lon="1.33133"><ele></ele><time>2014-6-3T14:51:32Z</time></trkpt>
<trkpt lat="45.832394" lon="1.331387"><ele></ele><time>2014-6-3T14:51:35Z</time></trkpt>
<trkpt lat="45.832337" lon="1.331438"><ele></ele><time>2014-6-3T14:51:38Z</time></trkpt>
<trkpt lat="45.832287" lon="1.331505"><ele></ele><time>2014-6-3T14:51:41Z</time></trkpt>
<trkpt lat="45.832239" lon="1.33157"><ele></ele><time>2014-6-3T14:51:44Z</time></trkpt>
<trkpt lat="45.832175" lon="1.331636"><ele></ele><time>2014-6-3T14:51:47Z</time></trkpt>
<trkpt lat="45.832122" lon="1.33169"><ele></ele><time>2014-6-3T14:51:50Z</time></trkpt>
<trkpt lat="45.832072" lon="1.331753"><ele></ele><time>2014-6-3T14:51:53Z</time></trkpt>
<trkpt lat="45.832017" lon="1.331802"><ele></ele><time>2014-6-3T14:51:56Z</time></trkpt>
<trkpt lat="45.831963" lon="1.331856"><ele></ele><time>2014-6-3T14:51:59Z</time></trkpt>
<trkpt lat="45.831911" lon="1.331907"><ele></ele><time>2014-6-3T14:52:2Z</time></trkpt>
<trkpt lat="45.831857" lon="1.331968"><ele></ele><time>2014-6-3T14:52:5Z</time></trkpt>
<trkpt lat="45.831816" lon="1.332038"><ele></ele><time>2014-6-3T14:52:8Z</time></trkpt>
<trkpt lat="45.831763" lon="1.332094"><ele></ele><time>2014-6-3T14:52:11Z</time></trkpt>
<trkpt lat="45.831713" lon="1.332156"><ele></ele><time>2014-6-3T14:52:14Z</time></trkpt>
<trkpt lat="45.831667" lon="1.332206"><ele></ele><time>2014-6-3T14:52:17Z</time></trkpt>
<trkpt lat="45.831613" lon="1.332268"><ele></ele><time>2014-6-3T14:52:20Z</time></trkpt>
<trkpt lat="45.831562" lon="1.332324"><ele></ele><time>2014-6-3T14:52:23Z</time></trkpt>
<trkpt lat="45.83151" lon="1.332386"><ele></ele><time>2014-6-3T14:52:26Z</time></trkpt>
<trkpt lat="45.831461" lon="1.332446"><ele></ele><time>2014-6-3T14:52:29Z</time></trkpt>
<trkpt lat="45.831413" lon="1.33249"><ele></ele><time>2014-6-3T14:52:32Z</time></trkpt>
<trkpt lat="45.831368" lon="1.332516"><ele></ele><time>2014-6-3T14:52:35Z</time></trkpt>
<trkpt lat="45.831313" lon="1.332568"><ele></ele><time>2014-6-3T14:52:38Z</time></trkpt>
<trkpt lat="45.831265" lon="1.332608"><ele></ele><time>2014-6-3T14:52:41Z</time></trkpt>
<trkpt lat="45.831203" lon="1.332643"><ele></ele><time>2014-6-3T14:52:44Z</time></trkpt>
<trkpt lat="45.831137" lon="1.332657"><ele></ele><time>2014-6-3T14:52:47Z</time></trkpt>
<trkpt lat="45.831072" lon="1.332689"><ele></ele><time>2014-6-3T14:52:50Z</time></trkpt>
<trkpt lat="45.831018" lon="1.33271"><ele></ele><time>2014-6-3T14:52:53Z</time></trkpt>
<trkpt lat="45.830958" lon="1.332719"><ele></ele><time>2014-6-3T14:52:56Z</time></trkpt>
<trkpt lat="45.830902" lon="1.332742"><ele></ele><time>2014-6-3T14:52:59Z</time></trkpt>
<trkpt lat="45.83085" lon="1.332759"><ele></ele><time>2014-6-3T14:53:2Z</time></trkpt>
<trkpt lat="45.830795" lon="1.33278"><ele></ele><time>2014-6-3T14:53:5Z</time></trkpt>
<trkpt lat="45.830736" lon="1.332802"><ele></ele><time>2014-6-3T14:53:8Z</time></trkpt>
<trkpt lat="45.830678" lon="1.332832"><ele></ele><time>2014-6-3T14:53:11Z</time></trkpt>
<trkpt lat="45.830619" lon="1.33285"><ele></ele><time>2014-6-3T14:53:14Z</time></trkpt>
<trkpt lat="45.830567" lon="1.332873"><ele></ele><time>2014-6-3T14:53:17Z</time></trkpt>
<trkpt lat="45.83052" lon="1.332902"><ele></ele><time>2014-6-3T14:53:20Z</time></trkpt>
<trkpt lat="45.830467" lon="1.332931"><ele></ele><time>2014-6-3T14:53:23Z</time></trkpt>
<trkpt lat="45.830425" lon="1.332963"><ele></ele><time>2014-6-3T14:53:26Z</time></trkpt>
<trkpt lat="45.830369" lon="1.332988"><ele></ele><time>2014-6-3T14:53:29Z</time></trkpt>
<trkpt lat="45.830306" lon="1.333022"><ele></ele><time>2014-6-3T14:53:32Z</time></trkpt>
<trkpt lat="45.830242" lon="1.333047"><ele></ele><time>2014-6-3T14:53:35Z</time></trkpt>
<trkpt lat="45.830187" lon="1.333073"><ele></ele><time>2014-6-3T14:53:38Z</time></trkpt>
<trkpt lat="45.830117" lon="1.333098"><ele></ele><time>2014-6-3T14:53:41Z</time></trkpt>
<trkpt lat="45.830062" lon="1.33311"><ele></ele><time>2014-6-3T14:53:44Z</time></trkpt>
<trkpt lat="45.830008" lon="1.333145"><ele></ele><time>2014-6-3T14:53:47Z</time></trkpt>
<trkpt lat="45.829958" lon="1.333183"><ele></ele><time>2014-6-3T14:53:50Z</time></trkpt>
<trkpt lat="45.829915" lon="1.333234"><ele></ele><time>2014-6-3T14:53:53Z</time></trkpt>
<trkpt lat="45.829859" lon="1.333264"><ele></ele><time>2014-6-3T14:53:56Z</time></trkpt>
<trkpt lat="45.829806" lon="1.333271"><ele></ele><time>2014-6-3T14:53:59Z</time></trkpt>
<trkpt lat="45.829737" lon="1.333299"><ele></ele><time>2014-6-3T14:54:2Z</time></trkpt>
<trkpt lat="45.829647" lon="1.333294"><ele></ele><time>2014-6-3T14:54:5Z</time></trkpt>
<trkpt lat="45.829584" lon="1.333281"><ele></ele><time>2014-6-3T14:54:8Z</time></trkpt>
<trkpt lat="45.829529" lon="1.333344"><ele></ele><time>2014-6-3T14:54:11Z</time></trkpt>
<trkpt lat="45.829492" lon="1.333432"><ele></ele><time>2014-6-3T14:54:14Z</time></trkpt>
<trkpt lat="45.829448" lon="1.333514"><ele></ele><time>2014-6-3T14:54:17Z</time></trkpt>
<trkpt lat="45.829395" lon="1.333601"><ele></ele><time>2014-6-3T14:54:20Z</time></trkpt>
<trkpt lat="45.829375" lon="1.33371"><ele></ele><time>2014-6-3T14:54:23Z</time></trkpt>
<trkpt lat="45.82933" lon="1.333797"><ele></ele><time>2014-6-3T14:54:26Z</time></trkpt>
<trkpt lat="45.829301" lon="1.333893"><ele></ele><time>2014-6-3T14:54:29Z</time></trkpt>
<trkpt lat="45.829266" lon="1.33398"><ele></ele><time>2014-6-3T14:54:32Z</time></trkpt>
<trkpt lat="45.829235" lon="1.334078"><ele></ele><time>2014-6-3T14:54:35Z</time></trkpt>
<trkpt lat="45.829207" lon="1.334173"><ele></ele><time>2014-6-3T14:54:38Z</time></trkpt>
<trkpt lat="45.829185" lon="1.334263"><ele></ele><time>2014-6-3T14:54:41Z</time></trkpt>
<trkpt lat="45.829159" lon="1.33435"><ele></ele><time>2014-6-3T14:54:44Z</time></trkpt>
<trkpt lat="45.82913" lon="1.334442"><ele></ele><time>2014-6-3T14:54:47Z</time></trkpt>
<trkpt lat="45.829106" lon="1.334535"><ele></ele><time>2014-6-3T14:54:50Z</time></trkpt>
<trkpt lat="45.829079" lon="1.334629"><ele></ele><time>2014-6-3T14:54:53Z</time></trkpt>
<trkpt lat="45.829046" lon="1.334718"><ele></ele><time>2014-6-3T14:54:56Z</time></trkpt>
<trkpt lat="45.829012" lon="1.3348"><ele></ele><time>2014-6-3T14:54:59Z</time></trkpt>
<trkpt lat="45.829005" lon="1.334893"><ele></ele><time>2014-6-3T14:55:2Z</time></trkpt>
<trkpt lat="45.828961" lon="1.334974"><ele></ele><time>2014-6-3T14:55:5Z</time></trkpt>
<trkpt lat="45.828929" lon="1.335032"><ele></ele><time>2014-6-3T14:55:8Z</time></trkpt>
<trkpt lat="45.82889" lon="1.335069"><ele></ele><time>2014-6-3T14:55:11Z</time></trkpt>
<trkpt lat="45.828868" lon="1.335156"><ele></ele><time>2014-6-3T14:55:14Z</time></trkpt>
<trkpt lat="45.828836" lon="1.335239"><ele></ele><time>2014-6-3T14:55:17Z</time></trkpt>
<trkpt lat="45.82883" lon="1.335303"><ele></ele><time>2014-6-3T14:55:20Z</time></trkpt>
<trkpt lat="45.828794" lon="1.335342"><ele></ele><time>2014-6-3T14:55:23Z</time></trkpt>
<trkpt lat="45.828757" lon="1.33546"><ele></ele><time>2014-6-3T14:55:26Z</time></trkpt>
<trkpt lat="45.828734" lon="1.335538"><ele></ele><time>2014-6-3T14:55:29Z</time></trkpt>
<trkpt lat="45.828724" lon="1.335617"><ele></ele><time>2014-6-3T14:55:32Z</time></trkpt>
<trkpt lat="45.828686" lon="1.335695"><ele></ele><time>2014-6-3T14:55:35Z</time></trkpt>
<trkpt lat="45.828634" lon="1.335839"><ele></ele><time>2014-6-3T14:55:38Z</time></trkpt>
<trkpt lat="45.828616" lon="1.335898"><ele></ele><time>2014-6-3T14:55:41Z</time></trkpt>
<trkpt lat="45.828595" lon="1.336005"><ele></ele><time>2014-6-3T14:55:44Z</time></trkpt>
<trkpt lat="45.828573" lon="1.336112"><ele></ele><time>2014-6-3T14:55:47Z</time></trkpt>
<trkpt lat="45.828554" lon="1.336214"><ele></ele><time>2014-6-3T14:55:50Z</time></trkpt>
<trkpt lat="45.828536" lon="1.336316"><ele></ele><time>2014-6-3T14:55:53Z</time></trkpt>
<trkpt lat="45.828529" lon="1.336421"><ele></ele><time>2014-6-3T14:55:56Z</time></trkpt>
<trkpt lat="45.828504" lon="1.336517"><ele></ele><time>2014-6-3T14:55:59Z</time></trkpt>
<trkpt lat="45.828477" lon="1.336613"><ele></ele><time>2014-6-3T14:56:2Z</time></trkpt>
<trkpt lat="45.828449" lon="1.336709"><ele></ele><time>2014-6-3T14:56:5Z</time></trkpt>
<trkpt lat="45.828413" lon="1.336793"><ele></ele><time>2014-6-3T14:56:8Z</time></trkpt>
<trkpt lat="45.828379" lon="1.336874"><ele></ele><time>2014-6-3T14:56:11Z</time></trkpt>
<trkpt lat="45.828346" lon="1.336944"><ele></ele><time>2014-6-3T14:56:14Z</time></trkpt>
<trkpt lat="45.828322" lon="1.337004"><ele></ele><time>2014-6-3T14:56:17Z</time></trkpt>
<trkpt lat="45.828291" lon="1.337073"><ele></ele><time>2014-6-3T14:56:20Z</time></trkpt>
<trkpt lat="45.828271" lon="1.337147"><ele></ele><time>2014-6-3T14:56:23Z</time></trkpt>
<trkpt lat="45.828242" lon="1.337217"><ele></ele><time>2014-6-3T14:56:26Z</time></trkpt>
<trkpt lat="45.828198" lon="1.337289"><ele></ele><time>2014-6-3T14:56:29Z</time></trkpt>
<trkpt lat="45.82819" lon="1.337356"><ele></ele><time>2014-6-3T14:56:32Z</time></trkpt>
<trkpt lat="45.828174" lon="1.337446"><ele></ele><time>2014-6-3T14:56:35Z</time></trkpt>
<trkpt lat="45.828143" lon="1.337517"><ele></ele><time>2014-6-3T14:56:38Z</time></trkpt>
<trkpt lat="45.828116" lon="1.337583"><ele></ele><time>2014-6-3T14:56:41Z</time></trkpt>
<trkpt lat="45.828097" lon="1.337659"><ele></ele><time>2014-6-3T14:56:44Z</time></trkpt>
<trkpt lat="45.828074" lon="1.337729"><ele></ele><time>2014-6-3T14:56:47Z</time></trkpt>
<trkpt lat="45.828062" lon="1.337806"><ele></ele><time>2014-6-3T14:56:50Z</time></trkpt>
<trkpt lat="45.828061" lon="1.337886"><ele></ele><time>2014-6-3T14:56:53Z</time></trkpt>
<trkpt lat="45.82804" lon="1.33795"><ele></ele><time>2014-6-3T14:56:56Z</time></trkpt>
<trkpt lat="45.827988" lon="1.33801"><ele></ele><time>2014-6-3T14:56:59Z</time></trkpt>
<trkpt lat="45.827951" lon="1.338078"><ele></ele><time>2014-6-3T14:57:2Z</time></trkpt>
<trkpt lat="45.827899" lon="1.338188"><ele></ele><time>2014-6-3T14:57:5Z</time></trkpt>
<trkpt lat="45.827872" lon="1.338249"><ele></ele><time>2014-6-3T14:57:8Z</time></trkpt>
<trkpt lat="45.82785" lon="1.33831"><ele></ele><time>2014-6-3T14:57:11Z</time></trkpt>
<trkpt lat="45.82782" lon="1.33838"><ele></ele><time>2014-6-3T14:57:14Z</time></trkpt>
<trkpt lat="45.827787" lon="1.338442"><ele></ele><time>2014-6-3T14:57:17Z</time></trkpt>
<trkpt lat="45.827753" lon="1.338516"><ele></ele><time>2014-6-3T14:57:20Z</time></trkpt>
<trkpt lat="45.827722" lon="1.338566"><ele></ele><time>2014-6-3T14:57:23Z</time></trkpt>
<trkpt lat="45.827709" lon="1.338655"><ele></ele><time>2014-6-3T14:57:26Z</time></trkpt>
<trkpt lat="45.827691" lon="1.33872"><ele></ele><time>2014-6-3T14:57:29Z</time></trkpt>
<trkpt lat="45.827673" lon="1.338783"><ele></ele><time>2014-6-3T14:57:32Z</time></trkpt>
<trkpt lat="45.827655" lon="1.338846"><ele></ele><time>2014-6-3T14:57:35Z</time></trkpt>
<trkpt lat="45.827638" lon="1.338912"><ele></ele><time>2014-6-3T14:57:38Z</time></trkpt>
<trkpt lat="45.827654" lon="1.338991"><ele></ele><time>2014-6-3T14:57:41Z</time></trkpt>
<trkpt lat="45.827663" lon="1.339058"><ele></ele><time>2014-6-3T14:57:44Z</time></trkpt>
<trkpt lat="45.827671" lon="1.339146"><ele></ele><time>2014-6-3T14:57:47Z</time></trkpt>
<trkpt lat="45.827671" lon="1.33921"><ele></ele><time>2014-6-3T14:57:50Z</time></trkpt>
<trkpt lat="45.827647" lon="1.339291"><ele></ele><time>2014-6-3T14:57:53Z</time></trkpt>
<trkpt lat="45.827613" lon="1.339375"><ele></ele><time>2014-6-3T14:57:56Z</time></trkpt>
<trkpt lat="45.827588" lon="1.339431"><ele></ele><time>2014-6-3T14:57:59Z</time></trkpt>
<trkpt lat="45.827568" lon="1.339511"><ele></ele><time>2014-6-3T14:58:2Z</time></trkpt>
<trkpt lat="45.827525" lon="1.339563"><ele></ele><time>2014-6-3T14:58:5Z</time></trkpt>
<trkpt lat="45.827483" lon="1.339627"><ele></ele><time>2014-6-3T14:58:8Z</time></trkpt>
<trkpt lat="45.827438" lon="1.339692"><ele></ele><time>2014-6-3T14:58:11Z</time></trkpt>
<trkpt lat="45.827409" lon="1.339761"><ele></ele><time>2014-6-3T14:58:14Z</time></trkpt>
<trkpt lat="45.827372" lon="1.339819"><ele></ele><time>2014-6-3T14:58:17Z</time></trkpt>
<trkpt lat="45.827329" lon="1.339917"><ele></ele><time>2014-6-3T14:58:20Z</time></trkpt>
<trkpt lat="45.827296" lon="1.339988"><ele></ele><time>2014-6-3T14:58:23Z</time></trkpt>
<trkpt lat="45.827263" lon="1.34006"><ele></ele><time>2014-6-3T14:58:26Z</time></trkpt>
<trkpt lat="45.827226" lon="1.34013"><ele></ele><time>2014-6-3T14:58:29Z</time></trkpt>
<trkpt lat="45.827187" lon="1.340203"><ele></ele><time>2014-6-3T14:58:32Z</time></trkpt>
<trkpt lat="45.82715" lon="1.34028"><ele></ele><time>2014-6-3T14:58:35Z</time></trkpt>
<trkpt lat="45.827116" lon="1.340361"><ele></ele><time>2014-6-3T14:58:38Z</time></trkpt>
<trkpt lat="45.827076" lon="1.340439"><ele></ele><time>2014-6-3T14:58:41Z</time></trkpt>
<trkpt lat="45.827033" lon="1.340518"><ele></ele><time>2014-6-3T14:58:44Z</time></trkpt>
<trkpt lat="45.826995" lon="1.340607"><ele></ele><time>2014-6-3T14:58:47Z</time></trkpt>
<trkpt lat="45.826946" lon="1.34069"><ele></ele><time>2014-6-3T14:58:50Z</time></trkpt>
<trkpt lat="45.826913" lon="1.340766"><ele></ele><time>2014-6-3T14:58:53Z</time></trkpt>
<trkpt lat="45.826878" lon="1.340848"><ele></ele><time>2014-6-3T14:58:56Z</time></trkpt>
<trkpt lat="45.826841" lon="1.34093"><ele></ele><time>2014-6-3T14:58:59Z</time></trkpt>
<trkpt lat="45.826798" lon="1.341017"><ele></ele><time>2014-6-3T14:59:2Z</time></trkpt>
<trkpt lat="45.826762" lon="1.341092"><ele></ele><time>2014-6-3T14:59:5Z</time></trkpt>
<trkpt lat="45.826722" lon="1.341182"><ele></ele><time>2014-6-3T14:59:8Z</time></trkpt>
<trkpt lat="45.826678" lon="1.341266"><ele></ele><time>2014-6-3T14:59:11Z</time></trkpt>
<trkpt lat="45.826641" lon="1.341353"><ele></ele><time>2014-6-3T14:59:14Z</time></trkpt>
<trkpt lat="45.8266" lon="1.341439"><ele></ele><time>2014-6-3T14:59:17Z</time></trkpt>
<trkpt lat="45.826566" lon="1.34152"><ele></ele><time>2014-6-3T14:59:20Z</time></trkpt>
<trkpt lat="45.826519" lon="1.341622"><ele></ele><time>2014-6-3T14:59:23Z</time></trkpt>
<trkpt lat="45.826488" lon="1.341674"><ele></ele><time>2014-6-3T14:59:26Z</time></trkpt>
<trkpt lat="45.826437" lon="1.341775"><ele></ele><time>2014-6-3T14:59:29Z</time></trkpt>
<trkpt lat="45.826392" lon="1.341877"><ele></ele><time>2014-6-3T14:59:32Z</time></trkpt>
<trkpt lat="45.826339" lon="1.341982"><ele></ele><time>2014-6-3T14:59:35Z</time></trkpt>
<trkpt lat="45.82631" lon="1.342034"><ele></ele><time>2014-6-3T14:59:38Z</time></trkpt>
<trkpt lat="45.826268" lon="1.342125"><ele></ele><time>2014-6-3T14:59:41Z</time></trkpt>
<trkpt lat="45.826235" lon="1.342218"><ele></ele><time>2014-6-3T14:59:44Z</time></trkpt>
<trkpt lat="45.82619" lon="1.342304"><ele></ele><time>2014-6-3T14:59:47Z</time></trkpt>
<trkpt lat="45.826142" lon="1.34239"><ele></ele><time>2014-6-3T14:59:50Z</time></trkpt>
<trkpt lat="45.826101" lon="1.342481"><ele></ele><time>2014-6-3T14:59:53Z</time></trkpt>
<trkpt lat="45.826068" lon="1.342571"><ele></ele><time>2014-6-3T14:59:56Z</time></trkpt>
<trkpt lat="45.826026" lon="1.342675"><ele></ele><time>2014-6-3T14:59:59Z</time></trkpt>
<trkpt lat="45.826007" lon="1.342766"><ele></ele><time>2014-6-3T15:0:2Z</time></trkpt>
<trkpt lat="45.825975" lon="1.342848"><ele></ele><time>2014-6-3T15:0:5Z</time></trkpt>
<trkpt lat="45.825945" lon="1.34293"><ele></ele><time>2014-6-3T15:0:8Z</time></trkpt>
<trkpt lat="45.825923" lon="1.343017"><ele></ele><time>2014-6-3T15:0:11Z</time></trkpt>
<trkpt lat="45.82589" lon="1.34309"><ele></ele><time>2014-6-3T15:0:14Z</time></trkpt>
<trkpt lat="45.82586" lon="1.343171"><ele></ele><time>2014-6-3T15:0:17Z</time></trkpt>
<trkpt lat="45.825835" lon="1.343256"><ele></ele><time>2014-6-3T15:0:20Z</time></trkpt>
<trkpt lat="45.825819" lon="1.343353"><ele></ele><time>2014-6-3T15:0:23Z</time></trkpt>
<trkpt lat="45.825795" lon="1.343441"><ele></ele><time>2014-6-3T15:0:26Z</time></trkpt>
<trkpt lat="45.825761" lon="1.343519"><ele></ele><time>2014-6-3T15:0:29Z</time></trkpt>
<trkpt lat="45.825732" lon="1.343604"><ele></ele><time>2014-6-3T15:0:32Z</time></trkpt>
<trkpt lat="45.825697" lon="1.343701"><ele></ele><time>2014-6-3T15:0:35Z</time></trkpt>
<trkpt lat="45.825664" lon="1.343794"><ele></ele><time>2014-6-3T15:0:38Z</time></trkpt>
<trkpt lat="45.82567" lon="1.343874"><ele></ele><time>2014-6-3T15:0:41Z</time></trkpt>
<trkpt lat="45.825645" lon="1.343948"><ele></ele><time>2014-6-3T15:0:44Z</time></trkpt>
<trkpt lat="45.825618" lon="1.344013"><ele></ele><time>2014-6-3T15:0:47Z</time></trkpt>
<trkpt lat="45.825583" lon="1.34409"><ele></ele><time>2014-6-3T15:0:50Z</time></trkpt>
<trkpt lat="45.825538" lon="1.344148"><ele></ele><time>2014-6-3T15:0:53Z</time></trkpt>
<trkpt lat="45.825494" lon="1.344171"><ele></ele><time>2014-6-3T15:0:56Z</time></trkpt>
<trkpt lat="45.825434" lon="1.344171"><ele></ele><time>2014-6-3T15:0:59Z</time></trkpt>
<trkpt lat="45.825383" lon="1.344174"><ele></ele><time>2014-6-3T15:1:2Z</time></trkpt>
<trkpt lat="45.82533" lon="1.34417"><ele></ele><time>2014-6-3T15:1:5Z</time></trkpt>
<trkpt lat="45.82526" lon="1.34417"><ele></ele><time>2014-6-3T15:1:8Z</time></trkpt>
<trkpt lat="45.825214" lon="1.344138"><ele></ele><time>2014-6-3T15:1:11Z</time></trkpt>
<trkpt lat="45.825162" lon="1.344133"><ele></ele><time>2014-6-3T15:1:14Z</time></trkpt>
<trkpt lat="45.825071" lon="1.344136"><ele></ele><time>2014-6-3T15:1:17Z</time></trkpt>
<trkpt lat="45.825017" lon="1.344128"><ele></ele><time>2014-6-3T15:1:20Z</time></trkpt>
<trkpt lat="45.824941" lon="1.344113"><ele></ele><time>2014-6-3T15:1:23Z</time></trkpt>
<trkpt lat="45.824862" lon="1.344091"><ele></ele><time>2014-6-3T15:1:26Z</time></trkpt>
<trkpt lat="45.824784" lon="1.34408"><ele></ele><time>2014-6-3T15:1:29Z</time></trkpt>
<trkpt lat="45.824737" lon="1.344063"><ele></ele><time>2014-6-3T15:1:32Z</time></trkpt>
<trkpt lat="45.824688" lon="1.344042"><ele></ele><time>2014-6-3T15:1:35Z</time></trkpt>
<trkpt lat="45.824639" lon="1.344028"><ele></ele><time>2014-6-3T15:1:38Z</time></trkpt>
<trkpt lat="45.824555" lon="1.344008"><ele></ele><time>2014-6-3T15:1:41Z</time></trkpt>
<trkpt lat="45.824479" lon="1.34401"><ele></ele><time>2014-6-3T15:1:44Z</time></trkpt>
<trkpt lat="45.824412" lon="1.343995"><ele></ele><time>2014-6-3T15:1:47Z</time></trkpt>
<trkpt lat="45.824324" lon="1.343975"><ele></ele><time>2014-6-3T15:1:50Z</time></trkpt>
<trkpt lat="45.82423" lon="1.343967"><ele></ele><time>2014-6-3T15:1:53Z</time></trkpt>
<trkpt lat="45.824154" lon="1.343966"><ele></ele><time>2014-6-3T15:1:56Z</time></trkpt>
<trkpt lat="45.824073" lon="1.343946"><ele></ele><time>2014-6-3T15:1:59Z</time></trkpt>
<trkpt lat="45.823976" lon="1.343933"><ele></ele><time>2014-6-3T15:2:2Z</time></trkpt>
<trkpt lat="45.823892" lon="1.343913"><ele></ele><time>2014-6-3T15:2:5Z</time></trkpt>
<trkpt lat="45.823845" lon="1.343913"><ele></ele><time>2014-6-3T15:2:8Z</time></trkpt>
<trkpt lat="45.823799" lon="1.343905"><ele></ele><time>2014-6-3T15:2:11Z</time></trkpt>
<trkpt lat="45.823753" lon="1.343899"><ele></ele><time>2014-6-3T15:2:14Z</time></trkpt>
<trkpt lat="45.823667" lon="1.343895"><ele></ele><time>2014-6-3T15:2:17Z</time></trkpt>
<trkpt lat="45.823594" lon="1.34386"><ele></ele><time>2014-6-3T15:2:20Z</time></trkpt>
<trkpt lat="45.823548" lon="1.343854"><ele></ele><time>2014-6-3T15:2:23Z</time></trkpt>
<trkpt lat="45.823459" lon="1.343851"><ele></ele><time>2014-6-3T15:2:26Z</time></trkpt>
<trkpt lat="45.823365" lon="1.343866"><ele></ele><time>2014-6-3T15:2:29Z</time></trkpt>
<trkpt lat="45.823319" lon="1.343867"><ele></ele><time>2014-6-3T15:2:32Z</time></trkpt>
<trkpt lat="45.823269" lon="1.343862"><ele></ele><time>2014-6-3T15:2:35Z</time></trkpt>
<trkpt lat="45.823227" lon="1.343829"><ele></ele><time>2014-6-3T15:2:38Z</time></trkpt>
<trkpt lat="45.823175" lon="1.343799"><ele></ele><time>2014-6-3T15:2:41Z</time></trkpt>
<trkpt lat="45.823127" lon="1.343755"><ele></ele><time>2014-6-3T15:2:44Z</time></trkpt>
<trkpt lat="45.823061" lon="1.34365"><ele></ele><time>2014-6-3T15:2:47Z</time></trkpt>
<trkpt lat="45.823023" lon="1.343611"><ele></ele><time>2014-6-3T15:2:50Z</time></trkpt>
<trkpt lat="45.822981" lon="1.343568"><ele></ele><time>2014-6-3T15:2:53Z</time></trkpt>
<trkpt lat="45.822902" lon="1.343493"><ele></ele><time>2014-6-3T15:2:56Z</time></trkpt>
<trkpt lat="45.822863" lon="1.343459"><ele></ele><time>2014-6-3T15:2:59Z</time></trkpt>
<trkpt lat="45.822819" lon="1.343417"><ele></ele><time>2014-6-3T15:3:2Z</time></trkpt>
<trkpt lat="45.822778" lon="1.343373"><ele></ele><time>2014-6-3T15:3:5Z</time></trkpt>
<trkpt lat="45.82274" lon="1.343336"><ele></ele><time>2014-6-3T15:3:8Z</time></trkpt>
<trkpt lat="45.8227" lon="1.343305"><ele></ele><time>2014-6-3T15:3:11Z</time></trkpt>
<trkpt lat="45.822659" lon="1.343275"><ele></ele><time>2014-6-3T15:3:14Z</time></trkpt>
<trkpt lat="45.822617" lon="1.343246"><ele></ele><time>2014-6-3T15:3:17Z</time></trkpt>
<trkpt lat="45.822545" lon="1.343174"><ele></ele><time>2014-6-3T15:3:20Z</time></trkpt>
<trkpt lat="45.822489" lon="1.343136"><ele></ele><time>2014-6-3T15:3:23Z</time></trkpt>
<trkpt lat="45.822444" lon="1.343099"><ele></ele><time>2014-6-3T15:3:26Z</time></trkpt>
<trkpt lat="45.822379" lon="1.343038"><ele></ele><time>2014-6-3T15:3:29Z</time></trkpt>
<trkpt lat="45.822301" lon="1.34297"><ele></ele><time>2014-6-3T15:3:32Z</time></trkpt>
<trkpt lat="45.82223" lon="1.342903"><ele></ele><time>2014-6-3T15:3:35Z</time></trkpt>
<trkpt lat="45.822161" lon="1.342832"><ele></ele><time>2014-6-3T15:3:38Z</time></trkpt>
<trkpt lat="45.822114" lon="1.342784"><ele></ele><time>2014-6-3T15:3:41Z</time></trkpt>
<trkpt lat="45.822066" lon="1.342755"><ele></ele><time>2014-6-3T15:3:44Z</time></trkpt>
<trkpt lat="45.821988" lon="1.342677"><ele></ele><time>2014-6-3T15:3:47Z</time></trkpt>
<trkpt lat="45.821916" lon="1.342613"><ele></ele><time>2014-6-3T15:3:50Z</time></trkpt>
<trkpt lat="45.821876" lon="1.342579"><ele></ele><time>2014-6-3T15:3:53Z</time></trkpt>
<trkpt lat="45.821799" lon="1.342504"><ele></ele><time>2014-6-3T15:3:56Z</time></trkpt>
<trkpt lat="45.821761" lon="1.34246"><ele></ele><time>2014-6-3T15:3:59Z</time></trkpt>
<trkpt lat="45.82169" lon="1.342392"><ele></ele><time>2014-6-3T15:4:2Z</time></trkpt>
<trkpt lat="45.82162" lon="1.342318"><ele></ele><time>2014-6-3T15:4:5Z</time></trkpt>
<trkpt lat="45.821582" lon="1.342279"><ele></ele><time>2014-6-3T15:4:8Z</time></trkpt>
<trkpt lat="45.821544" lon="1.34224"><ele></ele><time>2014-6-3T15:4:11Z</time></trkpt>
<trkpt lat="45.8215" lon="1.342199"><ele></ele><time>2014-6-3T15:4:14Z</time></trkpt>
<trkpt lat="45.821442" lon="1.342144"><ele></ele><time>2014-6-3T15:4:17Z</time></trkpt>
<trkpt lat="45.821383" lon="1.34209"><ele></ele><time>2014-6-3T15:4:20Z</time></trkpt>
<trkpt lat="45.821316" lon="1.342089"><ele></ele><time>2014-6-3T15:4:23Z</time></trkpt>
<trkpt lat="45.82126" lon="1.342155"><ele></ele><time>2014-6-3T15:4:26Z</time></trkpt>
<trkpt lat="45.821203" lon="1.342209"><ele></ele><time>2014-6-3T15:4:29Z</time></trkpt>
<trkpt lat="45.82115" lon="1.342276"><ele></ele><time>2014-6-3T15:4:32Z</time></trkpt>
<trkpt lat="45.821095" lon="1.34237"><ele></ele><time>2014-6-3T15:4:35Z</time></trkpt>
<trkpt lat="45.821039" lon="1.342439"><ele></ele><time>2014-6-3T15:4:38Z</time></trkpt>
<trkpt lat="45.82094" lon="1.342569"><ele></ele><time>2014-6-3T15:4:41Z</time></trkpt>
<trkpt lat="45.820898" lon="1.342617"><ele></ele><time>2014-6-3T15:4:44Z</time></trkpt>
<trkpt lat="45.820862" lon="1.342663"><ele></ele><time>2014-6-3T15:4:47Z</time></trkpt>
<trkpt lat="45.820829" lon="1.34271"><ele></ele><time>2014-6-3T15:4:50Z</time></trkpt>
<trkpt lat="45.820787" lon="1.342767"><ele></ele><time>2014-6-3T15:4:53Z</time></trkpt>
<trkpt lat="45.820749" lon="1.342817"><ele></ele><time>2014-6-3T15:4:56Z</time></trkpt>
<trkpt lat="45.820713" lon="1.342874"><ele></ele><time>2014-6-3T15:4:59Z</time></trkpt>
<trkpt lat="45.820673" lon="1.342928"><ele></ele><time>2014-6-3T15:5:2Z</time></trkpt>
<trkpt lat="45.820628" lon="1.342994"><ele></ele><time>2014-6-3T15:5:5Z</time></trkpt>
<trkpt lat="45.820577" lon="1.343048"><ele></ele><time>2014-6-3T15:5:8Z</time></trkpt>
<trkpt lat="45.820532" lon="1.3431"><ele></ele><time>2014-6-3T15:5:11Z</time></trkpt>
<trkpt lat="45.820496" lon="1.343162"><ele></ele><time>2014-6-3T15:5:14Z</time></trkpt>
<trkpt lat="45.820457" lon="1.34322"><ele></ele><time>2014-6-3T15:5:17Z</time></trkpt>
<trkpt lat="45.820423" lon="1.343279"><ele></ele><time>2014-6-3T15:5:20Z</time></trkpt>
<trkpt lat="45.820389" lon="1.343325"><ele></ele><time>2014-6-3T15:5:23Z</time></trkpt>
<trkpt lat="45.820356" lon="1.343373"><ele></ele><time>2014-6-3T15:5:26Z</time></trkpt>
<trkpt lat="45.820321" lon="1.343423"><ele></ele><time>2014-6-3T15:5:29Z</time></trkpt>
<trkpt lat="45.820285" lon="1.343479"><ele></ele><time>2014-6-3T15:5:32Z</time></trkpt>
<trkpt lat="45.820259" lon="1.34354"><ele></ele><time>2014-6-3T15:5:35Z</time></trkpt>
<trkpt lat="45.820222" lon="1.343588"><ele></ele><time>2014-6-3T15:5:38Z</time></trkpt>
<trkpt lat="45.820178" lon="1.343639"><ele></ele><time>2014-6-3T15:5:41Z</time></trkpt>
<trkpt lat="45.820141" lon="1.343682"><ele></ele><time>2014-6-3T15:5:44Z</time></trkpt>
<trkpt lat="45.820108" lon="1.343732"><ele></ele><time>2014-6-3T15:5:47Z</time></trkpt>
<trkpt lat="45.820055" lon="1.343817"><ele></ele><time>2014-6-3T15:5:50Z</time></trkpt>
<trkpt lat="45.819978" lon="1.343907"><ele></ele><time>2014-6-3T15:5:53Z</time></trkpt>
<trkpt lat="45.819943" lon="1.343948"><ele></ele><time>2014-6-3T15:5:56Z</time></trkpt>
<trkpt lat="45.819875" lon="1.344033"><ele></ele><time>2014-6-3T15:5:59Z</time></trkpt>
<trkpt lat="45.819811" lon="1.344099"><ele></ele><time>2014-6-3T15:6:2Z</time></trkpt>
<trkpt lat="45.819779" lon="1.344177"><ele></ele><time>2014-6-3T15:6:5Z</time></trkpt>
<trkpt lat="45.81974" lon="1.344266"><ele></ele><time>2014-6-3T15:6:8Z</time></trkpt>
<trkpt lat="45.819686" lon="1.344332"><ele></ele><time>2014-6-3T15:6:11Z</time></trkpt>
<trkpt lat="45.819653" lon="1.344382"><ele></ele><time>2014-6-3T15:6:14Z</time></trkpt>
<trkpt lat="45.819614" lon="1.344434"><ele></ele><time>2014-6-3T15:6:17Z</time></trkpt>
<trkpt lat="45.819573" lon="1.344488"><ele></ele><time>2014-6-3T15:6:20Z</time></trkpt>
<trkpt lat="45.819521" lon="1.344578"><ele></ele><time>2014-6-3T15:6:23Z</time></trkpt>
<trkpt lat="45.819478" lon="1.344635"><ele></ele><time>2014-6-3T15:6:26Z</time></trkpt>
<trkpt lat="45.819428" lon="1.344681"><ele></ele><time>2014-6-3T15:6:29Z</time></trkpt>
<trkpt lat="45.819388" lon="1.344733"><ele></ele><time>2014-6-3T15:6:32Z</time></trkpt>
<trkpt lat="45.819325" lon="1.34481"><ele></ele><time>2014-6-3T15:6:35Z</time></trkpt>
<trkpt lat="45.819283" lon="1.344834"><ele></ele><time>2014-6-3T15:6:38Z</time></trkpt>
<trkpt lat="45.819218" lon="1.344877"><ele></ele><time>2014-6-3T15:6:41Z</time></trkpt>
<trkpt lat="45.81916" lon="1.344893"><ele></ele><time>2014-6-3T15:6:44Z</time></trkpt>
<trkpt lat="45.819112" lon="1.344908"><ele></ele><time>2014-6-3T15:6:47Z</time></trkpt>
<trkpt lat="45.819056" lon="1.344924"><ele></ele><time>2014-6-3T15:6:50Z</time></trkpt>
<trkpt lat="45.819" lon="1.344926"><ele></ele><time>2014-6-3T15:6:53Z</time></trkpt>
<trkpt lat="45.818952" lon="1.344943"><ele></ele><time>2014-6-3T15:6:56Z</time></trkpt>
<trkpt lat="45.818857" lon="1.344963"><ele></ele><time>2014-6-3T15:6:59Z</time></trkpt>
<trkpt lat="45.81879" lon="1.34498"><ele></ele><time>2014-6-3T15:7:2Z</time></trkpt>
<trkpt lat="45.818723" lon="1.345013"><ele></ele><time>2014-6-3T15:7:5Z</time></trkpt>
<trkpt lat="45.818657" lon="1.345073"><ele></ele><time>2014-6-3T15:7:8Z</time></trkpt>
<trkpt lat="45.8186" lon="1.345106"><ele></ele><time>2014-6-3T15:7:11Z</time></trkpt>
<trkpt lat="45.818522" lon="1.345147"><ele></ele><time>2014-6-3T15:7:14Z</time></trkpt>
<trkpt lat="45.818451" lon="1.345171"><ele></ele><time>2014-6-3T15:7:17Z</time></trkpt>
<trkpt lat="45.818385" lon="1.345208"><ele></ele><time>2014-6-3T15:7:20Z</time></trkpt>
<trkpt lat="45.818337" lon="1.345236"><ele></ele><time>2014-6-3T15:7:23Z</time></trkpt>
<trkpt lat="45.818291" lon="1.345265"><ele></ele><time>2014-6-3T15:7:26Z</time></trkpt>
<trkpt lat="45.818251" lon="1.345305"><ele></ele><time>2014-6-3T15:7:29Z</time></trkpt>
<trkpt lat="45.818206" lon="1.345361"><ele></ele><time>2014-6-3T15:7:32Z</time></trkpt>
<trkpt lat="45.818163" lon="1.345389"><ele></ele><time>2014-6-3T15:7:35Z</time></trkpt>
<trkpt lat="45.818091" lon="1.34547"><ele></ele><time>2014-6-3T15:7:38Z</time></trkpt>
<trkpt lat="45.818043" lon="1.345506"><ele></ele><time>2014-6-3T15:7:41Z</time></trkpt>
<trkpt lat="45.818004" lon="1.345543"><ele></ele><time>2014-6-3T15:7:44Z</time></trkpt>
<trkpt lat="45.817954" lon="1.345575"><ele></ele><time>2014-6-3T15:7:47Z</time></trkpt>
<trkpt lat="45.817907" lon="1.345613"><ele></ele><time>2014-6-3T15:7:50Z</time></trkpt>
<trkpt lat="45.817858" lon="1.345652"><ele></ele><time>2014-6-3T15:7:53Z</time></trkpt>
<trkpt lat="45.817805" lon="1.345671"><ele></ele><time>2014-6-3T15:7:56Z</time></trkpt>
<trkpt lat="45.817743" lon="1.345695"><ele></ele><time>2014-6-3T15:7:59Z</time></trkpt>
<trkpt lat="45.817683" lon="1.345706"><ele></ele><time>2014-6-3T15:8:2Z</time></trkpt>
<trkpt lat="45.817628" lon="1.345733"><ele></ele><time>2014-6-3T15:8:5Z</time></trkpt>
<trkpt lat="45.817569" lon="1.345741"><ele></ele><time>2014-6-3T15:8:8Z</time></trkpt>
<trkpt lat="45.817512" lon="1.345755"><ele></ele><time>2014-6-3T15:8:11Z</time></trkpt>
<trkpt lat="45.817452" lon="1.345766"><ele></ele><time>2014-6-3T15:8:14Z</time></trkpt>
<trkpt lat="45.817404" lon="1.345785"><ele></ele><time>2014-6-3T15:8:17Z</time></trkpt>
<trkpt lat="45.817357" lon="1.345801"><ele></ele><time>2014-6-3T15:8:20Z</time></trkpt>
<trkpt lat="45.81731" lon="1.345819"><ele></ele><time>2014-6-3T15:8:23Z</time></trkpt>
<trkpt lat="45.817265" lon="1.345831"><ele></ele><time>2014-6-3T15:8:26Z</time></trkpt>
<trkpt lat="45.817211" lon="1.345849"><ele></ele><time>2014-6-3T15:8:29Z</time></trkpt>
<trkpt lat="45.817162" lon="1.345859"><ele></ele><time>2014-6-3T15:8:32Z</time></trkpt>
<trkpt lat="45.817098" lon="1.345886"><ele></ele><time>2014-6-3T15:8:35Z</time></trkpt>
<trkpt lat="45.817052" lon="1.345902"><ele></ele><time>2014-6-3T15:8:38Z</time></trkpt>
<trkpt lat="45.816994" lon="1.345923"><ele></ele><time>2014-6-3T15:8:41Z</time></trkpt>
<trkpt lat="45.816945" lon="1.345939"><ele></ele><time>2014-6-3T15:8:44Z</time></trkpt>
<trkpt lat="45.81689" lon="1.345957"><ele></ele><time>2014-6-3T15:8:47Z</time></trkpt>
<trkpt lat="45.816843" lon="1.345976"><ele></ele><time>2014-6-3T15:8:50Z</time></trkpt>
<trkpt lat="45.816789" lon="1.345991"><ele></ele><time>2014-6-3T15:8:53Z</time></trkpt>
<trkpt lat="45.816691" lon="1.346005"><ele></ele><time>2014-6-3T15:8:56Z</time></trkpt>
<trkpt lat="45.816641" lon="1.346021"><ele></ele><time>2014-6-3T15:8:59Z</time></trkpt>
<trkpt lat="45.816594" lon="1.346029"><ele></ele><time>2014-6-3T15:9:2Z</time></trkpt>
<trkpt lat="45.81649" lon="1.346061"><ele></ele><time>2014-6-3T15:9:5Z</time></trkpt>
<trkpt lat="45.816434" lon="1.346084"><ele></ele><time>2014-6-3T15:9:8Z</time></trkpt>
<trkpt lat="45.816379" lon="1.346105"><ele></ele><time>2014-6-3T15:9:11Z</time></trkpt>
<trkpt lat="45.816246" lon="1.346132"><ele></ele><time>2014-6-3T15:9:14Z</time></trkpt>
<trkpt lat="45.816193" lon="1.346155"><ele></ele><time>2014-6-3T15:9:17Z</time></trkpt>
<trkpt lat="45.816141" lon="1.346169"><ele></ele><time>2014-6-3T15:9:20Z</time></trkpt>
<trkpt lat="45.816056" lon="1.346196"><ele></ele><time>2014-6-3T15:9:23Z</time></trkpt>
<trkpt lat="45.815999" lon="1.346212"><ele></ele><time>2014-6-3T15:9:26Z</time></trkpt>
<trkpt lat="45.815952" lon="1.346226"><ele></ele><time>2014-6-3T15:9:29Z</time></trkpt>
<trkpt lat="45.815888" lon="1.346238"><ele></ele><time>2014-6-3T15:9:32Z</time></trkpt>
<trkpt lat="45.815827" lon="1.346241"><ele></ele><time>2014-6-3T15:9:35Z</time></trkpt>
<trkpt lat="45.815767" lon="1.34625"><ele></ele><time>2014-6-3T15:9:38Z</time></trkpt>
<trkpt lat="45.815713" lon="1.34626"><ele></ele><time>2014-6-3T15:9:41Z</time></trkpt>
<trkpt lat="45.815653" lon="1.346269"><ele></ele><time>2014-6-3T15:9:44Z</time></trkpt>
<trkpt lat="45.815594" lon="1.34627"><ele></ele><time>2014-6-3T15:9:47Z</time></trkpt>
<trkpt lat="45.815509" lon="1.346285"><ele></ele><time>2014-6-3T15:9:50Z</time></trkpt>
<trkpt lat="45.815463" lon="1.346296"><ele></ele><time>2014-6-3T15:9:53Z</time></trkpt>
<trkpt lat="45.815377" lon="1.346319"><ele></ele><time>2014-6-3T15:9:56Z</time></trkpt>
<trkpt lat="45.815301" lon="1.346344"><ele></ele><time>2014-6-3T15:9:59Z</time></trkpt>
<trkpt lat="45.815254" lon="1.346356"><ele></ele><time>2014-6-3T15:10:2Z</time></trkpt>
<trkpt lat="45.815208" lon="1.346374"><ele></ele><time>2014-6-3T15:10:5Z</time></trkpt>
<trkpt lat="45.815135" lon="1.346394"><ele></ele><time>2014-6-3T15:10:8Z</time></trkpt>
<trkpt lat="45.815066" lon="1.346437"><ele></ele><time>2014-6-3T15:10:11Z</time></trkpt>
<trkpt lat="45.81501" lon="1.346448"><ele></ele><time>2014-6-3T15:10:14Z</time></trkpt>
<trkpt lat="45.814954" lon="1.346474"><ele></ele><time>2014-6-3T15:10:17Z</time></trkpt>
<trkpt lat="45.814904" lon="1.346514"><ele></ele><time>2014-6-3T15:10:20Z</time></trkpt>
<trkpt lat="45.814849" lon="1.346512"><ele></ele><time>2014-6-3T15:10:23Z</time></trkpt>
<trkpt lat="45.814794" lon="1.346525"><ele></ele><time>2014-6-3T15:10:26Z</time></trkpt>
<trkpt lat="45.814728" lon="1.346543"><ele></ele><time>2014-6-3T15:10:29Z</time></trkpt>
<trkpt lat="45.814656" lon="1.346548"><ele></ele><time>2014-6-3T15:10:32Z</time></trkpt>
<trkpt lat="45.814594" lon="1.346495"><ele></ele><time>2014-6-3T15:10:35Z</time></trkpt>
<trkpt lat="45.81453" lon="1.346452"><ele></ele><time>2014-6-3T15:10:38Z</time></trkpt>
<trkpt lat="45.814453" lon="1.346453"><ele></ele><time>2014-6-3T15:10:41Z</time></trkpt>
<trkpt lat="45.814394" lon="1.346432"><ele></ele><time>2014-6-3T15:10:44Z</time></trkpt>
<trkpt lat="45.814324" lon="1.346392"><ele></ele><time>2014-6-3T15:10:47Z</time></trkpt>
<trkpt lat="45.81426" lon="1.346318"><ele></ele><time>2014-6-3T15:10:50Z</time></trkpt>
<trkpt lat="45.814196" lon="1.346252"><ele></ele><time>2014-6-3T15:10:53Z</time></trkpt>
<trkpt lat="45.814154" lon="1.346228"><ele></ele><time>2014-6-3T15:10:56Z</time></trkpt>
<trkpt lat="45.814072" lon="1.346175"><ele></ele><time>2014-6-3T15:10:59Z</time></trkpt>
<trkpt lat="45.814019" lon="1.34615"><ele></ele><time>2014-6-3T15:11:2Z</time></trkpt>
<trkpt lat="45.81397" lon="1.346125"><ele></ele><time>2014-6-3T15:11:5Z</time></trkpt>
<trkpt lat="45.813926" lon="1.346098"><ele></ele><time>2014-6-3T15:11:8Z</time></trkpt>
<trkpt lat="45.813876" lon="1.34608"><ele></ele><time>2014-6-3T15:11:11Z</time></trkpt>
<trkpt lat="45.813831" lon="1.346051"><ele></ele><time>2014-6-3T15:11:14Z</time></trkpt>
<trkpt lat="45.81378" lon="1.346028"><ele></ele><time>2014-6-3T15:11:17Z</time></trkpt>
<trkpt lat="45.813707" lon="1.345981"><ele></ele><time>2014-6-3T15:11:20Z</time></trkpt>
<trkpt lat="45.813662" lon="1.34595"><ele></ele><time>2014-6-3T15:11:23Z</time></trkpt>
<trkpt lat="45.813618" lon="1.345918"><ele></ele><time>2014-6-3T15:11:26Z</time></trkpt>
<trkpt lat="45.81354" lon="1.345881"><ele></ele><time>2014-6-3T15:11:29Z</time></trkpt>
<trkpt lat="45.81348" lon="1.345859"><ele></ele><time>2014-6-3T15:11:32Z</time></trkpt>
<trkpt lat="45.813436" lon="1.345838"><ele></ele><time>2014-6-3T15:11:35Z</time></trkpt>
<trkpt lat="45.813356" lon="1.345803"><ele></ele><time>2014-6-3T15:11:38Z</time></trkpt>
<trkpt lat="45.813275" lon="1.345753"><ele></ele><time>2014-6-3T15:11:41Z</time></trkpt>
<trkpt lat="45.813231" lon="1.345735"><ele></ele><time>2014-6-3T15:11:44Z</time></trkpt>
<trkpt lat="45.813141" lon="1.345696"><ele></ele><time>2014-6-3T15:11:47Z</time></trkpt>
<trkpt lat="45.813089" lon="1.34567"><ele></ele><time>2014-6-3T15:11:50Z</time></trkpt>
<trkpt lat="45.813039" lon="1.345651"><ele></ele><time>2014-6-3T15:11:53Z</time></trkpt>
<trkpt lat="45.812991" lon="1.345634"><ele></ele><time>2014-6-3T15:11:56Z</time></trkpt>
<trkpt lat="45.812911" lon="1.345602"><ele></ele><time>2014-6-3T15:11:59Z</time></trkpt>
<trkpt lat="45.812832" lon="1.345573"><ele></ele><time>2014-6-3T15:12:2Z</time></trkpt>
<trkpt lat="45.812789" lon="1.345552"><ele></ele><time>2014-6-3T15:12:5Z</time></trkpt>
<trkpt lat="45.812745" lon="1.345532"><ele></ele><time>2014-6-3T15:12:8Z</time></trkpt>
<trkpt lat="45.812698" lon="1.34551"><ele></ele><time>2014-6-3T15:12:11Z</time></trkpt>
<trkpt lat="45.812611" lon="1.345488"><ele></ele><time>2014-6-3T15:12:14Z</time></trkpt>
<trkpt lat="45.812559" lon="1.345474"><ele></ele><time>2014-6-3T15:12:17Z</time></trkpt>
<trkpt lat="45.812466" lon="1.345437"><ele></ele><time>2014-6-3T15:12:20Z</time></trkpt>
<trkpt lat="45.812414" lon="1.345414"><ele></ele><time>2014-6-3T15:12:23Z</time></trkpt>
<trkpt lat="45.812331" lon="1.345372"><ele></ele><time>2014-6-3T15:12:26Z</time></trkpt>
<trkpt lat="45.812244" lon="1.345343"><ele></ele><time>2014-6-3T15:12:29Z</time></trkpt>
<trkpt lat="45.812147" lon="1.345311"><ele></ele><time>2014-6-3T15:12:32Z</time></trkpt>
<trkpt lat="45.812102" lon="1.345298"><ele></ele><time>2014-6-3T15:12:35Z</time></trkpt>
<trkpt lat="45.812028" lon="1.345269"><ele></ele><time>2014-6-3T15:12:38Z</time></trkpt>
<trkpt lat="45.811945" lon="1.345244"><ele></ele><time>2014-6-3T15:12:41Z</time></trkpt>
<trkpt lat="45.811867" lon="1.345218"><ele></ele><time>2014-6-3T15:12:44Z</time></trkpt>
<trkpt lat="45.811783" lon="1.345177"><ele></ele><time>2014-6-3T15:12:47Z</time></trkpt>
<trkpt lat="45.811738" lon="1.345152"><ele></ele><time>2014-6-3T15:12:50Z</time></trkpt>
<trkpt lat="45.811687" lon="1.345136"><ele></ele><time>2014-6-3T15:12:53Z</time></trkpt>
<trkpt lat="45.811608" lon="1.345106"><ele></ele><time>2014-6-3T15:12:56Z</time></trkpt>
<trkpt lat="45.811541" lon="1.345077"><ele></ele><time>2014-6-3T15:12:59Z</time></trkpt>
<trkpt lat="45.811465" lon="1.345034"><ele></ele><time>2014-6-3T15:13:2Z</time></trkpt>
<trkpt lat="45.811413" lon="1.345019"><ele></ele><time>2014-6-3T15:13:5Z</time></trkpt>
<trkpt lat="45.811341" lon="1.344984"><ele></ele><time>2014-6-3T15:13:8Z</time></trkpt>
<trkpt lat="45.811292" lon="1.344968"><ele></ele><time>2014-6-3T15:13:11Z</time></trkpt>
<trkpt lat="45.811225" lon="1.344931"><ele></ele><time>2014-6-3T15:13:14Z</time></trkpt>
<trkpt lat="45.811167" lon="1.344905"><ele></ele><time>2014-6-3T15:13:17Z</time></trkpt>
<trkpt lat="45.81112" lon="1.344885"><ele></ele><time>2014-6-3T15:13:20Z</time></trkpt>
<trkpt lat="45.811069" lon="1.34486"><ele></ele><time>2014-6-3T15:13:23Z</time></trkpt>
<trkpt lat="45.810983" lon="1.344822"><ele></ele><time>2014-6-3T15:13:26Z</time></trkpt>
<trkpt lat="45.810895" lon="1.344795"><ele></ele><time>2014-6-3T15:13:29Z</time></trkpt>
<trkpt lat="45.810846" lon="1.344774"><ele></ele><time>2014-6-3T15:13:32Z</time></trkpt>
<trkpt lat="45.810799" lon="1.344749"><ele></ele><time>2014-6-3T15:13:35Z</time></trkpt>
<trkpt lat="45.81075" lon="1.344731"><ele></ele><time>2014-6-3T15:13:38Z</time></trkpt>
<trkpt lat="45.810708" lon="1.344701"><ele></ele><time>2014-6-3T15:13:41Z</time></trkpt>
<trkpt lat="45.810661" lon="1.344677"><ele></ele><time>2014-6-3T15:13:44Z</time></trkpt>
<trkpt lat="45.810615" lon="1.344661"><ele></ele><time>2014-6-3T15:13:47Z</time></trkpt>
<trkpt lat="45.81054" lon="1.344623"><ele></ele><time>2014-6-3T15:13:50Z</time></trkpt>
<trkpt lat="45.810489" lon="1.344594"><ele></ele><time>2014-6-3T15:13:53Z</time></trkpt>
<trkpt lat="45.810443" lon="1.344586"><ele></ele><time>2014-6-3T15:13:56Z</time></trkpt>
<trkpt lat="45.810392" lon="1.34457"><ele></ele><time>2014-6-3T15:13:59Z</time></trkpt>
<trkpt lat="45.810353" lon="1.344536"><ele></ele><time>2014-6-3T15:14:2Z</time></trkpt>
<trkpt lat="45.8103" lon="1.344516"><ele></ele><time>2014-6-3T15:14:5Z</time></trkpt>
<trkpt lat="45.810254" lon="1.344497"><ele></ele><time>2014-6-3T15:14:8Z</time></trkpt>
<trkpt lat="45.810214" lon="1.344544"><ele></ele><time>2014-6-3T15:14:11Z</time></trkpt>
<trkpt lat="45.810182" lon="1.344615"><ele></ele><time>2014-6-3T15:14:14Z</time></trkpt>
<trkpt lat="45.810151" lon="1.344677"><ele></ele><time>2014-6-3T15:14:17Z</time></trkpt>
<trkpt lat="45.810113" lon="1.344762"><ele></ele><time>2014-6-3T15:14:20Z</time></trkpt>
<trkpt lat="45.810067" lon="1.344836"><ele></ele><time>2014-6-3T15:14:23Z</time></trkpt>
<trkpt lat="45.810037" lon="1.3449"><ele></ele><time>2014-6-3T15:14:26Z</time></trkpt>
<trkpt lat="45.810006" lon="1.344957"><ele></ele><time>2014-6-3T15:14:29Z</time></trkpt>
<trkpt lat="45.809944" lon="1.345004"><ele></ele><time>2014-6-3T15:14:32Z</time></trkpt>
<trkpt lat="45.809886" lon="1.345011"><ele></ele><time>2014-6-3T15:14:35Z</time></trkpt>
<trkpt lat="45.809816" lon="1.344994"><ele></ele><time>2014-6-3T15:14:38Z</time></trkpt>
<trkpt lat="45.809759" lon="1.344942"><ele></ele><time>2014-6-3T15:14:41Z</time></trkpt>
<trkpt lat="45.809715" lon="1.344887"><ele></ele><time>2014-6-3T15:14:44Z</time></trkpt>
<trkpt lat="45.809668" lon="1.344823"><ele></ele><time>2014-6-3T15:14:47Z</time></trkpt>
<trkpt lat="45.809622" lon="1.344771"><ele></ele><time>2014-6-3T15:14:50Z</time></trkpt>
<trkpt lat="45.809571" lon="1.344709"><ele></ele><time>2014-6-3T15:14:53Z</time></trkpt>
<trkpt lat="45.8095" lon="1.344653"><ele></ele><time>2014-6-3T15:14:56Z</time></trkpt>
<trkpt lat="45.809416" lon="1.344653"><ele></ele><time>2014-6-3T15:14:59Z</time></trkpt>
<trkpt lat="45.809334" lon="1.344696"><ele></ele><time>2014-6-3T15:15:2Z</time></trkpt>
<trkpt lat="45.809278" lon="1.344769"><ele></ele><time>2014-6-3T15:15:5Z</time></trkpt>
<trkpt lat="45.809191" lon="1.344863"><ele></ele><time>2014-6-3T15:15:8Z</time></trkpt>
<trkpt lat="45.809136" lon="1.344917"><ele></ele><time>2014-6-3T15:15:11Z</time></trkpt>
<trkpt lat="45.809076" lon="1.34495"><ele></ele><time>2014-6-3T15:15:14Z</time></trkpt>
<trkpt lat="45.809018" lon="1.344994"><ele></ele><time>2014-6-3T15:15:17Z</time></trkpt>
<trkpt lat="45.80897" lon="1.345026"><ele></ele><time>2014-6-3T15:15:20Z</time></trkpt>
<trkpt lat="45.808913" lon="1.345063"><ele></ele><time>2014-6-3T15:15:23Z</time></trkpt>
<trkpt lat="45.808848" lon="1.345102"><ele></ele><time>2014-6-3T15:15:26Z</time></trkpt>
<trkpt lat="45.808776" lon="1.345137"><ele></ele><time>2014-6-3T15:15:29Z</time></trkpt>
<trkpt lat="45.80871" lon="1.345166"><ele></ele><time>2014-6-3T15:15:32Z</time></trkpt>
<trkpt lat="45.808645" lon="1.345184"><ele></ele><time>2014-6-3T15:15:35Z</time></trkpt>
<trkpt lat="45.80858" lon="1.345229"><ele></ele><time>2014-6-3T15:15:38Z</time></trkpt>
<trkpt lat="45.808546" lon="1.345305"><ele></ele><time>2014-6-3T15:15:41Z</time></trkpt>
<trkpt lat="45.808544" lon="1.345384"><ele></ele><time>2014-6-3T15:15:44Z</time></trkpt>
<trkpt lat="45.808535" lon="1.345466"><ele></ele><time>2014-6-3T15:15:47Z</time></trkpt>
<trkpt lat="45.808501" lon="1.345537"><ele></ele><time>2014-6-3T15:15:50Z</time></trkpt>
<trkpt lat="45.808429" lon="1.345538"><ele></ele><time>2014-6-3T15:15:53Z</time></trkpt>
<trkpt lat="45.808357" lon="1.345516"><ele></ele><time>2014-6-3T15:15:56Z</time></trkpt>
<trkpt lat="45.808283" lon="1.345503"><ele></ele><time>2014-6-3T15:15:59Z</time></trkpt>
<trkpt lat="45.808218" lon="1.345498"><ele></ele><time>2014-6-3T15:16:2Z</time></trkpt>
<trkpt lat="45.808169" lon="1.345484"><ele></ele><time>2014-6-3T15:16:5Z</time></trkpt>
<trkpt lat="45.808092" lon="1.345472"><ele></ele><time>2014-6-3T15:16:8Z</time></trkpt>
<trkpt lat="45.808027" lon="1.345462"><ele></ele><time>2014-6-3T15:16:11Z</time></trkpt>
<trkpt lat="45.807957" lon="1.345465"><ele></ele><time>2014-6-3T15:16:14Z</time></trkpt>
<trkpt lat="45.807888" lon="1.345458"><ele></ele><time>2014-6-3T15:16:17Z</time></trkpt>
<trkpt lat="45.807828" lon="1.345439"><ele></ele><time>2014-6-3T15:16:20Z</time></trkpt>
<trkpt lat="45.807726" lon="1.345427"><ele></ele><time>2014-6-3T15:16:23Z</time></trkpt>
<trkpt lat="45.807676" lon="1.345419"><ele></ele><time>2014-6-3T15:16:26Z</time></trkpt>
<trkpt lat="45.807623" lon="1.345408"><ele></ele><time>2014-6-3T15:16:29Z</time></trkpt>
<trkpt lat="45.807578" lon="1.345387"><ele></ele><time>2014-6-3T15:16:32Z</time></trkpt>
<trkpt lat="45.807507" lon="1.345363"><ele></ele><time>2014-6-3T15:16:35Z</time></trkpt>
<trkpt lat="45.807429" lon="1.345321"><ele></ele><time>2014-6-3T15:16:38Z</time></trkpt>
<trkpt lat="45.807351" lon="1.345283"><ele></ele><time>2014-6-3T15:16:41Z</time></trkpt>
<trkpt lat="45.80727" lon="1.345274"><ele></ele><time>2014-6-3T15:16:44Z</time></trkpt>
<trkpt lat="45.807225" lon="1.34528"><ele></ele><time>2014-6-3T15:16:47Z</time></trkpt>
<trkpt lat="45.807176" lon="1.345268"><ele></ele><time>2014-6-3T15:16:50Z</time></trkpt>
<trkpt lat="45.807125" lon="1.345262"><ele></ele><time>2014-6-3T15:16:53Z</time></trkpt>
<trkpt lat="45.807075" lon="1.345275"><ele></ele><time>2014-6-3T15:16:56Z</time></trkpt>
<trkpt lat="45.807031" lon="1.345257"><ele></ele><time>2014-6-3T15:16:59Z</time></trkpt>
<trkpt lat="45.806952" lon="1.345226"><ele></ele><time>2014-6-3T15:17:2Z</time></trkpt>
<trkpt lat="45.806897" lon="1.345205"><ele></ele><time>2014-6-3T15:17:5Z</time></trkpt>
<trkpt lat="45.806797" lon="1.345192"><ele></ele><time>2014-6-3T15:17:8Z</time></trkpt>
<trkpt lat="45.806751" lon="1.345183"><ele></ele><time>2014-6-3T15:17:11Z</time></trkpt>
<trkpt lat="45.806705" lon="1.345169"><ele></ele><time>2014-6-3T15:17:14Z</time></trkpt>
<trkpt lat="45.806653" lon="1.345144"><ele></ele><time>2014-6-3T15:17:17Z</time></trkpt>
<trkpt lat="45.806579" lon="1.345145"><ele></ele><time>2014-6-3T15:17:20Z</time></trkpt>
<trkpt lat="45.806512" lon="1.345195"><ele></ele><time>2014-6-3T15:17:23Z</time></trkpt>
<trkpt lat="45.806502" lon="1.345295"><ele></ele><time>2014-6-3T15:17:26Z</time></trkpt>
<trkpt lat="45.806538" lon="1.345333"><ele></ele><time>2014-6-3T15:17:29Z</time></trkpt>
<trkpt lat="45.806543" lon="1.345454"><ele></ele><time>2014-6-3T15:17:32Z</time></trkpt>
<trkpt lat="45.806517" lon="1.345562"><ele></ele><time>2014-6-3T15:17:35Z</time></trkpt>
<trkpt lat="45.806497" lon="1.34568"><ele></ele><time>2014-6-3T15:17:38Z</time></trkpt>
<trkpt lat="45.806486" lon="1.345789"><ele></ele><time>2014-6-3T15:17:41Z</time></trkpt>
<trkpt lat="45.806484" lon="1.345912"><ele></ele><time>2014-6-3T15:17:44Z</time></trkpt>
<trkpt lat="45.806447" lon="1.34599"><ele></ele><time>2014-6-3T15:17:47Z</time></trkpt>
<trkpt lat="45.806444" lon="1.346066"><ele></ele><time>2014-6-3T15:17:50Z</time></trkpt>
<trkpt lat="45.80645" lon="1.346188"><ele></ele><time>2014-6-3T15:17:53Z</time></trkpt>
<trkpt lat="45.806463" lon="1.346256"><ele></ele><time>2014-6-3T15:17:56Z</time></trkpt>
<trkpt lat="45.806467" lon="1.346329"><ele></ele><time>2014-6-3T15:17:59Z</time></trkpt>
<trkpt lat="45.806457" lon="1.3464"><ele></ele><time>2014-6-3T15:18:2Z</time></trkpt>
<trkpt lat="45.806453" lon="1.346504"><ele></ele><time>2014-6-3T15:18:5Z</time></trkpt>
<trkpt lat="45.80645" lon="1.346649"><ele></ele><time>2014-6-3T15:18:8Z</time></trkpt>
<trkpt lat="45.806438" lon="1.346725"><ele></ele><time>2014-6-3T15:18:11Z</time></trkpt>
<trkpt lat="45.806432" lon="1.34679"><ele></ele><time>2014-6-3T15:18:14Z</time></trkpt>
<trkpt lat="45.806413" lon="1.346914"><ele></ele><time>2014-6-3T15:18:17Z</time></trkpt>
<trkpt lat="45.806416" lon="1.346986"><ele></ele><time>2014-6-3T15:18:20Z</time></trkpt>
<trkpt lat="45.806462" lon="1.347046"><ele></ele><time>2014-6-3T15:18:23Z</time></trkpt>
<trkpt lat="45.806454" lon="1.347112"><ele></ele><time>2014-6-3T15:18:26Z</time></trkpt>
<trkpt lat="45.806453" lon="1.347192"><ele></ele><time>2014-6-3T15:18:29Z</time></trkpt>
<trkpt lat="45.80646" lon="1.347305"><ele></ele><time>2014-6-3T15:18:32Z</time></trkpt>
<trkpt lat="45.806456" lon="1.347387"><ele></ele><time>2014-6-3T15:18:35Z</time></trkpt>
<trkpt lat="45.806453" lon="1.347458"><ele></ele><time>2014-6-3T15:18:38Z</time></trkpt>
<trkpt lat="45.806358" lon="1.347545"><ele></ele><time>2014-6-3T15:18:41Z</time></trkpt>
<trkpt lat="45.806343" lon="1.347613"><ele></ele><time>2014-6-3T15:18:44Z</time></trkpt>
<trkpt lat="45.806361" lon="1.347757"><ele></ele><time>2014-6-3T15:18:47Z</time></trkpt>
<trkpt lat="45.80639" lon="1.347851"><ele></ele><time>2014-6-3T15:18:50Z</time></trkpt>
<trkpt lat="45.806441" lon="1.347945"><ele></ele><time>2014-6-3T15:18:53Z</time></trkpt>
<trkpt lat="45.806556" lon="1.348053"><ele></ele><time>2014-6-3T15:18:56Z</time></trkpt>
<trkpt lat="45.806594" lon="1.348108"><ele></ele><time>2014-6-3T15:18:59Z</time></trkpt>
<trkpt lat="45.806642" lon="1.34815"><ele></ele><time>2014-6-3T15:19:2Z</time></trkpt>
<trkpt lat="45.806693" lon="1.348212"><ele></ele><time>2014-6-3T15:19:5Z</time></trkpt>
<trkpt lat="45.806741" lon="1.348271"><ele></ele><time>2014-6-3T15:19:8Z</time></trkpt>
<trkpt lat="45.806795" lon="1.348332"><ele></ele><time>2014-6-3T15:19:11Z</time></trkpt>
<trkpt lat="45.806837" lon="1.348381"><ele></ele><time>2014-6-3T15:19:14Z</time></trkpt>
<trkpt lat="45.806901" lon="1.348435"><ele></ele><time>2014-6-3T15:19:17Z</time></trkpt>
<trkpt lat="45.806948" lon="1.348473"><ele></ele><time>2014-6-3T15:19:20Z</time></trkpt>
<trkpt lat="45.806984" lon="1.348526"><ele></ele><time>2014-6-3T15:19:23Z</time></trkpt>
<trkpt lat="45.807033" lon="1.348645"><ele></ele><time>2014-6-3T15:19:26Z</time></trkpt>
<trkpt lat="45.807067" lon="1.348717"><ele></ele><time>2014-6-3T15:19:29Z</time></trkpt>
<trkpt lat="45.807097" lon="1.348786"><ele></ele><time>2014-6-3T15:19:32Z</time></trkpt>
<trkpt lat="45.807133" lon="1.348872"><ele></ele><time>2014-6-3T15:19:35Z</time></trkpt>
<trkpt lat="45.807161" lon="1.348971"><ele></ele><time>2014-6-3T15:19:38Z</time></trkpt>
<trkpt lat="45.807198" lon="1.34902"><ele></ele><time>2014-6-3T15:19:41Z</time></trkpt>
<trkpt lat="45.807239" lon="1.349093"><ele></ele><time>2014-6-3T15:19:44Z</time></trkpt>
<trkpt lat="45.807276" lon="1.349157"><ele></ele><time>2014-6-3T15:19:47Z</time></trkpt>
<trkpt lat="45.807319" lon="1.349219"><ele></ele><time>2014-6-3T15:19:50Z</time></trkpt>
<trkpt lat="45.807371" lon="1.349268"><ele></ele><time>2014-6-3T15:19:53Z</time></trkpt>
<trkpt lat="45.807445" lon="1.349335"><ele></ele><time>2014-6-3T15:19:56Z</time></trkpt>
<trkpt lat="45.807492" lon="1.349414"><ele></ele><time>2014-6-3T15:19:59Z</time></trkpt>
<trkpt lat="45.807536" lon="1.349483"><ele></ele><time>2014-6-3T15:20:2Z</time></trkpt>
<trkpt lat="45.807581" lon="1.349523"><ele></ele><time>2014-6-3T15:20:5Z</time></trkpt>
<trkpt lat="45.807654" lon="1.349597"><ele></ele><time>2014-6-3T15:20:8Z</time></trkpt>
<trkpt lat="45.807684" lon="1.349681"><ele></ele><time>2014-6-3T15:20:11Z</time></trkpt>
<trkpt lat="45.807711" lon="1.349737"><ele></ele><time>2014-6-3T15:20:14Z</time></trkpt>
<trkpt lat="45.80776" lon="1.349825"><ele></ele><time>2014-6-3T15:20:17Z</time></trkpt>
<trkpt lat="45.807807" lon="1.349906"><ele></ele><time>2014-6-3T15:20:20Z</time></trkpt>
<trkpt lat="45.807846" lon="1.349998"><ele></ele><time>2014-6-3T15:20:23Z</time></trkpt>
<trkpt lat="45.807893" lon="1.350048"><ele></ele><time>2014-6-3T15:20:26Z</time></trkpt>
<trkpt lat="45.80793" lon="1.350113"><ele></ele><time>2014-6-3T15:20:29Z</time></trkpt>
<trkpt lat="45.807972" lon="1.35018"><ele></ele><time>2014-6-3T15:20:32Z</time></trkpt>
<trkpt lat="45.808023" lon="1.350248"><ele></ele><time>2014-6-3T15:20:35Z</time></trkpt>
<trkpt lat="45.808075" lon="1.350304"><ele></ele><time>2014-6-3T15:20:38Z</time></trkpt>
<trkpt lat="45.808116" lon="1.350363"><ele></ele><time>2014-6-3T15:20:41Z</time></trkpt>
<trkpt lat="45.808151" lon="1.35041"><ele></ele><time>2014-6-3T15:20:44Z</time></trkpt>
<trkpt lat="45.808211" lon="1.350466"><ele></ele><time>2014-6-3T15:20:47Z</time></trkpt>
<trkpt lat="45.808238" lon="1.350524"><ele></ele><time>2014-6-3T15:20:50Z</time></trkpt>
<trkpt lat="45.808258" lon="1.350646"><ele></ele><time>2014-6-3T15:20:53Z</time></trkpt>
<trkpt lat="45.808249" lon="1.350733"><ele></ele><time>2014-6-3T15:20:56Z</time></trkpt>
<trkpt lat="45.808249" lon="1.3508"><ele></ele><time>2014-6-3T15:20:59Z</time></trkpt>
<trkpt lat="45.808245" lon="1.350876"><ele></ele><time>2014-6-3T15:21:2Z</time></trkpt>
<trkpt lat="45.808232" lon="1.350958"><ele></ele><time>2014-6-3T15:21:5Z</time></trkpt>
<trkpt lat="45.808196" lon="1.351042"><ele></ele><time>2014-6-3T15:21:8Z</time></trkpt>
<trkpt lat="45.808178" lon="1.351129"><ele></ele><time>2014-6-3T15:21:11Z</time></trkpt>
<trkpt lat="45.808158" lon="1.351214"><ele></ele><time>2014-6-3T15:21:14Z</time></trkpt>
<trkpt lat="45.808135" lon="1.351308"><ele></ele><time>2014-6-3T15:21:17Z</time></trkpt>
<trkpt lat="45.808119" lon="1.351387"><ele></ele><time>2014-6-3T15:21:20Z</time></trkpt>
<trkpt lat="45.808109" lon="1.351477"><ele></ele><time>2014-6-3T15:21:23Z</time></trkpt>
<trkpt lat="45.808095" lon="1.351563"><ele></ele><time>2014-6-3T15:21:26Z</time></trkpt>
<trkpt lat="45.808081" lon="1.351657"><ele></ele><time>2014-6-3T15:21:29Z</time></trkpt>
<trkpt lat="45.808052" lon="1.351746"><ele></ele><time>2014-6-3T15:21:32Z</time></trkpt>
<trkpt lat="45.808049" lon="1.351835"><ele></ele><time>2014-6-3T15:21:35Z</time></trkpt>
<trkpt lat="45.80804" lon="1.352012"><ele></ele><time>2014-6-3T15:21:38Z</time></trkpt>
<trkpt lat="45.80801" lon="1.35211"><ele></ele><time>2014-6-3T15:21:41Z</time></trkpt>
<trkpt lat="45.807997" lon="1.352197"><ele></ele><time>2014-6-3T15:21:44Z</time></trkpt>
<trkpt lat="45.807997" lon="1.352197"><ele></ele><time>2014-6-3T15:21:47Z</time></trkpt>
<trkpt lat="45.807976" lon="1.352292"><ele></ele><time>2014-6-3T15:21:50Z</time></trkpt>
<trkpt lat="45.807961" lon="1.352385"><ele></ele><time>2014-6-3T15:21:53Z</time></trkpt>
<trkpt lat="45.807956" lon="1.35247"><ele></ele><time>2014-6-3T15:21:56Z</time></trkpt>
<trkpt lat="45.807949" lon="1.352556"><ele></ele><time>2014-6-3T15:21:59Z</time></trkpt>
<trkpt lat="45.807927" lon="1.352622"><ele></ele><time>2014-6-3T15:22:2Z</time></trkpt>
<trkpt lat="45.807905" lon="1.352695"><ele></ele><time>2014-6-3T15:22:5Z</time></trkpt>
<trkpt lat="45.807871" lon="1.352746"><ele></ele><time>2014-6-3T15:22:8Z</time></trkpt>
<trkpt lat="45.807823" lon="1.352762"><ele></ele><time>2014-6-3T15:22:11Z</time></trkpt>
<trkpt lat="45.807778" lon="1.3528"><ele></ele><time>2014-6-3T15:22:14Z</time></trkpt>
<trkpt lat="45.80774" lon="1.35284"><ele></ele><time>2014-6-3T15:22:17Z</time></trkpt>
<trkpt lat="45.807677" lon="1.352929"><ele></ele><time>2014-6-3T15:22:20Z</time></trkpt>
<trkpt lat="45.807649" lon="1.352982"><ele></ele><time>2014-6-3T15:22:23Z</time></trkpt>
<trkpt lat="45.807603" lon="1.353038"><ele></ele><time>2014-6-3T15:22:26Z</time></trkpt>
<trkpt lat="45.807566" lon="1.35311"><ele></ele><time>2014-6-3T15:22:29Z</time></trkpt>
<trkpt lat="45.807525" lon="1.353181"><ele></ele><time>2014-6-3T15:22:32Z</time></trkpt>
<trkpt lat="45.807485" lon="1.353243"><ele></ele><time>2014-6-3T15:22:35Z</time></trkpt>
<trkpt lat="45.807442" lon="1.353312"><ele></ele><time>2014-6-3T15:22:38Z</time></trkpt>
<trkpt lat="45.8074" lon="1.353384"><ele></ele><time>2014-6-3T15:22:41Z</time></trkpt>
<trkpt lat="45.807365" lon="1.353461"><ele></ele><time>2014-6-3T15:22:44Z</time></trkpt>
<trkpt lat="45.807321" lon="1.353525"><ele></ele><time>2014-6-3T15:22:47Z</time></trkpt>
<trkpt lat="45.807287" lon="1.353588"><ele></ele><time>2014-6-3T15:22:50Z</time></trkpt>
<trkpt lat="45.807228" lon="1.353667"><ele></ele><time>2014-6-3T15:22:53Z</time></trkpt>
<trkpt lat="45.807178" lon="1.353743"><ele></ele><time>2014-6-3T15:22:56Z</time></trkpt>
<trkpt lat="45.807128" lon="1.353809"><ele></ele><time>2014-6-3T15:22:59Z</time></trkpt>
<trkpt lat="45.807077" lon="1.353893"><ele></ele><time>2014-6-3T15:23:2Z</time></trkpt>
<trkpt lat="45.807029" lon="1.353998"><ele></ele><time>2014-6-3T15:23:5Z</time></trkpt>
<trkpt lat="45.806981" lon="1.354107"><ele></ele><time>2014-6-3T15:23:8Z</time></trkpt>
<trkpt lat="45.806933" lon="1.354213"><ele></ele><time>2014-6-3T15:23:11Z</time></trkpt>
<trkpt lat="45.806894" lon="1.35431"><ele></ele><time>2014-6-3T15:23:14Z</time></trkpt>
<trkpt lat="45.806853" lon="1.354415"><ele></ele><time>2014-6-3T15:23:17Z</time></trkpt>
<trkpt lat="45.806816" lon="1.354515"><ele></ele><time>2014-6-3T15:23:20Z</time></trkpt>
<trkpt lat="45.806783" lon="1.354608"><ele></ele><time>2014-6-3T15:23:23Z</time></trkpt>
<trkpt lat="45.806754" lon="1.354695"><ele></ele><time>2014-6-3T15:23:26Z</time></trkpt>
<trkpt lat="45.806725" lon="1.354776"><ele></ele><time>2014-6-3T15:23:29Z</time></trkpt>
<trkpt lat="45.80669" lon="1.354852"><ele></ele><time>2014-6-3T15:23:32Z</time></trkpt>
<trkpt lat="45.806659" lon="1.35493"><ele></ele><time>2014-6-3T15:23:35Z</time></trkpt>
<trkpt lat="45.806616" lon="1.35502"><ele></ele><time>2014-6-3T15:23:38Z</time></trkpt>
<trkpt lat="45.80658" lon="1.355103"><ele></ele><time>2014-6-3T15:23:41Z</time></trkpt>
<trkpt lat="45.806551" lon="1.355188"><ele></ele><time>2014-6-3T15:23:44Z</time></trkpt>
<trkpt lat="45.806521" lon="1.355295"><ele></ele><time>2014-6-3T15:23:47Z</time></trkpt>
<trkpt lat="45.806492" lon="1.355394"><ele></ele><time>2014-6-3T15:23:50Z</time></trkpt>
<trkpt lat="45.80646" lon="1.355513"><ele></ele><time>2014-6-3T15:23:53Z</time></trkpt>
<trkpt lat="45.806428" lon="1.355647"><ele></ele><time>2014-6-3T15:23:56Z</time></trkpt>
<trkpt lat="45.806391" lon="1.355775"><ele></ele><time>2014-6-3T15:23:59Z</time></trkpt>
<trkpt lat="45.80635" lon="1.355917"><ele></ele><time>2014-6-3T15:24:2Z</time></trkpt>
<trkpt lat="45.806304" lon="1.356048"><ele></ele><time>2014-6-3T15:24:5Z</time></trkpt>
<trkpt lat="45.806267" lon="1.356158"><ele></ele><time>2014-6-3T15:24:8Z</time></trkpt>
<trkpt lat="45.806244" lon="1.356268"><ele></ele><time>2014-6-3T15:24:11Z</time></trkpt>
<trkpt lat="45.806208" lon="1.356383"><ele></ele><time>2014-6-3T15:24:14Z</time></trkpt>
<trkpt lat="45.806141" lon="1.356455"><ele></ele><time>2014-6-3T15:24:17Z</time></trkpt>
<trkpt lat="45.806078" lon="1.356541"><ele></ele><time>2014-6-3T15:24:20Z</time></trkpt>
<trkpt lat="45.805974" lon="1.356566"><ele></ele><time>2014-6-3T15:24:23Z</time></trkpt>
<trkpt lat="45.805912" lon="1.356586"><ele></ele><time>2014-6-3T15:24:26Z</time></trkpt>
<trkpt lat="45.805833" lon="1.356583"><ele></ele><time>2014-6-3T15:24:29Z</time></trkpt>
<trkpt lat="45.805693" lon="1.356566"><ele></ele><time>2014-6-3T15:24:32Z</time></trkpt>
<trkpt lat="45.805623" lon="1.356546"><ele></ele><time>2014-6-3T15:24:35Z</time></trkpt>
<trkpt lat="45.805566" lon="1.35655"><ele></ele><time>2014-6-3T15:24:38Z</time></trkpt>
<trkpt lat="45.805487" lon="1.356573"><ele></ele><time>2014-6-3T15:24:41Z</time></trkpt>
<trkpt lat="45.805442" lon="1.356593"><ele></ele><time>2014-6-3T15:24:44Z</time></trkpt>
<trkpt lat="45.805405" lon="1.356638"><ele></ele><time>2014-6-3T15:24:47Z</time></trkpt>
<trkpt lat="45.805339" lon="1.356715"><ele></ele><time>2014-6-3T15:24:50Z</time></trkpt>
<trkpt lat="45.805253" lon="1.356806"><ele></ele><time>2014-6-3T15:24:53Z</time></trkpt>
<trkpt lat="45.805213" lon="1.356852"><ele></ele><time>2014-6-3T15:24:56Z</time></trkpt>
<trkpt lat="45.805156" lon="1.356918"><ele></ele><time>2014-6-3T15:24:59Z</time></trkpt>
<trkpt lat="45.805101" lon="1.357"><ele></ele><time>2014-6-3T15:25:2Z</time></trkpt>
<trkpt lat="45.805064" lon="1.357056"><ele></ele><time>2014-6-3T15:25:5Z</time></trkpt>
<trkpt lat="45.80504" lon="1.357118"><ele></ele><time>2014-6-3T15:25:8Z</time></trkpt>
<trkpt lat="45.804988" lon="1.357203"><ele></ele><time>2014-6-3T15:25:11Z</time></trkpt>
<trkpt lat="45.80492" lon="1.357283"><ele></ele><time>2014-6-3T15:25:14Z</time></trkpt>
<trkpt lat="45.804876" lon="1.357347"><ele></ele><time>2014-6-3T15:25:17Z</time></trkpt>
<trkpt lat="45.804832" lon="1.357405"><ele></ele><time>2014-6-3T15:25:20Z</time></trkpt>
<trkpt lat="45.804787" lon="1.357472"><ele></ele><time>2014-6-3T15:25:23Z</time></trkpt>
<trkpt lat="45.804777" lon="1.357544"><ele></ele><time>2014-6-3T15:25:26Z</time></trkpt>
<trkpt lat="45.804754" lon="1.357627"><ele></ele><time>2014-6-3T15:25:29Z</time></trkpt>
<trkpt lat="45.80472" lon="1.357727"><ele></ele><time>2014-6-3T15:25:32Z</time></trkpt>
<trkpt lat="45.804684" lon="1.357826"><ele></ele><time>2014-6-3T15:25:35Z</time></trkpt>
<trkpt lat="45.804651" lon="1.357926"><ele></ele><time>2014-6-3T15:25:38Z</time></trkpt>
<trkpt lat="45.804614" lon="1.358022"><ele></ele><time>2014-6-3T15:25:41Z</time></trkpt>
<trkpt lat="45.804576" lon="1.358123"><ele></ele><time>2014-6-3T15:25:44Z</time></trkpt>
<trkpt lat="45.804545" lon="1.358183"><ele></ele><time>2014-6-3T15:25:47Z</time></trkpt>
<trkpt lat="45.804495" lon="1.358251"><ele></ele><time>2014-6-3T15:25:50Z</time></trkpt>
<trkpt lat="45.804455" lon="1.358344"><ele></ele><time>2014-6-3T15:25:53Z</time></trkpt>
<trkpt lat="45.804426" lon="1.358397"><ele></ele><time>2014-6-3T15:25:56Z</time></trkpt>
<trkpt lat="45.80437" lon="1.358484"><ele></ele><time>2014-6-3T15:25:59Z</time></trkpt>
<trkpt lat="45.804309" lon="1.358574"><ele></ele><time>2014-6-3T15:26:2Z</time></trkpt>
<trkpt lat="45.804258" lon="1.358687"><ele></ele><time>2014-6-3T15:26:5Z</time></trkpt>
<trkpt lat="45.804219" lon="1.358797"><ele></ele><time>2014-6-3T15:26:8Z</time></trkpt>
<trkpt lat="45.804192" lon="1.358854"><ele></ele><time>2014-6-3T15:26:11Z</time></trkpt>
<trkpt lat="45.804165" lon="1.358937"><ele></ele><time>2014-6-3T15:26:14Z</time></trkpt>
<trkpt lat="45.804144" lon="1.358994"><ele></ele><time>2014-6-3T15:26:17Z</time></trkpt>
<trkpt lat="45.804122" lon="1.359062"><ele></ele><time>2014-6-3T15:26:20Z</time></trkpt>
<trkpt lat="45.804094" lon="1.359129"><ele></ele><time>2014-6-3T15:26:23Z</time></trkpt>
<trkpt lat="45.804074" lon="1.359224"><ele></ele><time>2014-6-3T15:26:26Z</time></trkpt>
<trkpt lat="45.804031" lon="1.359321"><ele></ele><time>2014-6-3T15:26:29Z</time></trkpt>
<trkpt lat="45.803998" lon="1.35939"><ele></ele><time>2014-6-3T15:26:32Z</time></trkpt>
<trkpt lat="45.803946" lon="1.359467"><ele></ele><time>2014-6-3T15:26:35Z</time></trkpt>
<trkpt lat="45.803906" lon="1.359547"><ele></ele><time>2014-6-3T15:26:38Z</time></trkpt>
<trkpt lat="45.803862" lon="1.359607"><ele></ele><time>2014-6-3T15:26:41Z</time></trkpt>
<trkpt lat="45.803815" lon="1.359657"><ele></ele><time>2014-6-3T15:26:44Z</time></trkpt>
<trkpt lat="45.803759" lon="1.35974"><ele></ele><time>2014-6-3T15:26:47Z</time></trkpt>
<trkpt lat="45.803723" lon="1.35978"><ele></ele><time>2014-6-3T15:26:50Z</time></trkpt>
<trkpt lat="45.803689" lon="1.359833"><ele></ele><time>2014-6-3T15:26:53Z</time></trkpt>
<trkpt lat="45.803625" lon="1.359911"><ele></ele><time>2014-6-3T15:26:56Z</time></trkpt>
<trkpt lat="45.803576" lon="1.359971"><ele></ele><time>2014-6-3T15:26:59Z</time></trkpt>
<trkpt lat="45.803532" lon="1.360005"><ele></ele><time>2014-6-3T15:27:2Z</time></trkpt>
<trkpt lat="45.803479" lon="1.360039"><ele></ele><time>2014-6-3T15:27:5Z</time></trkpt>
<trkpt lat="45.80344" lon="1.360089"><ele></ele><time>2014-6-3T15:27:8Z</time></trkpt>
<trkpt lat="45.803405" lon="1.360135"><ele></ele><time>2014-6-3T15:27:11Z</time></trkpt>
<trkpt lat="45.803358" lon="1.360179"><ele></ele><time>2014-6-3T15:27:14Z</time></trkpt>
<trkpt lat="45.803304" lon="1.360225"><ele></ele><time>2014-6-3T15:27:17Z</time></trkpt>
<trkpt lat="45.803235" lon="1.360268"><ele></ele><time>2014-6-3T15:27:20Z</time></trkpt>
<trkpt lat="45.803194" lon="1.360318"><ele></ele><time>2014-6-3T15:27:23Z</time></trkpt>
<trkpt lat="45.803165" lon="1.360372"><ele></ele><time>2014-6-3T15:27:26Z</time></trkpt>
<trkpt lat="45.803123" lon="1.360432"><ele></ele><time>2014-6-3T15:27:29Z</time></trkpt>
<trkpt lat="45.803077" lon="1.360513"><ele></ele><time>2014-6-3T15:27:32Z</time></trkpt>
<trkpt lat="45.803054" lon="1.360583"><ele></ele><time>2014-6-3T15:27:35Z</time></trkpt>
<trkpt lat="45.803028" lon="1.360645"><ele></ele><time>2014-6-3T15:27:38Z</time></trkpt>
<trkpt lat="45.802995" lon="1.360709"><ele></ele><time>2014-6-3T15:27:41Z</time></trkpt>
<trkpt lat="45.802953" lon="1.360774"><ele></ele><time>2014-6-3T15:27:44Z</time></trkpt>
<trkpt lat="45.80292" lon="1.360842"><ele></ele><time>2014-6-3T15:27:47Z</time></trkpt>
<trkpt lat="45.802897" lon="1.360907"><ele></ele><time>2014-6-3T15:27:50Z</time></trkpt>
<trkpt lat="45.802858" lon="1.360974"><ele></ele><time>2014-6-3T15:27:53Z</time></trkpt>
<trkpt lat="45.802821" lon="1.361023"><ele></ele><time>2014-6-3T15:27:56Z</time></trkpt>
<trkpt lat="45.802766" lon="1.361073"><ele></ele><time>2014-6-3T15:27:59Z</time></trkpt>
<trkpt lat="45.802715" lon="1.361135"><ele></ele><time>2014-6-3T15:28:2Z</time></trkpt>
<trkpt lat="45.802667" lon="1.361179"><ele></ele><time>2014-6-3T15:28:5Z</time></trkpt>
<trkpt lat="45.802693" lon="1.36125"><ele></ele><time>2014-6-3T15:28:8Z</time></trkpt>
<trkpt lat="45.802711" lon="1.361328"><ele></ele><time>2014-6-3T15:28:11Z</time></trkpt>
<trkpt lat="45.802764" lon="1.361392"><ele></ele><time>2014-6-3T15:28:14Z</time></trkpt>
<trkpt lat="45.802726" lon="1.361466"><ele></ele><time>2014-6-3T15:28:17Z</time></trkpt>
<trkpt lat="45.802691" lon="1.361521"><ele></ele><time>2014-6-3T15:28:20Z</time></trkpt>
<trkpt lat="45.802651" lon="1.36158"><ele></ele><time>2014-6-3T15:28:23Z</time></trkpt>
<trkpt lat="45.802623" lon="1.361638"><ele></ele><time>2014-6-3T15:28:26Z</time></trkpt>
<trkpt lat="45.802578" lon="1.361689"><ele></ele><time>2014-6-3T15:28:29Z</time></trkpt>
<trkpt lat="45.80254" lon="1.361744"><ele></ele><time>2014-6-3T15:28:32Z</time></trkpt>
<trkpt lat="45.802501" lon="1.361792"><ele></ele><time>2014-6-3T15:28:35Z</time></trkpt>
<trkpt lat="45.802463" lon="1.361833"><ele></ele><time>2014-6-3T15:28:38Z</time></trkpt>
<trkpt lat="45.802394" lon="1.361886"><ele></ele><time>2014-6-3T15:28:41Z</time></trkpt>
<trkpt lat="45.802327" lon="1.361947"><ele></ele><time>2014-6-3T15:28:44Z</time></trkpt>
<trkpt lat="45.802259" lon="1.361977"><ele></ele><time>2014-6-3T15:28:47Z</time></trkpt>
<trkpt lat="45.802211" lon="1.362059"><ele></ele><time>2014-6-3T15:28:50Z</time></trkpt>
<trkpt lat="45.802174" lon="1.362129"><ele></ele><time>2014-6-3T15:28:53Z</time></trkpt>
<trkpt lat="45.80214" lon="1.362193"><ele></ele><time>2014-6-3T15:28:56Z</time></trkpt>
<trkpt lat="45.802111" lon="1.362258"><ele></ele><time>2014-6-3T15:28:59Z</time></trkpt>
<trkpt lat="45.80207" lon="1.362321"><ele></ele><time>2014-6-3T15:29:2Z</time></trkpt>
<trkpt lat="45.802038" lon="1.362387"><ele></ele><time>2014-6-3T15:29:5Z</time></trkpt>
<trkpt lat="45.802002" lon="1.362437"><ele></ele><time>2014-6-3T15:29:8Z</time></trkpt>
<trkpt lat="45.801979" lon="1.362492"><ele></ele><time>2014-6-3T15:29:11Z</time></trkpt>
<trkpt lat="45.801928" lon="1.362551"><ele></ele><time>2014-6-3T15:29:14Z</time></trkpt>
<trkpt lat="45.801885" lon="1.362623"><ele></ele><time>2014-6-3T15:29:17Z</time></trkpt>
<trkpt lat="45.80184" lon="1.362686"><ele></ele><time>2014-6-3T15:29:20Z</time></trkpt>
<trkpt lat="45.801809" lon="1.36277"><ele></ele><time>2014-6-3T15:29:23Z</time></trkpt>
<trkpt lat="45.801766" lon="1.362833"><ele></ele><time>2014-6-3T15:29:26Z</time></trkpt>
<trkpt lat="45.801732" lon="1.362905"><ele></ele><time>2014-6-3T15:29:29Z</time></trkpt>
<trkpt lat="45.801685" lon="1.362973"><ele></ele><time>2014-6-3T15:29:32Z</time></trkpt>
<trkpt lat="45.801656" lon="1.363034"><ele></ele><time>2014-6-3T15:29:35Z</time></trkpt>
<trkpt lat="45.801632" lon="1.36309"><ele></ele><time>2014-6-3T15:29:38Z</time></trkpt>
<trkpt lat="45.8016" lon="1.363156"><ele></ele><time>2014-6-3T15:29:41Z</time></trkpt>
<trkpt lat="45.801567" lon="1.363223"><ele></ele><time>2014-6-3T15:29:44Z</time></trkpt>
<trkpt lat="45.801536" lon="1.36329"><ele></ele><time>2014-6-3T15:29:47Z</time></trkpt>
<trkpt lat="45.801496" lon="1.363354"><ele></ele><time>2014-6-3T15:29:50Z</time></trkpt>
<trkpt lat="45.801466" lon="1.363417"><ele></ele><time>2014-6-3T15:29:53Z</time></trkpt>
<trkpt lat="45.801437" lon="1.363479"><ele></ele><time>2014-6-3T15:29:56Z</time></trkpt>
<trkpt lat="45.801395" lon="1.363542"><ele></ele><time>2014-6-3T15:29:59Z</time></trkpt>
<trkpt lat="45.801374" lon="1.363626"><ele></ele><time>2014-6-3T15:30:2Z</time></trkpt>
<trkpt lat="45.801342" lon="1.363682"><ele></ele><time>2014-6-3T15:30:5Z</time></trkpt>
<trkpt lat="45.801296" lon="1.363727"><ele></ele><time>2014-6-3T15:30:8Z</time></trkpt>
<trkpt lat="45.801274" lon="1.363822"><ele></ele><time>2014-6-3T15:30:11Z</time></trkpt>
<trkpt lat="45.801246" lon="1.363896"><ele></ele><time>2014-6-3T15:30:14Z</time></trkpt>
<trkpt lat="45.801207" lon="1.363967"><ele></ele><time>2014-6-3T15:30:17Z</time></trkpt>
<trkpt lat="45.80118" lon="1.364035"><ele></ele><time>2014-6-3T15:30:20Z</time></trkpt>
<trkpt lat="45.801138" lon="1.364083"><ele></ele><time>2014-6-3T15:30:23Z</time></trkpt>
<trkpt lat="45.801113" lon="1.364153"><ele></ele><time>2014-6-3T15:30:26Z</time></trkpt>
<trkpt lat="45.801058" lon="1.364205"><ele></ele><time>2014-6-3T15:30:29Z</time></trkpt>
<trkpt lat="45.801008" lon="1.364273"><ele></ele><time>2014-6-3T15:30:32Z</time></trkpt>
<trkpt lat="45.800969" lon="1.364328"><ele></ele><time>2014-6-3T15:30:35Z</time></trkpt>
<trkpt lat="45.80094" lon="1.364397"><ele></ele><time>2014-6-3T15:30:38Z</time></trkpt>
<trkpt lat="45.800874" lon="1.364467"><ele></ele><time>2014-6-3T15:30:41Z</time></trkpt>
<trkpt lat="45.800838" lon="1.364532"><ele></ele><time>2014-6-3T15:30:44Z</time></trkpt>
<trkpt lat="45.800789" lon="1.36458"><ele></ele><time>2014-6-3T15:30:47Z</time></trkpt>
<trkpt lat="45.800749" lon="1.364647"><ele></ele><time>2014-6-3T15:30:50Z</time></trkpt>
<trkpt lat="45.800711" lon="1.364683"><ele></ele><time>2014-6-3T15:30:53Z</time></trkpt>
<trkpt lat="45.800655" lon="1.364737"><ele></ele><time>2014-6-3T15:30:56Z</time></trkpt>
<trkpt lat="45.80061" lon="1.364786"><ele></ele><time>2014-6-3T15:30:59Z</time></trkpt>
<trkpt lat="45.800544" lon="1.364851"><ele></ele><time>2014-6-3T15:31:2Z</time></trkpt>
<trkpt lat="45.800494" lon="1.36487"><ele></ele><time>2014-6-3T15:31:5Z</time></trkpt>
<trkpt lat="45.800431" lon="1.364917"><ele></ele><time>2014-6-3T15:31:8Z</time></trkpt>
<trkpt lat="45.800374" lon="1.364992"><ele></ele><time>2014-6-3T15:31:11Z</time></trkpt>
<trkpt lat="45.800309" lon="1.365054"><ele></ele><time>2014-6-3T15:31:14Z</time></trkpt>
<trkpt lat="45.800265" lon="1.365115"><ele></ele><time>2014-6-3T15:31:17Z</time></trkpt>
<trkpt lat="45.800204" lon="1.365202"><ele></ele><time>2014-6-3T15:31:20Z</time></trkpt>
<trkpt lat="45.800137" lon="1.365296"><ele></ele><time>2014-6-3T15:31:23Z</time></trkpt>
<trkpt lat="45.800088" lon="1.365396"><ele></ele><time>2014-6-3T15:31:26Z</time></trkpt>
<trkpt lat="45.800066" lon="1.365455"><ele></ele><time>2014-6-3T15:31:29Z</time></trkpt>
<trkpt lat="45.800038" lon="1.365507"><ele></ele><time>2014-6-3T15:31:32Z</time></trkpt>
<trkpt lat="45.799997" lon="1.365567"><ele></ele><time>2014-6-3T15:31:35Z</time></trkpt>
<trkpt lat="45.799963" lon="1.365631"><ele></ele><time>2014-6-3T15:31:38Z</time></trkpt>
<trkpt lat="45.799932" lon="1.365686"><ele></ele><time>2014-6-3T15:31:41Z</time></trkpt>
<trkpt lat="45.799902" lon="1.365742"><ele></ele><time>2014-6-3T15:31:44Z</time></trkpt>
<trkpt lat="45.799853" lon="1.365832"><ele></ele><time>2014-6-3T15:31:47Z</time></trkpt>
<trkpt lat="45.799822" lon="1.365881"><ele></ele><time>2014-6-3T15:31:50Z</time></trkpt>
<trkpt lat="45.799766" lon="1.365976"><ele></ele><time>2014-6-3T15:31:53Z</time></trkpt>
<trkpt lat="45.799737" lon="1.366026"><ele></ele><time>2014-6-3T15:31:56Z</time></trkpt>
<trkpt lat="45.799684" lon="1.366113"><ele></ele><time>2014-6-3T15:31:59Z</time></trkpt>
<trkpt lat="45.799623" lon="1.3662"><ele></ele><time>2014-6-3T15:32:2Z</time></trkpt>
<trkpt lat="45.799601" lon="1.366271"><ele></ele><time>2014-6-3T15:32:5Z</time></trkpt>
<trkpt lat="45.799535" lon="1.366365"><ele></ele><time>2014-6-3T15:32:8Z</time></trkpt>
<trkpt lat="45.799477" lon="1.366436"><ele></ele><time>2014-6-3T15:32:11Z</time></trkpt>
<trkpt lat="45.799443" lon="1.366485"><ele></ele><time>2014-6-3T15:32:14Z</time></trkpt>
<trkpt lat="45.799386" lon="1.366572"><ele></ele><time>2014-6-3T15:32:17Z</time></trkpt>
<trkpt lat="45.799359" lon="1.366626"><ele></ele><time>2014-6-3T15:32:20Z</time></trkpt>
<trkpt lat="45.799326" lon="1.36668"><ele></ele><time>2014-6-3T15:32:23Z</time></trkpt>
<trkpt lat="45.799275" lon="1.366759"><ele></ele><time>2014-6-3T15:32:26Z</time></trkpt>
<trkpt lat="45.799213" lon="1.366855"><ele></ele><time>2014-6-3T15:32:29Z</time></trkpt>
<trkpt lat="45.799175" lon="1.36694"><ele></ele><time>2014-6-3T15:32:32Z</time></trkpt>
<trkpt lat="45.799122" lon="1.367024"><ele></ele><time>2014-6-3T15:32:35Z</time></trkpt>
<trkpt lat="45.799071" lon="1.367114"><ele></ele><time>2014-6-3T15:32:38Z</time></trkpt>
<trkpt lat="45.799013" lon="1.367203"><ele></ele><time>2014-6-3T15:32:41Z</time></trkpt>
<trkpt lat="45.79895" lon="1.3673"><ele></ele><time>2014-6-3T15:32:44Z</time></trkpt>
<trkpt lat="45.798898" lon="1.367369"><ele></ele><time>2014-6-3T15:32:47Z</time></trkpt>
<trkpt lat="45.798846" lon="1.367447"><ele></ele><time>2014-6-3T15:32:50Z</time></trkpt>
<trkpt lat="45.798789" lon="1.367538"><ele></ele><time>2014-6-3T15:32:53Z</time></trkpt>
<trkpt lat="45.798759" lon="1.367588"><ele></ele><time>2014-6-3T15:32:56Z</time></trkpt>
<trkpt lat="45.798712" lon="1.367669"><ele></ele><time>2014-6-3T15:32:59Z</time></trkpt>
<trkpt lat="45.798659" lon="1.367757"><ele></ele><time>2014-6-3T15:33:2Z</time></trkpt>
<trkpt lat="45.798631" lon="1.367831"><ele></ele><time>2014-6-3T15:33:5Z</time></trkpt>
<trkpt lat="45.798602" lon="1.3679"><ele></ele><time>2014-6-3T15:33:8Z</time></trkpt>
<trkpt lat="45.798563" lon="1.367994"><ele></ele><time>2014-6-3T15:33:11Z</time></trkpt>
<trkpt lat="45.798518" lon="1.368043"><ele></ele><time>2014-6-3T15:33:14Z</time></trkpt>
<trkpt lat="45.798473" lon="1.368115"><ele></ele><time>2014-6-3T15:33:17Z</time></trkpt>
<trkpt lat="45.798469" lon="1.36819"><ele></ele><time>2014-6-3T15:33:20Z</time></trkpt>
<trkpt lat="45.79844" lon="1.368296"><ele></ele><time>2014-6-3T15:33:23Z</time></trkpt>
<trkpt lat="45.798432" lon="1.368388"><ele></ele><time>2014-6-3T15:33:26Z</time></trkpt>
<trkpt lat="45.798399" lon="1.368472"><ele></ele><time>2014-6-3T15:33:29Z</time></trkpt>
<trkpt lat="45.798354" lon="1.368576"><ele></ele><time>2014-6-3T15:33:32Z</time></trkpt>
<trkpt lat="45.798333" lon="1.368636"><ele></ele><time>2014-6-3T15:33:35Z</time></trkpt>
<trkpt lat="45.798308" lon="1.368692"><ele></ele><time>2014-6-3T15:33:38Z</time></trkpt>
<trkpt lat="45.798276" lon="1.368752"><ele></ele><time>2014-6-3T15:33:41Z</time></trkpt>
<trkpt lat="45.798245" lon="1.368807"><ele></ele><time>2014-6-3T15:33:44Z</time></trkpt>
<trkpt lat="45.798217" lon="1.368918"><ele></ele><time>2014-6-3T15:33:47Z</time></trkpt>
<trkpt lat="45.798176" lon="1.368971"><ele></ele><time>2014-6-3T15:33:50Z</time></trkpt>
<trkpt lat="45.798159" lon="1.369062"><ele></ele><time>2014-6-3T15:33:53Z</time></trkpt>
<trkpt lat="45.798108" lon="1.369157"><ele></ele><time>2014-6-3T15:33:56Z</time></trkpt>
<trkpt lat="45.79807" lon="1.369241"><ele></ele><time>2014-6-3T15:33:59Z</time></trkpt>
<trkpt lat="45.798041" lon="1.369337"><ele></ele><time>2014-6-3T15:34:2Z</time></trkpt>
<trkpt lat="45.79806" lon="1.369438"><ele></ele><time>2014-6-3T15:34:5Z</time></trkpt>
<trkpt lat="45.798009" lon="1.369531"><ele></ele><time>2014-6-3T15:34:8Z</time></trkpt>
<trkpt lat="45.797983" lon="1.36963"><ele></ele><time>2014-6-3T15:34:11Z</time></trkpt>
<trkpt lat="45.797944" lon="1.369737"><ele></ele><time>2014-6-3T15:34:14Z</time></trkpt>
<trkpt lat="45.797922" lon="1.369832"><ele></ele><time>2014-6-3T15:34:17Z</time></trkpt>
<trkpt lat="45.79788" lon="1.369929"><ele></ele><time>2014-6-3T15:34:20Z</time></trkpt>
<trkpt lat="45.797856" lon="1.370021"><ele></ele><time>2014-6-3T15:34:23Z</time></trkpt>
<trkpt lat="45.797862" lon="1.370113"><ele></ele><time>2014-6-3T15:34:26Z</time></trkpt>
<trkpt lat="45.797819" lon="1.370239"><ele></ele><time>2014-6-3T15:34:29Z</time></trkpt>
<trkpt lat="45.797805" lon="1.370305"><ele></ele><time>2014-6-3T15:34:32Z</time></trkpt>
<trkpt lat="45.79779" lon="1.370373"><ele></ele><time>2014-6-3T15:34:35Z</time></trkpt>
<trkpt lat="45.79777" lon="1.370442"><ele></ele><time>2014-6-3T15:34:38Z</time></trkpt>
<trkpt lat="45.797737" lon="1.370502"><ele></ele><time>2014-6-3T15:34:41Z</time></trkpt>
<trkpt lat="45.797724" lon="1.370569"><ele></ele><time>2014-6-3T15:34:44Z</time></trkpt>
<trkpt lat="45.797693" lon="1.370627"><ele></ele><time>2014-6-3T15:34:47Z</time></trkpt>
<trkpt lat="45.797684" lon="1.37069"><ele></ele><time>2014-6-3T15:34:50Z</time></trkpt>
<trkpt lat="45.797675" lon="1.370753"><ele></ele><time>2014-6-3T15:34:53Z</time></trkpt>
<trkpt lat="45.797711" lon="1.370891"><ele></ele><time>2014-6-3T15:34:56Z</time></trkpt>
<trkpt lat="45.797724" lon="1.370959"><ele></ele><time>2014-6-3T15:34:59Z</time></trkpt>
<trkpt lat="45.797684" lon="1.371013"><ele></ele><time>2014-6-3T15:35:2Z</time></trkpt>
<trkpt lat="45.797658" lon="1.371073"><ele></ele><time>2014-6-3T15:35:5Z</time></trkpt>
<trkpt lat="45.797627" lon="1.371128"><ele></ele><time>2014-6-3T15:35:8Z</time></trkpt>
<trkpt lat="45.7976" lon="1.371187"><ele></ele><time>2014-6-3T15:35:11Z</time></trkpt>
<trkpt lat="45.797574" lon="1.371247"><ele></ele><time>2014-6-3T15:35:14Z</time></trkpt>
<trkpt lat="45.797538" lon="1.371302"><ele></ele><time>2014-6-3T15:35:17Z</time></trkpt>
<trkpt lat="45.797505" lon="1.371359"><ele></ele><time>2014-6-3T15:35:20Z</time></trkpt>
<trkpt lat="45.797474" lon="1.371414"><ele></ele><time>2014-6-3T15:35:23Z</time></trkpt>
<trkpt lat="45.797409" lon="1.371467"><ele></ele><time>2014-6-3T15:35:26Z</time></trkpt>
<trkpt lat="45.797338" lon="1.371528"><ele></ele><time>2014-6-3T15:35:29Z</time></trkpt>
<trkpt lat="45.7973" lon="1.371575"><ele></ele><time>2014-6-3T15:35:32Z</time></trkpt>
<trkpt lat="45.79727" lon="1.371633"><ele></ele><time>2014-6-3T15:35:35Z</time></trkpt>
<trkpt lat="45.797235" lon="1.371687"><ele></ele><time>2014-6-3T15:35:38Z</time></trkpt>
<trkpt lat="45.797206" lon="1.371744"><ele></ele><time>2014-6-3T15:35:41Z</time></trkpt>
<trkpt lat="45.797153" lon="1.371855"><ele></ele><time>2014-6-3T15:35:44Z</time></trkpt>
<trkpt lat="45.797122" lon="1.371908"><ele></ele><time>2014-6-3T15:35:47Z</time></trkpt>
<trkpt lat="45.797094" lon="1.371965"><ele></ele><time>2014-6-3T15:35:50Z</time></trkpt>
<trkpt lat="45.797046" lon="1.372077"><ele></ele><time>2014-6-3T15:35:53Z</time></trkpt>
<trkpt lat="45.797018" lon="1.372131"><ele></ele><time>2014-6-3T15:35:56Z</time></trkpt>
<trkpt lat="45.796967" lon="1.372234"><ele></ele><time>2014-6-3T15:35:59Z</time></trkpt>
<trkpt lat="45.796916" lon="1.372348"><ele></ele><time>2014-6-3T15:36:2Z</time></trkpt>
<trkpt lat="45.796884" lon="1.37241"><ele></ele><time>2014-6-3T15:36:5Z</time></trkpt>
<trkpt lat="45.796855" lon="1.372469"><ele></ele><time>2014-6-3T15:36:8Z</time></trkpt>
<trkpt lat="45.796828" lon="1.372526"><ele></ele><time>2014-6-3T15:36:11Z</time></trkpt>
<trkpt lat="45.796794" lon="1.372583"><ele></ele><time>2014-6-3T15:36:14Z</time></trkpt>
<trkpt lat="45.796768" lon="1.372638"><ele></ele><time>2014-6-3T15:36:17Z</time></trkpt>
<trkpt lat="45.796738" lon="1.372691"><ele></ele><time>2014-6-3T15:36:20Z</time></trkpt>
<trkpt lat="45.796684" lon="1.372794"><ele></ele><time>2014-6-3T15:36:23Z</time></trkpt>
<trkpt lat="45.796621" lon="1.372897"><ele></ele><time>2014-6-3T15:36:26Z</time></trkpt>
<trkpt lat="45.796591" lon="1.372956"><ele></ele><time>2014-6-3T15:36:29Z</time></trkpt>
<trkpt lat="45.796534" lon="1.37306"><ele></ele><time>2014-6-3T15:36:32Z</time></trkpt>
<trkpt lat="45.796504" lon="1.37311"><ele></ele><time>2014-6-3T15:36:35Z</time></trkpt>
<trkpt lat="45.796457" lon="1.373219"><ele></ele><time>2014-6-3T15:36:38Z</time></trkpt>
<trkpt lat="45.796391" lon="1.373307"><ele></ele><time>2014-6-3T15:36:41Z</time></trkpt>
<trkpt lat="45.796335" lon="1.37341"><ele></ele><time>2014-6-3T15:36:44Z</time></trkpt>
<trkpt lat="45.796295" lon="1.373451"><ele></ele><time>2014-6-3T15:36:47Z</time></trkpt>
<trkpt lat="45.796226" lon="1.373533"><ele></ele><time>2014-6-3T15:36:50Z</time></trkpt>
<trkpt lat="45.796175" lon="1.373599"><ele></ele><time>2014-6-3T15:36:53Z</time></trkpt>
<trkpt lat="45.796123" lon="1.373636"><ele></ele><time>2014-6-3T15:36:56Z</time></trkpt>
<trkpt lat="45.796062" lon="1.373694"><ele></ele><time>2014-6-3T15:36:59Z</time></trkpt>
<trkpt lat="45.796003" lon="1.37376"><ele></ele><time>2014-6-3T15:37:2Z</time></trkpt>
<trkpt lat="45.795941" lon="1.37384"><ele></ele><time>2014-6-3T15:37:5Z</time></trkpt>
<trkpt lat="45.795884" lon="1.373908"><ele></ele><time>2014-6-3T15:37:8Z</time></trkpt>
<trkpt lat="45.795842" lon="1.373978"><ele></ele><time>2014-6-3T15:37:11Z</time></trkpt>
<trkpt lat="45.795796" lon="1.37405"><ele></ele><time>2014-6-3T15:37:14Z</time></trkpt>
<trkpt lat="45.795753" lon="1.374125"><ele></ele><time>2014-6-3T15:37:17Z</time></trkpt>
<trkpt lat="45.795708" lon="1.374189"><ele></ele><time>2014-6-3T15:37:20Z</time></trkpt>
<trkpt lat="45.795662" lon="1.374266"><ele></ele><time>2014-6-3T15:37:23Z</time></trkpt>
<trkpt lat="45.795621" lon="1.374338"><ele></ele><time>2014-6-3T15:37:26Z</time></trkpt>
<trkpt lat="45.795585" lon="1.374412"><ele></ele><time>2014-6-3T15:37:29Z</time></trkpt>
<trkpt lat="45.795552" lon="1.374486"><ele></ele><time>2014-6-3T15:37:32Z</time></trkpt>
<trkpt lat="45.795513" lon="1.374563"><ele></ele><time>2014-6-3T15:37:35Z</time></trkpt>
<trkpt lat="45.795478" lon="1.374636"><ele></ele><time>2014-6-3T15:37:38Z</time></trkpt>
<trkpt lat="45.795425" lon="1.374707"><ele></ele><time>2014-6-3T15:37:41Z</time></trkpt>
<trkpt lat="45.795374" lon="1.374789"><ele></ele><time>2014-6-3T15:37:44Z</time></trkpt>
<trkpt lat="45.795351" lon="1.374864"><ele></ele><time>2014-6-3T15:37:47Z</time></trkpt>
<trkpt lat="45.795339" lon="1.37494"><ele></ele><time>2014-6-3T15:37:50Z</time></trkpt>
<trkpt lat="45.795321" lon="1.375014"><ele></ele><time>2014-6-3T15:37:53Z</time></trkpt>
<trkpt lat="45.795302" lon="1.375084"><ele></ele><time>2014-6-3T15:37:56Z</time></trkpt>
<trkpt lat="45.795271" lon="1.375198"><ele></ele><time>2014-6-3T15:37:59Z</time></trkpt>
<trkpt lat="45.795234" lon="1.375277"><ele></ele><time>2014-6-3T15:38:2Z</time></trkpt>
<trkpt lat="45.795208" lon="1.375349"><ele></ele><time>2014-6-3T15:38:5Z</time></trkpt>
<trkpt lat="45.79519" lon="1.375431"><ele></ele><time>2014-6-3T15:38:8Z</time></trkpt>
<trkpt lat="45.79516" lon="1.375503"><ele></ele><time>2014-6-3T15:38:11Z</time></trkpt>
<trkpt lat="45.795136" lon="1.375569"><ele></ele><time>2014-6-3T15:38:14Z</time></trkpt>
<trkpt lat="45.795118" lon="1.375636"><ele></ele><time>2014-6-3T15:38:17Z</time></trkpt>
<trkpt lat="45.795101" lon="1.375711"><ele></ele><time>2014-6-3T15:38:20Z</time></trkpt>
<trkpt lat="45.795077" lon="1.375795"><ele></ele><time>2014-6-3T15:38:23Z</time></trkpt>
<trkpt lat="45.79506" lon="1.375884"><ele></ele><time>2014-6-3T15:38:26Z</time></trkpt>
<trkpt lat="45.795048" lon="1.375971"><ele></ele><time>2014-6-3T15:38:29Z</time></trkpt>
<trkpt lat="45.79503" lon="1.376063"><ele></ele><time>2014-6-3T15:38:32Z</time></trkpt>
<trkpt lat="45.795001" lon="1.376151"><ele></ele><time>2014-6-3T15:38:35Z</time></trkpt>
<trkpt lat="45.794967" lon="1.376235"><ele></ele><time>2014-6-3T15:38:38Z</time></trkpt>
<trkpt lat="45.794937" lon="1.376329"><ele></ele><time>2014-6-3T15:38:41Z</time></trkpt>
<trkpt lat="45.794903" lon="1.37642"><ele></ele><time>2014-6-3T15:38:44Z</time></trkpt>
<trkpt lat="45.794878" lon="1.376514"><ele></ele><time>2014-6-3T15:38:47Z</time></trkpt>
<trkpt lat="45.794839" lon="1.376602"><ele></ele><time>2014-6-3T15:38:50Z</time></trkpt>
<trkpt lat="45.79481" lon="1.376693"><ele></ele><time>2014-6-3T15:38:53Z</time></trkpt>
<trkpt lat="45.794775" lon="1.376781"><ele></ele><time>2014-6-3T15:38:56Z</time></trkpt>
<trkpt lat="45.79474" lon="1.37686"><ele></ele><time>2014-6-3T15:38:59Z</time></trkpt>
<trkpt lat="45.79472" lon="1.376924"><ele></ele><time>2014-6-3T15:39:2Z</time></trkpt>
<trkpt lat="45.79467" lon="1.376985"><ele></ele><time>2014-6-3T15:39:5Z</time></trkpt>
<trkpt lat="45.794625" lon="1.377042"><ele></ele><time>2014-6-3T15:39:8Z</time></trkpt>
<trkpt lat="45.794581" lon="1.377103"><ele></ele><time>2014-6-3T15:39:11Z</time></trkpt>
<trkpt lat="45.794534" lon="1.37716"><ele></ele><time>2014-6-3T15:39:14Z</time></trkpt>
<trkpt lat="45.794493" lon="1.377229"><ele></ele><time>2014-6-3T15:39:17Z</time></trkpt>
<trkpt lat="45.794446" lon="1.377276"><ele></ele><time>2014-6-3T15:39:20Z</time></trkpt>
<trkpt lat="45.794402" lon="1.377313"><ele></ele><time>2014-6-3T15:39:23Z</time></trkpt>
<trkpt lat="45.794356" lon="1.37734"><ele></ele><time>2014-6-3T15:39:26Z</time></trkpt>
<trkpt lat="45.794312" lon="1.377372"><ele></ele><time>2014-6-3T15:39:29Z</time></trkpt>
<trkpt lat="45.794246" lon="1.377406"><ele></ele><time>2014-6-3T15:39:32Z</time></trkpt>
<trkpt lat="45.794208" lon="1.377444"><ele></ele><time>2014-6-3T15:39:35Z</time></trkpt>
<trkpt lat="45.794156" lon="1.377476"><ele></ele><time>2014-6-3T15:39:38Z</time></trkpt>
<trkpt lat="45.794102" lon="1.377502"><ele></ele><time>2014-6-3T15:39:41Z</time></trkpt>
<trkpt lat="45.794059" lon="1.377551"><ele></ele><time>2014-6-3T15:39:44Z</time></trkpt>
<trkpt lat="45.794024" lon="1.377599"><ele></ele><time>2014-6-3T15:39:47Z</time></trkpt>
<trkpt lat="45.794005" lon="1.377659"><ele></ele><time>2014-6-3T15:39:50Z</time></trkpt>
<trkpt lat="45.793979" lon="1.377719"><ele></ele><time>2014-6-3T15:39:53Z</time></trkpt>
<trkpt lat="45.793935" lon="1.37776"><ele></ele><time>2014-6-3T15:39:56Z</time></trkpt>
<trkpt lat="45.793907" lon="1.377818"><ele></ele><time>2014-6-3T15:39:59Z</time></trkpt>
<trkpt lat="45.793867" lon="1.377886"><ele></ele><time>2014-6-3T15:40:2Z</time></trkpt>
<trkpt lat="45.793814" lon="1.377944"><ele></ele><time>2014-6-3T15:40:5Z</time></trkpt>
<trkpt lat="45.793765" lon="1.377982"><ele></ele><time>2014-6-3T15:40:8Z</time></trkpt>
<trkpt lat="45.793735" lon="1.378033"><ele></ele><time>2014-6-3T15:40:11Z</time></trkpt>
<trkpt lat="45.793681" lon="1.378081"><ele></ele><time>2014-6-3T15:40:14Z</time></trkpt>
<trkpt lat="45.793634" lon="1.378144"><ele></ele><time>2014-6-3T15:40:17Z</time></trkpt>
<trkpt lat="45.793575" lon="1.378171"><ele></ele><time>2014-6-3T15:40:20Z</time></trkpt>
<trkpt lat="45.793541" lon="1.378233"><ele></ele><time>2014-6-3T15:40:23Z</time></trkpt>
<trkpt lat="45.793506" lon="1.378307"><ele></ele><time>2014-6-3T15:40:26Z</time></trkpt>
<trkpt lat="45.793452" lon="1.37838"><ele></ele><time>2014-6-3T15:40:29Z</time></trkpt>
<trkpt lat="45.79343" lon="1.378452"><ele></ele><time>2014-6-3T15:40:32Z</time></trkpt>
<trkpt lat="45.793385" lon="1.37851"><ele></ele><time>2014-6-3T15:40:35Z</time></trkpt>
<trkpt lat="45.793345" lon="1.378564"><ele></ele><time>2014-6-3T15:40:38Z</time></trkpt>
<trkpt lat="45.793321" lon="1.378624"><ele></ele><time>2014-6-3T15:40:41Z</time></trkpt>
<trkpt lat="45.7933" lon="1.378695"><ele></ele><time>2014-6-3T15:40:44Z</time></trkpt>
<trkpt lat="45.793272" lon="1.378751"><ele></ele><time>2014-6-3T15:40:47Z</time></trkpt>
<trkpt lat="45.793247" lon="1.378825"><ele></ele><time>2014-6-3T15:40:50Z</time></trkpt>
<trkpt lat="45.793223" lon="1.378923"><ele></ele><time>2014-6-3T15:40:53Z</time></trkpt>
<trkpt lat="45.793201" lon="1.378999"><ele></ele><time>2014-6-3T15:40:56Z</time></trkpt>
<trkpt lat="45.793155" lon="1.37908"><ele></ele><time>2014-6-3T15:40:59Z</time></trkpt>
<trkpt lat="45.793083" lon="1.379168"><ele></ele><time>2014-6-3T15:41:2Z</time></trkpt>
<trkpt lat="45.793054" lon="1.379217"><ele></ele><time>2014-6-3T15:41:5Z</time></trkpt>
<trkpt lat="45.793025" lon="1.379276"><ele></ele><time>2014-6-3T15:41:8Z</time></trkpt>
<trkpt lat="45.792988" lon="1.379338"><ele></ele><time>2014-6-3T15:41:11Z</time></trkpt>
<trkpt lat="45.792965" lon="1.379401"><ele></ele><time>2014-6-3T15:41:14Z</time></trkpt>
<trkpt lat="45.792928" lon="1.379448"><ele></ele><time>2014-6-3T15:41:17Z</time></trkpt>
<trkpt lat="45.792918" lon="1.379526"><ele></ele><time>2014-6-3T15:41:20Z</time></trkpt>
<trkpt lat="45.792894" lon="1.379612"><ele></ele><time>2014-6-3T15:41:23Z</time></trkpt>
<trkpt lat="45.792879" lon="1.379674"><ele></ele><time>2014-6-3T15:41:26Z</time></trkpt>
<trkpt lat="45.792853" lon="1.379753"><ele></ele><time>2014-6-3T15:41:29Z</time></trkpt>
<trkpt lat="45.792817" lon="1.3798"><ele></ele><time>2014-6-3T15:41:32Z</time></trkpt>
<trkpt lat="45.79278" lon="1.379859"><ele></ele><time>2014-6-3T15:41:35Z</time></trkpt>
<trkpt lat="45.792751" lon="1.379934"><ele></ele><time>2014-6-3T15:41:38Z</time></trkpt>
<trkpt lat="45.792716" lon="1.380005"><ele></ele><time>2014-6-3T15:41:41Z</time></trkpt>
<trkpt lat="45.79269" lon="1.380066"><ele></ele><time>2014-6-3T15:41:44Z</time></trkpt>
<trkpt lat="45.792655" lon="1.380132"><ele></ele><time>2014-6-3T15:41:47Z</time></trkpt>
<trkpt lat="45.792629" lon="1.380187"><ele></ele><time>2014-6-3T15:41:50Z</time></trkpt>
<trkpt lat="45.792593" lon="1.380234"><ele></ele><time>2014-6-3T15:41:53Z</time></trkpt>
<trkpt lat="45.792515" lon="1.380306"><ele></ele><time>2014-6-3T15:41:56Z</time></trkpt>
<trkpt lat="45.792491" lon="1.380363"><ele></ele><time>2014-6-3T15:41:59Z</time></trkpt>
<trkpt lat="45.792445" lon="1.380426"><ele></ele><time>2014-6-3T15:42:2Z</time></trkpt>
<trkpt lat="45.79241" lon="1.380488"><ele></ele><time>2014-6-3T15:42:5Z</time></trkpt>
<trkpt lat="45.792385" lon="1.380566"><ele></ele><time>2014-6-3T15:42:8Z</time></trkpt>
<trkpt lat="45.792348" lon="1.380633"><ele></ele><time>2014-6-3T15:42:11Z</time></trkpt>
<trkpt lat="45.792315" lon="1.3807"><ele></ele><time>2014-6-3T15:42:14Z</time></trkpt>
<trkpt lat="45.79226" lon="1.380789"><ele></ele><time>2014-6-3T15:42:17Z</time></trkpt>
<trkpt lat="45.792297" lon="1.380829"><ele></ele><time>2014-6-3T15:42:20Z</time></trkpt>
<trkpt lat="45.792317" lon="1.380898"><ele></ele><time>2014-6-3T15:42:23Z</time></trkpt>
<trkpt lat="45.792337" lon="1.380968"><ele></ele><time>2014-6-3T15:42:26Z</time></trkpt>
<trkpt lat="45.792405" lon="1.38095"><ele></ele><time>2014-6-3T15:42:29Z</time></trkpt>
<trkpt lat="45.792339" lon="1.380974"><ele></ele><time>2014-6-3T15:42:32Z</time></trkpt>
<trkpt lat="45.79235" lon="1.381058"><ele></ele><time>2014-6-3T15:42:35Z</time></trkpt>
<trkpt lat="45.792313" lon="1.381111"><ele></ele><time>2014-6-3T15:42:38Z</time></trkpt>
<trkpt lat="45.792183" lon="1.381118"><ele></ele><time>2014-6-3T15:42:41Z</time></trkpt>
<trkpt lat="45.792114" lon="1.381197"><ele></ele><time>2014-6-3T15:42:44Z</time></trkpt>
<trkpt lat="45.792069" lon="1.381267"><ele></ele><time>2014-6-3T15:42:47Z</time></trkpt>
<trkpt lat="45.79203" lon="1.381334"><ele></ele><time>2014-6-3T15:42:50Z</time></trkpt>
<trkpt lat="45.791951" lon="1.381376"><ele></ele><time>2014-6-3T15:42:53Z</time></trkpt>
<trkpt lat="45.791882" lon="1.381448"><ele></ele><time>2014-6-3T15:42:56Z</time></trkpt>
<trkpt lat="45.791831" lon="1.381524"><ele></ele><time>2014-6-3T15:42:59Z</time></trkpt>
<trkpt lat="45.791783" lon="1.381577"><ele></ele><time>2014-6-3T15:43:2Z</time></trkpt>
<trkpt lat="45.791748" lon="1.381641"><ele></ele><time>2014-6-3T15:43:5Z</time></trkpt>
<trkpt lat="45.791689" lon="1.38171"><ele></ele><time>2014-6-3T15:43:8Z</time></trkpt>
<trkpt lat="45.791647" lon="1.381773"><ele></ele><time>2014-6-3T15:43:11Z</time></trkpt>
<trkpt lat="45.791601" lon="1.381854"><ele></ele><time>2014-6-3T15:43:14Z</time></trkpt>
<trkpt lat="45.791553" lon="1.381922"><ele></ele><time>2014-6-3T15:43:17Z</time></trkpt>
<trkpt lat="45.791515" lon="1.381997"><ele></ele><time>2014-6-3T15:43:20Z</time></trkpt>
<trkpt lat="45.791479" lon="1.382087"><ele></ele><time>2014-6-3T15:43:23Z</time></trkpt>
<trkpt lat="45.791457" lon="1.382144"><ele></ele><time>2014-6-3T15:43:26Z</time></trkpt>
<trkpt lat="45.791429" lon="1.382211"><ele></ele><time>2014-6-3T15:43:29Z</time></trkpt>
<trkpt lat="45.791403" lon="1.382265"><ele></ele><time>2014-6-3T15:43:32Z</time></trkpt>
<trkpt lat="45.791368" lon="1.382316"><ele></ele><time>2014-6-3T15:43:35Z</time></trkpt>
<trkpt lat="45.791334" lon="1.38237"><ele></ele><time>2014-6-3T15:43:38Z</time></trkpt>
<trkpt lat="45.791301" lon="1.382423"><ele></ele><time>2014-6-3T15:43:41Z</time></trkpt>
<trkpt lat="45.791243" lon="1.382508"><ele></ele><time>2014-6-3T15:43:44Z</time></trkpt>
<trkpt lat="45.791187" lon="1.382575"><ele></ele><time>2014-6-3T15:43:47Z</time></trkpt>
<trkpt lat="45.79115" lon="1.382627"><ele></ele><time>2014-6-3T15:43:50Z</time></trkpt>
<trkpt lat="45.791115" lon="1.382671"><ele></ele><time>2014-6-3T15:43:53Z</time></trkpt>
<trkpt lat="45.791048" lon="1.382742"><ele></ele><time>2014-6-3T15:43:56Z</time></trkpt>
<trkpt lat="45.790993" lon="1.382766"><ele></ele><time>2014-6-3T15:43:59Z</time></trkpt>
<trkpt lat="45.790905" lon="1.382814"><ele></ele><time>2014-6-3T15:44:2Z</time></trkpt>
<trkpt lat="45.790851" lon="1.382838"><ele></ele><time>2014-6-3T15:44:5Z</time></trkpt>
<trkpt lat="45.790764" lon="1.382885"><ele></ele><time>2014-6-3T15:44:8Z</time></trkpt>
<trkpt lat="45.790716" lon="1.382918"><ele></ele><time>2014-6-3T15:44:11Z</time></trkpt>
<trkpt lat="45.79064" lon="1.382953"><ele></ele><time>2014-6-3T15:44:14Z</time></trkpt>
<trkpt lat="45.790595" lon="1.382995"><ele></ele><time>2014-6-3T15:44:17Z</time></trkpt>
<trkpt lat="45.790544" lon="1.383047"><ele></ele><time>2014-6-3T15:44:20Z</time></trkpt>
<trkpt lat="45.790498" lon="1.383073"><ele></ele><time>2014-6-3T15:44:23Z</time></trkpt>
<trkpt lat="45.790453" lon="1.3831"><ele></ele><time>2014-6-3T15:44:26Z</time></trkpt>
<trkpt lat="45.790409" lon="1.383125"><ele></ele><time>2014-6-3T15:44:29Z</time></trkpt>
<trkpt lat="45.790354" lon="1.383121"><ele></ele><time>2014-6-3T15:44:32Z</time></trkpt>
<trkpt lat="45.790302" lon="1.383136"><ele></ele><time>2014-6-3T15:44:35Z</time></trkpt>
<trkpt lat="45.790237" lon="1.383187"><ele></ele><time>2014-6-3T15:44:38Z</time></trkpt>
<trkpt lat="45.790189" lon="1.383194"><ele></ele><time>2014-6-3T15:44:41Z</time></trkpt>
<trkpt lat="45.790137" lon="1.383219"><ele></ele><time>2014-6-3T15:44:44Z</time></trkpt>
<trkpt lat="45.790084" lon="1.38325"><ele></ele><time>2014-6-3T15:44:47Z</time></trkpt>
<trkpt lat="45.790038" lon="1.383268"><ele></ele><time>2014-6-3T15:44:50Z</time></trkpt>
<trkpt lat="45.790029" lon="1.383278"><ele></ele><time>2014-6-3T15:44:53Z</time></trkpt>
<trkpt lat="45.789991" lon="1.383312"><ele></ele><time>2014-6-3T15:44:56Z</time></trkpt>
<trkpt lat="45.789985" lon="1.383324"><ele></ele><time>2014-6-3T15:44:59Z</time></trkpt>
<trkpt lat="45.789969" lon="1.383387"><ele></ele><time>2014-6-3T15:45:2Z</time></trkpt>
<trkpt lat="45.789997" lon="1.383449"><ele></ele><time>2014-6-3T15:45:5Z</time></trkpt>
<trkpt lat="45.789994" lon="1.383525"><ele></ele><time>2014-6-3T15:45:8Z</time></trkpt>
<trkpt lat="45.789977" lon="1.383463"><ele></ele><time>2014-6-3T15:45:11Z</time></trkpt>
<trkpt lat="45.789954" lon="1.383402"><ele></ele><time>2014-6-3T15:45:14Z</time></trkpt>
<trkpt lat="45.789979" lon="1.383464"><ele></ele><time>2014-6-3T15:45:17Z</time></trkpt>
<trkpt lat="45.789976" lon="1.383504"><ele></ele><time>2014-6-3T15:45:20Z</time></trkpt>
<trkpt lat="45.789991" lon="1.383559"><ele></ele><time>2014-6-3T15:45:23Z</time></trkpt>
<trkpt lat="45.789989" lon="1.38357"><ele></ele><time>2014-6-3T15:45:26Z</time></trkpt>
<trkpt lat="45.790044" lon="1.383628"><ele></ele><time>2014-6-3T15:45:29Z</time></trkpt>
<trkpt lat="45.79005" lon="1.383692"><ele></ele><time>2014-6-3T15:45:32Z</time></trkpt>
<trkpt lat="45.790084" lon="1.383782"><ele></ele><time>2014-6-3T15:45:35Z</time></trkpt>
<trkpt lat="45.79012" lon="1.383857"><ele></ele><time>2014-6-3T15:45:38Z</time></trkpt>
<trkpt lat="45.790165" lon="1.38391"><ele></ele><time>2014-6-3T15:45:41Z</time></trkpt>
<trkpt lat="45.790198" lon="1.384005"><ele></ele><time>2014-6-3T15:45:44Z</time></trkpt>
<trkpt lat="45.790239" lon="1.384082"><ele></ele><time>2014-6-3T15:45:47Z</time></trkpt>
<trkpt lat="45.790276" lon="1.384132"><ele></ele><time>2014-6-3T15:45:50Z</time></trkpt>
<trkpt lat="45.790307" lon="1.384178"><ele></ele><time>2014-6-3T15:45:53Z</time></trkpt>
<trkpt lat="45.790346" lon="1.384217"><ele></ele><time>2014-6-3T15:45:56Z</time></trkpt>
<trkpt lat="45.790386" lon="1.38427"><ele></ele><time>2014-6-3T15:45:59Z</time></trkpt>
<trkpt lat="45.790425" lon="1.384325"><ele></ele><time>2014-6-3T15:46:2Z</time></trkpt>
<trkpt lat="45.790471" lon="1.384394"><ele></ele><time>2014-6-3T15:46:5Z</time></trkpt>
<trkpt lat="45.790525" lon="1.38447"><ele></ele><time>2014-6-3T15:46:8Z</time></trkpt>
<trkpt lat="45.790578" lon="1.384555"><ele></ele><time>2014-6-3T15:46:11Z</time></trkpt>
<trkpt lat="45.790641" lon="1.38464"><ele></ele><time>2014-6-3T15:46:14Z</time></trkpt>
<trkpt lat="45.790678" lon="1.384687"><ele></ele><time>2014-6-3T15:46:17Z</time></trkpt>
<trkpt lat="45.790714" lon="1.384729"><ele></ele><time>2014-6-3T15:46:20Z</time></trkpt>
<trkpt lat="45.790753" lon="1.384776"><ele></ele><time>2014-6-3T15:46:23Z</time></trkpt>
<trkpt lat="45.790823" lon="1.384862"><ele></ele><time>2014-6-3T15:46:26Z</time></trkpt>
<trkpt lat="45.790889" lon="1.384937"><ele></ele><time>2014-6-3T15:46:29Z</time></trkpt>
<trkpt lat="45.790957" lon="1.385001"><ele></ele><time>2014-6-3T15:46:32Z</time></trkpt>
<trkpt lat="45.791028" lon="1.385006"><ele></ele><time>2014-6-3T15:46:35Z</time></trkpt>
<trkpt lat="45.791072" lon="1.384986"><ele></ele><time>2014-6-3T15:46:38Z</time></trkpt>
<trkpt lat="45.79115" lon="1.38495"><ele></ele><time>2014-6-3T15:46:41Z</time></trkpt>
<trkpt lat="45.791193" lon="1.38493"><ele></ele><time>2014-6-3T15:46:44Z</time></trkpt>
<trkpt lat="45.791262" lon="1.384899"><ele></ele><time>2014-6-3T15:46:47Z</time></trkpt>
<trkpt lat="45.791315" lon="1.384949"><ele></ele><time>2014-6-3T15:46:50Z</time></trkpt>
<trkpt lat="45.791274" lon="1.384997"><ele></ele><time>2014-6-3T15:46:53Z</time></trkpt>
<trkpt lat="45.791272" lon="1.385104"><ele></ele><time>2014-6-3T15:46:56Z</time></trkpt>
<trkpt lat="45.791272" lon="1.385285"><ele></ele><time>2014-6-3T15:46:59Z</time></trkpt>
<trkpt lat="45.791273" lon="1.385412"><ele></ele><time>2014-6-3T15:47:2Z</time></trkpt>
<trkpt lat="45.791268" lon="1.385512"><ele></ele><time>2014-6-3T15:47:5Z</time></trkpt>
<trkpt lat="45.791277" lon="1.385635"><ele></ele><time>2014-6-3T15:47:8Z</time></trkpt>
<trkpt lat="45.791279" lon="1.385753"><ele></ele><time>2014-6-3T15:47:11Z</time></trkpt>
<trkpt lat="45.791292" lon="1.38587"><ele></ele><time>2014-6-3T15:47:14Z</time></trkpt>
<trkpt lat="45.791293" lon="1.385935"><ele></ele><time>2014-6-3T15:47:17Z</time></trkpt>
<trkpt lat="45.791306" lon="1.38601"><ele></ele><time>2014-6-3T15:47:20Z</time></trkpt>
<trkpt lat="45.791307" lon="1.386129"><ele></ele><time>2014-6-3T15:47:23Z</time></trkpt>
<trkpt lat="45.791317" lon="1.386194"><ele></ele><time>2014-6-3T15:47:26Z</time></trkpt>
<trkpt lat="45.791288" lon="1.386279"><ele></ele><time>2014-6-3T15:47:29Z</time></trkpt>
<trkpt lat="45.791291" lon="1.386377"><ele></ele><time>2014-6-3T15:47:32Z</time></trkpt>
<trkpt lat="45.791292" lon="1.386461"><ele></ele><time>2014-6-3T15:47:35Z</time></trkpt>
<trkpt lat="45.791295" lon="1.386543"><ele></ele><time>2014-6-3T15:47:38Z</time></trkpt>
<trkpt lat="45.791318" lon="1.386626"><ele></ele><time>2014-6-3T15:47:41Z</time></trkpt>
<trkpt lat="45.791344" lon="1.386706"><ele></ele><time>2014-6-3T15:47:44Z</time></trkpt>
<trkpt lat="45.7914" lon="1.386752"><ele></ele><time>2014-6-3T15:47:47Z</time></trkpt>
<trkpt lat="45.791443" lon="1.386832"><ele></ele><time>2014-6-3T15:47:50Z</time></trkpt>
<trkpt lat="45.791476" lon="1.386887"><ele></ele><time>2014-6-3T15:47:53Z</time></trkpt>
<trkpt lat="45.791509" lon="1.386995"><ele></ele><time>2014-6-3T15:47:56Z</time></trkpt>
<trkpt lat="45.79157" lon="1.38706"><ele></ele><time>2014-6-3T15:47:59Z</time></trkpt>
<trkpt lat="45.791601" lon="1.387106"><ele></ele><time>2014-6-3T15:48:2Z</time></trkpt>
<trkpt lat="45.791665" lon="1.3872"><ele></ele><time>2014-6-3T15:48:5Z</time></trkpt>
<trkpt lat="45.791711" lon="1.387285"><ele></ele><time>2014-6-3T15:48:8Z</time></trkpt>
<trkpt lat="45.791762" lon="1.387364"><ele></ele><time>2014-6-3T15:48:11Z</time></trkpt>
<trkpt lat="45.791806" lon="1.387423"><ele></ele><time>2014-6-3T15:48:14Z</time></trkpt>
<trkpt lat="45.791847" lon="1.387466"><ele></ele><time>2014-6-3T15:48:17Z</time></trkpt>
<trkpt lat="45.791901" lon="1.387523"><ele></ele><time>2014-6-3T15:48:20Z</time></trkpt>
<trkpt lat="45.791932" lon="1.387568"><ele></ele><time>2014-6-3T15:48:23Z</time></trkpt>
<trkpt lat="45.791958" lon="1.387629"><ele></ele><time>2014-6-3T15:48:26Z</time></trkpt>
<trkpt lat="45.79199" lon="1.387724"><ele></ele><time>2014-6-3T15:48:29Z</time></trkpt>
<trkpt lat="45.792026" lon="1.3878"><ele></ele><time>2014-6-3T15:48:32Z</time></trkpt>
<trkpt lat="45.792062" lon="1.387918"><ele></ele><time>2014-6-3T15:48:35Z</time></trkpt>
<trkpt lat="45.7921" lon="1.388"><ele></ele><time>2014-6-3T15:48:38Z</time></trkpt>
<trkpt lat="45.792143" lon="1.388075"><ele></ele><time>2014-6-3T15:48:41Z</time></trkpt>
<trkpt lat="45.792188" lon="1.38817"><ele></ele><time>2014-6-3T15:48:44Z</time></trkpt>
<trkpt lat="45.792217" lon="1.388226"><ele></ele><time>2014-6-3T15:48:47Z</time></trkpt>
<trkpt lat="45.79224" lon="1.388283"><ele></ele><time>2014-6-3T15:48:50Z</time></trkpt>
<trkpt lat="45.792289" lon="1.388382"><ele></ele><time>2014-6-3T15:48:53Z</time></trkpt>
<trkpt lat="45.79232" lon="1.388483"><ele></ele><time>2014-6-3T15:48:56Z</time></trkpt>
<trkpt lat="45.792354" lon="1.38857"><ele></ele><time>2014-6-3T15:48:59Z</time></trkpt>
<trkpt lat="45.792386" lon="1.388664"><ele></ele><time>2014-6-3T15:49:2Z</time></trkpt>
<trkpt lat="45.792422" lon="1.388726"><ele></ele><time>2014-6-3T15:49:5Z</time></trkpt>
<trkpt lat="45.792457" lon="1.388822"><ele></ele><time>2014-6-3T15:49:8Z</time></trkpt>
<trkpt lat="45.792497" lon="1.388924"><ele></ele><time>2014-6-3T15:49:11Z</time></trkpt>
<trkpt lat="45.792522" lon="1.389027"><ele></ele><time>2014-6-3T15:49:14Z</time></trkpt>
<trkpt lat="45.792549" lon="1.389111"><ele></ele><time>2014-6-3T15:49:17Z</time></trkpt>
<trkpt lat="45.792555" lon="1.38918"><ele></ele><time>2014-6-3T15:49:20Z</time></trkpt>
<trkpt lat="45.792567" lon="1.389286"><ele></ele><time>2014-6-3T15:49:23Z</time></trkpt>
<trkpt lat="45.792612" lon="1.389396"><ele></ele><time>2014-6-3T15:49:26Z</time></trkpt>
<trkpt lat="45.792623" lon="1.38947"><ele></ele><time>2014-6-3T15:49:29Z</time></trkpt>
<trkpt lat="45.792637" lon="1.389571"><ele></ele><time>2014-6-3T15:49:32Z</time></trkpt>
<trkpt lat="45.79265" lon="1.389653"><ele></ele><time>2014-6-3T15:49:35Z</time></trkpt>
<trkpt lat="45.792647" lon="1.389745"><ele></ele><time>2014-6-3T15:49:38Z</time></trkpt>
<trkpt lat="45.792661" lon="1.38985"><ele></ele><time>2014-6-3T15:49:41Z</time></trkpt>
<trkpt lat="45.792689" lon="1.389943"><ele></ele><time>2014-6-3T15:49:44Z</time></trkpt>
<trkpt lat="45.792705" lon="1.390008"><ele></ele><time>2014-6-3T15:49:47Z</time></trkpt>
<trkpt lat="45.792703" lon="1.390094"><ele></ele><time>2014-6-3T15:49:50Z</time></trkpt>
<trkpt lat="45.792727" lon="1.390172"><ele></ele><time>2014-6-3T15:49:53Z</time></trkpt>
<trkpt lat="45.79274" lon="1.390276"><ele></ele><time>2014-6-3T15:49:56Z</time></trkpt>
<trkpt lat="45.792753" lon="1.390358"><ele></ele><time>2014-6-3T15:49:59Z</time></trkpt>
<trkpt lat="45.792764" lon="1.390463"><ele></ele><time>2014-6-3T15:50:2Z</time></trkpt>
<trkpt lat="45.792801" lon="1.390568"><ele></ele><time>2014-6-3T15:50:5Z</time></trkpt>
<trkpt lat="45.792813" lon="1.390644"><ele></ele><time>2014-6-3T15:50:8Z</time></trkpt>
<trkpt lat="45.792845" lon="1.390756"><ele></ele><time>2014-6-3T15:50:11Z</time></trkpt>
<trkpt lat="45.792877" lon="1.390816"><ele></ele><time>2014-6-3T15:50:14Z</time></trkpt>
<trkpt lat="45.792883" lon="1.39095"><ele></ele><time>2014-6-3T15:50:17Z</time></trkpt>
<trkpt lat="45.792899" lon="1.391025"><ele></ele><time>2014-6-3T15:50:20Z</time></trkpt>
<trkpt lat="45.792903" lon="1.391096"><ele></ele><time>2014-6-3T15:50:23Z</time></trkpt>
<trkpt lat="45.792904" lon="1.391183"><ele></ele><time>2014-6-3T15:50:26Z</time></trkpt>
<trkpt lat="45.792924" lon="1.391285"><ele></ele><time>2014-6-3T15:50:29Z</time></trkpt>
<trkpt lat="45.792919" lon="1.391386"><ele></ele><time>2014-6-3T15:50:32Z</time></trkpt>
<trkpt lat="45.792918" lon="1.391479"><ele></ele><time>2014-6-3T15:50:35Z</time></trkpt>
<trkpt lat="45.792934" lon="1.391541"><ele></ele><time>2014-6-3T15:50:38Z</time></trkpt>
<trkpt lat="45.792961" lon="1.3916"><ele></ele><time>2014-6-3T15:50:41Z</time></trkpt>
<trkpt lat="45.792997" lon="1.391715"><ele></ele><time>2014-6-3T15:50:44Z</time></trkpt>
<trkpt lat="45.793021" lon="1.391778"><ele></ele><time>2014-6-3T15:50:47Z</time></trkpt>
<trkpt lat="45.793027" lon="1.391847"><ele></ele><time>2014-6-3T15:50:50Z</time></trkpt>
<trkpt lat="45.793033" lon="1.391942"><ele></ele><time>2014-6-3T15:50:53Z</time></trkpt>
<trkpt lat="45.793061" lon="1.392022"><ele></ele><time>2014-6-3T15:50:56Z</time></trkpt>
<trkpt lat="45.793095" lon="1.392081"><ele></ele><time>2014-6-3T15:50:59Z</time></trkpt>
<trkpt lat="45.793111" lon="1.39214"><ele></ele><time>2014-6-3T15:51:2Z</time></trkpt>
<trkpt lat="45.793103" lon="1.392235"><ele></ele><time>2014-6-3T15:51:5Z</time></trkpt>
<trkpt lat="45.79312" lon="1.39234"><ele></ele><time>2014-6-3T15:51:8Z</time></trkpt>
<trkpt lat="45.793142" lon="1.392452"><ele></ele><time>2014-6-3T15:51:11Z</time></trkpt>
<trkpt lat="45.793164" lon="1.392522"><ele></ele><time>2014-6-3T15:51:14Z</time></trkpt>
<trkpt lat="45.79319" lon="1.392611"><ele></ele><time>2014-6-3T15:51:17Z</time></trkpt>
<trkpt lat="45.793213" lon="1.39269"><ele></ele><time>2014-6-3T15:51:20Z</time></trkpt>
<trkpt lat="45.793233" lon="1.392751"><ele></ele><time>2014-6-3T15:51:23Z</time></trkpt>
<trkpt lat="45.793279" lon="1.392798"><ele></ele><time>2014-6-3T15:51:26Z</time></trkpt>
<trkpt lat="45.793301" lon="1.392872"><ele></ele><time>2014-6-3T15:51:29Z</time></trkpt>
<trkpt lat="45.793325" lon="1.392958"><ele></ele><time>2014-6-3T15:51:32Z</time></trkpt>
<trkpt lat="45.793325" lon="1.393025"><ele></ele><time>2014-6-3T15:51:35Z</time></trkpt>
<trkpt lat="45.793326" lon="1.393105"><ele></ele><time>2014-6-3T15:51:38Z</time></trkpt>
<trkpt lat="45.793345" lon="1.393178"><ele></ele><time>2014-6-3T15:51:41Z</time></trkpt>
<trkpt lat="45.793352" lon="1.393253"><ele></ele><time>2014-6-3T15:51:44Z</time></trkpt>
<trkpt lat="45.793366" lon="1.393325"><ele></ele><time>2014-6-3T15:51:47Z</time></trkpt>
<trkpt lat="45.793369" lon="1.393414"><ele></ele><time>2014-6-3T15:51:50Z</time></trkpt>
<trkpt lat="45.793394" lon="1.393486"><ele></ele><time>2014-6-3T15:51:53Z</time></trkpt>
<trkpt lat="45.793387" lon="1.393563"><ele></ele><time>2014-6-3T15:51:56Z</time></trkpt>
<trkpt lat="45.793373" lon="1.393625"><ele></ele><time>2014-6-3T15:51:59Z</time></trkpt>
<trkpt lat="45.793389" lon="1.393733"><ele></ele><time>2014-6-3T15:52:2Z</time></trkpt>
<trkpt lat="45.793402" lon="1.393811"><ele></ele><time>2014-6-3T15:52:5Z</time></trkpt>
<trkpt lat="45.793424" lon="1.393896"><ele></ele><time>2014-6-3T15:52:8Z</time></trkpt>
<trkpt lat="45.793457" lon="1.393969"><ele></ele><time>2014-6-3T15:52:11Z</time></trkpt>
<trkpt lat="45.793486" lon="1.394032"><ele></ele><time>2014-6-3T15:52:14Z</time></trkpt>
<trkpt lat="45.793535" lon="1.394088"><ele></ele><time>2014-6-3T15:52:17Z</time></trkpt>
<trkpt lat="45.793579" lon="1.394123"><ele></ele><time>2014-6-3T15:52:20Z</time></trkpt>
<trkpt lat="45.793621" lon="1.394154"><ele></ele><time>2014-6-3T15:52:23Z</time></trkpt>
<trkpt lat="45.793679" lon="1.394192"><ele></ele><time>2014-6-3T15:52:26Z</time></trkpt>
<trkpt lat="45.793726" lon="1.394209"><ele></ele><time>2014-6-3T15:52:29Z</time></trkpt>
<trkpt lat="45.793781" lon="1.39426"><ele></ele><time>2014-6-3T15:52:32Z</time></trkpt>
<trkpt lat="45.793819" lon="1.394309"><ele></ele><time>2014-6-3T15:52:35Z</time></trkpt>
<trkpt lat="45.79384" lon="1.394373"><ele></ele><time>2014-6-3T15:52:38Z</time></trkpt>
<trkpt lat="45.793862" lon="1.394435"><ele></ele><time>2014-6-3T15:52:41Z</time></trkpt>
<trkpt lat="45.793872" lon="1.394423"><ele></ele><time>2014-6-3T15:52:44Z</time></trkpt>
<trkpt lat="45.793885" lon="1.394481"><ele></ele><time>2014-6-3T15:52:47Z</time></trkpt>
<trkpt lat="45.793882" lon="1.394516"><ele></ele><time>2014-6-3T15:52:50Z</time></trkpt>
<trkpt lat="45.793911" lon="1.394605"><ele></ele><time>2014-6-3T15:52:53Z</time></trkpt>
<trkpt lat="45.793927" lon="1.394694"><ele></ele><time>2014-6-3T15:52:56Z</time></trkpt>
<trkpt lat="45.793925" lon="1.39478"><ele></ele><time>2014-6-3T15:52:59Z</time></trkpt>
<trkpt lat="45.793937" lon="1.39486"><ele></ele><time>2014-6-3T15:53:2Z</time></trkpt>
<trkpt lat="45.793938" lon="1.394928"><ele></ele><time>2014-6-3T15:53:5Z</time></trkpt>
<trkpt lat="45.793944" lon="1.395034"><ele></ele><time>2014-6-3T15:53:8Z</time></trkpt>
<trkpt lat="45.79395" lon="1.395113"><ele></ele><time>2014-6-3T15:53:11Z</time></trkpt>
<trkpt lat="45.793935" lon="1.395227"><ele></ele><time>2014-6-3T15:53:14Z</time></trkpt>
<trkpt lat="45.793921" lon="1.39533"><ele></ele><time>2014-6-3T15:53:17Z</time></trkpt>
<trkpt lat="45.793928" lon="1.395457"><ele></ele><time>2014-6-3T15:53:20Z</time></trkpt>
<trkpt lat="45.793913" lon="1.395524"><ele></ele><time>2014-6-3T15:53:23Z</time></trkpt>
<trkpt lat="45.793913" lon="1.395595"><ele></ele><time>2014-6-3T15:53:26Z</time></trkpt>
<trkpt lat="45.793892" lon="1.395694"><ele></ele><time>2014-6-3T15:53:29Z</time></trkpt>
<trkpt lat="45.793867" lon="1.395758"><ele></ele><time>2014-6-3T15:53:32Z</time></trkpt>
<trkpt lat="45.793863" lon="1.39584"><ele></ele><time>2014-6-3T15:53:35Z</time></trkpt>
<trkpt lat="45.793832" lon="1.395942"><ele></ele><time>2014-6-3T15:53:38Z</time></trkpt>
<trkpt lat="45.79381" lon="1.396025"><ele></ele><time>2014-6-3T15:53:41Z</time></trkpt>
<trkpt lat="45.793807" lon="1.396091"><ele></ele><time>2014-6-3T15:53:44Z</time></trkpt>
<trkpt lat="45.793804" lon="1.396199"><ele></ele><time>2014-6-3T15:53:47Z</time></trkpt>
<trkpt lat="45.793789" lon="1.396309"><ele></ele><time>2014-6-3T15:53:50Z</time></trkpt>
<trkpt lat="45.793784" lon="1.396382"><ele></ele><time>2014-6-3T15:53:53Z</time></trkpt>
<trkpt lat="45.7938" lon="1.396476"><ele></ele><time>2014-6-3T15:53:56Z</time></trkpt>
<trkpt lat="45.793806" lon="1.396571"><ele></ele><time>2014-6-3T15:53:59Z</time></trkpt>
<trkpt lat="45.793841" lon="1.396653"><ele></ele><time>2014-6-3T15:54:2Z</time></trkpt>
<trkpt lat="45.793853" lon="1.396741"><ele></ele><time>2014-6-3T15:54:5Z</time></trkpt>
<trkpt lat="45.793855" lon="1.396839"><ele></ele><time>2014-6-3T15:54:8Z</time></trkpt>
<trkpt lat="45.793866" lon="1.396929"><ele></ele><time>2014-6-3T15:54:11Z</time></trkpt>
<trkpt lat="45.793879" lon="1.397035"><ele></ele><time>2014-6-3T15:54:14Z</time></trkpt>
<trkpt lat="45.793884" lon="1.397165"><ele></ele><time>2014-6-3T15:54:17Z</time></trkpt>
<trkpt lat="45.793899" lon="1.397259"><ele></ele><time>2014-6-3T15:54:20Z</time></trkpt>
<trkpt lat="45.793916" lon="1.397365"><ele></ele><time>2014-6-3T15:54:23Z</time></trkpt>
<trkpt lat="45.793925" lon="1.397478"><ele></ele><time>2014-6-3T15:54:26Z</time></trkpt>
<trkpt lat="45.793968" lon="1.397516"><ele></ele><time>2014-6-3T15:54:29Z</time></trkpt>
<trkpt lat="45.793988" lon="1.397578"><ele></ele><time>2014-6-3T15:54:32Z</time></trkpt>
<trkpt lat="45.793987" lon="1.39765"><ele></ele><time>2014-6-3T15:54:35Z</time></trkpt>
<trkpt lat="45.794008" lon="1.397746"><ele></ele><time>2014-6-3T15:54:38Z</time></trkpt>
<trkpt lat="45.794022" lon="1.397834"><ele></ele><time>2014-6-3T15:54:41Z</time></trkpt>
<trkpt lat="45.794016" lon="1.397915"><ele></ele><time>2014-6-3T15:54:44Z</time></trkpt>
<trkpt lat="45.793998" lon="1.397978"><ele></ele><time>2014-6-3T15:54:47Z</time></trkpt>
<trkpt lat="45.793986" lon="1.398084"><ele></ele><time>2014-6-3T15:54:50Z</time></trkpt>
<trkpt lat="45.79397" lon="1.398194"><ele></ele><time>2014-6-3T15:54:53Z</time></trkpt>
<trkpt lat="45.793962" lon="1.398299"><ele></ele><time>2014-6-3T15:54:56Z</time></trkpt>
<trkpt lat="45.793946" lon="1.398393"><ele></ele><time>2014-6-3T15:54:59Z</time></trkpt>
<trkpt lat="45.793909" lon="1.398492"><ele></ele><time>2014-6-3T15:55:2Z</time></trkpt>
<trkpt lat="45.793881" lon="1.398575"><ele></ele><time>2014-6-3T15:55:5Z</time></trkpt>
<trkpt lat="45.793857" lon="1.398716"><ele></ele><time>2014-6-3T15:55:8Z</time></trkpt>
<trkpt lat="45.793853" lon="1.398793"><ele></ele><time>2014-6-3T15:55:11Z</time></trkpt>
<trkpt lat="45.79385" lon="1.398904"><ele></ele><time>2014-6-3T15:55:14Z</time></trkpt>
<trkpt lat="45.79382" lon="1.398993"><ele></ele><time>2014-6-3T15:55:17Z</time></trkpt>
<trkpt lat="45.793798" lon="1.399063"><ele></ele><time>2014-6-3T15:55:20Z</time></trkpt>
<trkpt lat="45.793778" lon="1.399153"><ele></ele><time>2014-6-3T15:55:23Z</time></trkpt>
<trkpt lat="45.793759" lon="1.399238"><ele></ele><time>2014-6-3T15:55:26Z</time></trkpt>
<trkpt lat="45.793736" lon="1.39933"><ele></ele><time>2014-6-3T15:55:29Z</time></trkpt>
<trkpt lat="45.793722" lon="1.399447"><ele></ele><time>2014-6-3T15:55:32Z</time></trkpt>
<trkpt lat="45.793689" lon="1.399577"><ele></ele><time>2014-6-3T15:55:35Z</time></trkpt>
<trkpt lat="45.793651" lon="1.399714"><ele></ele><time>2014-6-3T15:55:38Z</time></trkpt>
<trkpt lat="45.793615" lon="1.399853"><ele></ele><time>2014-6-3T15:55:41Z</time></trkpt>
<trkpt lat="45.793585" lon="1.399983"><ele></ele><time>2014-6-3T15:55:44Z</time></trkpt>
<trkpt lat="45.793561" lon="1.400118"><ele></ele><time>2014-6-3T15:55:47Z</time></trkpt>
<trkpt lat="45.793544" lon="1.400235"><ele></ele><time>2014-6-3T15:55:50Z</time></trkpt>
<trkpt lat="45.793526" lon="1.400356"><ele></ele><time>2014-6-3T15:55:53Z</time></trkpt>
<trkpt lat="45.793516" lon="1.40046"><ele></ele><time>2014-6-3T15:55:56Z</time></trkpt>
<trkpt lat="45.793506" lon="1.400563"><ele></ele><time>2014-6-3T15:55:59Z</time></trkpt>
<trkpt lat="45.793501" lon="1.400666"><ele></ele><time>2014-6-3T15:56:2Z</time></trkpt>
<trkpt lat="45.793539" lon="1.400741"><ele></ele><time>2014-6-3T15:56:5Z</time></trkpt>
<trkpt lat="45.793541" lon="1.400844"><ele></ele><time>2014-6-3T15:56:8Z</time></trkpt>
<trkpt lat="45.793547" lon="1.400952"><ele></ele><time>2014-6-3T15:56:11Z</time></trkpt>
<trkpt lat="45.793575" lon="1.401047"><ele></ele><time>2014-6-3T15:56:14Z</time></trkpt>
<trkpt lat="45.793533" lon="1.401144"><ele></ele><time>2014-6-3T15:56:17Z</time></trkpt>
<trkpt lat="45.793502" lon="1.401244"><ele></ele><time>2014-6-3T15:56:20Z</time></trkpt>
<trkpt lat="45.793466" lon="1.401357"><ele></ele><time>2014-6-3T15:56:23Z</time></trkpt>
<trkpt lat="45.79348" lon="1.401456"><ele></ele><time>2014-6-3T15:56:26Z</time></trkpt>
<trkpt lat="45.793489" lon="1.401561"><ele></ele><time>2014-6-3T15:56:29Z</time></trkpt>
<trkpt lat="45.793501" lon="1.40167"><ele></ele><time>2014-6-3T15:56:32Z</time></trkpt>
<trkpt lat="45.793497" lon="1.401762"><ele></ele><time>2014-6-3T15:56:35Z</time></trkpt>
<trkpt lat="45.793502" lon="1.40186"><ele></ele><time>2014-6-3T15:56:38Z</time></trkpt>
<trkpt lat="45.793507" lon="1.401961"><ele></ele><time>2014-6-3T15:56:41Z</time></trkpt>
<trkpt lat="45.793509" lon="1.402073"><ele></ele><time>2014-6-3T15:56:44Z</time></trkpt>
<trkpt lat="45.793474" lon="1.402177"><ele></ele><time>2014-6-3T15:56:47Z</time></trkpt>
<trkpt lat="45.793423" lon="1.402287"><ele></ele><time>2014-6-3T15:56:50Z</time></trkpt>
<trkpt lat="45.793396" lon="1.402387"><ele></ele><time>2014-6-3T15:56:53Z</time></trkpt>
<trkpt lat="45.793373" lon="1.40251"><ele></ele><time>2014-6-3T15:56:56Z</time></trkpt>
<trkpt lat="45.793372" lon="1.402629"><ele></ele><time>2014-6-3T15:56:59Z</time></trkpt>
<trkpt lat="45.793377" lon="1.402749"><ele></ele><time>2014-6-3T15:57:2Z</time></trkpt>
<trkpt lat="45.793376" lon="1.402862"><ele></ele><time>2014-6-3T15:57:5Z</time></trkpt>
<trkpt lat="45.793393" lon="1.402975"><ele></ele><time>2014-6-3T15:57:8Z</time></trkpt>
<trkpt lat="45.793401" lon="1.403098"><ele></ele><time>2014-6-3T15:57:11Z</time></trkpt>
<trkpt lat="45.793416" lon="1.40321"><ele></ele><time>2014-6-3T15:57:14Z</time></trkpt>
<trkpt lat="45.79342" lon="1.403312"><ele></ele><time>2014-6-3T15:57:17Z</time></trkpt>
<trkpt lat="45.793432" lon="1.403424"><ele></ele><time>2014-6-3T15:57:20Z</time></trkpt>
<trkpt lat="45.79345" lon="1.403521"><ele></ele><time>2014-6-3T15:57:23Z</time></trkpt>
<trkpt lat="45.793463" lon="1.40361"><ele></ele><time>2014-6-3T15:57:26Z</time></trkpt>
<trkpt lat="45.793475" lon="1.403701"><ele></ele><time>2014-6-3T15:57:29Z</time></trkpt>
<trkpt lat="45.793488" lon="1.403789"><ele></ele><time>2014-6-3T15:57:32Z</time></trkpt>
<trkpt lat="45.793505" lon="1.403955"><ele></ele><time>2014-6-3T15:57:35Z</time></trkpt>
<trkpt lat="45.793528" lon="1.40409"><ele></ele><time>2014-6-3T15:57:38Z</time></trkpt>
<trkpt lat="45.793546" lon="1.4042"><ele></ele><time>2014-6-3T15:57:41Z</time></trkpt>
<trkpt lat="45.793552" lon="1.404308"><ele></ele><time>2014-6-3T15:57:44Z</time></trkpt>
<trkpt lat="45.793555" lon="1.404406"><ele></ele><time>2014-6-3T15:57:47Z</time></trkpt>
<trkpt lat="45.793556" lon="1.40448"><ele></ele><time>2014-6-3T15:57:50Z</time></trkpt>
<trkpt lat="45.793567" lon="1.404567"><ele></ele><time>2014-6-3T15:57:53Z</time></trkpt>
<trkpt lat="45.793574" lon="1.404656"><ele></ele><time>2014-6-3T15:57:56Z</time></trkpt>
<trkpt lat="45.793592" lon="1.404756"><ele></ele><time>2014-6-3T15:57:59Z</time></trkpt>
<trkpt lat="45.793627" lon="1.404823"><ele></ele><time>2014-6-3T15:58:2Z</time></trkpt>
<trkpt lat="45.79365" lon="1.404918"><ele></ele><time>2014-6-3T15:58:5Z</time></trkpt>
<trkpt lat="45.793685" lon="1.405023"><ele></ele><time>2014-6-3T15:58:8Z</time></trkpt>
<trkpt lat="45.793714" lon="1.405133"><ele></ele><time>2014-6-3T15:58:11Z</time></trkpt>
<trkpt lat="45.79373" lon="1.405194"><ele></ele><time>2014-6-3T15:58:14Z</time></trkpt>
<trkpt lat="45.793744" lon="1.405263"><ele></ele><time>2014-6-3T15:58:17Z</time></trkpt>
<trkpt lat="45.79375" lon="1.405332"><ele></ele><time>2014-6-3T15:58:20Z</time></trkpt>
<trkpt lat="45.793766" lon="1.405402"><ele></ele><time>2014-6-3T15:58:23Z</time></trkpt>
<trkpt lat="45.793783" lon="1.405471"><ele></ele><time>2014-6-3T15:58:26Z</time></trkpt>
<trkpt lat="45.793802" lon="1.405542"><ele></ele><time>2014-6-3T15:58:29Z</time></trkpt>
<trkpt lat="45.793818" lon="1.405606"><ele></ele><time>2014-6-3T15:58:32Z</time></trkpt>
<trkpt lat="45.793834" lon="1.40567"><ele></ele><time>2014-6-3T15:58:35Z</time></trkpt>
<trkpt lat="45.793851" lon="1.405754"><ele></ele><time>2014-6-3T15:58:38Z</time></trkpt>
<trkpt lat="45.793867" lon="1.405817"><ele></ele><time>2014-6-3T15:58:41Z</time></trkpt>
<trkpt lat="45.793878" lon="1.405885"><ele></ele><time>2014-6-3T15:58:44Z</time></trkpt>
<trkpt lat="45.793887" lon="1.405956"><ele></ele><time>2014-6-3T15:58:47Z</time></trkpt>
<trkpt lat="45.793917" lon="1.406066"><ele></ele><time>2014-6-3T15:58:50Z</time></trkpt>
<trkpt lat="45.79393" lon="1.40614"><ele></ele><time>2014-6-3T15:58:53Z</time></trkpt>
<trkpt lat="45.793944" lon="1.406215"><ele></ele><time>2014-6-3T15:58:56Z</time></trkpt>
<trkpt lat="45.793994" lon="1.406322"><ele></ele><time>2014-6-3T15:58:59Z</time></trkpt>
<trkpt lat="45.794013" lon="1.406389"><ele></ele><time>2014-6-3T15:59:2Z</time></trkpt>
<trkpt lat="45.794029" lon="1.406451"><ele></ele><time>2014-6-3T15:59:5Z</time></trkpt>
<trkpt lat="45.794049" lon="1.406516"><ele></ele><time>2014-6-3T15:59:8Z</time></trkpt>
<trkpt lat="45.794069" lon="1.406577"><ele></ele><time>2014-6-3T15:59:11Z</time></trkpt>
<trkpt lat="45.794121" lon="1.406695"><ele></ele><time>2014-6-3T15:59:14Z</time></trkpt>
<trkpt lat="45.794164" lon="1.406815"><ele></ele><time>2014-6-3T15:59:17Z</time></trkpt>
<trkpt lat="45.794196" lon="1.406865"><ele></ele><time>2014-6-3T15:59:20Z</time></trkpt>
<trkpt lat="45.794218" lon="1.40696"><ele></ele><time>2014-6-3T15:59:23Z</time></trkpt>
<trkpt lat="45.794151" lon="1.407019"><ele></ele><time>2014-6-3T15:59:26Z</time></trkpt>
<trkpt lat="45.794104" lon="1.407045"><ele></ele><time>2014-6-3T15:59:29Z</time></trkpt>
<trkpt lat="45.794012" lon="1.407124"><ele></ele><time>2014-6-3T15:59:32Z</time></trkpt>
<trkpt lat="45.793963" lon="1.407155"><ele></ele><time>2014-6-3T15:59:35Z</time></trkpt>
<trkpt lat="45.793914" lon="1.407194"><ele></ele><time>2014-6-3T15:59:38Z</time></trkpt>
<trkpt lat="45.793869" lon="1.40724"><ele></ele><time>2014-6-3T15:59:41Z</time></trkpt>
<trkpt lat="45.793823" lon="1.407288"><ele></ele><time>2014-6-3T15:59:44Z</time></trkpt>
<trkpt lat="45.793771" lon="1.407343"><ele></ele><time>2014-6-3T15:59:47Z</time></trkpt>
<trkpt lat="45.793719" lon="1.4074"><ele></ele><time>2014-6-3T15:59:50Z</time></trkpt>
<trkpt lat="45.793674" lon="1.407464"><ele></ele><time>2014-6-3T15:59:53Z</time></trkpt>
<trkpt lat="45.793629" lon="1.407524"><ele></ele><time>2014-6-3T15:59:56Z</time></trkpt>
<trkpt lat="45.793582" lon="1.407582"><ele></ele><time>2014-6-3T15:59:59Z</time></trkpt>
<trkpt lat="45.793527" lon="1.407648"><ele></ele><time>2014-6-3T16:0:2Z</time></trkpt>
<trkpt lat="45.793462" lon="1.407707"><ele></ele><time>2014-6-3T16:0:5Z</time></trkpt>
<trkpt lat="45.793402" lon="1.407755"><ele></ele><time>2014-6-3T16:0:8Z</time></trkpt>
<trkpt lat="45.793346" lon="1.407801"><ele></ele><time>2014-6-3T16:0:11Z</time></trkpt>
<trkpt lat="45.793292" lon="1.407847"><ele></ele><time>2014-6-3T16:0:14Z</time></trkpt>
<trkpt lat="45.793231" lon="1.4079"><ele></ele><time>2014-6-3T16:0:17Z</time></trkpt>
<trkpt lat="45.793172" lon="1.407921"><ele></ele><time>2014-6-3T16:0:20Z</time></trkpt>
<trkpt lat="45.79311" lon="1.407941"><ele></ele><time>2014-6-3T16:0:23Z</time></trkpt>
<trkpt lat="45.793048" lon="1.407966"><ele></ele><time>2014-6-3T16:0:26Z</time></trkpt>
<trkpt lat="45.792983" lon="1.407976"><ele></ele><time>2014-6-3T16:0:29Z</time></trkpt>
<trkpt lat="45.792913" lon="1.407971"><ele></ele><time>2014-6-3T16:0:32Z</time></trkpt>
<trkpt lat="45.792846" lon="1.407967"><ele></ele><time>2014-6-3T16:0:35Z</time></trkpt>
<trkpt lat="45.792799" lon="1.407942"><ele></ele><time>2014-6-3T16:0:38Z</time></trkpt>
<trkpt lat="45.79275" lon="1.407921"><ele></ele><time>2014-6-3T16:0:41Z</time></trkpt>
<trkpt lat="45.792695" lon="1.407901"><ele></ele><time>2014-6-3T16:0:44Z</time></trkpt>
<trkpt lat="45.792643" lon="1.407867"><ele></ele><time>2014-6-3T16:0:47Z</time></trkpt>
<trkpt lat="45.792603" lon="1.407823"><ele></ele><time>2014-6-3T16:0:50Z</time></trkpt>
<trkpt lat="45.792563" lon="1.407764"><ele></ele><time>2014-6-3T16:0:53Z</time></trkpt>
<trkpt lat="45.79252" lon="1.40772"><ele></ele><time>2014-6-3T16:0:56Z</time></trkpt>
<trkpt lat="45.792468" lon="1.407688"><ele></ele><time>2014-6-3T16:0:59Z</time></trkpt>
<trkpt lat="45.79242" lon="1.407657"><ele></ele><time>2014-6-3T16:1:2Z</time></trkpt>
<trkpt lat="45.792371" lon="1.407636"><ele></ele><time>2014-6-3T16:1:5Z</time></trkpt>
<trkpt lat="45.792323" lon="1.407614"><ele></ele><time>2014-6-3T16:1:8Z</time></trkpt>
<trkpt lat="45.792281" lon="1.407588"><ele></ele><time>2014-6-3T16:1:11Z</time></trkpt>
<trkpt lat="45.792231" lon="1.407563"><ele></ele><time>2014-6-3T16:1:14Z</time></trkpt>
<trkpt lat="45.792172" lon="1.407522"><ele></ele><time>2014-6-3T16:1:17Z</time></trkpt>
<trkpt lat="45.792109" lon="1.407506"><ele></ele><time>2014-6-3T16:1:20Z</time></trkpt>
<trkpt lat="45.792059" lon="1.407475"><ele></ele><time>2014-6-3T16:1:23Z</time></trkpt>
<trkpt lat="45.792009" lon="1.407439"><ele></ele><time>2014-6-3T16:1:26Z</time></trkpt>
<trkpt lat="45.791958" lon="1.407402"><ele></ele><time>2014-6-3T16:1:29Z</time></trkpt>
<trkpt lat="45.791878" lon="1.40734"><ele></ele><time>2014-6-3T16:1:32Z</time></trkpt>
<trkpt lat="45.791829" lon="1.407321"><ele></ele><time>2014-6-3T16:1:35Z</time></trkpt>
<trkpt lat="45.791768" lon="1.407291"><ele></ele><time>2014-6-3T16:1:38Z</time></trkpt>
<trkpt lat="45.791722" lon="1.407257"><ele></ele><time>2014-6-3T16:1:41Z</time></trkpt>
<trkpt lat="45.791671" lon="1.407237"><ele></ele><time>2014-6-3T16:1:44Z</time></trkpt>
<trkpt lat="45.791569" lon="1.407204"><ele></ele><time>2014-6-3T16:1:47Z</time></trkpt>
<trkpt lat="45.791515" lon="1.407194"><ele></ele><time>2014-6-3T16:1:50Z</time></trkpt>
<trkpt lat="45.791466" lon="1.407194"><ele></ele><time>2014-6-3T16:1:53Z</time></trkpt>
<trkpt lat="45.791387" lon="1.407212"><ele></ele><time>2014-6-3T16:1:56Z</time></trkpt>
<trkpt lat="45.791303" lon="1.40723"><ele></ele><time>2014-6-3T16:1:59Z</time></trkpt>
<trkpt lat="45.791228" lon="1.407243"><ele></ele><time>2014-6-3T16:2:2Z</time></trkpt>
<trkpt lat="45.791139" lon="1.407254"><ele></ele><time>2014-6-3T16:2:5Z</time></trkpt>
<trkpt lat="45.791014" lon="1.407254"><ele></ele><time>2014-6-3T16:2:8Z</time></trkpt>
<trkpt lat="45.790929" lon="1.407281"><ele></ele><time>2014-6-3T16:2:11Z</time></trkpt>
<trkpt lat="45.790883" lon="1.407294"><ele></ele><time>2014-6-3T16:2:14Z</time></trkpt>
<trkpt lat="45.790813" lon="1.407309"><ele></ele><time>2014-6-3T16:2:17Z</time></trkpt>
<trkpt lat="45.790746" lon="1.407321"><ele></ele><time>2014-6-3T16:2:20Z</time></trkpt>
<trkpt lat="45.790673" lon="1.407313"><ele></ele><time>2014-6-3T16:2:23Z</time></trkpt>
<trkpt lat="45.790626" lon="1.407321"><ele></ele><time>2014-6-3T16:2:26Z</time></trkpt>
<trkpt lat="45.790558" lon="1.407326"><ele></ele><time>2014-6-3T16:2:29Z</time></trkpt>
<trkpt lat="45.790477" lon="1.407346"><ele></ele><time>2014-6-3T16:2:32Z</time></trkpt>
<trkpt lat="45.790436" lon="1.407374"><ele></ele><time>2014-6-3T16:2:35Z</time></trkpt>
<trkpt lat="45.790379" lon="1.407411"><ele></ele><time>2014-6-3T16:2:38Z</time></trkpt>
<trkpt lat="45.790326" lon="1.407473"><ele></ele><time>2014-6-3T16:2:41Z</time></trkpt>
<trkpt lat="45.790282" lon="1.407504"><ele></ele><time>2014-6-3T16:2:44Z</time></trkpt>
<trkpt lat="45.79022" lon="1.407556"><ele></ele><time>2014-6-3T16:2:47Z</time></trkpt>
<trkpt lat="45.790181" lon="1.407605"><ele></ele><time>2014-6-3T16:2:50Z</time></trkpt>
<trkpt lat="45.790137" lon="1.407674"><ele></ele><time>2014-6-3T16:2:53Z</time></trkpt>
<trkpt lat="45.790098" lon="1.407749"><ele></ele><time>2014-6-3T16:2:56Z</time></trkpt>
<trkpt lat="45.790068" lon="1.407813"><ele></ele><time>2014-6-3T16:2:59Z</time></trkpt>
<trkpt lat="45.790044" lon="1.407871"><ele></ele><time>2014-6-3T16:3:2Z</time></trkpt>
<trkpt lat="45.790005" lon="1.407946"><ele></ele><time>2014-6-3T16:3:5Z</time></trkpt>
<trkpt lat="45.789973" lon="1.408018"><ele></ele><time>2014-6-3T16:3:8Z</time></trkpt>
<trkpt lat="45.789943" lon="1.40807"><ele></ele><time>2014-6-3T16:3:11Z</time></trkpt>
<trkpt lat="45.789926" lon="1.408146"><ele></ele><time>2014-6-3T16:3:14Z</time></trkpt>
<trkpt lat="45.789897" lon="1.408204"><ele></ele><time>2014-6-3T16:3:17Z</time></trkpt>
<trkpt lat="45.789872" lon="1.408281"><ele></ele><time>2014-6-3T16:3:20Z</time></trkpt>
<trkpt lat="45.789857" lon="1.408356"><ele></ele><time>2014-6-3T16:3:23Z</time></trkpt>
<trkpt lat="45.789834" lon="1.408425"><ele></ele><time>2014-6-3T16:3:26Z</time></trkpt>
<trkpt lat="45.789792" lon="1.408464"><ele></ele><time>2014-6-3T16:3:29Z</time></trkpt>
<trkpt lat="45.789763" lon="1.408516"><ele></ele><time>2014-6-3T16:3:32Z</time></trkpt>
<trkpt lat="45.789732" lon="1.408571"><ele></ele><time>2014-6-3T16:3:35Z</time></trkpt>
<trkpt lat="45.789719" lon="1.408662"><ele></ele><time>2014-6-3T16:3:38Z</time></trkpt>
<trkpt lat="45.789656" lon="1.408761"><ele></ele><time>2014-6-3T16:3:41Z</time></trkpt>
<trkpt lat="45.789622" lon="1.408817"><ele></ele><time>2014-6-3T16:3:44Z</time></trkpt>
<trkpt lat="45.789588" lon="1.40886"><ele></ele><time>2014-6-3T16:3:47Z</time></trkpt>
<trkpt lat="45.789532" lon="1.408935"><ele></ele><time>2014-6-3T16:3:50Z</time></trkpt>
<trkpt lat="45.78948" lon="1.40902"><ele></ele><time>2014-6-3T16:3:53Z</time></trkpt>
<trkpt lat="45.789431" lon="1.409116"><ele></ele><time>2014-6-3T16:3:56Z</time></trkpt>
<trkpt lat="45.789397" lon="1.409208"><ele></ele><time>2014-6-3T16:3:59Z</time></trkpt>
<trkpt lat="45.789371" lon="1.409263"><ele></ele><time>2014-6-3T16:4:2Z</time></trkpt>
<trkpt lat="45.78933" lon="1.409322"><ele></ele><time>2014-6-3T16:4:5Z</time></trkpt>
<trkpt lat="45.789307" lon="1.409381"><ele></ele><time>2014-6-3T16:4:8Z</time></trkpt>
<trkpt lat="45.78928" lon="1.409484"><ele></ele><time>2014-6-3T16:4:11Z</time></trkpt>
<trkpt lat="45.78923" lon="1.409594"><ele></ele><time>2014-6-3T16:4:14Z</time></trkpt>
<trkpt lat="45.789203" lon="1.409701"><ele></ele><time>2014-6-3T16:4:17Z</time></trkpt>
<trkpt lat="45.789183" lon="1.40978"><ele></ele><time>2014-6-3T16:4:20Z</time></trkpt>
<trkpt lat="45.789166" lon="1.409934"><ele></ele><time>2014-6-3T16:4:23Z</time></trkpt>
<trkpt lat="45.789164" lon="1.410012"><ele></ele><time>2014-6-3T16:4:26Z</time></trkpt>
<trkpt lat="45.789175" lon="1.410075"><ele></ele><time>2014-6-3T16:4:29Z</time></trkpt>
<trkpt lat="45.788997" lon="1.410216"><ele></ele><time>2014-6-3T16:4:32Z</time></trkpt>
<trkpt lat="45.78882" lon="1.410336"><ele></ele><time>2014-6-3T16:4:35Z</time></trkpt>
<trkpt lat="45.788702" lon="1.410461"><ele></ele><time>2014-6-3T16:4:38Z</time></trkpt>
<trkpt lat="45.788656" lon="1.410555"><ele></ele><time>2014-6-3T16:4:41Z</time></trkpt>
<trkpt lat="45.788616" lon="1.41063"><ele></ele><time>2014-6-3T16:4:44Z</time></trkpt>
<trkpt lat="45.788581" lon="1.410673"><ele></ele><time>2014-6-3T16:4:47Z</time></trkpt>
<trkpt lat="45.788533" lon="1.410736"><ele></ele><time>2014-6-3T16:4:50Z</time></trkpt>
<trkpt lat="45.788366" lon="1.410848"><ele></ele><time>2014-6-3T16:4:53Z</time></trkpt>
<trkpt lat="45.788291" lon="1.410906"><ele></ele><time>2014-6-3T16:4:56Z</time></trkpt>
<trkpt lat="45.788211" lon="1.410973"><ele></ele><time>2014-6-3T16:4:59Z</time></trkpt>
<trkpt lat="45.788153" lon="1.411043"><ele></ele><time>2014-6-3T16:5:2Z</time></trkpt>
<trkpt lat="45.788081" lon="1.411086"><ele></ele><time>2014-6-3T16:5:5Z</time></trkpt>
<trkpt lat="45.787979" lon="1.41117"><ele></ele><time>2014-6-3T16:5:8Z</time></trkpt>
<trkpt lat="45.787897" lon="1.411227"><ele></ele><time>2014-6-3T16:5:11Z</time></trkpt>
<trkpt lat="45.787819" lon="1.411304"><ele></ele><time>2014-6-3T16:5:14Z</time></trkpt>
<trkpt lat="45.787719" lon="1.411387"><ele></ele><time>2014-6-3T16:5:17Z</time></trkpt>
<trkpt lat="45.787637" lon="1.411486"><ele></ele><time>2014-6-3T16:5:20Z</time></trkpt>
<trkpt lat="45.787553" lon="1.411551"><ele></ele><time>2014-6-3T16:5:23Z</time></trkpt>
<trkpt lat="45.787451" lon="1.411639"><ele></ele><time>2014-6-3T16:5:26Z</time></trkpt>
<trkpt lat="45.787364" lon="1.411698"><ele></ele><time>2014-6-3T16:5:29Z</time></trkpt>
<trkpt lat="45.787276" lon="1.41176"><ele></ele><time>2014-6-3T16:5:32Z</time></trkpt>
<trkpt lat="45.787173" lon="1.411846"><ele></ele><time>2014-6-3T16:5:35Z</time></trkpt>
<trkpt lat="45.787076" lon="1.411931"><ele></ele><time>2014-6-3T16:5:38Z</time></trkpt>
<trkpt lat="45.786985" lon="1.412003"><ele></ele><time>2014-6-3T16:5:41Z</time></trkpt>
<trkpt lat="45.786889" lon="1.412081"><ele></ele><time>2014-6-3T16:5:44Z</time></trkpt>
<trkpt lat="45.786801" lon="1.412129"><ele></ele><time>2014-6-3T16:5:47Z</time></trkpt>
<trkpt lat="45.786701" lon="1.412224"><ele></ele><time>2014-6-3T16:5:50Z</time></trkpt>
<trkpt lat="45.786629" lon="1.412285"><ele></ele><time>2014-6-3T16:5:53Z</time></trkpt>
<trkpt lat="45.786541" lon="1.412366"><ele></ele><time>2014-6-3T16:5:56Z</time></trkpt>
<trkpt lat="45.786456" lon="1.412425"><ele></ele><time>2014-6-3T16:5:59Z</time></trkpt>
<trkpt lat="45.786366" lon="1.412459"><ele></ele><time>2014-6-3T16:6:2Z</time></trkpt>
<trkpt lat="45.786289" lon="1.412476"><ele></ele><time>2014-6-3T16:6:5Z</time></trkpt>
<trkpt lat="45.786192" lon="1.412466"><ele></ele><time>2014-6-3T16:6:8Z</time></trkpt>
<trkpt lat="45.786122" lon="1.41244"><ele></ele><time>2014-6-3T16:6:11Z</time></trkpt>
<trkpt lat="45.786042" lon="1.412458"><ele></ele><time>2014-6-3T16:6:14Z</time></trkpt>
<trkpt lat="45.785966" lon="1.412449"><ele></ele><time>2014-6-3T16:6:17Z</time></trkpt>
<trkpt lat="45.785891" lon="1.412451"><ele></ele><time>2014-6-3T16:6:20Z</time></trkpt>
<trkpt lat="45.785805" lon="1.412454"><ele></ele><time>2014-6-3T16:6:23Z</time></trkpt>
<trkpt lat="45.785723" lon="1.412469"><ele></ele><time>2014-6-3T16:6:26Z</time></trkpt>
<trkpt lat="45.785644" lon="1.412475"><ele></ele><time>2014-6-3T16:6:29Z</time></trkpt>
<trkpt lat="45.785557" lon="1.412495"><ele></ele><time>2014-6-3T16:6:32Z</time></trkpt>
<trkpt lat="45.785462" lon="1.41253"><ele></ele><time>2014-6-3T16:6:35Z</time></trkpt>
<trkpt lat="45.785368" lon="1.412555"><ele></ele><time>2014-6-3T16:6:38Z</time></trkpt>
<trkpt lat="45.785283" lon="1.41258"><ele></ele><time>2014-6-3T16:6:41Z</time></trkpt>
<trkpt lat="45.785205" lon="1.412547"><ele></ele><time>2014-6-3T16:6:44Z</time></trkpt>
<trkpt lat="45.78513" lon="1.412559"><ele></ele><time>2014-6-3T16:6:47Z</time></trkpt>
<trkpt lat="45.785045" lon="1.412583"><ele></ele><time>2014-6-3T16:6:50Z</time></trkpt>
<trkpt lat="45.784959" lon="1.412593"><ele></ele><time>2014-6-3T16:6:53Z</time></trkpt>
<trkpt lat="45.784869" lon="1.412603"><ele></ele><time>2014-6-3T16:6:56Z</time></trkpt>
<trkpt lat="45.784768" lon="1.41262"><ele></ele><time>2014-6-3T16:6:59Z</time></trkpt>
<trkpt lat="45.784676" lon="1.412622"><ele></ele><time>2014-6-3T16:7:2Z</time></trkpt>
<trkpt lat="45.784591" lon="1.412637"><ele></ele><time>2014-6-3T16:7:5Z</time></trkpt>
<trkpt lat="45.784513" lon="1.412657"><ele></ele><time>2014-6-3T16:7:8Z</time></trkpt>
<trkpt lat="45.784422" lon="1.412676"><ele></ele><time>2014-6-3T16:7:11Z</time></trkpt>
<trkpt lat="45.784241" lon="1.412738"><ele></ele><time>2014-6-3T16:7:14Z</time></trkpt>
<trkpt lat="45.784159" lon="1.412773"><ele></ele><time>2014-6-3T16:7:17Z</time></trkpt>
<trkpt lat="45.784081" lon="1.412807"><ele></ele><time>2014-6-3T16:7:20Z</time></trkpt>
<trkpt lat="45.784008" lon="1.412829"><ele></ele><time>2014-6-3T16:7:23Z</time></trkpt>
<trkpt lat="45.783927" lon="1.412865"><ele></ele><time>2014-6-3T16:7:26Z</time></trkpt>
<trkpt lat="45.783872" lon="1.412808"><ele></ele><time>2014-6-3T16:7:29Z</time></trkpt>
<trkpt lat="45.783795" lon="1.412842"><ele></ele><time>2014-6-3T16:7:32Z</time></trkpt>
<trkpt lat="45.783714" lon="1.412869"><ele></ele><time>2014-6-3T16:7:35Z</time></trkpt>
<trkpt lat="45.783641" lon="1.412903"><ele></ele><time>2014-6-3T16:7:38Z</time></trkpt>
<trkpt lat="45.783566" lon="1.41293"><ele></ele><time>2014-6-3T16:7:41Z</time></trkpt>
<trkpt lat="45.783495" lon="1.412962"><ele></ele><time>2014-6-3T16:7:44Z</time></trkpt>
<trkpt lat="45.783411" lon="1.413002"><ele></ele><time>2014-6-3T16:7:47Z</time></trkpt>
<trkpt lat="45.783338" lon="1.413052"><ele></ele><time>2014-6-3T16:7:50Z</time></trkpt>
<trkpt lat="45.783289" lon="1.413108"><ele></ele><time>2014-6-3T16:7:53Z</time></trkpt>
<trkpt lat="45.783234" lon="1.413173"><ele></ele><time>2014-6-3T16:7:56Z</time></trkpt>
<trkpt lat="45.783196" lon="1.413244"><ele></ele><time>2014-6-3T16:7:59Z</time></trkpt>
<trkpt lat="45.78315" lon="1.413308"><ele></ele><time>2014-6-3T16:8:2Z</time></trkpt>
<trkpt lat="45.783081" lon="1.413366"><ele></ele><time>2014-6-3T16:8:5Z</time></trkpt>
<trkpt lat="45.783007" lon="1.413409"><ele></ele><time>2014-6-3T16:8:8Z</time></trkpt>
<trkpt lat="45.782941" lon="1.413416"><ele></ele><time>2014-6-3T16:8:11Z</time></trkpt>
<trkpt lat="45.782864" lon="1.413457"><ele></ele><time>2014-6-3T16:8:14Z</time></trkpt>
<trkpt lat="45.782798" lon="1.413505"><ele></ele><time>2014-6-3T16:8:17Z</time></trkpt>
<trkpt lat="45.782751" lon="1.413566"><ele></ele><time>2014-6-3T16:8:20Z</time></trkpt>
<trkpt lat="45.78269" lon="1.41361"><ele></ele><time>2014-6-3T16:8:23Z</time></trkpt>
<trkpt lat="45.782619" lon="1.413641"><ele></ele><time>2014-6-3T16:8:26Z</time></trkpt>
<trkpt lat="45.78254" lon="1.413695"><ele></ele><time>2014-6-3T16:8:29Z</time></trkpt>
<trkpt lat="45.782456" lon="1.413689"><ele></ele><time>2014-6-3T16:8:32Z</time></trkpt>
<trkpt lat="45.782379" lon="1.413712"><ele></ele><time>2014-6-3T16:8:35Z</time></trkpt>
<trkpt lat="45.782307" lon="1.413678"><ele></ele><time>2014-6-3T16:8:38Z</time></trkpt>
<trkpt lat="45.782245" lon="1.413708"><ele></ele><time>2014-6-3T16:8:41Z</time></trkpt>
<trkpt lat="45.782175" lon="1.41379"><ele></ele><time>2014-6-3T16:8:44Z</time></trkpt>
<trkpt lat="45.782114" lon="1.413844"><ele></ele><time>2014-6-3T16:8:47Z</time></trkpt>
<trkpt lat="45.782046" lon="1.413905"><ele></ele><time>2014-6-3T16:8:50Z</time></trkpt>
<trkpt lat="45.781972" lon="1.41392"><ele></ele><time>2014-6-3T16:8:53Z</time></trkpt>
<trkpt lat="45.781899" lon="1.413966"><ele></ele><time>2014-6-3T16:8:56Z</time></trkpt>
<trkpt lat="45.781822" lon="1.414002"><ele></ele><time>2014-6-3T16:8:59Z</time></trkpt>
<trkpt lat="45.781751" lon="1.414041"><ele></ele><time>2014-6-3T16:9:2Z</time></trkpt>
<trkpt lat="45.781688" lon="1.414074"><ele></ele><time>2014-6-3T16:9:5Z</time></trkpt>
<trkpt lat="45.781621" lon="1.414107"><ele></ele><time>2014-6-3T16:9:8Z</time></trkpt>
<trkpt lat="45.781567" lon="1.414138"><ele></ele><time>2014-6-3T16:9:11Z</time></trkpt>
<trkpt lat="45.781516" lon="1.414186"><ele></ele><time>2014-6-3T16:9:14Z</time></trkpt>
<trkpt lat="45.781466" lon="1.414237"><ele></ele><time>2014-6-3T16:9:17Z</time></trkpt>
<trkpt lat="45.781418" lon="1.414278"><ele></ele><time>2014-6-3T16:9:20Z</time></trkpt>
<trkpt lat="45.78137" lon="1.414321"><ele></ele><time>2014-6-3T16:9:23Z</time></trkpt>
<trkpt lat="45.781317" lon="1.414352"><ele></ele><time>2014-6-3T16:9:26Z</time></trkpt>
<trkpt lat="45.781254" lon="1.414387"><ele></ele><time>2014-6-3T16:9:29Z</time></trkpt>
<trkpt lat="45.781198" lon="1.414419"><ele></ele><time>2014-6-3T16:9:32Z</time></trkpt>
<trkpt lat="45.781143" lon="1.414463"><ele></ele><time>2014-6-3T16:9:35Z</time></trkpt>
<trkpt lat="45.781084" lon="1.414502"><ele></ele><time>2014-6-3T16:9:38Z</time></trkpt>
<trkpt lat="45.781016" lon="1.414538"><ele></ele><time>2014-6-3T16:9:41Z</time></trkpt>
<trkpt lat="45.780947" lon="1.414575"><ele></ele><time>2014-6-3T16:9:44Z</time></trkpt>
<trkpt lat="45.780877" lon="1.414616"><ele></ele><time>2014-6-3T16:9:47Z</time></trkpt>
<trkpt lat="45.780803" lon="1.414658"><ele></ele><time>2014-6-3T16:9:50Z</time></trkpt>
<trkpt lat="45.780732" lon="1.414695"><ele></ele><time>2014-6-3T16:9:53Z</time></trkpt>
<trkpt lat="45.780666" lon="1.414745"><ele></ele><time>2014-6-3T16:9:56Z</time></trkpt>
<trkpt lat="45.780599" lon="1.414792"><ele></ele><time>2014-6-3T16:9:59Z</time></trkpt>
<trkpt lat="45.780535" lon="1.414842"><ele></ele><time>2014-6-3T16:10:2Z</time></trkpt>
<trkpt lat="45.780489" lon="1.414857"><ele></ele><time>2014-6-3T16:10:5Z</time></trkpt>
<trkpt lat="45.780411" lon="1.414898"><ele></ele><time>2014-6-3T16:10:8Z</time></trkpt>
<trkpt lat="45.780288" lon="1.414886"><ele></ele><time>2014-6-3T16:10:11Z</time></trkpt>
<trkpt lat="45.780241" lon="1.414912"><ele></ele><time>2014-6-3T16:10:14Z</time></trkpt>
<trkpt lat="45.780211" lon="1.414966"><ele></ele><time>2014-6-3T16:10:17Z</time></trkpt>
<trkpt lat="45.780177" lon="1.415025"><ele></ele><time>2014-6-3T16:10:20Z</time></trkpt>
<trkpt lat="45.780147" lon="1.415109"><ele></ele><time>2014-6-3T16:10:23Z</time></trkpt>
<trkpt lat="45.780117" lon="1.415179"><ele></ele><time>2014-6-3T16:10:26Z</time></trkpt>
<trkpt lat="45.780082" lon="1.415258"><ele></ele><time>2014-6-3T16:10:29Z</time></trkpt>
<trkpt lat="45.780042" lon="1.415332"><ele></ele><time>2014-6-3T16:10:32Z</time></trkpt>
<trkpt lat="45.780008" lon="1.415393"><ele></ele><time>2014-6-3T16:10:35Z</time></trkpt>
<trkpt lat="45.77997" lon="1.415465"><ele></ele><time>2014-6-3T16:10:38Z</time></trkpt>
<trkpt lat="45.77993" lon="1.415537"><ele></ele><time>2014-6-3T16:10:41Z</time></trkpt>
<trkpt lat="45.7799" lon="1.415609"><ele></ele><time>2014-6-3T16:10:44Z</time></trkpt>
<trkpt lat="45.779869" lon="1.41567"><ele></ele><time>2014-6-3T16:10:47Z</time></trkpt>
<trkpt lat="45.779835" lon="1.41574"><ele></ele><time>2014-6-3T16:10:50Z</time></trkpt>
<trkpt lat="45.779809" lon="1.415803"><ele></ele><time>2014-6-3T16:10:53Z</time></trkpt>
<trkpt lat="45.779771" lon="1.415871"><ele></ele><time>2014-6-3T16:10:56Z</time></trkpt>
<trkpt lat="45.779738" lon="1.415939"><ele></ele><time>2014-6-3T16:10:59Z</time></trkpt>
<trkpt lat="45.779707" lon="1.416006"><ele></ele><time>2014-6-3T16:11:2Z</time></trkpt>
<trkpt lat="45.779681" lon="1.416062"><ele></ele><time>2014-6-3T16:11:5Z</time></trkpt>
<trkpt lat="45.77965" lon="1.416122"><ele></ele><time>2014-6-3T16:11:8Z</time></trkpt>
<trkpt lat="45.779622" lon="1.416186"><ele></ele><time>2014-6-3T16:11:11Z</time></trkpt>
<trkpt lat="45.779595" lon="1.416246"><ele></ele><time>2014-6-3T16:11:14Z</time></trkpt>
<trkpt lat="45.779568" lon="1.416304"><ele></ele><time>2014-6-3T16:11:17Z</time></trkpt>
<trkpt lat="45.779537" lon="1.416363"><ele></ele><time>2014-6-3T16:11:20Z</time></trkpt>
<trkpt lat="45.779512" lon="1.41642"><ele></ele><time>2014-6-3T16:11:23Z</time></trkpt>
<trkpt lat="45.779478" lon="1.416485"><ele></ele><time>2014-6-3T16:11:26Z</time></trkpt>
<trkpt lat="45.779447" lon="1.416554"><ele></ele><time>2014-6-3T16:11:29Z</time></trkpt>
<trkpt lat="45.779413" lon="1.416616"><ele></ele><time>2014-6-3T16:11:32Z</time></trkpt>
<trkpt lat="45.779381" lon="1.416676"><ele></ele><time>2014-6-3T16:11:35Z</time></trkpt>
<trkpt lat="45.779352" lon="1.416741"><ele></ele><time>2014-6-3T16:11:38Z</time></trkpt>
<trkpt lat="45.779321" lon="1.416809"><ele></ele><time>2014-6-3T16:11:41Z</time></trkpt>
<trkpt lat="45.779288" lon="1.416879"><ele></ele><time>2014-6-3T16:11:44Z</time></trkpt>
<trkpt lat="45.77925" lon="1.416956"><ele></ele><time>2014-6-3T16:11:47Z</time></trkpt>
<trkpt lat="45.779213" lon="1.417033"><ele></ele><time>2014-6-3T16:11:50Z</time></trkpt>
<trkpt lat="45.779179" lon="1.417102"><ele></ele><time>2014-6-3T16:11:53Z</time></trkpt>
<trkpt lat="45.779148" lon="1.41717"><ele></ele><time>2014-6-3T16:11:56Z</time></trkpt>
<trkpt lat="45.779119" lon="1.417234"><ele></ele><time>2014-6-3T16:11:59Z</time></trkpt>
<trkpt lat="45.779096" lon="1.417298"><ele></ele><time>2014-6-3T16:12:2Z</time></trkpt>
<trkpt lat="45.779064" lon="1.417368"><ele></ele><time>2014-6-3T16:12:5Z</time></trkpt>
<trkpt lat="45.779028" lon="1.417434"><ele></ele><time>2014-6-3T16:12:8Z</time></trkpt>
<trkpt lat="45.778992" lon="1.417503"><ele></ele><time>2014-6-3T16:12:11Z</time></trkpt>
<trkpt lat="45.778958" lon="1.417567"><ele></ele><time>2014-6-3T16:12:14Z</time></trkpt>
<trkpt lat="45.778925" lon="1.417631"><ele></ele><time>2014-6-3T16:12:17Z</time></trkpt>
<trkpt lat="45.77889" lon="1.417695"><ele></ele><time>2014-6-3T16:12:20Z</time></trkpt>
<trkpt lat="45.77886" lon="1.417761"><ele></ele><time>2014-6-3T16:12:23Z</time></trkpt>
<trkpt lat="45.778831" lon="1.417824"><ele></ele><time>2014-6-3T16:12:26Z</time></trkpt>
<trkpt lat="45.778799" lon="1.417886"><ele></ele><time>2014-6-3T16:12:29Z</time></trkpt>
<trkpt lat="45.77877" lon="1.417945"><ele></ele><time>2014-6-3T16:12:32Z</time></trkpt>
<trkpt lat="45.778741" lon="1.41801"><ele></ele><time>2014-6-3T16:12:35Z</time></trkpt>
<trkpt lat="45.778707" lon="1.418075"><ele></ele><time>2014-6-3T16:12:38Z</time></trkpt>
<trkpt lat="45.778686" lon="1.418135"><ele></ele><time>2014-6-3T16:12:41Z</time></trkpt>
<trkpt lat="45.778652" lon="1.418193"><ele></ele><time>2014-6-3T16:12:44Z</time></trkpt>
<trkpt lat="45.778628" lon="1.418252"><ele></ele><time>2014-6-3T16:12:47Z</time></trkpt>
<trkpt lat="45.778572" lon="1.418352"><ele></ele><time>2014-6-3T16:12:50Z</time></trkpt>
<trkpt lat="45.778521" lon="1.418455"><ele></ele><time>2014-6-3T16:12:53Z</time></trkpt>
<trkpt lat="45.778474" lon="1.418556"><ele></ele><time>2014-6-3T16:12:56Z</time></trkpt>
<trkpt lat="45.778474" lon="1.418556"><ele></ele><time>2014-6-3T16:12:59Z</time></trkpt>
<trkpt lat="45.77843" lon="1.418662"><ele></ele><time>2014-6-3T16:13:2Z</time></trkpt>
<trkpt lat="45.77839" lon="1.418762"><ele></ele><time>2014-6-3T16:13:5Z</time></trkpt>
<trkpt lat="45.778336" lon="1.418864"><ele></ele><time>2014-6-3T16:13:8Z</time></trkpt>
<trkpt lat="45.77829" lon="1.41896"><ele></ele><time>2014-6-3T16:13:11Z</time></trkpt>
<trkpt lat="45.778243" lon="1.41905"><ele></ele><time>2014-6-3T16:13:14Z</time></trkpt>
<trkpt lat="45.778195" lon="1.419157"><ele></ele><time>2014-6-3T16:13:17Z</time></trkpt>
<trkpt lat="45.778144" lon="1.419262"><ele></ele><time>2014-6-3T16:13:20Z</time></trkpt>
<trkpt lat="45.778103" lon="1.419363"><ele></ele><time>2014-6-3T16:13:23Z</time></trkpt>
<trkpt lat="45.778053" lon="1.41945"><ele></ele><time>2014-6-3T16:13:26Z</time></trkpt>
<trkpt lat="45.778008" lon="1.419545"><ele></ele><time>2014-6-3T16:13:29Z</time></trkpt>
<trkpt lat="45.77796" lon="1.419643"><ele></ele><time>2014-6-3T16:13:32Z</time></trkpt>
<trkpt lat="45.777913" lon="1.419747"><ele></ele><time>2014-6-3T16:13:35Z</time></trkpt>
<trkpt lat="45.777865" lon="1.419844"><ele></ele><time>2014-6-3T16:13:38Z</time></trkpt>
<trkpt lat="45.777815" lon="1.419942"><ele></ele><time>2014-6-3T16:13:41Z</time></trkpt>
<trkpt lat="45.777771" lon="1.420042"><ele></ele><time>2014-6-3T16:13:44Z</time></trkpt>
<trkpt lat="45.777726" lon="1.420143"><ele></ele><time>2014-6-3T16:13:47Z</time></trkpt>
<trkpt lat="45.777693" lon="1.420232"><ele></ele><time>2014-6-3T16:13:50Z</time></trkpt>
<trkpt lat="45.777646" lon="1.420324"><ele></ele><time>2014-6-3T16:13:53Z</time></trkpt>
<trkpt lat="45.777602" lon="1.420403"><ele></ele><time>2014-6-3T16:13:56Z</time></trkpt>
<trkpt lat="45.777561" lon="1.420479"><ele></ele><time>2014-6-3T16:13:59Z</time></trkpt>
<trkpt lat="45.777506" lon="1.420532"><ele></ele><time>2014-6-3T16:14:2Z</time></trkpt>
<trkpt lat="45.777453" lon="1.420586"><ele></ele><time>2014-6-3T16:14:5Z</time></trkpt>
<trkpt lat="45.777403" lon="1.4206"><ele></ele><time>2014-6-3T16:14:8Z</time></trkpt>
<trkpt lat="45.777334" lon="1.420596"><ele></ele><time>2014-6-3T16:14:11Z</time></trkpt>
<trkpt lat="45.777267" lon="1.420555"><ele></ele><time>2014-6-3T16:14:14Z</time></trkpt>
<trkpt lat="45.777195" lon="1.420512"><ele></ele><time>2014-6-3T16:14:17Z</time></trkpt>
<trkpt lat="45.777124" lon="1.420479"><ele></ele><time>2014-6-3T16:14:20Z</time></trkpt>
<trkpt lat="45.777074" lon="1.420451"><ele></ele><time>2014-6-3T16:14:23Z</time></trkpt>
<trkpt lat="45.777021" lon="1.420447"><ele></ele><time>2014-6-3T16:14:26Z</time></trkpt>
<trkpt lat="45.77698" lon="1.420487"><ele></ele><time>2014-6-3T16:14:29Z</time></trkpt>
<trkpt lat="45.776954" lon="1.420561"><ele></ele><time>2014-6-3T16:14:32Z</time></trkpt>
<trkpt lat="45.776934" lon="1.420473"><ele></ele><time>2014-6-3T16:14:35Z</time></trkpt>
<trkpt lat="45.776928" lon="1.420402"><ele></ele><time>2014-6-3T16:14:38Z</time></trkpt>
<trkpt lat="45.776873" lon="1.420382"><ele></ele><time>2014-6-3T16:14:41Z</time></trkpt>
<trkpt lat="45.77684" lon="1.420296"><ele></ele><time>2014-6-3T16:14:44Z</time></trkpt>
<trkpt lat="45.776895" lon="1.420315"><ele></ele><time>2014-6-3T16:14:47Z</time></trkpt>
<trkpt lat="45.776809" lon="1.420248"><ele></ele><time>2014-6-3T16:14:50Z</time></trkpt>
<trkpt lat="45.77673" lon="1.420222"><ele></ele><time>2014-6-3T16:14:53Z</time></trkpt>
<trkpt lat="45.776584" lon="1.420035"><ele></ele><time>2014-6-3T16:14:56Z</time></trkpt>
<trkpt lat="45.776562" lon="1.419975"><ele></ele><time>2014-6-3T16:14:59Z</time></trkpt>
<trkpt lat="45.776536" lon="1.419953"><ele></ele><time>2014-6-3T16:15:2Z</time></trkpt>
<trkpt lat="45.776543" lon="1.419961"><ele></ele><time>2014-6-3T16:15:5Z</time></trkpt>
<trkpt lat="45.776599" lon="1.420007"><ele></ele><time>2014-6-3T16:15:8Z</time></trkpt>
<trkpt lat="45.776671" lon="1.420075"><ele></ele><time>2014-6-3T16:15:11Z</time></trkpt>
<trkpt lat="45.776716" lon="1.420116"><ele></ele><time>2014-6-3T16:15:14Z</time></trkpt>
<trkpt lat="45.776759" lon="1.420139"><ele></ele><time>2014-6-3T16:15:17Z</time></trkpt>
<trkpt lat="45.776807" lon="1.420167"><ele></ele><time>2014-6-3T16:15:20Z</time></trkpt>
<trkpt lat="45.77685" lon="1.420203"><ele></ele><time>2014-6-3T16:15:23Z</time></trkpt>
<trkpt lat="45.77679" lon="1.420206"><ele></ele><time>2014-6-3T16:15:26Z</time></trkpt>
<trkpt lat="45.776724" lon="1.420188"><ele></ele><time>2014-6-3T16:15:29Z</time></trkpt>
<trkpt lat="45.776649" lon="1.420145"><ele></ele><time>2014-6-3T16:15:32Z</time></trkpt>
<trkpt lat="45.776601" lon="1.420105"><ele></ele><time>2014-6-3T16:15:35Z</time></trkpt>
<trkpt lat="45.776521" lon="1.420052"><ele></ele><time>2014-6-3T16:15:38Z</time></trkpt>
<trkpt lat="45.776446" lon="1.420007"><ele></ele><time>2014-6-3T16:15:41Z</time></trkpt>
<trkpt lat="45.776369" lon="1.419956"><ele></ele><time>2014-6-3T16:15:44Z</time></trkpt>
<trkpt lat="45.776319" lon="1.419926"><ele></ele><time>2014-6-3T16:15:47Z</time></trkpt>
<trkpt lat="45.776261" lon="1.419884"><ele></ele><time>2014-6-3T16:15:50Z</time></trkpt>
<trkpt lat="45.776203" lon="1.419841"><ele></ele><time>2014-6-3T16:15:53Z</time></trkpt>
<trkpt lat="45.776151" lon="1.419805"><ele></ele><time>2014-6-3T16:15:56Z</time></trkpt>
<trkpt lat="45.776094" lon="1.419777"><ele></ele><time>2014-6-3T16:15:59Z</time></trkpt>
<trkpt lat="45.77604" lon="1.419746"><ele></ele><time>2014-6-3T16:16:2Z</time></trkpt>
<trkpt lat="45.77599" lon="1.419709"><ele></ele><time>2014-6-3T16:16:5Z</time></trkpt>
<trkpt lat="45.775935" lon="1.419673"><ele></ele><time>2014-6-3T16:16:8Z</time></trkpt>
<trkpt lat="45.77588" lon="1.419633"><ele></ele><time>2014-6-3T16:16:11Z</time></trkpt>
<trkpt lat="45.775822" lon="1.419595"><ele></ele><time>2014-6-3T16:16:14Z</time></trkpt>
<trkpt lat="45.775767" lon="1.419559"><ele></ele><time>2014-6-3T16:16:17Z</time></trkpt>
<trkpt lat="45.775716" lon="1.419524"><ele></ele><time>2014-6-3T16:16:20Z</time></trkpt>
<trkpt lat="45.775661" lon="1.419493"><ele></ele><time>2014-6-3T16:16:23Z</time></trkpt>
<trkpt lat="45.775608" lon="1.419456"><ele></ele><time>2014-6-3T16:16:26Z</time></trkpt>
<trkpt lat="45.775561" lon="1.419418"><ele></ele><time>2014-6-3T16:16:29Z</time></trkpt>
<trkpt lat="45.775513" lon="1.41938"><ele></ele><time>2014-6-3T16:16:32Z</time></trkpt>
<trkpt lat="45.775468" lon="1.419345"><ele></ele><time>2014-6-3T16:16:35Z</time></trkpt>
<trkpt lat="45.775428" lon="1.4193"><ele></ele><time>2014-6-3T16:16:38Z</time></trkpt>
<trkpt lat="45.775386" lon="1.41927"><ele></ele><time>2014-6-3T16:16:41Z</time></trkpt>
<trkpt lat="45.775347" lon="1.419229"><ele></ele><time>2014-6-3T16:16:44Z</time></trkpt>
<trkpt lat="45.775309" lon="1.419191"><ele></ele><time>2014-6-3T16:16:47Z</time></trkpt>
<trkpt lat="45.775253" lon="1.419101"><ele></ele><time>2014-6-3T16:16:50Z</time></trkpt>
<trkpt lat="45.775195" lon="1.419045"><ele></ele><time>2014-6-3T16:16:53Z</time></trkpt>
<trkpt lat="45.775142" lon="1.418956"><ele></ele><time>2014-6-3T16:16:56Z</time></trkpt>
<trkpt lat="45.775082" lon="1.418912"><ele></ele><time>2014-6-3T16:16:59Z</time></trkpt>
<trkpt lat="45.775035" lon="1.418842"><ele></ele><time>2014-6-3T16:17:2Z</time></trkpt>
<trkpt lat="45.77498" lon="1.418772"><ele></ele><time>2014-6-3T16:17:5Z</time></trkpt>
<trkpt lat="45.77492" lon="1.418704"><ele></ele><time>2014-6-3T16:17:8Z</time></trkpt>
<trkpt lat="45.774883" lon="1.418662"><ele></ele><time>2014-6-3T16:17:11Z</time></trkpt>
<trkpt lat="45.774812" lon="1.418588"><ele></ele><time>2014-6-3T16:17:14Z</time></trkpt>
<trkpt lat="45.774774" lon="1.418545"><ele></ele><time>2014-6-3T16:17:17Z</time></trkpt>
<trkpt lat="45.774735" lon="1.418503"><ele></ele><time>2014-6-3T16:17:20Z</time></trkpt>
<trkpt lat="45.774694" lon="1.418452"><ele></ele><time>2014-6-3T16:17:23Z</time></trkpt>
<trkpt lat="45.774655" lon="1.418406"><ele></ele><time>2014-6-3T16:17:26Z</time></trkpt>
<trkpt lat="45.774617" lon="1.41837"><ele></ele><time>2014-6-3T16:17:29Z</time></trkpt>
<trkpt lat="45.77458" lon="1.418325"><ele></ele><time>2014-6-3T16:17:32Z</time></trkpt>
<trkpt lat="45.774537" lon="1.418282"><ele></ele><time>2014-6-3T16:17:35Z</time></trkpt>
<trkpt lat="45.774496" lon="1.418242"><ele></ele><time>2014-6-3T16:17:38Z</time></trkpt>
<trkpt lat="45.774459" lon="1.418203"><ele></ele><time>2014-6-3T16:17:41Z</time></trkpt>
<trkpt lat="45.774421" lon="1.418158"><ele></ele><time>2014-6-3T16:17:44Z</time></trkpt>
<trkpt lat="45.774385" lon="1.418115"><ele></ele><time>2014-6-3T16:17:47Z</time></trkpt>
<trkpt lat="45.774344" lon="1.418068"><ele></ele><time>2014-6-3T16:17:50Z</time></trkpt>
<trkpt lat="45.774304" lon="1.418031"><ele></ele><time>2014-6-3T16:17:53Z</time></trkpt>
<trkpt lat="45.774262" lon="1.417993"><ele></ele><time>2014-6-3T16:17:56Z</time></trkpt>
<trkpt lat="45.774217" lon="1.417956"><ele></ele><time>2014-6-3T16:17:59Z</time></trkpt>
<trkpt lat="45.774173" lon="1.417921"><ele></ele><time>2014-6-3T16:18:2Z</time></trkpt>
<trkpt lat="45.774123" lon="1.417891"><ele></ele><time>2014-6-3T16:18:5Z</time></trkpt>
<trkpt lat="45.77408" lon="1.417855"><ele></ele><time>2014-6-3T16:18:8Z</time></trkpt>
<trkpt lat="45.774039" lon="1.417816"><ele></ele><time>2014-6-3T16:18:11Z</time></trkpt>
<trkpt lat="45.773999" lon="1.417776"><ele></ele><time>2014-6-3T16:18:14Z</time></trkpt>
<trkpt lat="45.773954" lon="1.417751"><ele></ele><time>2014-6-3T16:18:17Z</time></trkpt>
<trkpt lat="45.773902" lon="1.417713"><ele></ele><time>2014-6-3T16:18:20Z</time></trkpt>
<trkpt lat="45.773847" lon="1.417675"><ele></ele><time>2014-6-3T16:18:23Z</time></trkpt>
<trkpt lat="45.773794" lon="1.41764"><ele></ele><time>2014-6-3T16:18:26Z</time></trkpt>
<trkpt lat="45.773747" lon="1.417611"><ele></ele><time>2014-6-3T16:18:29Z</time></trkpt>
<trkpt lat="45.773705" lon="1.417569"><ele></ele><time>2014-6-3T16:18:32Z</time></trkpt>
<trkpt lat="45.773659" lon="1.41754"><ele></ele><time>2014-6-3T16:18:35Z</time></trkpt>
<trkpt lat="45.773571" lon="1.417557"><ele></ele><time>2014-6-3T16:18:38Z</time></trkpt>
<trkpt lat="45.773531" lon="1.417597"><ele></ele><time>2014-6-3T16:18:41Z</time></trkpt>
<trkpt lat="45.773474" lon="1.417576"><ele></ele><time>2014-6-3T16:18:44Z</time></trkpt>
<trkpt lat="45.773488" lon="1.417471"><ele></ele><time>2014-6-3T16:18:47Z</time></trkpt>
<trkpt lat="45.773479" lon="1.417364"><ele></ele><time>2014-6-3T16:18:50Z</time></trkpt>
<trkpt lat="45.773471" lon="1.417297"><ele></ele><time>2014-6-3T16:18:53Z</time></trkpt>
<trkpt lat="45.773473" lon="1.41723"><ele></ele><time>2014-6-3T16:18:56Z</time></trkpt>
<trkpt lat="45.773453" lon="1.417149"><ele></ele><time>2014-6-3T16:18:59Z</time></trkpt>
<trkpt lat="45.773409" lon="1.417046"><ele></ele><time>2014-6-3T16:19:2Z</time></trkpt>
<trkpt lat="45.773376" lon="1.416936"><ele></ele><time>2014-6-3T16:19:5Z</time></trkpt>
<trkpt lat="45.773354" lon="1.416859"><ele></ele><time>2014-6-3T16:19:8Z</time></trkpt>
<trkpt lat="45.773317" lon="1.416752"><ele></ele><time>2014-6-3T16:19:11Z</time></trkpt>
<trkpt lat="45.773292" lon="1.416674"><ele></ele><time>2014-6-3T16:19:14Z</time></trkpt>
<trkpt lat="45.773264" lon="1.416543"><ele></ele><time>2014-6-3T16:19:17Z</time></trkpt>
<trkpt lat="45.773252" lon="1.41648"><ele></ele><time>2014-6-3T16:19:20Z</time></trkpt>
<trkpt lat="45.773214" lon="1.416426"><ele></ele><time>2014-6-3T16:19:23Z</time></trkpt>
<trkpt lat="45.773129" lon="1.416506"><ele></ele><time>2014-6-3T16:19:26Z</time></trkpt>
<trkpt lat="45.77305" lon="1.416462"><ele></ele><time>2014-6-3T16:19:29Z</time></trkpt>
<trkpt lat="45.773004" lon="1.416434"><ele></ele><time>2014-6-3T16:19:32Z</time></trkpt>
<trkpt lat="45.772961" lon="1.416406"><ele></ele><time>2014-6-3T16:19:35Z</time></trkpt>
<trkpt lat="45.772943" lon="1.416323"><ele></ele><time>2014-6-3T16:19:38Z</time></trkpt>
<trkpt lat="45.772907" lon="1.41627"><ele></ele><time>2014-6-3T16:19:41Z</time></trkpt>
<trkpt lat="45.772876" lon="1.416188"><ele></ele><time>2014-6-3T16:19:44Z</time></trkpt>
<trkpt lat="45.772851" lon="1.416071"><ele></ele><time>2014-6-3T16:19:47Z</time></trkpt>
<trkpt lat="45.772835" lon="1.415977"><ele></ele><time>2014-6-3T16:19:50Z</time></trkpt>
<trkpt lat="45.772804" lon="1.415896"><ele></ele><time>2014-6-3T16:19:53Z</time></trkpt>
<trkpt lat="45.7728" lon="1.415826"><ele></ele><time>2014-6-3T16:19:56Z</time></trkpt>
<trkpt lat="45.772783" lon="1.415741"><ele></ele><time>2014-6-3T16:19:59Z</time></trkpt>
<trkpt lat="45.772771" lon="1.41567"><ele></ele><time>2014-6-3T16:20:2Z</time></trkpt>
<trkpt lat="45.77275" lon="1.415608"><ele></ele><time>2014-6-3T16:20:5Z</time></trkpt>
<trkpt lat="45.772751" lon="1.415521"><ele></ele><time>2014-6-3T16:20:8Z</time></trkpt>
<trkpt lat="45.772741" lon="1.415426"><ele></ele><time>2014-6-3T16:20:11Z</time></trkpt>
<trkpt lat="45.772721" lon="1.41536"><ele></ele><time>2014-6-3T16:20:14Z</time></trkpt>
<trkpt lat="45.772684" lon="1.415306"><ele></ele><time>2014-6-3T16:20:17Z</time></trkpt>
<trkpt lat="45.772627" lon="1.415268"><ele></ele><time>2014-6-3T16:20:20Z</time></trkpt>
<trkpt lat="45.77258" lon="1.415233"><ele></ele><time>2014-6-3T16:20:23Z</time></trkpt>
<trkpt lat="45.772543" lon="1.415176"><ele></ele><time>2014-6-3T16:20:26Z</time></trkpt>
<trkpt lat="45.772502" lon="1.41514"><ele></ele><time>2014-6-3T16:20:29Z</time></trkpt>
<trkpt lat="45.772457" lon="1.415097"><ele></ele><time>2014-6-3T16:20:32Z</time></trkpt>
<trkpt lat="45.772408" lon="1.415059"><ele></ele><time>2014-6-3T16:20:35Z</time></trkpt>
<trkpt lat="45.772361" lon="1.414991"><ele></ele><time>2014-6-3T16:20:38Z</time></trkpt>
<trkpt lat="45.772291" lon="1.414939"><ele></ele><time>2014-6-3T16:20:41Z</time></trkpt>
<trkpt lat="45.772237" lon="1.414896"><ele></ele><time>2014-6-3T16:20:44Z</time></trkpt>
<trkpt lat="45.772236" lon="1.414803"><ele></ele><time>2014-6-3T16:20:47Z</time></trkpt>
<trkpt lat="45.772211" lon="1.414663"><ele></ele><time>2014-6-3T16:20:50Z</time></trkpt>
<trkpt lat="45.772201" lon="1.414527"><ele></ele><time>2014-6-3T16:20:53Z</time></trkpt>
<trkpt lat="45.772187" lon="1.414456"><ele></ele><time>2014-6-3T16:20:56Z</time></trkpt>
<trkpt lat="45.772147" lon="1.414317"><ele></ele><time>2014-6-3T16:20:59Z</time></trkpt>
<trkpt lat="45.772104" lon="1.414213"><ele></ele><time>2014-6-3T16:21:2Z</time></trkpt>
<trkpt lat="45.772057" lon="1.414096"><ele></ele><time>2014-6-3T16:21:5Z</time></trkpt>
<trkpt lat="45.772033" lon="1.414021"><ele></ele><time>2014-6-3T16:21:8Z</time></trkpt>
<trkpt lat="45.771999" lon="1.413967"><ele></ele><time>2014-6-3T16:21:11Z</time></trkpt>
<trkpt lat="45.771958" lon="1.413851"><ele></ele><time>2014-6-3T16:21:14Z</time></trkpt>
<trkpt lat="45.771925" lon="1.413797"><ele></ele><time>2014-6-3T16:21:17Z</time></trkpt>
<trkpt lat="45.771872" lon="1.413757"><ele></ele><time>2014-6-3T16:21:20Z</time></trkpt>
<trkpt lat="45.771819" lon="1.413744"><ele></ele><time>2014-6-3T16:21:23Z</time></trkpt>
<trkpt lat="45.77176" lon="1.413723"><ele></ele><time>2014-6-3T16:21:26Z</time></trkpt>
<trkpt lat="45.771711" lon="1.413688"><ele></ele><time>2014-6-3T16:21:29Z</time></trkpt>
<trkpt lat="45.771654" lon="1.413654"><ele></ele><time>2014-6-3T16:21:32Z</time></trkpt>
<trkpt lat="45.771584" lon="1.413597"><ele></ele><time>2014-6-3T16:21:35Z</time></trkpt>
<trkpt lat="45.771535" lon="1.41356"><ele></ele><time>2014-6-3T16:21:38Z</time></trkpt>
<trkpt lat="45.771449" lon="1.413482"><ele></ele><time>2014-6-3T16:21:41Z</time></trkpt>
<trkpt lat="45.771364" lon="1.413407"><ele></ele><time>2014-6-3T16:21:44Z</time></trkpt>
<trkpt lat="45.771328" lon="1.413365"><ele></ele><time>2014-6-3T16:21:47Z</time></trkpt>
<trkpt lat="45.771287" lon="1.413327"><ele></ele><time>2014-6-3T16:21:50Z</time></trkpt>
<trkpt lat="45.771243" lon="1.413286"><ele></ele><time>2014-6-3T16:21:53Z</time></trkpt>
<trkpt lat="45.77116" lon="1.413238"><ele></ele><time>2014-6-3T16:21:56Z</time></trkpt>
<trkpt lat="45.771124" lon="1.413192"><ele></ele><time>2014-6-3T16:21:59Z</time></trkpt>
<trkpt lat="45.771061" lon="1.413075"><ele></ele><time>2014-6-3T16:22:2Z</time></trkpt>
<trkpt lat="45.771027" lon="1.413018"><ele></ele><time>2014-6-3T16:22:5Z</time></trkpt>
<trkpt lat="45.770994" lon="1.412968"><ele></ele><time>2014-6-3T16:22:8Z</time></trkpt>
<trkpt lat="45.770961" lon="1.412918"><ele></ele><time>2014-6-3T16:22:11Z</time></trkpt>
<trkpt lat="45.770922" lon="1.412863"><ele></ele><time>2014-6-3T16:22:14Z</time></trkpt>
<trkpt lat="45.770853" lon="1.412803"><ele></ele><time>2014-6-3T16:22:17Z</time></trkpt>
<trkpt lat="45.770838" lon="1.412722"><ele></ele><time>2014-6-3T16:22:20Z</time></trkpt>
<trkpt lat="45.770856" lon="1.412638"><ele></ele><time>2014-6-3T16:22:23Z</time></trkpt>
<trkpt lat="45.770871" lon="1.412557"><ele></ele><time>2014-6-3T16:22:26Z</time></trkpt>
<trkpt lat="45.770898" lon="1.412478"><ele></ele><time>2014-6-3T16:22:29Z</time></trkpt>
<trkpt lat="45.770929" lon="1.412397"><ele></ele><time>2014-6-3T16:22:32Z</time></trkpt>
<trkpt lat="45.770957" lon="1.412318"><ele></ele><time>2014-6-3T16:22:35Z</time></trkpt>
<trkpt lat="45.77095" lon="1.412212"><ele></ele><time>2014-6-3T16:22:38Z</time></trkpt>
<trkpt lat="45.77092" lon="1.412117"><ele></ele><time>2014-6-3T16:22:41Z</time></trkpt>
<trkpt lat="45.770861" lon="1.412084"><ele></ele><time>2014-6-3T16:22:44Z</time></trkpt>
<trkpt lat="45.770793" lon="1.412031"><ele></ele><time>2014-6-3T16:22:47Z</time></trkpt>
<trkpt lat="45.770719" lon="1.41197"><ele></ele><time>2014-6-3T16:22:50Z</time></trkpt>
<trkpt lat="45.770653" lon="1.411917"><ele></ele><time>2014-6-3T16:22:53Z</time></trkpt>
<trkpt lat="45.77058" lon="1.411872"><ele></ele><time>2014-6-3T16:22:56Z</time></trkpt>
<trkpt lat="45.770502" lon="1.411805"><ele></ele><time>2014-6-3T16:22:59Z</time></trkpt>
<trkpt lat="45.77046" lon="1.411774"><ele></ele><time>2014-6-3T16:23:2Z</time></trkpt>
<trkpt lat="45.770414" lon="1.411745"><ele></ele><time>2014-6-3T16:23:5Z</time></trkpt>
<trkpt lat="45.770355" lon="1.411722"><ele></ele><time>2014-6-3T16:23:8Z</time></trkpt>
<trkpt lat="45.770283" lon="1.411715"><ele></ele><time>2014-6-3T16:23:11Z</time></trkpt>
<trkpt lat="45.770218" lon="1.411713"><ele></ele><time>2014-6-3T16:23:14Z</time></trkpt>
<trkpt lat="45.770155" lon="1.411727"><ele></ele><time>2014-6-3T16:23:17Z</time></trkpt>
<trkpt lat="45.770107" lon="1.411733"><ele></ele><time>2014-6-3T16:23:20Z</time></trkpt>
<trkpt lat="45.77005" lon="1.411702"><ele></ele><time>2014-6-3T16:23:23Z</time></trkpt>
<trkpt lat="45.770016" lon="1.411615"><ele></ele><time>2014-6-3T16:23:26Z</time></trkpt>
<trkpt lat="45.769981" lon="1.411515"><ele></ele><time>2014-6-3T16:23:29Z</time></trkpt>
<trkpt lat="45.769929" lon="1.411363"><ele></ele><time>2014-6-3T16:23:32Z</time></trkpt>
<trkpt lat="45.769904" lon="1.411253"><ele></ele><time>2014-6-3T16:23:35Z</time></trkpt>
<trkpt lat="45.769889" lon="1.411192"><ele></ele><time>2014-6-3T16:23:38Z</time></trkpt>
<trkpt lat="45.769869" lon="1.411128"><ele></ele><time>2014-6-3T16:23:41Z</time></trkpt>
<trkpt lat="45.769853" lon="1.411064"><ele></ele><time>2014-6-3T16:23:44Z</time></trkpt>
<trkpt lat="45.769834" lon="1.411004"><ele></ele><time>2014-6-3T16:23:47Z</time></trkpt>
<trkpt lat="45.769816" lon="1.410943"><ele></ele><time>2014-6-3T16:23:50Z</time></trkpt>
<trkpt lat="45.769796" lon="1.410839"><ele></ele><time>2014-6-3T16:23:53Z</time></trkpt>
<trkpt lat="45.76978" lon="1.41072"><ele></ele><time>2014-6-3T16:23:56Z</time></trkpt>
<trkpt lat="45.76976" lon="1.410617"><ele></ele><time>2014-6-3T16:23:59Z</time></trkpt>
<trkpt lat="45.769746" lon="1.410525"><ele></ele><time>2014-6-3T16:24:2Z</time></trkpt>
<trkpt lat="45.769733" lon="1.410424"><ele></ele><time>2014-6-3T16:24:5Z</time></trkpt>
<trkpt lat="45.769715" lon="1.410314"><ele></ele><time>2014-6-3T16:24:8Z</time></trkpt>
<trkpt lat="45.769699" lon="1.410216"><ele></ele><time>2014-6-3T16:24:11Z</time></trkpt>
<trkpt lat="45.769689" lon="1.410138"><ele></ele><time>2014-6-3T16:24:14Z</time></trkpt>
<trkpt lat="45.76968" lon="1.410034"><ele></ele><time>2014-6-3T16:24:17Z</time></trkpt>
<trkpt lat="45.769694" lon="1.409939"><ele></ele><time>2014-6-3T16:24:20Z</time></trkpt>
<trkpt lat="45.769725" lon="1.409852"><ele></ele><time>2014-6-3T16:24:23Z</time></trkpt>
<trkpt lat="45.769757" lon="1.409769"><ele></ele><time>2014-6-3T16:24:26Z</time></trkpt>
<trkpt lat="45.769792" lon="1.409691"><ele></ele><time>2014-6-3T16:24:29Z</time></trkpt>
<trkpt lat="45.769819" lon="1.40962"><ele></ele><time>2014-6-3T16:24:32Z</time></trkpt>
<trkpt lat="45.769854" lon="1.409542"><ele></ele><time>2014-6-3T16:24:35Z</time></trkpt>
<trkpt lat="45.769887" lon="1.40946"><ele></ele><time>2014-6-3T16:24:38Z</time></trkpt>
<trkpt lat="45.769918" lon="1.409386"><ele></ele><time>2014-6-3T16:24:41Z</time></trkpt>
<trkpt lat="45.769949" lon="1.409313"><ele></ele><time>2014-6-3T16:24:44Z</time></trkpt>
<trkpt lat="45.769987" lon="1.409232"><ele></ele><time>2014-6-3T16:24:47Z</time></trkpt>
<trkpt lat="45.77003" lon="1.409146"><ele></ele><time>2014-6-3T16:24:50Z</time></trkpt>
<trkpt lat="45.770066" lon="1.409058"><ele></ele><time>2014-6-3T16:24:53Z</time></trkpt>
<trkpt lat="45.770102" lon="1.408952"><ele></ele><time>2014-6-3T16:24:56Z</time></trkpt>
<trkpt lat="45.770115" lon="1.408844"><ele></ele><time>2014-6-3T16:24:59Z</time></trkpt>
<trkpt lat="45.770119" lon="1.408733"><ele></ele><time>2014-6-3T16:25:2Z</time></trkpt>
<trkpt lat="45.770114" lon="1.408605"><ele></ele><time>2014-6-3T16:25:5Z</time></trkpt>
<trkpt lat="45.770072" lon="1.40846"><ele></ele><time>2014-6-3T16:25:8Z</time></trkpt>
<trkpt lat="45.770004" lon="1.408392"><ele></ele><time>2014-6-3T16:25:11Z</time></trkpt>
<trkpt lat="45.769945" lon="1.408331"><ele></ele><time>2014-6-3T16:25:14Z</time></trkpt>
<trkpt lat="45.769901" lon="1.408312"><ele></ele><time>2014-6-3T16:25:17Z</time></trkpt>
<trkpt lat="45.769843" lon="1.408252"><ele></ele><time>2014-6-3T16:25:20Z</time></trkpt>
<trkpt lat="45.769812" lon="1.408174"><ele></ele><time>2014-6-3T16:25:23Z</time></trkpt>
<trkpt lat="45.769809" lon="1.408053"><ele></ele><time>2014-6-3T16:25:26Z</time></trkpt>
<trkpt lat="45.769787" lon="1.407907"><ele></ele><time>2014-6-3T16:25:29Z</time></trkpt>
<trkpt lat="45.769765" lon="1.407819"><ele></ele><time>2014-6-3T16:25:32Z</time></trkpt>
<trkpt lat="45.76975" lon="1.407722"><ele></ele><time>2014-6-3T16:25:35Z</time></trkpt>
<trkpt lat="45.769729" lon="1.407629"><ele></ele><time>2014-6-3T16:25:38Z</time></trkpt>
<trkpt lat="45.769716" lon="1.407541"><ele></ele><time>2014-6-3T16:25:41Z</time></trkpt>
<trkpt lat="45.769707" lon="1.407445"><ele></ele><time>2014-6-3T16:25:44Z</time></trkpt>
<trkpt lat="45.769705" lon="1.407344"><ele></ele><time>2014-6-3T16:25:47Z</time></trkpt>
<trkpt lat="45.769707" lon="1.407267"><ele></ele><time>2014-6-3T16:25:50Z</time></trkpt>
<trkpt lat="45.769709" lon="1.40717"><ele></ele><time>2014-6-3T16:25:53Z</time></trkpt>
<trkpt lat="45.769709" lon="1.407065"><ele></ele><time>2014-6-3T16:25:56Z</time></trkpt>
<trkpt lat="45.769701" lon="1.406964"><ele></ele><time>2014-6-3T16:25:59Z</time></trkpt>
<trkpt lat="45.769698" lon="1.406863"><ele></ele><time>2014-6-3T16:26:2Z</time></trkpt>
<trkpt lat="45.769697" lon="1.406763"><ele></ele><time>2014-6-3T16:26:5Z</time></trkpt>
<trkpt lat="45.769695" lon="1.406672"><ele></ele><time>2014-6-3T16:26:8Z</time></trkpt>
<trkpt lat="45.769826" lon="1.406656"><ele></ele><time>2014-6-3T16:26:11Z</time></trkpt>
<trkpt lat="45.769849" lon="1.406566"><ele></ele><time>2014-6-3T16:26:14Z</time></trkpt>
<trkpt lat="45.769872" lon="1.406491"><ele></ele><time>2014-6-3T16:26:17Z</time></trkpt>
<trkpt lat="45.769894" lon="1.406415"><ele></ele><time>2014-6-3T16:26:20Z</time></trkpt>
<trkpt lat="45.769913" lon="1.406315"><ele></ele><time>2014-6-3T16:26:23Z</time></trkpt>
<trkpt lat="45.769925" lon="1.406226"><ele></ele><time>2014-6-3T16:26:26Z</time></trkpt>
<trkpt lat="45.769971" lon="1.406162"><ele></ele><time>2014-6-3T16:26:29Z</time></trkpt>
<trkpt lat="45.769983" lon="1.406026"><ele></ele><time>2014-6-3T16:26:32Z</time></trkpt>
<trkpt lat="45.769941" lon="1.405953"><ele></ele><time>2014-6-3T16:26:35Z</time></trkpt>
<trkpt lat="45.7699" lon="1.405865"><ele></ele><time>2014-6-3T16:26:38Z</time></trkpt>
<trkpt lat="45.769861" lon="1.405789"><ele></ele><time>2014-6-3T16:26:41Z</time></trkpt>
<trkpt lat="45.769818" lon="1.405721"><ele></ele><time>2014-6-3T16:26:44Z</time></trkpt>
<trkpt lat="45.769774" lon="1.405634"><ele></ele><time>2014-6-3T16:26:47Z</time></trkpt>
<trkpt lat="45.76971" lon="1.405568"><ele></ele><time>2014-6-3T16:26:50Z</time></trkpt>
<trkpt lat="45.769639" lon="1.405528"><ele></ele><time>2014-6-3T16:26:53Z</time></trkpt>
<trkpt lat="45.769593" lon="1.405471"><ele></ele><time>2014-6-3T16:26:56Z</time></trkpt>
<trkpt lat="45.769552" lon="1.405361"><ele></ele><time>2014-6-3T16:26:59Z</time></trkpt>
<trkpt lat="45.769529" lon="1.405216"><ele></ele><time>2014-6-3T16:27:2Z</time></trkpt>
<trkpt lat="45.769476" lon="1.405122"><ele></ele><time>2014-6-3T16:27:5Z</time></trkpt>
<trkpt lat="45.769436" lon="1.404995"><ele></ele><time>2014-6-3T16:27:8Z</time></trkpt>
<trkpt lat="45.769396" lon="1.404879"><ele></ele><time>2014-6-3T16:27:11Z</time></trkpt>
<trkpt lat="45.769382" lon="1.404773"><ele></ele><time>2014-6-3T16:27:14Z</time></trkpt>
<trkpt lat="45.769343" lon="1.404684"><ele></ele><time>2014-6-3T16:27:17Z</time></trkpt>
<trkpt lat="45.769305" lon="1.404615"><ele></ele><time>2014-6-3T16:27:20Z</time></trkpt>
<trkpt lat="45.769272" lon="1.404536"><ele></ele><time>2014-6-3T16:27:23Z</time></trkpt>
<trkpt lat="45.769257" lon="1.404452"><ele></ele><time>2014-6-3T16:27:26Z</time></trkpt>
<trkpt lat="45.769244" lon="1.404376"><ele></ele><time>2014-6-3T16:27:29Z</time></trkpt>
<trkpt lat="45.769214" lon="1.404306"><ele></ele><time>2014-6-3T16:27:32Z</time></trkpt>
<trkpt lat="45.769183" lon="1.404197"><ele></ele><time>2014-6-3T16:27:35Z</time></trkpt>
<trkpt lat="45.769158" lon="1.404091"><ele></ele><time>2014-6-3T16:27:38Z</time></trkpt>
<trkpt lat="45.769133" lon="1.404032"><ele></ele><time>2014-6-3T16:27:41Z</time></trkpt>
<trkpt lat="45.769112" lon="1.40397"><ele></ele><time>2014-6-3T16:27:44Z</time></trkpt>
<trkpt lat="45.769092" lon="1.403889"><ele></ele><time>2014-6-3T16:27:47Z</time></trkpt>
<trkpt lat="45.769068" lon="1.403806"><ele></ele><time>2014-6-3T16:27:50Z</time></trkpt>
<trkpt lat="45.76905" lon="1.403743"><ele></ele><time>2014-6-3T16:27:53Z</time></trkpt>
<trkpt lat="45.769039" lon="1.40367"><ele></ele><time>2014-6-3T16:27:56Z</time></trkpt>
<trkpt lat="45.769043" lon="1.403582"><ele></ele><time>2014-6-3T16:27:59Z</time></trkpt>
<trkpt lat="45.769042" lon="1.403474"><ele></ele><time>2014-6-3T16:28:2Z</time></trkpt>
<trkpt lat="45.769085" lon="1.403428"><ele></ele><time>2014-6-3T16:28:5Z</time></trkpt>
<trkpt lat="45.76912" lon="1.40336"><ele></ele><time>2014-6-3T16:28:8Z</time></trkpt>
<trkpt lat="45.769156" lon="1.403318"><ele></ele><time>2014-6-3T16:28:11Z</time></trkpt>
<trkpt lat="45.769198" lon="1.403274"><ele></ele><time>2014-6-3T16:28:14Z</time></trkpt>
<trkpt lat="45.769236" lon="1.403227"><ele></ele><time>2014-6-3T16:28:17Z</time></trkpt>
<trkpt lat="45.769278" lon="1.40318"><ele></ele><time>2014-6-3T16:28:20Z</time></trkpt>
<trkpt lat="45.769316" lon="1.403142"><ele></ele><time>2014-6-3T16:28:23Z</time></trkpt>
<trkpt lat="45.769363" lon="1.40308"><ele></ele><time>2014-6-3T16:28:26Z</time></trkpt>
<trkpt lat="45.769403" lon="1.403021"><ele></ele><time>2014-6-3T16:28:29Z</time></trkpt>
<trkpt lat="45.769452" lon="1.402978"><ele></ele><time>2014-6-3T16:28:32Z</time></trkpt>
<trkpt lat="45.769495" lon="1.402925"><ele></ele><time>2014-6-3T16:28:35Z</time></trkpt>
<trkpt lat="45.769549" lon="1.402867"><ele></ele><time>2014-6-3T16:28:38Z</time></trkpt>
<trkpt lat="45.769582" lon="1.402821"><ele></ele><time>2014-6-3T16:28:41Z</time></trkpt>
<trkpt lat="45.769637" lon="1.402768"><ele></ele><time>2014-6-3T16:28:44Z</time></trkpt>
<trkpt lat="45.769676" lon="1.40273"><ele></ele><time>2014-6-3T16:28:47Z</time></trkpt>
<trkpt lat="45.769731" lon="1.402662"><ele></ele><time>2014-6-3T16:28:50Z</time></trkpt>
<trkpt lat="45.769773" lon="1.402618"><ele></ele><time>2014-6-3T16:28:53Z</time></trkpt>
<trkpt lat="45.769812" lon="1.402568"><ele></ele><time>2014-6-3T16:28:56Z</time></trkpt>
<trkpt lat="45.769856" lon="1.402517"><ele></ele><time>2014-6-3T16:28:59Z</time></trkpt>
<trkpt lat="45.7699" lon="1.40247"><ele></ele><time>2014-6-3T16:29:2Z</time></trkpt>
<trkpt lat="45.769943" lon="1.402422"><ele></ele><time>2014-6-3T16:29:5Z</time></trkpt>
<trkpt lat="45.769984" lon="1.402375"><ele></ele><time>2014-6-3T16:29:8Z</time></trkpt>
<trkpt lat="45.770028" lon="1.402324"><ele></ele><time>2014-6-3T16:29:11Z</time></trkpt>
<trkpt lat="45.770072" lon="1.402276"><ele></ele><time>2014-6-3T16:29:14Z</time></trkpt>
<trkpt lat="45.770118" lon="1.402225"><ele></ele><time>2014-6-3T16:29:17Z</time></trkpt>
<trkpt lat="45.770164" lon="1.402169"><ele></ele><time>2014-6-3T16:29:20Z</time></trkpt>
<trkpt lat="45.770205" lon="1.402119"><ele></ele><time>2014-6-3T16:29:23Z</time></trkpt>
<trkpt lat="45.770255" lon="1.402067"><ele></ele><time>2014-6-3T16:29:26Z</time></trkpt>
<trkpt lat="45.770303" lon="1.402018"><ele></ele><time>2014-6-3T16:29:29Z</time></trkpt>
<trkpt lat="45.770343" lon="1.401959"><ele></ele><time>2014-6-3T16:29:32Z</time></trkpt>
<trkpt lat="45.770394" lon="1.401905"><ele></ele><time>2014-6-3T16:29:35Z</time></trkpt>
<trkpt lat="45.770445" lon="1.401845"><ele></ele><time>2014-6-3T16:29:38Z</time></trkpt>
<trkpt lat="45.770489" lon="1.401787"><ele></ele><time>2014-6-3T16:29:41Z</time></trkpt>
<trkpt lat="45.770538" lon="1.40174"><ele></ele><time>2014-6-3T16:29:44Z</time></trkpt>
<trkpt lat="45.770584" lon="1.401686"><ele></ele><time>2014-6-3T16:29:47Z</time></trkpt>
<trkpt lat="45.770626" lon="1.401642"><ele></ele><time>2014-6-3T16:29:50Z</time></trkpt>
<trkpt lat="45.770668" lon="1.401586"><ele></ele><time>2014-6-3T16:29:53Z</time></trkpt>
<trkpt lat="45.770717" lon="1.401531"><ele></ele><time>2014-6-3T16:29:56Z</time></trkpt>
<trkpt lat="45.770763" lon="1.40148"><ele></ele><time>2014-6-3T16:29:59Z</time></trkpt>
<trkpt lat="45.770816" lon="1.401427"><ele></ele><time>2014-6-3T16:30:2Z</time></trkpt>
<trkpt lat="45.770861" lon="1.401365"><ele></ele><time>2014-6-3T16:30:5Z</time></trkpt>
<trkpt lat="45.770912" lon="1.401318"><ele></ele><time>2014-6-3T16:30:8Z</time></trkpt>
<trkpt lat="45.770957" lon="1.401265"><ele></ele><time>2014-6-3T16:30:11Z</time></trkpt>
<trkpt lat="45.770997" lon="1.40121"><ele></ele><time>2014-6-3T16:30:14Z</time></trkpt>
<trkpt lat="45.771048" lon="1.401158"><ele></ele><time>2014-6-3T16:30:17Z</time></trkpt>
<trkpt lat="45.771095" lon="1.401109"><ele></ele><time>2014-6-3T16:30:20Z</time></trkpt>
<trkpt lat="45.771141" lon="1.401056"><ele></ele><time>2014-6-3T16:30:23Z</time></trkpt>
<trkpt lat="45.771186" lon="1.401007"><ele></ele><time>2014-6-3T16:30:26Z</time></trkpt>
<trkpt lat="45.771231" lon="1.400957"><ele></ele><time>2014-6-3T16:30:29Z</time></trkpt>
<trkpt lat="45.771275" lon="1.400905"><ele></ele><time>2014-6-3T16:30:32Z</time></trkpt>
<trkpt lat="45.771316" lon="1.400856"><ele></ele><time>2014-6-3T16:30:35Z</time></trkpt>
<trkpt lat="45.771348" lon="1.400798"><ele></ele><time>2014-6-3T16:30:38Z</time></trkpt>
<trkpt lat="45.771385" lon="1.400746"><ele></ele><time>2014-6-3T16:30:41Z</time></trkpt>
<trkpt lat="45.771431" lon="1.40069"><ele></ele><time>2014-6-3T16:30:44Z</time></trkpt>
<trkpt lat="45.771472" lon="1.400635"><ele></ele><time>2014-6-3T16:30:47Z</time></trkpt>
<trkpt lat="45.771487" lon="1.400565"><ele></ele><time>2014-6-3T16:30:50Z</time></trkpt>
<trkpt lat="45.771444" lon="1.4005"><ele></ele><time>2014-6-3T16:30:53Z</time></trkpt>
<trkpt lat="45.771414" lon="1.400437"><ele></ele><time>2014-6-3T16:30:56Z</time></trkpt>
<trkpt lat="45.771383" lon="1.40037"><ele></ele><time>2014-6-3T16:30:59Z</time></trkpt>
<trkpt lat="45.771367" lon="1.400278"><ele></ele><time>2014-6-3T16:31:2Z</time></trkpt>
<trkpt lat="45.771368" lon="1.400193"><ele></ele><time>2014-6-3T16:31:5Z</time></trkpt>
<trkpt lat="45.771378" lon="1.40012"><ele></ele><time>2014-6-3T16:31:8Z</time></trkpt>
<trkpt lat="45.771383" lon="1.400048"><ele></ele><time>2014-6-3T16:31:11Z</time></trkpt>
<trkpt lat="45.771326" lon="1.39997"><ele></ele><time>2014-6-3T16:31:14Z</time></trkpt>
<trkpt lat="45.771292" lon="1.399917"><ele></ele><time>2014-6-3T16:31:17Z</time></trkpt>
<trkpt lat="45.771213" lon="1.399882"><ele></ele><time>2014-6-3T16:31:20Z</time></trkpt>
<trkpt lat="45.771152" lon="1.399858"><ele></ele><time>2014-6-3T16:31:23Z</time></trkpt>
<trkpt lat="45.771105" lon="1.399859"><ele></ele><time>2014-6-3T16:31:26Z</time></trkpt>
<trkpt lat="45.771035" lon="1.399818"><ele></ele><time>2014-6-3T16:31:29Z</time></trkpt>
<trkpt lat="45.770977" lon="1.399792"><ele></ele><time>2014-6-3T16:31:32Z</time></trkpt>
<trkpt lat="45.770925" lon="1.399739"><ele></ele><time>2014-6-3T16:31:35Z</time></trkpt>
<trkpt lat="45.770855" lon="1.399727"><ele></ele><time>2014-6-3T16:31:38Z</time></trkpt>
<trkpt lat="45.77079" lon="1.399675"><ele></ele><time>2014-6-3T16:31:41Z</time></trkpt>
<trkpt lat="45.77072" lon="1.399631"><ele></ele><time>2014-6-3T16:31:44Z</time></trkpt>
<trkpt lat="45.770595" lon="1.399583"><ele></ele><time>2014-6-3T16:31:47Z</time></trkpt>
<trkpt lat="45.770514" lon="1.399565"><ele></ele><time>2014-6-3T16:31:50Z</time></trkpt>
<trkpt lat="45.770464" lon="1.39957"><ele></ele><time>2014-6-3T16:31:53Z</time></trkpt>
<trkpt lat="45.770411" lon="1.399527"><ele></ele><time>2014-6-3T16:31:56Z</time></trkpt>
<trkpt lat="45.770456" lon="1.399398"><ele></ele><time>2014-6-3T16:31:59Z</time></trkpt>
<trkpt lat="45.770454" lon="1.399299"><ele></ele><time>2014-6-3T16:32:2Z</time></trkpt>
<trkpt lat="45.770465" lon="1.399184"><ele></ele><time>2014-6-3T16:32:5Z</time></trkpt>
<trkpt lat="45.770502" lon="1.399078"><ele></ele><time>2014-6-3T16:32:8Z</time></trkpt>
<trkpt lat="45.770556" lon="1.398985"><ele></ele><time>2014-6-3T16:32:11Z</time></trkpt>
<trkpt lat="45.770585" lon="1.398927"><ele></ele><time>2014-6-3T16:32:14Z</time></trkpt>
<trkpt lat="45.770615" lon="1.398871"><ele></ele><time>2014-6-3T16:32:17Z</time></trkpt>
<trkpt lat="45.770652" lon="1.398806"><ele></ele><time>2014-6-3T16:32:20Z</time></trkpt>
<trkpt lat="45.770681" lon="1.398743"><ele></ele><time>2014-6-3T16:32:23Z</time></trkpt>
<trkpt lat="45.770711" lon="1.398671"><ele></ele><time>2014-6-3T16:32:26Z</time></trkpt>
<trkpt lat="45.770747" lon="1.398613"><ele></ele><time>2014-6-3T16:32:29Z</time></trkpt>
<trkpt lat="45.770762" lon="1.398542"><ele></ele><time>2014-6-3T16:32:32Z</time></trkpt>
<trkpt lat="45.770787" lon="1.398483"><ele></ele><time>2014-6-3T16:32:35Z</time></trkpt>
<trkpt lat="45.770812" lon="1.398426"><ele></ele><time>2014-6-3T16:32:38Z</time></trkpt>
<trkpt lat="45.770866" lon="1.398381"><ele></ele><time>2014-6-3T16:32:41Z</time></trkpt>
<trkpt lat="45.77089" lon="1.398281"><ele></ele><time>2014-6-3T16:32:44Z</time></trkpt>
<trkpt lat="45.770863" lon="1.39817"><ele></ele><time>2014-6-3T16:32:47Z</time></trkpt>
<trkpt lat="45.770839" lon="1.398108"><ele></ele><time>2014-6-3T16:32:50Z</time></trkpt>
<trkpt lat="45.770805" lon="1.398053"><ele></ele><time>2014-6-3T16:32:53Z</time></trkpt>
<trkpt lat="45.77078" lon="1.397998"><ele></ele><time>2014-6-3T16:32:56Z</time></trkpt>
<trkpt lat="45.770752" lon="1.397941"><ele></ele><time>2014-6-3T16:32:59Z</time></trkpt>
<trkpt lat="45.770728" lon="1.397883"><ele></ele><time>2014-6-3T16:33:2Z</time></trkpt>
<trkpt lat="45.770703" lon="1.397827"><ele></ele><time>2014-6-3T16:33:5Z</time></trkpt>
<trkpt lat="45.770677" lon="1.397737"><ele></ele><time>2014-6-3T16:33:8Z</time></trkpt>
<trkpt lat="45.770637" lon="1.397696"><ele></ele><time>2014-6-3T16:33:11Z</time></trkpt>
<trkpt lat="45.770596" lon="1.39765"><ele></ele><time>2014-6-3T16:33:14Z</time></trkpt>
<trkpt lat="45.770552" lon="1.397601"><ele></ele><time>2014-6-3T16:33:17Z</time></trkpt>
<trkpt lat="45.770499" lon="1.397568"><ele></ele><time>2014-6-3T16:33:20Z</time></trkpt>
<trkpt lat="45.770444" lon="1.397537"><ele></ele><time>2014-6-3T16:33:23Z</time></trkpt>
<trkpt lat="45.770392" lon="1.397516"><ele></ele><time>2014-6-3T16:33:26Z</time></trkpt>
<trkpt lat="45.770344" lon="1.397487"><ele></ele><time>2014-6-3T16:33:29Z</time></trkpt>
<trkpt lat="45.770289" lon="1.397466"><ele></ele><time>2014-6-3T16:33:32Z</time></trkpt>
<trkpt lat="45.770177" lon="1.397415"><ele></ele><time>2014-6-3T16:33:35Z</time></trkpt>
<trkpt lat="45.770136" lon="1.39737"><ele></ele><time>2014-6-3T16:33:38Z</time></trkpt>
<trkpt lat="45.770139" lon="1.397283"><ele></ele><time>2014-6-3T16:33:41Z</time></trkpt>
<trkpt lat="45.770145" lon="1.397213"><ele></ele><time>2014-6-3T16:33:44Z</time></trkpt>
<trkpt lat="45.770156" lon="1.397117"><ele></ele><time>2014-6-3T16:33:47Z</time></trkpt>
<trkpt lat="45.7702" lon="1.39701"><ele></ele><time>2014-6-3T16:33:50Z</time></trkpt>
<trkpt lat="45.770206" lon="1.396944"><ele></ele><time>2014-6-3T16:33:53Z</time></trkpt>
<trkpt lat="45.770218" lon="1.396869"><ele></ele><time>2014-6-3T16:33:56Z</time></trkpt>
<trkpt lat="45.770233" lon="1.396802"><ele></ele><time>2014-6-3T16:33:59Z</time></trkpt>
<trkpt lat="45.770255" lon="1.396589"><ele></ele><time>2014-6-3T16:34:2Z</time></trkpt>
<trkpt lat="45.770257" lon="1.396487"><ele></ele><time>2014-6-3T16:34:5Z</time></trkpt>
<trkpt lat="45.770252" lon="1.396388"><ele></ele><time>2014-6-3T16:34:8Z</time></trkpt>
<trkpt lat="45.770252" lon="1.396304"><ele></ele><time>2014-6-3T16:34:11Z</time></trkpt>
<trkpt lat="45.770266" lon="1.396201"><ele></ele><time>2014-6-3T16:34:14Z</time></trkpt>
<trkpt lat="45.770262" lon="1.396092"><ele></ele><time>2014-6-3T16:34:17Z</time></trkpt>
<trkpt lat="45.770259" lon="1.395994"><ele></ele><time>2014-6-3T16:34:20Z</time></trkpt>
<trkpt lat="45.770251" lon="1.395882"><ele></ele><time>2014-6-3T16:34:23Z</time></trkpt>
<trkpt lat="45.770259" lon="1.395758"><ele></ele><time>2014-6-3T16:34:26Z</time></trkpt>
<trkpt lat="45.770265" lon="1.395628"><ele></ele><time>2014-6-3T16:34:29Z</time></trkpt>
<trkpt lat="45.770261" lon="1.395516"><ele></ele><time>2014-6-3T16:34:32Z</time></trkpt>
<trkpt lat="45.77025" lon="1.395414"><ele></ele><time>2014-6-3T16:34:35Z</time></trkpt>
<trkpt lat="45.770227" lon="1.395321"><ele></ele><time>2014-6-3T16:34:38Z</time></trkpt>
<trkpt lat="45.770219" lon="1.395221"><ele></ele><time>2014-6-3T16:34:41Z</time></trkpt>
<trkpt lat="45.7702" lon="1.395144"><ele></ele><time>2014-6-3T16:34:44Z</time></trkpt>
<trkpt lat="45.770196" lon="1.395066"><ele></ele><time>2014-6-3T16:34:47Z</time></trkpt>
<trkpt lat="45.770207" lon="1.394975"><ele></ele><time>2014-6-3T16:34:50Z</time></trkpt>
<trkpt lat="45.770221" lon="1.394865"><ele></ele><time>2014-6-3T16:34:53Z</time></trkpt>
<trkpt lat="45.770238" lon="1.394743"><ele></ele><time>2014-6-3T16:34:56Z</time></trkpt>
<trkpt lat="45.770218" lon="1.39463"><ele></ele><time>2014-6-3T16:34:59Z</time></trkpt>
<trkpt lat="45.770171" lon="1.394517"><ele></ele><time>2014-6-3T16:35:2Z</time></trkpt>
<trkpt lat="45.770146" lon="1.394433"><ele></ele><time>2014-6-3T16:35:5Z</time></trkpt>
<trkpt lat="45.770129" lon="1.394339"><ele></ele><time>2014-6-3T16:35:8Z</time></trkpt>
<trkpt lat="45.770124" lon="1.394243"><ele></ele><time>2014-6-3T16:35:11Z</time></trkpt>
<trkpt lat="45.770119" lon="1.394153"><ele></ele><time>2014-6-3T16:35:14Z</time></trkpt>
<trkpt lat="45.770132" lon="1.394073"><ele></ele><time>2014-6-3T16:35:17Z</time></trkpt>
<trkpt lat="45.770147" lon="1.393989"><ele></ele><time>2014-6-3T16:35:20Z</time></trkpt>
<trkpt lat="45.770165" lon="1.393866"><ele></ele><time>2014-6-3T16:35:23Z</time></trkpt>
<trkpt lat="45.770177" lon="1.393759"><ele></ele><time>2014-6-3T16:35:26Z</time></trkpt>
<trkpt lat="45.770191" lon="1.393648"><ele></ele><time>2014-6-3T16:35:29Z</time></trkpt>
<trkpt lat="45.770203" lon="1.393539"><ele></ele><time>2014-6-3T16:35:32Z</time></trkpt>
<trkpt lat="45.770202" lon="1.393438"><ele></ele><time>2014-6-3T16:35:35Z</time></trkpt>
<trkpt lat="45.770206" lon="1.393334"><ele></ele><time>2014-6-3T16:35:38Z</time></trkpt>
<trkpt lat="45.770221" lon="1.393226"><ele></ele><time>2014-6-3T16:35:41Z</time></trkpt>
<trkpt lat="45.770286" lon="1.393143"><ele></ele><time>2014-6-3T16:35:44Z</time></trkpt>
<trkpt lat="45.770311" lon="1.393067"><ele></ele><time>2014-6-3T16:35:47Z</time></trkpt>
<trkpt lat="45.770298" lon="1.392965"><ele></ele><time>2014-6-3T16:35:50Z</time></trkpt>
<trkpt lat="45.770301" lon="1.39288"><ele></ele><time>2014-6-3T16:35:53Z</time></trkpt>
<trkpt lat="45.770285" lon="1.392788"><ele></ele><time>2014-6-3T16:35:56Z</time></trkpt>
<trkpt lat="45.770276" lon="1.3927"><ele></ele><time>2014-6-3T16:35:59Z</time></trkpt>
<trkpt lat="45.77029" lon="1.392611"><ele></ele><time>2014-6-3T16:36:2Z</time></trkpt>
<trkpt lat="45.770317" lon="1.392516"><ele></ele><time>2014-6-3T16:36:5Z</time></trkpt>
<trkpt lat="45.770347" lon="1.392438"><ele></ele><time>2014-6-3T16:36:8Z</time></trkpt>
<trkpt lat="45.770364" lon="1.392376"><ele></ele><time>2014-6-3T16:36:11Z</time></trkpt>
<trkpt lat="45.770386" lon="1.392314"><ele></ele><time>2014-6-3T16:36:14Z</time></trkpt>
<trkpt lat="45.77041" lon="1.392257"><ele></ele><time>2014-6-3T16:36:17Z</time></trkpt>
<trkpt lat="45.770433" lon="1.392194"><ele></ele><time>2014-6-3T16:36:20Z</time></trkpt>
<trkpt lat="45.770452" lon="1.392134"><ele></ele><time>2014-6-3T16:36:23Z</time></trkpt>
<trkpt lat="45.770473" lon="1.392064"><ele></ele><time>2014-6-3T16:36:26Z</time></trkpt>
<trkpt lat="45.770493" lon="1.392005"><ele></ele><time>2014-6-3T16:36:29Z</time></trkpt>
<trkpt lat="45.770522" lon="1.39194"><ele></ele><time>2014-6-3T16:36:32Z</time></trkpt>
<trkpt lat="45.770552" lon="1.391872"><ele></ele><time>2014-6-3T16:36:35Z</time></trkpt>
<trkpt lat="45.770578" lon="1.391801"><ele></ele><time>2014-6-3T16:36:38Z</time></trkpt>
<trkpt lat="45.7706" lon="1.391732"><ele></ele><time>2014-6-3T16:36:41Z</time></trkpt>
<trkpt lat="45.770617" lon="1.391668"><ele></ele><time>2014-6-3T16:36:44Z</time></trkpt>
<trkpt lat="45.770635" lon="1.3916"><ele></ele><time>2014-6-3T16:36:47Z</time></trkpt>
<trkpt lat="45.770649" lon="1.391503"><ele></ele><time>2014-6-3T16:36:50Z</time></trkpt>
<trkpt lat="45.770666" lon="1.391431"><ele></ele><time>2014-6-3T16:36:53Z</time></trkpt>
<trkpt lat="45.770679" lon="1.391362"><ele></ele><time>2014-6-3T16:36:56Z</time></trkpt>
<trkpt lat="45.770701" lon="1.391298"><ele></ele><time>2014-6-3T16:36:59Z</time></trkpt>
<trkpt lat="45.770704" lon="1.39123"><ele></ele><time>2014-6-3T16:37:2Z</time></trkpt>
<trkpt lat="45.770711" lon="1.391164"><ele></ele><time>2014-6-3T16:37:5Z</time></trkpt>
<trkpt lat="45.770721" lon="1.391093"><ele></ele><time>2014-6-3T16:37:8Z</time></trkpt>
<trkpt lat="45.770735" lon="1.391019"><ele></ele><time>2014-6-3T16:37:11Z</time></trkpt>
<trkpt lat="45.770752" lon="1.390942"><ele></ele><time>2014-6-3T16:37:14Z</time></trkpt>
<trkpt lat="45.770751" lon="1.390875"><ele></ele><time>2014-6-3T16:37:17Z</time></trkpt>
<trkpt lat="45.770764" lon="1.390803"><ele></ele><time>2014-6-3T16:37:20Z</time></trkpt>
<trkpt lat="45.770777" lon="1.390729"><ele></ele><time>2014-6-3T16:37:23Z</time></trkpt>
<trkpt lat="45.770775" lon="1.39064"><ele></ele><time>2014-6-3T16:37:26Z</time></trkpt>
<trkpt lat="45.770811" lon="1.390534"><ele></ele><time>2014-6-3T16:37:29Z</time></trkpt>
<trkpt lat="45.770822" lon="1.390444"><ele></ele><time>2014-6-3T16:37:32Z</time></trkpt>
<trkpt lat="45.770828" lon="1.390357"><ele></ele><time>2014-6-3T16:37:35Z</time></trkpt>
<trkpt lat="45.770845" lon="1.390267"><ele></ele><time>2014-6-3T16:37:38Z</time></trkpt>
<trkpt lat="45.770838" lon="1.390188"><ele></ele><time>2014-6-3T16:37:41Z</time></trkpt>
<trkpt lat="45.77084" lon="1.390104"><ele></ele><time>2014-6-3T16:37:44Z</time></trkpt>
<trkpt lat="45.770839" lon="1.390022"><ele></ele><time>2014-6-3T16:37:47Z</time></trkpt>
<trkpt lat="45.770842" lon="1.389934"><ele></ele><time>2014-6-3T16:37:50Z</time></trkpt>
<trkpt lat="45.77084" lon="1.389841"><ele></ele><time>2014-6-3T16:37:53Z</time></trkpt>
<trkpt lat="45.770836" lon="1.38975"><ele></ele><time>2014-6-3T16:37:56Z</time></trkpt>
<trkpt lat="45.770839" lon="1.389648"><ele></ele><time>2014-6-3T16:37:59Z</time></trkpt>
<trkpt lat="45.770831" lon="1.389547"><ele></ele><time>2014-6-3T16:38:2Z</time></trkpt>
<trkpt lat="45.770808" lon="1.38943"><ele></ele><time>2014-6-3T16:38:5Z</time></trkpt>
<trkpt lat="45.770802" lon="1.389327"><ele></ele><time>2014-6-3T16:38:8Z</time></trkpt>
<trkpt lat="45.770804" lon="1.389246"><ele></ele><time>2014-6-3T16:38:11Z</time></trkpt>
<trkpt lat="45.770809" lon="1.389161"><ele></ele><time>2014-6-3T16:38:14Z</time></trkpt>
<trkpt lat="45.770821" lon="1.389062"><ele></ele><time>2014-6-3T16:38:17Z</time></trkpt>
<trkpt lat="45.77084" lon="1.388984"><ele></ele><time>2014-6-3T16:38:20Z</time></trkpt>
<trkpt lat="45.770856" lon="1.388895"><ele></ele><time>2014-6-3T16:38:23Z</time></trkpt>
<trkpt lat="45.770861" lon="1.388814"><ele></ele><time>2014-6-3T16:38:26Z</time></trkpt>
<trkpt lat="45.77088" lon="1.38874"><ele></ele><time>2014-6-3T16:38:29Z</time></trkpt>
<trkpt lat="45.77089" lon="1.388664"><ele></ele><time>2014-6-3T16:38:32Z</time></trkpt>
<trkpt lat="45.770905" lon="1.388545"><ele></ele><time>2014-6-3T16:38:35Z</time></trkpt>
<trkpt lat="45.770917" lon="1.38845"><ele></ele><time>2014-6-3T16:38:38Z</time></trkpt>
<trkpt lat="45.770966" lon="1.388258"><ele></ele><time>2014-6-3T16:38:41Z</time></trkpt>
<trkpt lat="45.770992" lon="1.388149"><ele></ele><time>2014-6-3T16:38:44Z</time></trkpt>
<trkpt lat="45.771009" lon="1.388077"><ele></ele><time>2014-6-3T16:38:47Z</time></trkpt>
<trkpt lat="45.771018" lon="1.38801"><ele></ele><time>2014-6-3T16:38:50Z</time></trkpt>
<trkpt lat="45.771032" lon="1.387914"><ele></ele><time>2014-6-3T16:38:53Z</time></trkpt>
<trkpt lat="45.771067" lon="1.387874"><ele></ele><time>2014-6-3T16:38:56Z</time></trkpt>
<trkpt lat="45.771126" lon="1.387894"><ele></ele><time>2014-6-3T16:38:59Z</time></trkpt>
<trkpt lat="45.77119" lon="1.387918"><ele></ele><time>2014-6-3T16:39:2Z</time></trkpt>
<trkpt lat="45.771249" lon="1.38795"><ele></ele><time>2014-6-3T16:39:5Z</time></trkpt>
<trkpt lat="45.771294" lon="1.387974"><ele></ele><time>2014-6-3T16:39:8Z</time></trkpt>
<trkpt lat="45.771343" lon="1.387979"><ele></ele><time>2014-6-3T16:39:11Z</time></trkpt>
<trkpt lat="45.771416" lon="1.387968"><ele></ele><time>2014-6-3T16:39:14Z</time></trkpt>
<trkpt lat="45.771476" lon="1.388001"><ele></ele><time>2014-6-3T16:39:17Z</time></trkpt>
<trkpt lat="45.77154" lon="1.388042"><ele></ele><time>2014-6-3T16:39:20Z</time></trkpt>
<trkpt lat="45.771581" lon="1.388117"><ele></ele><time>2014-6-3T16:39:23Z</time></trkpt>
<trkpt lat="45.771595" lon="1.388187"><ele></ele><time>2014-6-3T16:39:26Z</time></trkpt>
<trkpt lat="45.771629" lon="1.388268"><ele></ele><time>2014-6-3T16:39:29Z</time></trkpt>
<trkpt lat="45.771657" lon="1.388368"><ele></ele><time>2014-6-3T16:39:32Z</time></trkpt>
<trkpt lat="45.771671" lon="1.388432"><ele></ele><time>2014-6-3T16:39:35Z</time></trkpt>
<trkpt lat="45.771688" lon="1.388517"><ele></ele><time>2014-6-3T16:39:38Z</time></trkpt>
<trkpt lat="45.771715" lon="1.388605"><ele></ele><time>2014-6-3T16:39:41Z</time></trkpt>
<trkpt lat="45.771748" lon="1.388688"><ele></ele><time>2014-6-3T16:39:44Z</time></trkpt>
<trkpt lat="45.771766" lon="1.388765"><ele></ele><time>2014-6-3T16:39:47Z</time></trkpt>
<trkpt lat="45.771785" lon="1.388838"><ele></ele><time>2014-6-3T16:39:50Z</time></trkpt>
<trkpt lat="45.771832" lon="1.388967"><ele></ele><time>2014-6-3T16:39:53Z</time></trkpt>
<trkpt lat="45.77186" lon="1.389085"><ele></ele><time>2014-6-3T16:39:56Z</time></trkpt>
<trkpt lat="45.771878" lon="1.38917"><ele></ele><time>2014-6-3T16:39:59Z</time></trkpt>
<trkpt lat="45.771913" lon="1.389261"><ele></ele><time>2014-6-3T16:40:2Z</time></trkpt>
<trkpt lat="45.771953" lon="1.389348"><ele></ele><time>2014-6-3T16:40:5Z</time></trkpt>
<trkpt lat="45.771986" lon="1.389432"><ele></ele><time>2014-6-3T16:40:8Z</time></trkpt>
<trkpt lat="45.772042" lon="1.389626"><ele></ele><time>2014-6-3T16:40:11Z</time></trkpt>
<trkpt lat="45.772081" lon="1.389713"><ele></ele><time>2014-6-3T16:40:14Z</time></trkpt>
<trkpt lat="45.772135" lon="1.389763"><ele></ele><time>2014-6-3T16:40:17Z</time></trkpt>
<trkpt lat="45.772175" lon="1.389792"><ele></ele><time>2014-6-3T16:40:20Z</time></trkpt>
<trkpt lat="45.772218" lon="1.389828"><ele></ele><time>2014-6-3T16:40:23Z</time></trkpt>
<trkpt lat="45.772257" lon="1.389858"><ele></ele><time>2014-6-3T16:40:26Z</time></trkpt>
<trkpt lat="45.772316" lon="1.38989"><ele></ele><time>2014-6-3T16:40:29Z</time></trkpt>
<trkpt lat="45.772378" lon="1.389924"><ele></ele><time>2014-6-3T16:40:32Z</time></trkpt>
<trkpt lat="45.77244" lon="1.389934"><ele></ele><time>2014-6-3T16:40:35Z</time></trkpt>
<trkpt lat="45.77251" lon="1.389926"><ele></ele><time>2014-6-3T16:40:38Z</time></trkpt>
<trkpt lat="45.77258" lon="1.389919"><ele></ele><time>2014-6-3T16:40:41Z</time></trkpt>
<trkpt lat="45.772651" lon="1.389919"><ele></ele><time>2014-6-3T16:40:44Z</time></trkpt>
<trkpt lat="45.772713" lon="1.389918"><ele></ele><time>2014-6-3T16:40:47Z</time></trkpt>
<trkpt lat="45.772779" lon="1.389926"><ele></ele><time>2014-6-3T16:40:50Z</time></trkpt>
<trkpt lat="45.772839" lon="1.389914"><ele></ele><time>2014-6-3T16:40:53Z</time></trkpt>
<trkpt lat="45.772905" lon="1.389904"><ele></ele><time>2014-6-3T16:40:56Z</time></trkpt>
<trkpt lat="45.772962" lon="1.389904"><ele></ele><time>2014-6-3T16:40:59Z</time></trkpt>
<trkpt lat="45.773022" lon="1.38995"><ele></ele><time>2014-6-3T16:41:2Z</time></trkpt>
<trkpt lat="45.773076" lon="1.389968"><ele></ele><time>2014-6-3T16:41:5Z</time></trkpt>
<trkpt lat="45.773121" lon="1.389983"><ele></ele><time>2014-6-3T16:41:8Z</time></trkpt>
<trkpt lat="45.773168" lon="1.390006"><ele></ele><time>2014-6-3T16:41:11Z</time></trkpt>
<trkpt lat="45.773215" lon="1.390033"><ele></ele><time>2014-6-3T16:41:14Z</time></trkpt>
<trkpt lat="45.773266" lon="1.390073"><ele></ele><time>2014-6-3T16:41:17Z</time></trkpt>
<trkpt lat="45.773324" lon="1.390104"><ele></ele><time>2014-6-3T16:41:20Z</time></trkpt>
<trkpt lat="45.773415" lon="1.390164"><ele></ele><time>2014-6-3T16:41:23Z</time></trkpt>
<trkpt lat="45.773469" lon="1.39021"><ele></ele><time>2014-6-3T16:41:26Z</time></trkpt>
<trkpt lat="45.77354" lon="1.390277"><ele></ele><time>2014-6-3T16:41:29Z</time></trkpt>
<trkpt lat="45.77359" lon="1.39032"><ele></ele><time>2014-6-3T16:41:32Z</time></trkpt>
<trkpt lat="45.773632" lon="1.390342"><ele></ele><time>2014-6-3T16:41:35Z</time></trkpt>
<trkpt lat="45.773677" lon="1.390368"><ele></ele><time>2014-6-3T16:41:38Z</time></trkpt>
<trkpt lat="45.773728" lon="1.390388"><ele></ele><time>2014-6-3T16:41:41Z</time></trkpt>
<trkpt lat="45.773776" lon="1.390403"><ele></ele><time>2014-6-3T16:41:44Z</time></trkpt>
<trkpt lat="45.773849" lon="1.390458"><ele></ele><time>2014-6-3T16:41:47Z</time></trkpt>
<trkpt lat="45.773906" lon="1.390485"><ele></ele><time>2014-6-3T16:41:50Z</time></trkpt>
<trkpt lat="45.77397" lon="1.390538"><ele></ele><time>2014-6-3T16:41:53Z</time></trkpt>
<trkpt lat="45.774024" lon="1.390579"><ele></ele><time>2014-6-3T16:41:56Z</time></trkpt>
<trkpt lat="45.774089" lon="1.390619"><ele></ele><time>2014-6-3T16:41:59Z</time></trkpt>
<trkpt lat="45.774141" lon="1.390637"><ele></ele><time>2014-6-3T16:42:2Z</time></trkpt>
<trkpt lat="45.774187" lon="1.390697"><ele></ele><time>2014-6-3T16:42:5Z</time></trkpt>
<trkpt lat="45.77422" lon="1.390798"><ele></ele><time>2014-6-3T16:42:8Z</time></trkpt>
<trkpt lat="45.774264" lon="1.390906"><ele></ele><time>2014-6-3T16:42:11Z</time></trkpt>
<trkpt lat="45.774337" lon="1.391061"><ele></ele><time>2014-6-3T16:42:14Z</time></trkpt>
<trkpt lat="45.774368" lon="1.391119"><ele></ele><time>2014-6-3T16:42:17Z</time></trkpt>
<trkpt lat="45.774387" lon="1.391195"><ele></ele><time>2014-6-3T16:42:20Z</time></trkpt>
<trkpt lat="45.774412" lon="1.391249"><ele></ele><time>2014-6-3T16:42:23Z</time></trkpt>
<trkpt lat="45.774444" lon="1.391308"><ele></ele><time>2014-6-3T16:42:26Z</time></trkpt>
<trkpt lat="45.774479" lon="1.391359"><ele></ele><time>2014-6-3T16:42:29Z</time></trkpt>
<trkpt lat="45.774509" lon="1.391414"><ele></ele><time>2014-6-3T16:42:32Z</time></trkpt>
<trkpt lat="45.774587" lon="1.391518"><ele></ele><time>2014-6-3T16:42:35Z</time></trkpt>
<trkpt lat="45.774618" lon="1.391567"><ele></ele><time>2014-6-3T16:42:38Z</time></trkpt>
<trkpt lat="45.774649" lon="1.391624"><ele></ele><time>2014-6-3T16:42:41Z</time></trkpt>
<trkpt lat="45.774687" lon="1.391669"><ele></ele><time>2014-6-3T16:42:44Z</time></trkpt>
<trkpt lat="45.774722" lon="1.391724"><ele></ele><time>2014-6-3T16:42:47Z</time></trkpt>
<trkpt lat="45.774757" lon="1.391778"><ele></ele><time>2014-6-3T16:42:50Z</time></trkpt>
<trkpt lat="45.774802" lon="1.39185"><ele></ele><time>2014-6-3T16:42:53Z</time></trkpt>
<trkpt lat="45.774852" lon="1.391924"><ele></ele><time>2014-6-3T16:42:56Z</time></trkpt>
<trkpt lat="45.774899" lon="1.39198"><ele></ele><time>2014-6-3T16:42:59Z</time></trkpt>
<trkpt lat="45.774976" lon="1.392082"><ele></ele><time>2014-6-3T16:43:2Z</time></trkpt>
<trkpt lat="45.775046" lon="1.3922"><ele></ele><time>2014-6-3T16:43:5Z</time></trkpt>
<trkpt lat="45.775088" lon="1.392264"><ele></ele><time>2014-6-3T16:43:8Z</time></trkpt>
<trkpt lat="45.775136" lon="1.392336"><ele></ele><time>2014-6-3T16:43:11Z</time></trkpt>
<trkpt lat="45.775177" lon="1.392393"><ele></ele><time>2014-6-3T16:43:14Z</time></trkpt>
<trkpt lat="45.775223" lon="1.39242"><ele></ele><time>2014-6-3T16:43:17Z</time></trkpt>
<trkpt lat="45.775264" lon="1.392453"><ele></ele><time>2014-6-3T16:43:20Z</time></trkpt>
<trkpt lat="45.775314" lon="1.392474"><ele></ele><time>2014-6-3T16:43:23Z</time></trkpt>
<trkpt lat="45.775367" lon="1.3925"><ele></ele><time>2014-6-3T16:43:26Z</time></trkpt>
<trkpt lat="45.775422" lon="1.392522"><ele></ele><time>2014-6-3T16:43:29Z</time></trkpt>
<trkpt lat="45.775475" lon="1.392545"><ele></ele><time>2014-6-3T16:43:32Z</time></trkpt>
<trkpt lat="45.775537" lon="1.392567"><ele></ele><time>2014-6-3T16:43:35Z</time></trkpt>
<trkpt lat="45.77559" lon="1.392597"><ele></ele><time>2014-6-3T16:43:38Z</time></trkpt>
<trkpt lat="45.775641" lon="1.392617"><ele></ele><time>2014-6-3T16:43:41Z</time></trkpt>
<trkpt lat="45.77569" lon="1.392671"><ele></ele><time>2014-6-3T16:43:44Z</time></trkpt>
<trkpt lat="45.775733" lon="1.392711"><ele></ele><time>2014-6-3T16:43:47Z</time></trkpt>
<trkpt lat="45.77579" lon="1.392733"><ele></ele><time>2014-6-3T16:43:50Z</time></trkpt>
<trkpt lat="45.77584" lon="1.392753"><ele></ele><time>2014-6-3T16:43:53Z</time></trkpt>
<trkpt lat="45.775889" lon="1.392769"><ele></ele><time>2014-6-3T16:43:56Z</time></trkpt>
<trkpt lat="45.775934" lon="1.392785"><ele></ele><time>2014-6-3T16:43:59Z</time></trkpt>
<trkpt lat="45.776013" lon="1.392795"><ele></ele><time>2014-6-3T16:44:2Z</time></trkpt>
<trkpt lat="45.776091" lon="1.392802"><ele></ele><time>2014-6-3T16:44:5Z</time></trkpt>
<trkpt lat="45.776158" lon="1.392814"><ele></ele><time>2014-6-3T16:44:8Z</time></trkpt>
<trkpt lat="45.776215" lon="1.392823"><ele></ele><time>2014-6-3T16:44:11Z</time></trkpt>
<trkpt lat="45.77627" lon="1.392796"><ele></ele><time>2014-6-3T16:44:14Z</time></trkpt>
<trkpt lat="45.776326" lon="1.392835"><ele></ele><time>2014-6-3T16:44:17Z</time></trkpt>
<trkpt lat="45.776375" lon="1.392862"><ele></ele><time>2014-6-3T16:44:20Z</time></trkpt>
<trkpt lat="45.776425" lon="1.392888"><ele></ele><time>2014-6-3T16:44:23Z</time></trkpt>
<trkpt lat="45.776485" lon="1.392913"><ele></ele><time>2014-6-3T16:44:26Z</time></trkpt>
<trkpt lat="45.776534" lon="1.392944"><ele></ele><time>2014-6-3T16:44:29Z</time></trkpt>
<trkpt lat="45.776559" lon="1.393024"><ele></ele><time>2014-6-3T16:44:32Z</time></trkpt>
<trkpt lat="45.77653" lon="1.393091"><ele></ele><time>2014-6-3T16:44:35Z</time></trkpt>
<trkpt lat="45.776579" lon="1.393111"><ele></ele><time>2014-6-3T16:44:38Z</time></trkpt>
<trkpt lat="45.776628" lon="1.393049"><ele></ele><time>2014-6-3T16:44:41Z</time></trkpt>
<trkpt lat="45.776685" lon="1.393012"><ele></ele><time>2014-6-3T16:44:44Z</time></trkpt>
<trkpt lat="45.776741" lon="1.392987"><ele></ele><time>2014-6-3T16:44:47Z</time></trkpt>
<trkpt lat="45.776786" lon="1.392918"><ele></ele><time>2014-6-3T16:44:50Z</time></trkpt>
<trkpt lat="45.77684" lon="1.392884"><ele></ele><time>2014-6-3T16:44:53Z</time></trkpt>
<trkpt lat="45.776895" lon="1.392863"><ele></ele><time>2014-6-3T16:44:56Z</time></trkpt>
<trkpt lat="45.77694" lon="1.392816"><ele></ele><time>2014-6-3T16:44:59Z</time></trkpt>
<trkpt lat="45.776986" lon="1.392754"><ele></ele><time>2014-6-3T16:45:2Z</time></trkpt>
<trkpt lat="45.777019" lon="1.392685"><ele></ele><time>2014-6-3T16:45:5Z</time></trkpt>
<trkpt lat="45.777048" lon="1.392627"><ele></ele><time>2014-6-3T16:45:8Z</time></trkpt>
<trkpt lat="45.777092" lon="1.392556"><ele></ele><time>2014-6-3T16:45:11Z</time></trkpt>
<trkpt lat="45.777127" lon="1.392507"><ele></ele><time>2014-6-3T16:45:14Z</time></trkpt>
<trkpt lat="45.77717" lon="1.39243"><ele></ele><time>2014-6-3T16:45:17Z</time></trkpt>
<trkpt lat="45.777212" lon="1.392373"><ele></ele><time>2014-6-3T16:45:20Z</time></trkpt>
<trkpt lat="45.777244" lon="1.392307"><ele></ele><time>2014-6-3T16:45:23Z</time></trkpt>
<trkpt lat="45.777253" lon="1.392231"><ele></ele><time>2014-6-3T16:45:26Z</time></trkpt>
<trkpt lat="45.777251" lon="1.392144"><ele></ele><time>2014-6-3T16:45:29Z</time></trkpt>
<trkpt lat="45.777239" lon="1.392075"><ele></ele><time>2014-6-3T16:45:32Z</time></trkpt>
<trkpt lat="45.77722" lon="1.392003"><ele></ele><time>2014-6-3T16:45:35Z</time></trkpt>
<trkpt lat="45.777187" lon="1.391918"><ele></ele><time>2014-6-3T16:45:38Z</time></trkpt>
<trkpt lat="45.777175" lon="1.391823"><ele></ele><time>2014-6-3T16:45:41Z</time></trkpt>
<trkpt lat="45.777177" lon="1.391741"><ele></ele><time>2014-6-3T16:45:44Z</time></trkpt>
<trkpt lat="45.7772" lon="1.39167"><ele></ele><time>2014-6-3T16:45:47Z</time></trkpt>
<trkpt lat="45.777219" lon="1.391582"><ele></ele><time>2014-6-3T16:45:50Z</time></trkpt>
<trkpt lat="45.777241" lon="1.391509"><ele></ele><time>2014-6-3T16:45:53Z</time></trkpt>
<trkpt lat="45.777262" lon="1.391446"><ele></ele><time>2014-6-3T16:45:56Z</time></trkpt>
<trkpt lat="45.777288" lon="1.391382"><ele></ele><time>2014-6-3T16:45:59Z</time></trkpt>
<trkpt lat="45.777344" lon="1.391293"><ele></ele><time>2014-6-3T16:46:2Z</time></trkpt>
<trkpt lat="45.777409" lon="1.391232"><ele></ele><time>2014-6-3T16:46:5Z</time></trkpt>
<trkpt lat="45.777462" lon="1.39122"><ele></ele><time>2014-6-3T16:46:8Z</time></trkpt>
<trkpt lat="45.777527" lon="1.391221"><ele></ele><time>2014-6-3T16:46:11Z</time></trkpt>
<trkpt lat="45.777581" lon="1.391228"><ele></ele><time>2014-6-3T16:46:14Z</time></trkpt>
<trkpt lat="45.777631" lon="1.391233"><ele></ele><time>2014-6-3T16:46:17Z</time></trkpt>
<trkpt lat="45.777694" lon="1.391233"><ele></ele><time>2014-6-3T16:46:20Z</time></trkpt>
<trkpt lat="45.777751" lon="1.391233"><ele></ele><time>2014-6-3T16:46:23Z</time></trkpt>
<trkpt lat="45.777818" lon="1.391228"><ele></ele><time>2014-6-3T16:46:26Z</time></trkpt>
<trkpt lat="45.777887" lon="1.391229"><ele></ele><time>2014-6-3T16:46:29Z</time></trkpt>
<trkpt lat="45.777943" lon="1.391206"><ele></ele><time>2014-6-3T16:46:32Z</time></trkpt>
<trkpt lat="45.778021" lon="1.391185"><ele></ele><time>2014-6-3T16:46:35Z</time></trkpt>
<trkpt lat="45.778075" lon="1.391168"><ele></ele><time>2014-6-3T16:46:38Z</time></trkpt>
<trkpt lat="45.778139" lon="1.391154"><ele></ele><time>2014-6-3T16:46:41Z</time></trkpt>
<trkpt lat="45.778188" lon="1.391146"><ele></ele><time>2014-6-3T16:46:44Z</time></trkpt>
<trkpt lat="45.778236" lon="1.391135"><ele></ele><time>2014-6-3T16:46:47Z</time></trkpt>
<trkpt lat="45.778298" lon="1.391128"><ele></ele><time>2014-6-3T16:46:50Z</time></trkpt>
<trkpt lat="45.77835" lon="1.391112"><ele></ele><time>2014-6-3T16:46:53Z</time></trkpt>
<trkpt lat="45.778406" lon="1.391091"><ele></ele><time>2014-6-3T16:46:56Z</time></trkpt>
<trkpt lat="45.778458" lon="1.391052"><ele></ele><time>2014-6-3T16:46:59Z</time></trkpt>
<trkpt lat="45.778508" lon="1.391036"><ele></ele><time>2014-6-3T16:47:2Z</time></trkpt>
<trkpt lat="45.778589" lon="1.391009"><ele></ele><time>2014-6-3T16:47:5Z</time></trkpt>
<trkpt lat="45.778636" lon="1.390972"><ele></ele><time>2014-6-3T16:47:8Z</time></trkpt>
<trkpt lat="45.778697" lon="1.390957"><ele></ele><time>2014-6-3T16:47:11Z</time></trkpt>
<trkpt lat="45.778749" lon="1.390917"><ele></ele><time>2014-6-3T16:47:14Z</time></trkpt>
<trkpt lat="45.778799" lon="1.390881"><ele></ele><time>2014-6-3T16:47:17Z</time></trkpt>
<trkpt lat="45.77885" lon="1.390838"><ele></ele><time>2014-6-3T16:47:20Z</time></trkpt>
<trkpt lat="45.778879" lon="1.39075"><ele></ele><time>2014-6-3T16:47:23Z</time></trkpt>
<trkpt lat="45.778921" lon="1.390685"><ele></ele><time>2014-6-3T16:47:26Z</time></trkpt>
<trkpt lat="45.778977" lon="1.390618"><ele></ele><time>2014-6-3T16:47:29Z</time></trkpt>
<trkpt lat="45.779008" lon="1.390568"><ele></ele><time>2014-6-3T16:47:32Z</time></trkpt>
<trkpt lat="45.779038" lon="1.390511"><ele></ele><time>2014-6-3T16:47:35Z</time></trkpt>
<trkpt lat="45.77907" lon="1.390459"><ele></ele><time>2014-6-3T16:47:38Z</time></trkpt>
<trkpt lat="45.779108" lon="1.390401"><ele></ele><time>2014-6-3T16:47:41Z</time></trkpt>
<trkpt lat="45.779142" lon="1.390329"><ele></ele><time>2014-6-3T16:47:44Z</time></trkpt>
<trkpt lat="45.77917" lon="1.390268"><ele></ele><time>2014-6-3T16:47:47Z</time></trkpt>
<trkpt lat="45.779205" lon="1.390214"><ele></ele><time>2014-6-3T16:47:50Z</time></trkpt>
<trkpt lat="45.779237" lon="1.390159"><ele></ele><time>2014-6-3T16:47:53Z</time></trkpt>
<trkpt lat="45.779261" lon="1.390097"><ele></ele><time>2014-6-3T16:47:56Z</time></trkpt>
<trkpt lat="45.779309" lon="1.390045"><ele></ele><time>2014-6-3T16:47:59Z</time></trkpt>
<trkpt lat="45.779359" lon="1.390012"><ele></ele><time>2014-6-3T16:48:2Z</time></trkpt>
<trkpt lat="45.779392" lon="1.38994"><ele></ele><time>2014-6-3T16:48:5Z</time></trkpt>
<trkpt lat="45.779421" lon="1.389851"><ele></ele><time>2014-6-3T16:48:8Z</time></trkpt>
<trkpt lat="45.779435" lon="1.389759"><ele></ele><time>2014-6-3T16:48:11Z</time></trkpt>
<trkpt lat="45.779453" lon="1.389661"><ele></ele><time>2014-6-3T16:48:14Z</time></trkpt>
<trkpt lat="45.779487" lon="1.389575"><ele></ele><time>2014-6-3T16:48:17Z</time></trkpt>
<trkpt lat="45.779506" lon="1.389513"><ele></ele><time>2014-6-3T16:48:20Z</time></trkpt>
<trkpt lat="45.779544" lon="1.389454"><ele></ele><time>2014-6-3T16:48:23Z</time></trkpt>
<trkpt lat="45.77958" lon="1.389378"><ele></ele><time>2014-6-3T16:48:26Z</time></trkpt>
<trkpt lat="45.779601" lon="1.38931"><ele></ele><time>2014-6-3T16:48:29Z</time></trkpt>
<trkpt lat="45.779635" lon="1.389254"><ele></ele><time>2014-6-3T16:48:32Z</time></trkpt>
<trkpt lat="45.779653" lon="1.389177"><ele></ele><time>2014-6-3T16:48:35Z</time></trkpt>
<trkpt lat="45.779683" lon="1.389113"><ele></ele><time>2014-6-3T16:48:38Z</time></trkpt>
<trkpt lat="45.779704" lon="1.389036"><ele></ele><time>2014-6-3T16:48:41Z</time></trkpt>
<trkpt lat="45.779707" lon="1.38896"><ele></ele><time>2014-6-3T16:48:44Z</time></trkpt>
<trkpt lat="45.779738" lon="1.388886"><ele></ele><time>2014-6-3T16:48:47Z</time></trkpt>
<trkpt lat="45.779763" lon="1.388823"><ele></ele><time>2014-6-3T16:48:50Z</time></trkpt>
<trkpt lat="45.77979" lon="1.388739"><ele></ele><time>2014-6-3T16:48:53Z</time></trkpt>
<trkpt lat="45.77981" lon="1.388665"><ele></ele><time>2014-6-3T16:48:56Z</time></trkpt>
<trkpt lat="45.779815" lon="1.388582"><ele></ele><time>2014-6-3T16:48:59Z</time></trkpt>
<trkpt lat="45.7798" lon="1.388503"><ele></ele><time>2014-6-3T16:49:2Z</time></trkpt>
<trkpt lat="45.779817" lon="1.388406"><ele></ele><time>2014-6-3T16:49:5Z</time></trkpt>
<trkpt lat="45.779849" lon="1.388325"><ele></ele><time>2014-6-3T16:49:8Z</time></trkpt>
<trkpt lat="45.779908" lon="1.388277"><ele></ele><time>2014-6-3T16:49:11Z</time></trkpt>
<trkpt lat="45.779955" lon="1.388238"><ele></ele><time>2014-6-3T16:49:14Z</time></trkpt>
<trkpt lat="45.779998" lon="1.388209"><ele></ele><time>2014-6-3T16:49:17Z</time></trkpt>
<trkpt lat="45.780032" lon="1.388164"><ele></ele><time>2014-6-3T16:49:20Z</time></trkpt>
<trkpt lat="45.779997" lon="1.388215"><ele></ele><time>2014-6-3T16:49:23Z</time></trkpt>
<trkpt lat="45.780044" lon="1.388196"><ele></ele><time>2014-6-3T16:49:26Z</time></trkpt>
<trkpt lat="45.780082" lon="1.388249"><ele></ele><time>2014-6-3T16:49:29Z</time></trkpt>
<trkpt lat="45.780104" lon="1.388312"><ele></ele><time>2014-6-3T16:49:32Z</time></trkpt>
<trkpt lat="45.780166" lon="1.388365"><ele></ele><time>2014-6-3T16:49:35Z</time></trkpt>
<trkpt lat="45.780223" lon="1.388443"><ele></ele><time>2014-6-3T16:49:38Z</time></trkpt>
<trkpt lat="45.780274" lon="1.388516"><ele></ele><time>2014-6-3T16:49:41Z</time></trkpt>
<trkpt lat="45.780305" lon="1.388591"><ele></ele><time>2014-6-3T16:49:44Z</time></trkpt>
<trkpt lat="45.78034" lon="1.388669"><ele></ele><time>2014-6-3T16:49:47Z</time></trkpt>
<trkpt lat="45.780348" lon="1.388755"><ele></ele><time>2014-6-3T16:49:50Z</time></trkpt>
<trkpt lat="45.780364" lon="1.388821"><ele></ele><time>2014-6-3T16:49:53Z</time></trkpt>
<trkpt lat="45.78039" lon="1.388925"><ele></ele><time>2014-6-3T16:49:56Z</time></trkpt>
<trkpt lat="45.780445" lon="1.389014"><ele></ele><time>2014-6-3T16:49:59Z</time></trkpt>
<trkpt lat="45.780475" lon="1.389087"><ele></ele><time>2014-6-3T16:50:2Z</time></trkpt>
<trkpt lat="45.780527" lon="1.389155"><ele></ele><time>2014-6-3T16:50:5Z</time></trkpt>
<trkpt lat="45.780585" lon="1.389221"><ele></ele><time>2014-6-3T16:50:8Z</time></trkpt>
<trkpt lat="45.78066" lon="1.389254"><ele></ele><time>2014-6-3T16:50:11Z</time></trkpt>
<trkpt lat="45.780718" lon="1.389303"><ele></ele><time>2014-6-3T16:50:14Z</time></trkpt>
<trkpt lat="45.780773" lon="1.389365"><ele></ele><time>2014-6-3T16:50:17Z</time></trkpt>
<trkpt lat="45.780841" lon="1.389434"><ele></ele><time>2014-6-3T16:50:20Z</time></trkpt>
<trkpt lat="45.780923" lon="1.389525"><ele></ele><time>2014-6-3T16:50:23Z</time></trkpt>
<trkpt lat="45.780982" lon="1.389578"><ele></ele><time>2014-6-3T16:50:26Z</time></trkpt>
<trkpt lat="45.781017" lon="1.389619"><ele></ele><time>2014-6-3T16:50:29Z</time></trkpt>
<trkpt lat="45.781075" lon="1.389668"><ele></ele><time>2014-6-3T16:50:32Z</time></trkpt>
<trkpt lat="45.781127" lon="1.389715"><ele></ele><time>2014-6-3T16:50:35Z</time></trkpt>
<trkpt lat="45.78118" lon="1.389743"><ele></ele><time>2014-6-3T16:50:38Z</time></trkpt>
<trkpt lat="45.78123" lon="1.389769"><ele></ele><time>2014-6-3T16:50:41Z</time></trkpt>
<trkpt lat="45.781271" lon="1.389812"><ele></ele><time>2014-6-3T16:50:44Z</time></trkpt>
<trkpt lat="45.781354" lon="1.389872"><ele></ele><time>2014-6-3T16:50:47Z</time></trkpt>
<trkpt lat="45.781426" lon="1.389897"><ele></ele><time>2014-6-3T16:50:50Z</time></trkpt>
<trkpt lat="45.781484" lon="1.389888"><ele></ele><time>2014-6-3T16:50:53Z</time></trkpt>
<trkpt lat="45.781541" lon="1.389882"><ele></ele><time>2014-6-3T16:50:56Z</time></trkpt>
<trkpt lat="45.781589" lon="1.389873"><ele></ele><time>2014-6-3T16:50:59Z</time></trkpt>
<trkpt lat="45.78164" lon="1.389867"><ele></ele><time>2014-6-3T16:51:2Z</time></trkpt>
<trkpt lat="45.781691" lon="1.389873"><ele></ele><time>2014-6-3T16:51:5Z</time></trkpt>
<trkpt lat="45.781748" lon="1.389883"><ele></ele><time>2014-6-3T16:51:8Z</time></trkpt>
<trkpt lat="45.78181" lon="1.389904"><ele></ele><time>2014-6-3T16:51:11Z</time></trkpt>
<trkpt lat="45.781855" lon="1.389922"><ele></ele><time>2014-6-3T16:51:14Z</time></trkpt>
<trkpt lat="45.78191" lon="1.389924"><ele></ele><time>2014-6-3T16:51:17Z</time></trkpt>
<trkpt lat="45.781967" lon="1.389914"><ele></ele><time>2014-6-3T16:51:20Z</time></trkpt>
<trkpt lat="45.782004" lon="1.389867"><ele></ele><time>2014-6-3T16:51:23Z</time></trkpt>
<trkpt lat="45.782049" lon="1.389825"><ele></ele><time>2014-6-3T16:51:26Z</time></trkpt>
<trkpt lat="45.782101" lon="1.389786"><ele></ele><time>2014-6-3T16:51:29Z</time></trkpt>
<trkpt lat="45.782147" lon="1.389747"><ele></ele><time>2014-6-3T16:51:32Z</time></trkpt>
<trkpt lat="45.782181" lon="1.389688"><ele></ele><time>2014-6-3T16:51:35Z</time></trkpt>
<trkpt lat="45.782202" lon="1.389617"><ele></ele><time>2014-6-3T16:51:38Z</time></trkpt>
<trkpt lat="45.782254" lon="1.389585"><ele></ele><time>2014-6-3T16:51:41Z</time></trkpt>
<trkpt lat="45.782293" lon="1.389543"><ele></ele><time>2014-6-3T16:51:44Z</time></trkpt>
<trkpt lat="45.782324" lon="1.389494"><ele></ele><time>2014-6-3T16:51:47Z</time></trkpt>
<trkpt lat="45.782366" lon="1.389463"><ele></ele><time>2014-6-3T16:51:50Z</time></trkpt>
<trkpt lat="45.782402" lon="1.389423"><ele></ele><time>2014-6-3T16:51:53Z</time></trkpt>
<trkpt lat="45.782444" lon="1.389393"><ele></ele><time>2014-6-3T16:51:56Z</time></trkpt>
<trkpt lat="45.78252" lon="1.389335"><ele></ele><time>2014-6-3T16:51:59Z</time></trkpt>
<trkpt lat="45.782565" lon="1.389254"><ele></ele><time>2014-6-3T16:52:2Z</time></trkpt>
<trkpt lat="45.782609" lon="1.389177"><ele></ele><time>2014-6-3T16:52:5Z</time></trkpt>
<trkpt lat="45.782633" lon="1.389101"><ele></ele><time>2014-6-3T16:52:8Z</time></trkpt>
<trkpt lat="45.782656" lon="1.389025"><ele></ele><time>2014-6-3T16:52:11Z</time></trkpt>
<trkpt lat="45.782691" lon="1.388942"><ele></ele><time>2014-6-3T16:52:14Z</time></trkpt>
<trkpt lat="45.782729" lon="1.388861"><ele></ele><time>2014-6-3T16:52:17Z</time></trkpt>
<trkpt lat="45.78277" lon="1.388791"><ele></ele><time>2014-6-3T16:52:20Z</time></trkpt>
<trkpt lat="45.782803" lon="1.388706"><ele></ele><time>2014-6-3T16:52:23Z</time></trkpt>
<trkpt lat="45.782838" lon="1.388623"><ele></ele><time>2014-6-3T16:52:26Z</time></trkpt>
<trkpt lat="45.782877" lon="1.388564"><ele></ele><time>2014-6-3T16:52:29Z</time></trkpt>
<trkpt lat="45.782919" lon="1.3885"><ele></ele><time>2014-6-3T16:52:32Z</time></trkpt>
<trkpt lat="45.782949" lon="1.388425"><ele></ele><time>2014-6-3T16:52:35Z</time></trkpt>
<trkpt lat="45.782981" lon="1.388352"><ele></ele><time>2014-6-3T16:52:38Z</time></trkpt>
<trkpt lat="45.783025" lon="1.388274"><ele></ele><time>2014-6-3T16:52:41Z</time></trkpt>
<trkpt lat="45.783023" lon="1.388189"><ele></ele><time>2014-6-3T16:52:44Z</time></trkpt>
<trkpt lat="45.783051" lon="1.38808"><ele></ele><time>2014-6-3T16:52:47Z</time></trkpt>
<trkpt lat="45.783074" lon="1.387974"><ele></ele><time>2014-6-3T16:52:50Z</time></trkpt>
<trkpt lat="45.783111" lon="1.387887"><ele></ele><time>2014-6-3T16:52:53Z</time></trkpt>
<trkpt lat="45.783141" lon="1.387792"><ele></ele><time>2014-6-3T16:52:56Z</time></trkpt>
<trkpt lat="45.783176" lon="1.387686"><ele></ele><time>2014-6-3T16:52:59Z</time></trkpt>
<trkpt lat="45.783213" lon="1.387584"><ele></ele><time>2014-6-3T16:53:2Z</time></trkpt>
<trkpt lat="45.78325" lon="1.387482"><ele></ele><time>2014-6-3T16:53:5Z</time></trkpt>
<trkpt lat="45.783296" lon="1.387396"><ele></ele><time>2014-6-3T16:53:8Z</time></trkpt>
<trkpt lat="45.783331" lon="1.387321"><ele></ele><time>2014-6-3T16:53:11Z</time></trkpt>
<trkpt lat="45.783374" lon="1.387233"><ele></ele><time>2014-6-3T16:53:14Z</time></trkpt>
<trkpt lat="45.783411" lon="1.387134"><ele></ele><time>2014-6-3T16:53:17Z</time></trkpt>
<trkpt lat="45.783447" lon="1.387064"><ele></ele><time>2014-6-3T16:53:20Z</time></trkpt>
<trkpt lat="45.783468" lon="1.386971"><ele></ele><time>2014-6-3T16:53:23Z</time></trkpt>
<trkpt lat="45.783521" lon="1.38688"><ele></ele><time>2014-6-3T16:53:26Z</time></trkpt>
<trkpt lat="45.783553" lon="1.386831"><ele></ele><time>2014-6-3T16:53:29Z</time></trkpt>
<trkpt lat="45.783586" lon="1.386745"><ele></ele><time>2014-6-3T16:53:32Z</time></trkpt>
<trkpt lat="45.783624" lon="1.386658"><ele></ele><time>2014-6-3T16:53:35Z</time></trkpt>
<trkpt lat="45.783655" lon="1.386588"><ele></ele><time>2014-6-3T16:53:38Z</time></trkpt>
<trkpt lat="45.783662" lon="1.386504"><ele></ele><time>2014-6-3T16:53:41Z</time></trkpt>
<trkpt lat="45.783694" lon="1.386447"><ele></ele><time>2014-6-3T16:53:44Z</time></trkpt>
<trkpt lat="45.783729" lon="1.386376"><ele></ele><time>2014-6-3T16:53:47Z</time></trkpt>
<trkpt lat="45.783766" lon="1.386302"><ele></ele><time>2014-6-3T16:53:50Z</time></trkpt>
<trkpt lat="45.78384" lon="1.386284"><ele></ele><time>2014-6-3T16:53:53Z</time></trkpt>
<trkpt lat="45.783898" lon="1.386259"><ele></ele><time>2014-6-3T16:53:56Z</time></trkpt>
<trkpt lat="45.783952" lon="1.386217"><ele></ele><time>2014-6-3T16:53:59Z</time></trkpt>
<trkpt lat="45.784019" lon="1.386191"><ele></ele><time>2014-6-3T16:54:2Z</time></trkpt>
<trkpt lat="45.784073" lon="1.386164"><ele></ele><time>2014-6-3T16:54:5Z</time></trkpt>
<trkpt lat="45.784139" lon="1.386137"><ele></ele><time>2014-6-3T16:54:8Z</time></trkpt>
<trkpt lat="45.784202" lon="1.386101"><ele></ele><time>2014-6-3T16:54:11Z</time></trkpt>
<trkpt lat="45.784268" lon="1.386076"><ele></ele><time>2014-6-3T16:54:14Z</time></trkpt>
<trkpt lat="45.784334" lon="1.386049"><ele></ele><time>2014-6-3T16:54:17Z</time></trkpt>
<trkpt lat="45.784411" lon="1.386037"><ele></ele><time>2014-6-3T16:54:20Z</time></trkpt>
<trkpt lat="45.784487" lon="1.386026"><ele></ele><time>2014-6-3T16:54:23Z</time></trkpt>
<trkpt lat="45.784561" lon="1.386025"><ele></ele><time>2014-6-3T16:54:26Z</time></trkpt>
<trkpt lat="45.784632" lon="1.386028"><ele></ele><time>2014-6-3T16:54:29Z</time></trkpt>
<trkpt lat="45.784677" lon="1.386036"><ele></ele><time>2014-6-3T16:54:32Z</time></trkpt>
<trkpt lat="45.784756" lon="1.386042"><ele></ele><time>2014-6-3T16:54:35Z</time></trkpt>
<trkpt lat="45.78483" lon="1.386053"><ele></ele><time>2014-6-3T16:54:38Z</time></trkpt>
<trkpt lat="45.784912" lon="1.38607"><ele></ele><time>2014-6-3T16:54:41Z</time></trkpt>
<trkpt lat="45.784992" lon="1.386092"><ele></ele><time>2014-6-3T16:54:44Z</time></trkpt>
<trkpt lat="45.785069" lon="1.386114"><ele></ele><time>2014-6-3T16:54:47Z</time></trkpt>
<trkpt lat="45.785128" lon="1.386108"><ele></ele><time>2014-6-3T16:54:50Z</time></trkpt>
<trkpt lat="45.78519" lon="1.386126"><ele></ele><time>2014-6-3T16:54:53Z</time></trkpt>
<trkpt lat="45.785251" lon="1.386134"><ele></ele><time>2014-6-3T16:54:56Z</time></trkpt>
<trkpt lat="45.785309" lon="1.386132"><ele></ele><time>2014-6-3T16:54:59Z</time></trkpt>
<trkpt lat="45.785382" lon="1.386146"><ele></ele><time>2014-6-3T16:55:2Z</time></trkpt>
<trkpt lat="45.785449" lon="1.386141"><ele></ele><time>2014-6-3T16:55:5Z</time></trkpt>
<trkpt lat="45.785498" lon="1.386139"><ele></ele><time>2014-6-3T16:55:8Z</time></trkpt>
<trkpt lat="45.785545" lon="1.386129"><ele></ele><time>2014-6-3T16:55:11Z</time></trkpt>
<trkpt lat="45.785628" lon="1.386134"><ele></ele><time>2014-6-3T16:55:14Z</time></trkpt>
<trkpt lat="45.785675" lon="1.386129"><ele></ele><time>2014-6-3T16:55:17Z</time></trkpt>
<trkpt lat="45.785747" lon="1.386108"><ele></ele><time>2014-6-3T16:55:20Z</time></trkpt>
<trkpt lat="45.785822" lon="1.38609"><ele></ele><time>2014-6-3T16:55:23Z</time></trkpt>
<trkpt lat="45.785905" lon="1.386065"><ele></ele><time>2014-6-3T16:55:26Z</time></trkpt>
<trkpt lat="45.785984" lon="1.386054"><ele></ele><time>2014-6-3T16:55:29Z</time></trkpt>
<trkpt lat="45.786065" lon="1.386047"><ele></ele><time>2014-6-3T16:55:32Z</time></trkpt>
<trkpt lat="45.78618" lon="1.386031"><ele></ele><time>2014-6-3T16:55:35Z</time></trkpt>
<trkpt lat="45.786267" lon="1.386031"><ele></ele><time>2014-6-3T16:55:38Z</time></trkpt>
<trkpt lat="45.78635" lon="1.386011"><ele></ele><time>2014-6-3T16:55:41Z</time></trkpt>
<trkpt lat="45.786398" lon="1.386013"><ele></ele><time>2014-6-3T16:55:44Z</time></trkpt>
<trkpt lat="45.786467" lon="1.385977"><ele></ele><time>2014-6-3T16:55:47Z</time></trkpt>
<trkpt lat="45.786522" lon="1.385977"><ele></ele><time>2014-6-3T16:55:50Z</time></trkpt>
<trkpt lat="45.786599" lon="1.385946"><ele></ele><time>2014-6-3T16:55:53Z</time></trkpt>
<trkpt lat="45.786687" lon="1.385923"><ele></ele><time>2014-6-3T16:55:56Z</time></trkpt>
<trkpt lat="45.786732" lon="1.385911"><ele></ele><time>2014-6-3T16:55:59Z</time></trkpt>
<trkpt lat="45.786777" lon="1.385899"><ele></ele><time>2014-6-3T16:56:2Z</time></trkpt>
<trkpt lat="45.786829" lon="1.385894"><ele></ele><time>2014-6-3T16:56:5Z</time></trkpt>
<trkpt lat="45.786877" lon="1.385881"><ele></ele><time>2014-6-3T16:56:8Z</time></trkpt>
<trkpt lat="45.786927" lon="1.385873"><ele></ele><time>2014-6-3T16:56:11Z</time></trkpt>
<trkpt lat="45.786976" lon="1.385857"><ele></ele><time>2014-6-3T16:56:14Z</time></trkpt>
<trkpt lat="45.787065" lon="1.38584"><ele></ele><time>2014-6-3T16:56:17Z</time></trkpt>
<trkpt lat="45.787114" lon="1.385824"><ele></ele><time>2014-6-3T16:56:20Z</time></trkpt>
<trkpt lat="45.787165" lon="1.385821"><ele></ele><time>2014-6-3T16:56:23Z</time></trkpt>
<trkpt lat="45.787263" lon="1.385811"><ele></ele><time>2014-6-3T16:56:26Z</time></trkpt>
<trkpt lat="45.78731" lon="1.385801"><ele></ele><time>2014-6-3T16:56:29Z</time></trkpt>
<trkpt lat="45.787384" lon="1.385779"><ele></ele><time>2014-6-3T16:56:32Z</time></trkpt>
<trkpt lat="45.787428" lon="1.385769"><ele></ele><time>2014-6-3T16:56:35Z</time></trkpt>
<trkpt lat="45.787514" lon="1.385749"><ele></ele><time>2014-6-3T16:56:38Z</time></trkpt>
<trkpt lat="45.78756" lon="1.385738"><ele></ele><time>2014-6-3T16:56:41Z</time></trkpt>
<trkpt lat="45.787644" lon="1.385722"><ele></ele><time>2014-6-3T16:56:44Z</time></trkpt>
<trkpt lat="45.787686" lon="1.385698"><ele></ele><time>2014-6-3T16:56:47Z</time></trkpt>
<trkpt lat="45.787726" lon="1.385667"><ele></ele><time>2014-6-3T16:56:50Z</time></trkpt>
<trkpt lat="45.787768" lon="1.385639"><ele></ele><time>2014-6-3T16:56:53Z</time></trkpt>
<trkpt lat="45.78781" lon="1.385568"><ele></ele><time>2014-6-3T16:56:56Z</time></trkpt>
<trkpt lat="45.787852" lon="1.385501"><ele></ele><time>2014-6-3T16:56:59Z</time></trkpt>
<trkpt lat="45.787906" lon="1.385419"><ele></ele><time>2014-6-3T16:57:2Z</time></trkpt>
<trkpt lat="45.787952" lon="1.385323"><ele></ele><time>2014-6-3T16:57:5Z</time></trkpt>
<trkpt lat="45.787998" lon="1.385245"><ele></ele><time>2014-6-3T16:57:8Z</time></trkpt>
<trkpt lat="45.78797" lon="1.385175"><ele></ele><time>2014-6-3T16:57:11Z</time></trkpt>
<trkpt lat="45.788009" lon="1.385131"><ele></ele><time>2014-6-3T16:57:14Z</time></trkpt>
<trkpt lat="45.788051" lon="1.385054"><ele></ele><time>2014-6-3T16:57:17Z</time></trkpt>
<trkpt lat="45.788102" lon="1.384982"><ele></ele><time>2014-6-3T16:57:20Z</time></trkpt>
<trkpt lat="45.788164" lon="1.384928"><ele></ele><time>2014-6-3T16:57:23Z</time></trkpt>
<trkpt lat="45.788221" lon="1.384879"><ele></ele><time>2014-6-3T16:57:26Z</time></trkpt>
<trkpt lat="45.788244" lon="1.384801"><ele></ele><time>2014-6-3T16:57:29Z</time></trkpt>
<trkpt lat="45.788315" lon="1.384757"><ele></ele><time>2014-6-3T16:57:32Z</time></trkpt>
<trkpt lat="45.788376" lon="1.384702"><ele></ele><time>2014-6-3T16:57:35Z</time></trkpt>
<trkpt lat="45.78843" lon="1.38463"><ele></ele><time>2014-6-3T16:57:38Z</time></trkpt>
<trkpt lat="45.788452" lon="1.384552"><ele></ele><time>2014-6-3T16:57:41Z</time></trkpt>
<trkpt lat="45.788507" lon="1.384496"><ele></ele><time>2014-6-3T16:57:44Z</time></trkpt>
<trkpt lat="45.788575" lon="1.384443"><ele></ele><time>2014-6-3T16:57:47Z</time></trkpt>
<trkpt lat="45.788645" lon="1.384388"><ele></ele><time>2014-6-3T16:57:50Z</time></trkpt>
<trkpt lat="45.788726" lon="1.384338"><ele></ele><time>2014-6-3T16:57:53Z</time></trkpt>
<trkpt lat="45.788787" lon="1.384274"><ele></ele><time>2014-6-3T16:57:56Z</time></trkpt>
<trkpt lat="45.788824" lon="1.384232"><ele></ele><time>2014-6-3T16:57:59Z</time></trkpt>
<trkpt lat="45.788853" lon="1.384139"><ele></ele><time>2014-6-3T16:58:2Z</time></trkpt>
<trkpt lat="45.788913" lon="1.3841"><ele></ele><time>2014-6-3T16:58:5Z</time></trkpt>
<trkpt lat="45.788998" lon="1.384057"><ele></ele><time>2014-6-3T16:58:8Z</time></trkpt>
<trkpt lat="45.78907" lon="1.38402"><ele></ele><time>2014-6-3T16:58:11Z</time></trkpt>
<trkpt lat="45.789116" lon="1.384003"><ele></ele><time>2014-6-3T16:58:14Z</time></trkpt>
<trkpt lat="45.789162" lon="1.383969"><ele></ele><time>2014-6-3T16:58:17Z</time></trkpt>
<trkpt lat="45.789229" lon="1.383912"><ele></ele><time>2014-6-3T16:58:20Z</time></trkpt>
<trkpt lat="45.789297" lon="1.383859"><ele></ele><time>2014-6-3T16:58:23Z</time></trkpt>
<trkpt lat="45.789366" lon="1.383828"><ele></ele><time>2014-6-3T16:58:26Z</time></trkpt>
<trkpt lat="45.789434" lon="1.383758"><ele></ele><time>2014-6-3T16:58:29Z</time></trkpt>
<trkpt lat="45.789475" lon="1.383731"><ele></ele><time>2014-6-3T16:58:32Z</time></trkpt>
<trkpt lat="45.789544" lon="1.383678"><ele></ele><time>2014-6-3T16:58:35Z</time></trkpt>
<trkpt lat="45.789585" lon="1.38365"><ele></ele><time>2014-6-3T16:58:38Z</time></trkpt>
<trkpt lat="45.789646" lon="1.383604"><ele></ele><time>2014-6-3T16:58:41Z</time></trkpt>
<trkpt lat="45.789708" lon="1.383558"><ele></ele><time>2014-6-3T16:58:44Z</time></trkpt>
<trkpt lat="45.789752" lon="1.383516"><ele></ele><time>2014-6-3T16:58:47Z</time></trkpt>
<trkpt lat="45.789802" lon="1.383458"><ele></ele><time>2014-6-3T16:58:50Z</time></trkpt>
<trkpt lat="45.789828" lon="1.383394"><ele></ele><time>2014-6-3T16:58:53Z</time></trkpt>
<trkpt lat="45.78983" lon="1.383327"><ele></ele><time>2014-6-3T16:58:56Z</time></trkpt>
<trkpt lat="45.789813" lon="1.383389"><ele></ele><time>2014-6-3T16:58:59Z</time></trkpt>
<trkpt lat="45.78985" lon="1.383335"><ele></ele><time>2014-6-3T16:59:2Z</time></trkpt>
<trkpt lat="45.789896" lon="1.383333"><ele></ele><time>2014-6-3T16:59:5Z</time></trkpt>
<trkpt lat="45.789901" lon="1.383397"><ele></ele><time>2014-6-3T16:59:8Z</time></trkpt>
<trkpt lat="45.789911" lon="1.383466"><ele></ele><time>2014-6-3T16:59:11Z</time></trkpt>
<trkpt lat="45.789876" lon="1.38351"><ele></ele><time>2014-6-3T16:59:14Z</time></trkpt>
<trkpt lat="45.789869" lon="1.383444"><ele></ele><time>2014-6-3T16:59:17Z</time></trkpt>
<trkpt lat="45.789896" lon="1.383414"><ele></ele><time>2014-6-3T16:59:20Z</time></trkpt>
<trkpt lat="45.789861" lon="1.383378"><ele></ele><time>2014-6-3T16:59:23Z</time></trkpt>
<trkpt lat="45.789856" lon="1.383368"><ele></ele><time>2014-6-3T16:59:26Z</time></trkpt>
<trkpt lat="45.789817" lon="1.383329"><ele></ele><time>2014-6-3T16:59:29Z</time></trkpt>
<trkpt lat="45.789768" lon="1.383256"><ele></ele><time>2014-6-3T16:59:32Z</time></trkpt>
<trkpt lat="45.78972" lon="1.38321"><ele></ele><time>2014-6-3T16:59:35Z</time></trkpt>
<trkpt lat="45.789715" lon="1.383001"><ele></ele><time>2014-6-3T16:59:38Z</time></trkpt>
<trkpt lat="45.789691" lon="1.382921"><ele></ele><time>2014-6-3T16:59:41Z</time></trkpt>
<trkpt lat="45.789663" lon="1.382853"><ele></ele><time>2014-6-3T16:59:44Z</time></trkpt>
<trkpt lat="45.789634" lon="1.382767"><ele></ele><time>2014-6-3T16:59:47Z</time></trkpt>
<trkpt lat="45.789603" lon="1.382696"><ele></ele><time>2014-6-3T16:59:50Z</time></trkpt>
<trkpt lat="45.789573" lon="1.382636"><ele></ele><time>2014-6-3T16:59:53Z</time></trkpt>
<trkpt lat="45.78954" lon="1.382551"><ele></ele><time>2014-6-3T16:59:56Z</time></trkpt>
<trkpt lat="45.789491" lon="1.382463"><ele></ele><time>2014-6-3T16:59:59Z</time></trkpt>
<trkpt lat="45.789457" lon="1.382397"><ele></ele><time>2014-6-3T17:0:2Z</time></trkpt>
<trkpt lat="45.789428" lon="1.38233"><ele></ele><time>2014-6-3T17:0:5Z</time></trkpt>
<trkpt lat="45.789397" lon="1.382269"><ele></ele><time>2014-6-3T17:0:8Z</time></trkpt>
<trkpt lat="45.789356" lon="1.382232"><ele></ele><time>2014-6-3T17:0:11Z</time></trkpt>
<trkpt lat="45.789294" lon="1.382205"><ele></ele><time>2014-6-3T17:0:14Z</time></trkpt>
<trkpt lat="45.78923" lon="1.382191"><ele></ele><time>2014-6-3T17:0:17Z</time></trkpt>
<trkpt lat="45.789172" lon="1.382187"><ele></ele><time>2014-6-3T17:0:20Z</time></trkpt>
<trkpt lat="45.789088" lon="1.382186"><ele></ele><time>2014-6-3T17:0:23Z</time></trkpt>
<trkpt lat="45.788996" lon="1.382187"><ele></ele><time>2014-6-3T17:0:26Z</time></trkpt>
<trkpt lat="45.788942" lon="1.382181"><ele></ele><time>2014-6-3T17:0:29Z</time></trkpt>
<trkpt lat="45.788872" lon="1.382148"><ele></ele><time>2014-6-3T17:0:32Z</time></trkpt>
<trkpt lat="45.788816" lon="1.382082"><ele></ele><time>2014-6-3T17:0:35Z</time></trkpt>
<trkpt lat="45.788782" lon="1.382016"><ele></ele><time>2014-6-3T17:0:38Z</time></trkpt>
<trkpt lat="45.788761" lon="1.381956"><ele></ele><time>2014-6-3T17:0:41Z</time></trkpt>
<trkpt lat="45.788694" lon="1.381896"><ele></ele><time>2014-6-3T17:0:44Z</time></trkpt>
<trkpt lat="45.788659" lon="1.381823"><ele></ele><time>2014-6-3T17:0:47Z</time></trkpt>
<trkpt lat="45.788607" lon="1.381792"><ele></ele><time>2014-6-3T17:0:50Z</time></trkpt>
<trkpt lat="45.788571" lon="1.381749"><ele></ele><time>2014-6-3T17:0:53Z</time></trkpt>
<trkpt lat="45.78853" lon="1.381706"><ele></ele><time>2014-6-3T17:0:56Z</time></trkpt>
<trkpt lat="45.788458" lon="1.381681"><ele></ele><time>2014-6-3T17:0:59Z</time></trkpt>
<trkpt lat="45.788397" lon="1.381641"><ele></ele><time>2014-6-3T17:1:2Z</time></trkpt>
<trkpt lat="45.788358" lon="1.381581"><ele></ele><time>2014-6-3T17:1:5Z</time></trkpt>
<trkpt lat="45.788315" lon="1.38153"><ele></ele><time>2014-6-3T17:1:8Z</time></trkpt>
<trkpt lat="45.788263" lon="1.381489"><ele></ele><time>2014-6-3T17:1:11Z</time></trkpt>
<trkpt lat="45.788219" lon="1.381447"><ele></ele><time>2014-6-3T17:1:14Z</time></trkpt>
<trkpt lat="45.788163" lon="1.381407"><ele></ele><time>2014-6-3T17:1:17Z</time></trkpt>
<trkpt lat="45.788111" lon="1.381361"><ele></ele><time>2014-6-3T17:1:20Z</time></trkpt>
<trkpt lat="45.788027" lon="1.381308"><ele></ele><time>2014-6-3T17:1:23Z</time></trkpt>
<trkpt lat="45.787973" lon="1.381232"><ele></ele><time>2014-6-3T17:1:26Z</time></trkpt>
<trkpt lat="45.787898" lon="1.381189"><ele></ele><time>2014-6-3T17:1:29Z</time></trkpt>
<trkpt lat="45.78784" lon="1.381159"><ele></ele><time>2014-6-3T17:1:32Z</time></trkpt>
<trkpt lat="45.787786" lon="1.381121"><ele></ele><time>2014-6-3T17:1:35Z</time></trkpt>
<trkpt lat="45.787731" lon="1.381074"><ele></ele><time>2014-6-3T17:1:38Z</time></trkpt>
<trkpt lat="45.787676" lon="1.381031"><ele></ele><time>2014-6-3T17:1:41Z</time></trkpt>
<trkpt lat="45.787602" lon="1.380985"><ele></ele><time>2014-6-3T17:1:44Z</time></trkpt>
<trkpt lat="45.787529" lon="1.380956"><ele></ele><time>2014-6-3T17:1:47Z</time></trkpt>
<trkpt lat="45.787477" lon="1.380947"><ele></ele><time>2014-6-3T17:1:50Z</time></trkpt>
<trkpt lat="45.787416" lon="1.380922"><ele></ele><time>2014-6-3T17:1:53Z</time></trkpt>
<trkpt lat="45.787358" lon="1.380904"><ele></ele><time>2014-6-3T17:1:56Z</time></trkpt>
<trkpt lat="45.78731" lon="1.380897"><ele></ele><time>2014-6-3T17:1:59Z</time></trkpt>
<trkpt lat="45.787148" lon="1.380913"><ele></ele><time>2014-6-3T17:2:2Z</time></trkpt>
<trkpt lat="45.786999" lon="1.380901"><ele></ele><time>2014-6-3T17:2:5Z</time></trkpt>
<trkpt lat="45.786905" lon="1.380859"><ele></ele><time>2014-6-3T17:2:8Z</time></trkpt>
<trkpt lat="45.786841" lon="1.380753"><ele></ele><time>2014-6-3T17:2:11Z</time></trkpt>
<trkpt lat="45.786761" lon="1.380687"><ele></ele><time>2014-6-3T17:2:14Z</time></trkpt>
<trkpt lat="45.786686" lon="1.380619"><ele></ele><time>2014-6-3T17:2:17Z</time></trkpt>
<trkpt lat="45.786603" lon="1.380554"><ele></ele><time>2014-6-3T17:2:20Z</time></trkpt>
<trkpt lat="45.786528" lon="1.380487"><ele></ele><time>2014-6-3T17:2:23Z</time></trkpt>
<trkpt lat="45.786466" lon="1.380417"><ele></ele><time>2014-6-3T17:2:26Z</time></trkpt>
<trkpt lat="45.786431" lon="1.380244"><ele></ele><time>2014-6-3T17:2:29Z</time></trkpt>
<trkpt lat="45.786376" lon="1.380104"><ele></ele><time>2014-6-3T17:2:32Z</time></trkpt>
<trkpt lat="45.786324" lon="1.380013"><ele></ele><time>2014-6-3T17:2:35Z</time></trkpt>
<trkpt lat="45.786258" lon="1.379943"><ele></ele><time>2014-6-3T17:2:38Z</time></trkpt>
<trkpt lat="45.786198" lon="1.379873"><ele></ele><time>2014-6-3T17:2:41Z</time></trkpt>
<trkpt lat="45.786137" lon="1.379816"><ele></ele><time>2014-6-3T17:2:44Z</time></trkpt>
<trkpt lat="45.786079" lon="1.379768"><ele></ele><time>2014-6-3T17:2:47Z</time></trkpt>
<trkpt lat="45.786025" lon="1.37971"><ele></ele><time>2014-6-3T17:2:50Z</time></trkpt>
<trkpt lat="45.78599" lon="1.379627"><ele></ele><time>2014-6-3T17:2:53Z</time></trkpt>
<trkpt lat="45.785958" lon="1.37954"><ele></ele><time>2014-6-3T17:2:56Z</time></trkpt>
<trkpt lat="45.785926" lon="1.379457"><ele></ele><time>2014-6-3T17:2:59Z</time></trkpt>
<trkpt lat="45.785896" lon="1.379377"><ele></ele><time>2014-6-3T17:3:2Z</time></trkpt>
<trkpt lat="45.785872" lon="1.379287"><ele></ele><time>2014-6-3T17:3:5Z</time></trkpt>
<trkpt lat="45.785847" lon="1.379216"><ele></ele><time>2014-6-3T17:3:8Z</time></trkpt>
<trkpt lat="45.78582" lon="1.379132"><ele></ele><time>2014-6-3T17:3:11Z</time></trkpt>
<trkpt lat="45.785789" lon="1.379059"><ele></ele><time>2014-6-3T17:3:14Z</time></trkpt>
<trkpt lat="45.785753" lon="1.378986"><ele></ele><time>2014-6-3T17:3:17Z</time></trkpt>
<trkpt lat="45.785717" lon="1.378922"><ele></ele><time>2014-6-3T17:3:20Z</time></trkpt>
<trkpt lat="45.785687" lon="1.378862"><ele></ele><time>2014-6-3T17:3:23Z</time></trkpt>
<trkpt lat="45.785657" lon="1.378807"><ele></ele><time>2014-6-3T17:3:26Z</time></trkpt>
<trkpt lat="45.785618" lon="1.378762"><ele></ele><time>2014-6-3T17:3:29Z</time></trkpt>
<trkpt lat="45.785582" lon="1.378706"><ele></ele><time>2014-6-3T17:3:32Z</time></trkpt>
<trkpt lat="45.78555" lon="1.378652"><ele></ele><time>2014-6-3T17:3:35Z</time></trkpt>
<trkpt lat="45.785496" lon="1.378544"><ele></ele><time>2014-6-3T17:3:38Z</time></trkpt>
<trkpt lat="45.785462" lon="1.37848"><ele></ele><time>2014-6-3T17:3:41Z</time></trkpt>
<trkpt lat="45.78543" lon="1.378419"><ele></ele><time>2014-6-3T17:3:44Z</time></trkpt>
<trkpt lat="45.785403" lon="1.378366"><ele></ele><time>2014-6-3T17:3:47Z</time></trkpt>
<trkpt lat="45.785353" lon="1.378283"><ele></ele><time>2014-6-3T17:3:50Z</time></trkpt>
<trkpt lat="45.785299" lon="1.378208"><ele></ele><time>2014-6-3T17:3:53Z</time></trkpt>
<trkpt lat="45.785275" lon="1.378153"><ele></ele><time>2014-6-3T17:3:56Z</time></trkpt>
<trkpt lat="45.785248" lon="1.378099"><ele></ele><time>2014-6-3T17:3:59Z</time></trkpt>
<trkpt lat="45.785217" lon="1.37804"><ele></ele><time>2014-6-3T17:4:2Z</time></trkpt>
<trkpt lat="45.785181" lon="1.377978"><ele></ele><time>2014-6-3T17:4:5Z</time></trkpt>
<trkpt lat="45.78514" lon="1.377917"><ele></ele><time>2014-6-3T17:4:8Z</time></trkpt>
<trkpt lat="45.78514" lon="1.377917"><ele></ele><time>2014-6-3T17:4:11Z</time></trkpt>
<trkpt lat="45.785102" lon="1.377862"><ele></ele><time>2014-6-3T17:4:14Z</time></trkpt>
<trkpt lat="45.785058" lon="1.3778"><ele></ele><time>2014-6-3T17:4:17Z</time></trkpt>
<trkpt lat="45.785017" lon="1.377757"><ele></ele><time>2014-6-3T17:4:20Z</time></trkpt>
<trkpt lat="45.784978" lon="1.377708"><ele></ele><time>2014-6-3T17:4:23Z</time></trkpt>
<trkpt lat="45.784936" lon="1.37766"><ele></ele><time>2014-6-3T17:4:26Z</time></trkpt>
<trkpt lat="45.784898" lon="1.377614"><ele></ele><time>2014-6-3T17:4:29Z</time></trkpt>
<trkpt lat="45.784852" lon="1.377563"><ele></ele><time>2014-6-3T17:4:32Z</time></trkpt>
<trkpt lat="45.784815" lon="1.377509"><ele></ele><time>2014-6-3T17:4:35Z</time></trkpt>
<trkpt lat="45.784777" lon="1.377446"><ele></ele><time>2014-6-3T17:4:38Z</time></trkpt>
<trkpt lat="45.784743" lon="1.377393"><ele></ele><time>2014-6-3T17:4:41Z</time></trkpt>
<trkpt lat="45.78471" lon="1.377342"><ele></ele><time>2014-6-3T17:4:44Z</time></trkpt>
<trkpt lat="45.784683" lon="1.377284"><ele></ele><time>2014-6-3T17:4:47Z</time></trkpt>
<trkpt lat="45.784651" lon="1.377225"><ele></ele><time>2014-6-3T17:4:50Z</time></trkpt>
<trkpt lat="45.784597" lon="1.377113"><ele></ele><time>2014-6-3T17:4:53Z</time></trkpt>
<trkpt lat="45.784575" lon="1.377054"><ele></ele><time>2014-6-3T17:4:56Z</time></trkpt>
<trkpt lat="45.78455" lon="1.376989"><ele></ele><time>2014-6-3T17:4:59Z</time></trkpt>
<trkpt lat="45.784536" lon="1.376918"><ele></ele><time>2014-6-3T17:5:2Z</time></trkpt>
<trkpt lat="45.784515" lon="1.37686"><ele></ele><time>2014-6-3T17:5:5Z</time></trkpt>
<trkpt lat="45.784491" lon="1.376799"><ele></ele><time>2014-6-3T17:5:8Z</time></trkpt>
<trkpt lat="45.784461" lon="1.376738"><ele></ele><time>2014-6-3T17:5:11Z</time></trkpt>
<trkpt lat="45.784424" lon="1.376623"><ele></ele><time>2014-6-3T17:5:14Z</time></trkpt>
<trkpt lat="45.784398" lon="1.37651"><ele></ele><time>2014-6-3T17:5:17Z</time></trkpt>
<trkpt lat="45.784362" lon="1.376387"><ele></ele><time>2014-6-3T17:5:20Z</time></trkpt>
<trkpt lat="45.784348" lon="1.376315"><ele></ele><time>2014-6-3T17:5:23Z</time></trkpt>
<trkpt lat="45.784339" lon="1.376241"><ele></ele><time>2014-6-3T17:5:26Z</time></trkpt>
<trkpt lat="45.784312" lon="1.376155"><ele></ele><time>2014-6-3T17:5:29Z</time></trkpt>
<trkpt lat="45.784281" lon="1.376044"><ele></ele><time>2014-6-3T17:5:32Z</time></trkpt>
<trkpt lat="45.784237" lon="1.375927"><ele></ele><time>2014-6-3T17:5:35Z</time></trkpt>
<trkpt lat="45.784216" lon="1.375867"><ele></ele><time>2014-6-3T17:5:38Z</time></trkpt>
<trkpt lat="45.784168" lon="1.375713"><ele></ele><time>2014-6-3T17:5:41Z</time></trkpt>
<trkpt lat="45.784128" lon="1.375669"><ele></ele><time>2014-6-3T17:5:44Z</time></trkpt>
<trkpt lat="45.784096" lon="1.375608"><ele></ele><time>2014-6-3T17:5:47Z</time></trkpt>
<trkpt lat="45.784085" lon="1.375527"><ele></ele><time>2014-6-3T17:5:50Z</time></trkpt>
<trkpt lat="45.784091" lon="1.375423"><ele></ele><time>2014-6-3T17:5:53Z</time></trkpt>
<trkpt lat="45.784061" lon="1.375328"><ele></ele><time>2014-6-3T17:5:56Z</time></trkpt>
<trkpt lat="45.78402" lon="1.375213"><ele></ele><time>2014-6-3T17:5:59Z</time></trkpt>
<trkpt lat="45.783982" lon="1.375119"><ele></ele><time>2014-6-3T17:6:2Z</time></trkpt>
<trkpt lat="45.783952" lon="1.375023"><ele></ele><time>2014-6-3T17:6:5Z</time></trkpt>
<trkpt lat="45.783908" lon="1.374929"><ele></ele><time>2014-6-3T17:6:8Z</time></trkpt>
<trkpt lat="45.783866" lon="1.374841"><ele></ele><time>2014-6-3T17:6:11Z</time></trkpt>
<trkpt lat="45.783816" lon="1.374754"><ele></ele><time>2014-6-3T17:6:14Z</time></trkpt>
<trkpt lat="45.783784" lon="1.374678"><ele></ele><time>2014-6-3T17:6:17Z</time></trkpt>
<trkpt lat="45.783736" lon="1.37459"><ele></ele><time>2014-6-3T17:6:20Z</time></trkpt>
<trkpt lat="45.783698" lon="1.374502"><ele></ele><time>2014-6-3T17:6:23Z</time></trkpt>
<trkpt lat="45.783657" lon="1.374417"><ele></ele><time>2014-6-3T17:6:26Z</time></trkpt>
<trkpt lat="45.78361" lon="1.374345"><ele></ele><time>2014-6-3T17:6:29Z</time></trkpt>
<trkpt lat="45.783572" lon="1.374258"><ele></ele><time>2014-6-3T17:6:32Z</time></trkpt>
<trkpt lat="45.783526" lon="1.374181"><ele></ele><time>2014-6-3T17:6:35Z</time></trkpt>
<trkpt lat="45.783492" lon="1.374112"><ele></ele><time>2014-6-3T17:6:38Z</time></trkpt>
<trkpt lat="45.783458" lon="1.374054"><ele></ele><time>2014-6-3T17:6:41Z</time></trkpt>
<trkpt lat="45.783418" lon="1.373995"><ele></ele><time>2014-6-3T17:6:44Z</time></trkpt>
<trkpt lat="45.783375" lon="1.373928"><ele></ele><time>2014-6-3T17:6:47Z</time></trkpt>
<trkpt lat="45.783343" lon="1.373855"><ele></ele><time>2014-6-3T17:6:50Z</time></trkpt>
<trkpt lat="45.783311" lon="1.373794"><ele></ele><time>2014-6-3T17:6:53Z</time></trkpt>
<trkpt lat="45.78327" lon="1.37374"><ele></ele><time>2014-6-3T17:6:56Z</time></trkpt>
<trkpt lat="45.783232" lon="1.373677"><ele></ele><time>2014-6-3T17:6:59Z</time></trkpt>
<trkpt lat="45.783198" lon="1.373606"><ele></ele><time>2014-6-3T17:7:2Z</time></trkpt>
<trkpt lat="45.783165" lon="1.373544"><ele></ele><time>2014-6-3T17:7:5Z</time></trkpt>
<trkpt lat="45.783133" lon="1.373485"><ele></ele><time>2014-6-3T17:7:8Z</time></trkpt>
<trkpt lat="45.783107" lon="1.373424"><ele></ele><time>2014-6-3T17:7:11Z</time></trkpt>
<trkpt lat="45.78307" lon="1.373359"><ele></ele><time>2014-6-3T17:7:14Z</time></trkpt>
<trkpt lat="45.783028" lon="1.373302"><ele></ele><time>2014-6-3T17:7:17Z</time></trkpt>
<trkpt lat="45.782994" lon="1.373242"><ele></ele><time>2014-6-3T17:7:20Z</time></trkpt>
<trkpt lat="45.782958" lon="1.373188"><ele></ele><time>2014-6-3T17:7:23Z</time></trkpt>
<trkpt lat="45.782919" lon="1.373129"><ele></ele><time>2014-6-3T17:7:26Z</time></trkpt>
<trkpt lat="45.78289" lon="1.373073"><ele></ele><time>2014-6-3T17:7:29Z</time></trkpt>
<trkpt lat="45.782848" lon="1.373034"><ele></ele><time>2014-6-3T17:7:32Z</time></trkpt>
<trkpt lat="45.782813" lon="1.372977"><ele></ele><time>2014-6-3T17:7:35Z</time></trkpt>
<trkpt lat="45.782769" lon="1.372909"><ele></ele><time>2014-6-3T17:7:38Z</time></trkpt>
<trkpt lat="45.782709" lon="1.372831"><ele></ele><time>2014-6-3T17:7:41Z</time></trkpt>
<trkpt lat="45.78266" lon="1.372766"><ele></ele><time>2014-6-3T17:7:44Z</time></trkpt>
<trkpt lat="45.782614" lon="1.372663"><ele></ele><time>2014-6-3T17:7:47Z</time></trkpt>
<trkpt lat="45.782571" lon="1.372562"><ele></ele><time>2014-6-3T17:7:50Z</time></trkpt>
<trkpt lat="45.782536" lon="1.372517"><ele></ele><time>2014-6-3T17:7:53Z</time></trkpt>
<trkpt lat="45.782489" lon="1.372399"><ele></ele><time>2014-6-3T17:7:56Z</time></trkpt>
<trkpt lat="45.782462" lon="1.372345"><ele></ele><time>2014-6-3T17:7:59Z</time></trkpt>
<trkpt lat="45.78243" lon="1.372278"><ele></ele><time>2014-6-3T17:8:2Z</time></trkpt>
<trkpt lat="45.782402" lon="1.372226"><ele></ele><time>2014-6-3T17:8:5Z</time></trkpt>
<trkpt lat="45.782367" lon="1.372168"><ele></ele><time>2014-6-3T17:8:8Z</time></trkpt>
<trkpt lat="45.782347" lon="1.372104"><ele></ele><time>2014-6-3T17:8:11Z</time></trkpt>
<trkpt lat="45.78232" lon="1.372036"><ele></ele><time>2014-6-3T17:8:14Z</time></trkpt>
<trkpt lat="45.782295" lon="1.37197"><ele></ele><time>2014-6-3T17:8:17Z</time></trkpt>
<trkpt lat="45.782234" lon="1.371834"><ele></ele><time>2014-6-3T17:8:20Z</time></trkpt>
<trkpt lat="45.782211" lon="1.371776"><ele></ele><time>2014-6-3T17:8:23Z</time></trkpt>
<trkpt lat="45.782181" lon="1.37171"><ele></ele><time>2014-6-3T17:8:26Z</time></trkpt>
<trkpt lat="45.782154" lon="1.371648"><ele></ele><time>2014-6-3T17:8:29Z</time></trkpt>
<trkpt lat="45.782133" lon="1.371589"><ele></ele><time>2014-6-3T17:8:32Z</time></trkpt>
<trkpt lat="45.782109" lon="1.371524"><ele></ele><time>2014-6-3T17:8:35Z</time></trkpt>
<trkpt lat="45.782085" lon="1.371453"><ele></ele><time>2014-6-3T17:8:38Z</time></trkpt>
<trkpt lat="45.782066" lon="1.371383"><ele></ele><time>2014-6-3T17:8:41Z</time></trkpt>
<trkpt lat="45.782041" lon="1.371315"><ele></ele><time>2014-6-3T17:8:44Z</time></trkpt>
<trkpt lat="45.782025" lon="1.371251"><ele></ele><time>2014-6-3T17:8:47Z</time></trkpt>
<trkpt lat="45.781997" lon="1.371182"><ele></ele><time>2014-6-3T17:8:50Z</time></trkpt>
<trkpt lat="45.781976" lon="1.371111"><ele></ele><time>2014-6-3T17:8:53Z</time></trkpt>
<trkpt lat="45.781956" lon="1.371043"><ele></ele><time>2014-6-3T17:8:56Z</time></trkpt>
<trkpt lat="45.781938" lon="1.370974"><ele></ele><time>2014-6-3T17:8:59Z</time></trkpt>
<trkpt lat="45.781928" lon="1.370901"><ele></ele><time>2014-6-3T17:9:2Z</time></trkpt>
<trkpt lat="45.781901" lon="1.370767"><ele></ele><time>2014-6-3T17:9:5Z</time></trkpt>
<trkpt lat="45.781884" lon="1.370694"><ele></ele><time>2014-6-3T17:9:8Z</time></trkpt>
<trkpt lat="45.781866" lon="1.370618"><ele></ele><time>2014-6-3T17:9:11Z</time></trkpt>
<trkpt lat="45.781844" lon="1.370533"><ele></ele><time>2014-6-3T17:9:14Z</time></trkpt>
<trkpt lat="45.78182" lon="1.370456"><ele></ele><time>2014-6-3T17:9:17Z</time></trkpt>
<trkpt lat="45.781795" lon="1.370376"><ele></ele><time>2014-6-3T17:9:20Z</time></trkpt>
<trkpt lat="45.781772" lon="1.370292"><ele></ele><time>2014-6-3T17:9:23Z</time></trkpt>
<trkpt lat="45.781756" lon="1.370203"><ele></ele><time>2014-6-3T17:9:26Z</time></trkpt>
<trkpt lat="45.781748" lon="1.37011"><ele></ele><time>2014-6-3T17:9:29Z</time></trkpt>
<trkpt lat="45.781735" lon="1.370017"><ele></ele><time>2014-6-3T17:9:32Z</time></trkpt>
<trkpt lat="45.781723" lon="1.369932"><ele></ele><time>2014-6-3T17:9:35Z</time></trkpt>
<trkpt lat="45.781717" lon="1.36984"><ele></ele><time>2014-6-3T17:9:38Z</time></trkpt>
<trkpt lat="45.781714" lon="1.369754"><ele></ele><time>2014-6-3T17:9:41Z</time></trkpt>
<trkpt lat="45.78171" lon="1.369662"><ele></ele><time>2014-6-3T17:9:44Z</time></trkpt>
<trkpt lat="45.781703" lon="1.36957"><ele></ele><time>2014-6-3T17:9:47Z</time></trkpt>
<trkpt lat="45.781698" lon="1.36948"><ele></ele><time>2014-6-3T17:9:50Z</time></trkpt>
<trkpt lat="45.781683" lon="1.36939"><ele></ele><time>2014-6-3T17:9:53Z</time></trkpt>
<trkpt lat="45.781677" lon="1.369322"><ele></ele><time>2014-6-3T17:9:56Z</time></trkpt>
<trkpt lat="45.781669" lon="1.369241"><ele></ele><time>2014-6-3T17:9:59Z</time></trkpt>
<trkpt lat="45.78166" lon="1.369159"><ele></ele><time>2014-6-3T17:10:2Z</time></trkpt>
<trkpt lat="45.781681" lon="1.369037"><ele></ele><time>2014-6-3T17:10:5Z</time></trkpt>
<trkpt lat="45.781693" lon="1.368963"><ele></ele><time>2014-6-3T17:10:8Z</time></trkpt>
<trkpt lat="45.781687" lon="1.368889"><ele></ele><time>2014-6-3T17:10:11Z</time></trkpt>
<trkpt lat="45.781685" lon="1.368798"><ele></ele><time>2014-6-3T17:10:14Z</time></trkpt>
<trkpt lat="45.781664" lon="1.368688"><ele></ele><time>2014-6-3T17:10:17Z</time></trkpt>
<trkpt lat="45.781667" lon="1.368589"><ele></ele><time>2014-6-3T17:10:20Z</time></trkpt>
<trkpt lat="45.781656" lon="1.368491"><ele></ele><time>2014-6-3T17:10:23Z</time></trkpt>
<trkpt lat="45.781624" lon="1.368366"><ele></ele><time>2014-6-3T17:10:26Z</time></trkpt>
<trkpt lat="45.781606" lon="1.368247"><ele></ele><time>2014-6-3T17:10:29Z</time></trkpt>
<trkpt lat="45.7816" lon="1.368109"><ele></ele><time>2014-6-3T17:10:32Z</time></trkpt>
<trkpt lat="45.781591" lon="1.367973"><ele></ele><time>2014-6-3T17:10:35Z</time></trkpt>
<trkpt lat="45.781581" lon="1.367849"><ele></ele><time>2014-6-3T17:10:38Z</time></trkpt>
<trkpt lat="45.781561" lon="1.367726"><ele></ele><time>2014-6-3T17:10:41Z</time></trkpt>
<trkpt lat="45.78153" lon="1.367609"><ele></ele><time>2014-6-3T17:10:44Z</time></trkpt>
<trkpt lat="45.781502" lon="1.367474"><ele></ele><time>2014-6-3T17:10:47Z</time></trkpt>
<trkpt lat="45.781466" lon="1.367361"><ele></ele><time>2014-6-3T17:10:50Z</time></trkpt>
<trkpt lat="45.781447" lon="1.367246"><ele></ele><time>2014-6-3T17:10:53Z</time></trkpt>
<trkpt lat="45.781429" lon="1.367123"><ele></ele><time>2014-6-3T17:10:56Z</time></trkpt>
<trkpt lat="45.78143" lon="1.367011"><ele></ele><time>2014-6-3T17:10:59Z</time></trkpt>
<trkpt lat="45.781429" lon="1.366889"><ele></ele><time>2014-6-3T17:11:2Z</time></trkpt>
<trkpt lat="45.781433" lon="1.36677"><ele></ele><time>2014-6-3T17:11:5Z</time></trkpt>
<trkpt lat="45.781435" lon="1.366644"><ele></ele><time>2014-6-3T17:11:8Z</time></trkpt>
<trkpt lat="45.781434" lon="1.366531"><ele></ele><time>2014-6-3T17:11:11Z</time></trkpt>
<trkpt lat="45.781426" lon="1.366305"><ele></ele><time>2014-6-3T17:11:14Z</time></trkpt>
<trkpt lat="45.781425" lon="1.366198"><ele></ele><time>2014-6-3T17:11:17Z</time></trkpt>
<trkpt lat="45.781422" lon="1.366098"><ele></ele><time>2014-6-3T17:11:20Z</time></trkpt>
<trkpt lat="45.78142" lon="1.365998"><ele></ele><time>2014-6-3T17:11:23Z</time></trkpt>
<trkpt lat="45.781418" lon="1.365907"><ele></ele><time>2014-6-3T17:11:26Z</time></trkpt>
<trkpt lat="45.781415" lon="1.365836"><ele></ele><time>2014-6-3T17:11:29Z</time></trkpt>
<trkpt lat="45.781415" lon="1.365728"><ele></ele><time>2014-6-3T17:11:32Z</time></trkpt>
<trkpt lat="45.781463" lon="1.365618"><ele></ele><time>2014-6-3T17:11:35Z</time></trkpt>
<trkpt lat="45.781542" lon="1.365597"><ele></ele><time>2014-6-3T17:11:38Z</time></trkpt>
<trkpt lat="45.781627" lon="1.365591"><ele></ele><time>2014-6-3T17:11:41Z</time></trkpt>
<trkpt lat="45.781692" lon="1.365612"><ele></ele><time>2014-6-3T17:11:44Z</time></trkpt>
<trkpt lat="45.781722" lon="1.365667"><ele></ele><time>2014-6-3T17:11:47Z</time></trkpt>
<trkpt lat="45.781769" lon="1.365735"><ele></ele><time>2014-6-3T17:11:50Z</time></trkpt>
<trkpt lat="45.781838" lon="1.365791"><ele></ele><time>2014-6-3T17:11:53Z</time></trkpt>
<trkpt lat="45.781894" lon="1.365831"><ele></ele><time>2014-6-3T17:11:56Z</time></trkpt>
<trkpt lat="45.781947" lon="1.365859"><ele></ele><time>2014-6-3T17:11:59Z</time></trkpt>
<trkpt lat="45.781996" lon="1.365892"><ele></ele><time>2014-6-3T17:12:2Z</time></trkpt>
<trkpt lat="45.782048" lon="1.365931"><ele></ele><time>2014-6-3T17:12:5Z</time></trkpt>
<trkpt lat="45.782096" lon="1.365974"><ele></ele><time>2014-6-3T17:12:8Z</time></trkpt>
<trkpt lat="45.782144" lon="1.366034"><ele></ele><time>2014-6-3T17:12:11Z</time></trkpt>
<trkpt lat="45.78218" lon="1.366074"><ele></ele><time>2014-6-3T17:12:14Z</time></trkpt>
<trkpt lat="45.782222" lon="1.366103"><ele></ele><time>2014-6-3T17:12:17Z</time></trkpt>
<trkpt lat="45.782264" lon="1.366126"><ele></ele><time>2014-6-3T17:12:20Z</time></trkpt>
<trkpt lat="45.782313" lon="1.366147"><ele></ele><time>2014-6-3T17:12:23Z</time></trkpt>
<trkpt lat="45.78236" lon="1.366208"><ele></ele><time>2014-6-3T17:12:26Z</time></trkpt>
<trkpt lat="45.782402" lon="1.366248"><ele></ele><time>2014-6-3T17:12:29Z</time></trkpt>
<trkpt lat="45.782441" lon="1.366285"><ele></ele><time>2014-6-3T17:12:32Z</time></trkpt>
<trkpt lat="45.782478" lon="1.366335"><ele></ele><time>2014-6-3T17:12:35Z</time></trkpt>
<trkpt lat="45.782519" lon="1.366383"><ele></ele><time>2014-6-3T17:12:38Z</time></trkpt>
<trkpt lat="45.782552" lon="1.366456"><ele></ele><time>2014-6-3T17:12:41Z</time></trkpt>
<trkpt lat="45.782593" lon="1.366509"><ele></ele><time>2014-6-3T17:12:44Z</time></trkpt>
<trkpt lat="45.78266" lon="1.366617"><ele></ele><time>2014-6-3T17:12:47Z</time></trkpt>
<trkpt lat="45.78273" lon="1.366708"><ele></ele><time>2014-6-3T17:12:50Z</time></trkpt>
<trkpt lat="45.782763" lon="1.366762"><ele></ele><time>2014-6-3T17:12:53Z</time></trkpt>
<trkpt lat="45.78284" lon="1.366823"><ele></ele><time>2014-6-3T17:12:56Z</time></trkpt>
<trkpt lat="45.782882" lon="1.366865"><ele></ele><time>2014-6-3T17:12:59Z</time></trkpt>
<trkpt lat="45.782952" lon="1.366908"><ele></ele><time>2014-6-3T17:13:2Z</time></trkpt>
<trkpt lat="45.783029" lon="1.366966"><ele></ele><time>2014-6-3T17:13:5Z</time></trkpt>
<trkpt lat="45.783092" lon="1.367018"><ele></ele><time>2014-6-3T17:13:8Z</time></trkpt>
<trkpt lat="45.783146" lon="1.367095"><ele></ele><time>2014-6-3T17:13:11Z</time></trkpt>
<trkpt lat="45.783163" lon="1.367157"><ele></ele><time>2014-6-3T17:13:14Z</time></trkpt>
<trkpt lat="45.783206" lon="1.36724"><ele></ele><time>2014-6-3T17:13:17Z</time></trkpt>
<trkpt lat="45.783267" lon="1.367362"><ele></ele><time>2014-6-3T17:13:20Z</time></trkpt>
<trkpt lat="45.783305" lon="1.367452"><ele></ele><time>2014-6-3T17:13:23Z</time></trkpt>
<trkpt lat="45.783355" lon="1.36753"><ele></ele><time>2014-6-3T17:13:26Z</time></trkpt>
<trkpt lat="45.783399" lon="1.367609"><ele></ele><time>2014-6-3T17:13:29Z</time></trkpt>
<trkpt lat="45.783429" lon="1.367699"><ele></ele><time>2014-6-3T17:13:32Z</time></trkpt>
<trkpt lat="45.783457" lon="1.367791"><ele></ele><time>2014-6-3T17:13:35Z</time></trkpt>
<trkpt lat="45.783475" lon="1.367888"><ele></ele><time>2014-6-3T17:13:38Z</time></trkpt>
<trkpt lat="45.7835" lon="1.367969"><ele></ele><time>2014-6-3T17:13:41Z</time></trkpt>
<trkpt lat="45.783525" lon="1.368066"><ele></ele><time>2014-6-3T17:13:44Z</time></trkpt>
<trkpt lat="45.783558" lon="1.368161"><ele></ele><time>2014-6-3T17:13:47Z</time></trkpt>
<trkpt lat="45.783606" lon="1.368239"><ele></ele><time>2014-6-3T17:13:50Z</time></trkpt>
<trkpt lat="45.783662" lon="1.368319"><ele></ele><time>2014-6-3T17:13:53Z</time></trkpt>
<trkpt lat="45.783719" lon="1.368394"><ele></ele><time>2014-6-3T17:13:56Z</time></trkpt>
<trkpt lat="45.783772" lon="1.368475"><ele></ele><time>2014-6-3T17:13:59Z</time></trkpt>
<trkpt lat="45.783821" lon="1.368565"><ele></ele><time>2014-6-3T17:14:2Z</time></trkpt>
<trkpt lat="45.783866" lon="1.36866"><ele></ele><time>2014-6-3T17:14:5Z</time></trkpt>
<trkpt lat="45.783909" lon="1.368752"><ele></ele><time>2014-6-3T17:14:8Z</time></trkpt>
<trkpt lat="45.783934" lon="1.368805"><ele></ele><time>2014-6-3T17:14:11Z</time></trkpt>
<trkpt lat="45.783969" lon="1.368904"><ele></ele><time>2014-6-3T17:14:14Z</time></trkpt>
<trkpt lat="45.783997" lon="1.368957"><ele></ele><time>2014-6-3T17:14:17Z</time></trkpt>
<trkpt lat="45.784039" lon="1.369058"><ele></ele><time>2014-6-3T17:14:20Z</time></trkpt>
<trkpt lat="45.784093" lon="1.369158"><ele></ele><time>2014-6-3T17:14:23Z</time></trkpt>
<trkpt lat="45.784143" lon="1.369255"><ele></ele><time>2014-6-3T17:14:26Z</time></trkpt>
<trkpt lat="45.784169" lon="1.36931"><ele></ele><time>2014-6-3T17:14:29Z</time></trkpt>
<trkpt lat="45.784218" lon="1.369397"><ele></ele><time>2014-6-3T17:14:32Z</time></trkpt>
<trkpt lat="45.78427" lon="1.369481"><ele></ele><time>2014-6-3T17:14:35Z</time></trkpt>
<trkpt lat="45.784324" lon="1.369561"><ele></ele><time>2014-6-3T17:14:38Z</time></trkpt>
<trkpt lat="45.784374" lon="1.3696"><ele></ele><time>2014-6-3T17:14:41Z</time></trkpt>
<trkpt lat="45.784426" lon="1.369648"><ele></ele><time>2014-6-3T17:14:44Z</time></trkpt>
<trkpt lat="45.784475" lon="1.369669"><ele></ele><time>2014-6-3T17:14:47Z</time></trkpt>
<trkpt lat="45.784524" lon="1.369718"><ele></ele><time>2014-6-3T17:14:50Z</time></trkpt>
<trkpt lat="45.784585" lon="1.36975"><ele></ele><time>2014-6-3T17:14:53Z</time></trkpt>
<trkpt lat="45.784633" lon="1.369769"><ele></ele><time>2014-6-3T17:14:56Z</time></trkpt>
<trkpt lat="45.784677" lon="1.369791"><ele></ele><time>2014-6-3T17:14:59Z</time></trkpt>
<trkpt lat="45.784735" lon="1.369815"><ele></ele><time>2014-6-3T17:15:2Z</time></trkpt>
<trkpt lat="45.784786" lon="1.369867"><ele></ele><time>2014-6-3T17:15:5Z</time></trkpt>
<trkpt lat="45.784831" lon="1.369905"><ele></ele><time>2014-6-3T17:15:8Z</time></trkpt>
<trkpt lat="45.784879" lon="1.369942"><ele></ele><time>2014-6-3T17:15:11Z</time></trkpt>
<trkpt lat="45.784934" lon="1.369992"><ele></ele><time>2014-6-3T17:15:14Z</time></trkpt>
<trkpt lat="45.784993" lon="1.370037"><ele></ele><time>2014-6-3T17:15:17Z</time></trkpt>
<trkpt lat="45.785042" lon="1.370102"><ele></ele><time>2014-6-3T17:15:20Z</time></trkpt>
<trkpt lat="45.785107" lon="1.370141"><ele></ele><time>2014-6-3T17:15:23Z</time></trkpt>
<trkpt lat="45.785146" lon="1.370175"><ele></ele><time>2014-6-3T17:15:26Z</time></trkpt>
<trkpt lat="45.785206" lon="1.370206"><ele></ele><time>2014-6-3T17:15:29Z</time></trkpt>
<trkpt lat="45.78528" lon="1.370243"><ele></ele><time>2014-6-3T17:15:32Z</time></trkpt>
<trkpt lat="45.785361" lon="1.370276"><ele></ele><time>2014-6-3T17:15:35Z</time></trkpt>
<trkpt lat="45.785434" lon="1.370313"><ele></ele><time>2014-6-3T17:15:38Z</time></trkpt>
<trkpt lat="45.785478" lon="1.370339"><ele></ele><time>2014-6-3T17:15:41Z</time></trkpt>
<trkpt lat="45.785527" lon="1.370373"><ele></ele><time>2014-6-3T17:15:44Z</time></trkpt>
<trkpt lat="45.785572" lon="1.370401"><ele></ele><time>2014-6-3T17:15:47Z</time></trkpt>
<trkpt lat="45.785622" lon="1.370431"><ele></ele><time>2014-6-3T17:15:50Z</time></trkpt>
<trkpt lat="45.785665" lon="1.370459"><ele></ele><time>2014-6-3T17:15:53Z</time></trkpt>
<trkpt lat="45.785711" lon="1.370483"><ele></ele><time>2014-6-3T17:15:56Z</time></trkpt>
<trkpt lat="45.785759" lon="1.370516"><ele></ele><time>2014-6-3T17:15:59Z</time></trkpt>
<trkpt lat="45.785809" lon="1.370546"><ele></ele><time>2014-6-3T17:16:2Z</time></trkpt>
<trkpt lat="45.785896" lon="1.370582"><ele></ele><time>2014-6-3T17:16:5Z</time></trkpt>
<trkpt lat="45.785961" lon="1.370604"><ele></ele><time>2014-6-3T17:16:8Z</time></trkpt>
<trkpt lat="45.786013" lon="1.37062"><ele></ele><time>2014-6-3T17:16:11Z</time></trkpt>
<trkpt lat="45.786074" lon="1.370641"><ele></ele><time>2014-6-3T17:16:14Z</time></trkpt>
<trkpt lat="45.786129" lon="1.370645"><ele></ele><time>2014-6-3T17:16:17Z</time></trkpt>
<trkpt lat="45.786207" lon="1.370662"><ele></ele><time>2014-6-3T17:16:20Z</time></trkpt>
<trkpt lat="45.786272" lon="1.37068"><ele></ele><time>2014-6-3T17:16:23Z</time></trkpt>
<trkpt lat="45.786338" lon="1.370712"><ele></ele><time>2014-6-3T17:16:26Z</time></trkpt>
<trkpt lat="45.786382" lon="1.370738"><ele></ele><time>2014-6-3T17:16:29Z</time></trkpt>
<trkpt lat="45.786461" lon="1.370776"><ele></ele><time>2014-6-3T17:16:32Z</time></trkpt>
<trkpt lat="45.786532" lon="1.370837"><ele></ele><time>2014-6-3T17:16:35Z</time></trkpt>
<trkpt lat="45.786622" lon="1.370849"><ele></ele><time>2014-6-3T17:16:38Z</time></trkpt>
<trkpt lat="45.786693" lon="1.370878"><ele></ele><time>2014-6-3T17:16:41Z</time></trkpt>
<trkpt lat="45.786764" lon="1.370906"><ele></ele><time>2014-6-3T17:16:44Z</time></trkpt>
<trkpt lat="45.786844" lon="1.370938"><ele></ele><time>2014-6-3T17:16:47Z</time></trkpt>
<trkpt lat="45.786882" lon="1.371008"><ele></ele><time>2014-6-3T17:16:50Z</time></trkpt>
<trkpt lat="45.786952" lon="1.371071"><ele></ele><time>2014-6-3T17:16:53Z</time></trkpt>
<trkpt lat="45.787062" lon="1.371172"><ele></ele><time>2014-6-3T17:16:56Z</time></trkpt>
<trkpt lat="45.787118" lon="1.371207"><ele></ele><time>2014-6-3T17:16:59Z</time></trkpt>
<trkpt lat="45.787209" lon="1.371253"><ele></ele><time>2014-6-3T17:17:2Z</time></trkpt>
<trkpt lat="45.787253" lon="1.371293"><ele></ele><time>2014-6-3T17:17:5Z</time></trkpt>
<trkpt lat="45.787296" lon="1.371326"><ele></ele><time>2014-6-3T17:17:8Z</time></trkpt>
<trkpt lat="45.787326" lon="1.371478"><ele></ele><time>2014-6-3T17:17:11Z</time></trkpt>
<trkpt lat="45.787366" lon="1.371566"><ele></ele><time>2014-6-3T17:17:14Z</time></trkpt>
<trkpt lat="45.787409" lon="1.371643"><ele></ele><time>2014-6-3T17:17:17Z</time></trkpt>
<trkpt lat="45.787457" lon="1.371713"><ele></ele><time>2014-6-3T17:17:20Z</time></trkpt>
<trkpt lat="45.787504" lon="1.371772"><ele></ele><time>2014-6-3T17:17:23Z</time></trkpt>
<trkpt lat="45.787556" lon="1.371828"><ele></ele><time>2014-6-3T17:17:26Z</time></trkpt>
<trkpt lat="45.787604" lon="1.371885"><ele></ele><time>2014-6-3T17:17:29Z</time></trkpt>
<trkpt lat="45.787661" lon="1.371933"><ele></ele><time>2014-6-3T17:17:32Z</time></trkpt>
<trkpt lat="45.78771" lon="1.371985"><ele></ele><time>2014-6-3T17:17:35Z</time></trkpt>
<trkpt lat="45.787764" lon="1.372042"><ele></ele><time>2014-6-3T17:17:38Z</time></trkpt>
<trkpt lat="45.7878" lon="1.37209"><ele></ele><time>2014-6-3T17:17:41Z</time></trkpt>
<trkpt lat="45.787851" lon="1.372124"><ele></ele><time>2014-6-3T17:17:44Z</time></trkpt>
<trkpt lat="45.787907" lon="1.372167"><ele></ele><time>2014-6-3T17:17:47Z</time></trkpt>
<trkpt lat="45.787951" lon="1.372194"><ele></ele><time>2014-6-3T17:17:50Z</time></trkpt>
<trkpt lat="45.787994" lon="1.37223"><ele></ele><time>2014-6-3T17:17:53Z</time></trkpt>
<trkpt lat="45.788033" lon="1.372314"><ele></ele><time>2014-6-3T17:17:56Z</time></trkpt>
<trkpt lat="45.788076" lon="1.372371"><ele></ele><time>2014-6-3T17:17:59Z</time></trkpt>
<trkpt lat="45.788111" lon="1.372422"><ele></ele><time>2014-6-3T17:18:2Z</time></trkpt>
<trkpt lat="45.78815" lon="1.372486"><ele></ele><time>2014-6-3T17:18:5Z</time></trkpt>
<trkpt lat="45.788176" lon="1.372545"><ele></ele><time>2014-6-3T17:18:8Z</time></trkpt>
<trkpt lat="45.788209" lon="1.372637"><ele></ele><time>2014-6-3T17:18:11Z</time></trkpt>
<trkpt lat="45.788233" lon="1.372701"><ele></ele><time>2014-6-3T17:18:14Z</time></trkpt>
<trkpt lat="45.788249" lon="1.372776"><ele></ele><time>2014-6-3T17:18:17Z</time></trkpt>
<trkpt lat="45.788284" lon="1.372843"><ele></ele><time>2014-6-3T17:18:20Z</time></trkpt>
<trkpt lat="45.78832" lon="1.372898"><ele></ele><time>2014-6-3T17:18:23Z</time></trkpt>
<trkpt lat="45.788343" lon="1.372972"><ele></ele><time>2014-6-3T17:18:26Z</time></trkpt>
<trkpt lat="45.788375" lon="1.373043"><ele></ele><time>2014-6-3T17:18:29Z</time></trkpt>
<trkpt lat="45.78842" lon="1.373121"><ele></ele><time>2014-6-3T17:18:32Z</time></trkpt>
<trkpt lat="45.788455" lon="1.373186"><ele></ele><time>2014-6-3T17:18:35Z</time></trkpt>
<trkpt lat="45.788492" lon="1.373261"><ele></ele><time>2014-6-3T17:18:38Z</time></trkpt>
<trkpt lat="45.788535" lon="1.373345"><ele></ele><time>2014-6-3T17:18:41Z</time></trkpt>
<trkpt lat="45.788608" lon="1.373359"><ele></ele><time>2014-6-3T17:18:44Z</time></trkpt>
<trkpt lat="45.788736" lon="1.373412"><ele></ele><time>2014-6-3T17:18:47Z</time></trkpt>
<trkpt lat="45.788808" lon="1.373428"><ele></ele><time>2014-6-3T17:18:50Z</time></trkpt>
<trkpt lat="45.788867" lon="1.373443"><ele></ele><time>2014-6-3T17:18:53Z</time></trkpt>
<trkpt lat="45.788923" lon="1.373463"><ele></ele><time>2014-6-3T17:18:56Z</time></trkpt>
<trkpt lat="45.788978" lon="1.373489"><ele></ele><time>2014-6-3T17:18:59Z</time></trkpt>
<trkpt lat="45.78903" lon="1.373537"><ele></ele><time>2014-6-3T17:19:2Z</time></trkpt>
<trkpt lat="45.789081" lon="1.373558"><ele></ele><time>2014-6-3T17:19:5Z</time></trkpt>
<trkpt lat="45.789152" lon="1.37357"><ele></ele><time>2014-6-3T17:19:8Z</time></trkpt>
<trkpt lat="45.789238" lon="1.373616"><ele></ele><time>2014-6-3T17:19:11Z</time></trkpt>
<trkpt lat="45.789327" lon="1.373664"><ele></ele><time>2014-6-3T17:19:14Z</time></trkpt>
<trkpt lat="45.789414" lon="1.373708"><ele></ele><time>2014-6-3T17:19:17Z</time></trkpt>
<trkpt lat="45.789473" lon="1.373671"><ele></ele><time>2014-6-3T17:19:20Z</time></trkpt>
<trkpt lat="45.789528" lon="1.373662"><ele></ele><time>2014-6-3T17:19:23Z</time></trkpt>
<trkpt lat="45.789581" lon="1.373666"><ele></ele><time>2014-6-3T17:19:26Z</time></trkpt>
<trkpt lat="45.789627" lon="1.37367"><ele></ele><time>2014-6-3T17:19:29Z</time></trkpt>
<trkpt lat="45.789648" lon="1.373778"><ele></ele><time>2014-6-3T17:19:32Z</time></trkpt>
<trkpt lat="45.789683" lon="1.373827"><ele></ele><time>2014-6-3T17:19:35Z</time></trkpt>
<trkpt lat="45.789744" lon="1.373875"><ele></ele><time>2014-6-3T17:19:38Z</time></trkpt>
<trkpt lat="45.789817" lon="1.373977"><ele></ele><time>2014-6-3T17:19:41Z</time></trkpt>
<trkpt lat="45.789889" lon="1.374069"><ele></ele><time>2014-6-3T17:19:44Z</time></trkpt>
<trkpt lat="45.789955" lon="1.374142"><ele></ele><time>2014-6-3T17:19:47Z</time></trkpt>
<trkpt lat="45.790023" lon="1.374197"><ele></ele><time>2014-6-3T17:19:50Z</time></trkpt>
<trkpt lat="45.790103" lon="1.374194"><ele></ele><time>2014-6-3T17:19:53Z</time></trkpt>
<trkpt lat="45.790181" lon="1.37423"><ele></ele><time>2014-6-3T17:19:56Z</time></trkpt>
<trkpt lat="45.790259" lon="1.374257"><ele></ele><time>2014-6-3T17:19:59Z</time></trkpt>
<trkpt lat="45.790332" lon="1.374283"><ele></ele><time>2014-6-3T17:20:2Z</time></trkpt>
<trkpt lat="45.790389" lon="1.374312"><ele></ele><time>2014-6-3T17:20:5Z</time></trkpt>
<trkpt lat="45.790449" lon="1.374352"><ele></ele><time>2014-6-3T17:20:8Z</time></trkpt>
<trkpt lat="45.790514" lon="1.374382"><ele></ele><time>2014-6-3T17:20:11Z</time></trkpt>
<trkpt lat="45.790573" lon="1.374415"><ele></ele><time>2014-6-3T17:20:14Z</time></trkpt>
<trkpt lat="45.790614" lon="1.374445"><ele></ele><time>2014-6-3T17:20:17Z</time></trkpt>
<trkpt lat="45.790662" lon="1.374462"><ele></ele><time>2014-6-3T17:20:20Z</time></trkpt>
<trkpt lat="45.790715" lon="1.374476"><ele></ele><time>2014-6-3T17:20:23Z</time></trkpt>
<trkpt lat="45.79077" lon="1.374483"><ele></ele><time>2014-6-3T17:20:26Z</time></trkpt>
<trkpt lat="45.790869" lon="1.374501"><ele></ele><time>2014-6-3T17:20:29Z</time></trkpt>
<trkpt lat="45.790935" lon="1.374568"><ele></ele><time>2014-6-3T17:20:32Z</time></trkpt>
<trkpt lat="45.790982" lon="1.374578"><ele></ele><time>2014-6-3T17:20:35Z</time></trkpt>
<trkpt lat="45.791032" lon="1.374599"><ele></ele><time>2014-6-3T17:20:38Z</time></trkpt>
<trkpt lat="45.791107" lon="1.374636"><ele></ele><time>2014-6-3T17:20:41Z</time></trkpt>
<trkpt lat="45.791163" lon="1.374718"><ele></ele><time>2014-6-3T17:20:44Z</time></trkpt>
<trkpt lat="45.791222" lon="1.37473"><ele></ele><time>2014-6-3T17:20:47Z</time></trkpt>
<trkpt lat="45.791295" lon="1.374758"><ele></ele><time>2014-6-3T17:20:50Z</time></trkpt>
<trkpt lat="45.791382" lon="1.374769"><ele></ele><time>2014-6-3T17:20:53Z</time></trkpt>
<trkpt lat="45.791436" lon="1.374779"><ele></ele><time>2014-6-3T17:20:56Z</time></trkpt>
<trkpt lat="45.791481" lon="1.374775"><ele></ele><time>2014-6-3T17:20:59Z</time></trkpt>
<trkpt lat="45.791535" lon="1.374812"><ele></ele><time>2014-6-3T17:21:2Z</time></trkpt>
<trkpt lat="45.791608" lon="1.37485"><ele></ele><time>2014-6-3T17:21:5Z</time></trkpt>
<trkpt lat="45.791682" lon="1.374869"><ele></ele><time>2014-6-3T17:21:8Z</time></trkpt>
<trkpt lat="45.791725" lon="1.374891"><ele></ele><time>2014-6-3T17:21:11Z</time></trkpt>
<trkpt lat="45.791795" lon="1.374906"><ele></ele><time>2014-6-3T17:21:14Z</time></trkpt>
<trkpt lat="45.791853" lon="1.374926"><ele></ele><time>2014-6-3T17:21:17Z</time></trkpt>
<trkpt lat="45.791934" lon="1.374945"><ele></ele><time>2014-6-3T17:21:20Z</time></trkpt>
<trkpt lat="45.792" lon="1.374987"><ele></ele><time>2014-6-3T17:21:23Z</time></trkpt>
<trkpt lat="45.792061" lon="1.375037"><ele></ele><time>2014-6-3T17:21:26Z</time></trkpt>
<trkpt lat="45.792124" lon="1.375073"><ele></ele><time>2014-6-3T17:21:29Z</time></trkpt>
<trkpt lat="45.792182" lon="1.375105"><ele></ele><time>2014-6-3T17:21:32Z</time></trkpt>
<trkpt lat="45.792242" lon="1.37513"><ele></ele><time>2014-6-3T17:21:35Z</time></trkpt>
<trkpt lat="45.792303" lon="1.375158"><ele></ele><time>2014-6-3T17:21:38Z</time></trkpt>
<trkpt lat="45.792417" lon="1.375212"><ele></ele><time>2014-6-3T17:21:41Z</time></trkpt>
<trkpt lat="45.792465" lon="1.375221"><ele></ele><time>2014-6-3T17:21:44Z</time></trkpt>
<trkpt lat="45.79254" lon="1.375254"><ele></ele><time>2014-6-3T17:21:47Z</time></trkpt>
<trkpt lat="45.792622" lon="1.375306"><ele></ele><time>2014-6-3T17:21:50Z</time></trkpt>
<trkpt lat="45.792692" lon="1.375355"><ele></ele><time>2014-6-3T17:21:53Z</time></trkpt>
<trkpt lat="45.792766" lon="1.375404"><ele></ele><time>2014-6-3T17:21:56Z</time></trkpt>
<trkpt lat="45.792841" lon="1.375438"><ele></ele><time>2014-6-3T17:21:59Z</time></trkpt>
<trkpt lat="45.792887" lon="1.375454"><ele></ele><time>2014-6-3T17:22:2Z</time></trkpt>
<trkpt lat="45.792974" lon="1.375465"><ele></ele><time>2014-6-3T17:22:5Z</time></trkpt>
<trkpt lat="45.793055" lon="1.375467"><ele></ele><time>2014-6-3T17:22:8Z</time></trkpt>
<trkpt lat="45.793137" lon="1.375482"><ele></ele><time>2014-6-3T17:22:11Z</time></trkpt>
<trkpt lat="45.793209" lon="1.375516"><ele></ele><time>2014-6-3T17:22:14Z</time></trkpt>
<trkpt lat="45.793281" lon="1.375529"><ele></ele><time>2014-6-3T17:22:17Z</time></trkpt>
<trkpt lat="45.793353" lon="1.375548"><ele></ele><time>2014-6-3T17:22:20Z</time></trkpt>
<trkpt lat="45.793426" lon="1.37559"><ele></ele><time>2014-6-3T17:22:23Z</time></trkpt>
<trkpt lat="45.793495" lon="1.375633"><ele></ele><time>2014-6-3T17:22:26Z</time></trkpt>
<trkpt lat="45.793557" lon="1.375661"><ele></ele><time>2014-6-3T17:22:29Z</time></trkpt>
<trkpt lat="45.793621" lon="1.375713"><ele></ele><time>2014-6-3T17:22:32Z</time></trkpt>
<trkpt lat="45.793688" lon="1.375769"><ele></ele><time>2014-6-3T17:22:35Z</time></trkpt>
<trkpt lat="45.793761" lon="1.375822"><ele></ele><time>2014-6-3T17:22:38Z</time></trkpt>
<trkpt lat="45.793819" lon="1.375872"><ele></ele><time>2014-6-3T17:22:41Z</time></trkpt>
<trkpt lat="45.793873" lon="1.375945"><ele></ele><time>2014-6-3T17:22:44Z</time></trkpt>
<trkpt lat="45.79393" lon="1.376002"><ele></ele><time>2014-6-3T17:22:47Z</time></trkpt>
<trkpt lat="45.793987" lon="1.376066"><ele></ele><time>2014-6-3T17:22:50Z</time></trkpt>
<trkpt lat="45.794048" lon="1.376141"><ele></ele><time>2014-6-3T17:22:53Z</time></trkpt>
<trkpt lat="45.794112" lon="1.376194"><ele></ele><time>2014-6-3T17:22:56Z</time></trkpt>
<trkpt lat="45.794176" lon="1.376246"><ele></ele><time>2014-6-3T17:22:59Z</time></trkpt>
<trkpt lat="45.794242" lon="1.376258"><ele></ele><time>2014-6-3T17:23:2Z</time></trkpt>
<trkpt lat="45.794321" lon="1.376273"><ele></ele><time>2014-6-3T17:23:5Z</time></trkpt>
<trkpt lat="45.794393" lon="1.376279"><ele></ele><time>2014-6-3T17:23:8Z</time></trkpt>
<trkpt lat="45.794482" lon="1.376287"><ele></ele><time>2014-6-3T17:23:11Z</time></trkpt>
<trkpt lat="45.794572" lon="1.37628"><ele></ele><time>2014-6-3T17:23:14Z</time></trkpt>
<trkpt lat="45.79465" lon="1.376274"><ele></ele><time>2014-6-3T17:23:17Z</time></trkpt>
<trkpt lat="45.794717" lon="1.376275"><ele></ele><time>2014-6-3T17:23:20Z</time></trkpt>
<trkpt lat="45.794784" lon="1.376259"><ele></ele><time>2014-6-3T17:23:23Z</time></trkpt>
<trkpt lat="45.794866" lon="1.376245"><ele></ele><time>2014-6-3T17:23:26Z</time></trkpt>
<trkpt lat="45.794934" lon="1.376235"><ele></ele><time>2014-6-3T17:23:29Z</time></trkpt>
<trkpt lat="45.794985" lon="1.376185"><ele></ele><time>2014-6-3T17:23:32Z</time></trkpt>
<trkpt lat="45.795026" lon="1.376219"><ele></ele><time>2014-6-3T17:23:35Z</time></trkpt>
<trkpt lat="45.795067" lon="1.376173"><ele></ele><time>2014-6-3T17:23:38Z</time></trkpt>
<trkpt lat="45.795074" lon="1.376065"><ele></ele><time>2014-6-3T17:23:41Z</time></trkpt>
<trkpt lat="45.795079" lon="1.375969"><ele></ele><time>2014-6-3T17:23:44Z</time></trkpt>
<trkpt lat="45.795088" lon="1.375891"><ele></ele><time>2014-6-3T17:23:47Z</time></trkpt>
<trkpt lat="45.795086" lon="1.375815"><ele></ele><time>2014-6-3T17:23:50Z</time></trkpt>
<trkpt lat="45.795088" lon="1.375743"><ele></ele><time>2014-6-3T17:23:53Z</time></trkpt>
<trkpt lat="45.795122" lon="1.375633"><ele></ele><time>2014-6-3T17:23:56Z</time></trkpt>
<trkpt lat="45.795158" lon="1.375589"><ele></ele><time>2014-6-3T17:23:59Z</time></trkpt>
<trkpt lat="45.795177" lon="1.375506"><ele></ele><time>2014-6-3T17:24:2Z</time></trkpt>
<trkpt lat="45.795197" lon="1.375421"><ele></ele><time>2014-6-3T17:24:5Z</time></trkpt>
<trkpt lat="45.795234" lon="1.375356"><ele></ele><time>2014-6-3T17:24:8Z</time></trkpt>
<trkpt lat="45.795266" lon="1.375298"><ele></ele><time>2014-6-3T17:24:11Z</time></trkpt>
<trkpt lat="45.795297" lon="1.375215"><ele></ele><time>2014-6-3T17:24:14Z</time></trkpt>
<trkpt lat="45.795318" lon="1.375151"><ele></ele><time>2014-6-3T17:24:17Z</time></trkpt>
<trkpt lat="45.795329" lon="1.375078"><ele></ele><time>2014-6-3T17:24:20Z</time></trkpt>
<trkpt lat="45.795342" lon="1.375003"><ele></ele><time>2014-6-3T17:24:23Z</time></trkpt>
<trkpt lat="45.795374" lon="1.374946"><ele></ele><time>2014-6-3T17:24:26Z</time></trkpt>
<trkpt lat="45.795391" lon="1.374884"><ele></ele><time>2014-6-3T17:24:29Z</time></trkpt>
<trkpt lat="45.795425" lon="1.374837"><ele></ele><time>2014-6-3T17:24:32Z</time></trkpt>
<trkpt lat="45.795471" lon="1.374766"><ele></ele><time>2014-6-3T17:24:35Z</time></trkpt>
<trkpt lat="45.795495" lon="1.374685"><ele></ele><time>2014-6-3T17:24:38Z</time></trkpt>
<trkpt lat="45.795534" lon="1.374644"><ele></ele><time>2014-6-3T17:24:41Z</time></trkpt>
<trkpt lat="45.795569" lon="1.37459"><ele></ele><time>2014-6-3T17:24:44Z</time></trkpt>
<trkpt lat="45.795594" lon="1.374506"><ele></ele><time>2014-6-3T17:24:47Z</time></trkpt>
<trkpt lat="45.795632" lon="1.374427"><ele></ele><time>2014-6-3T17:24:50Z</time></trkpt>
<trkpt lat="45.795654" lon="1.374369"><ele></ele><time>2014-6-3T17:24:53Z</time></trkpt>
<trkpt lat="45.795666" lon="1.374301"><ele></ele><time>2014-6-3T17:24:56Z</time></trkpt>
<trkpt lat="45.795693" lon="1.374241"><ele></ele><time>2014-6-3T17:24:59Z</time></trkpt>
<trkpt lat="45.795714" lon="1.37417"><ele></ele><time>2014-6-3T17:25:2Z</time></trkpt>
<trkpt lat="45.795748" lon="1.374111"><ele></ele><time>2014-6-3T17:25:5Z</time></trkpt>
<trkpt lat="45.795797" lon="1.374029"><ele></ele><time>2014-6-3T17:25:8Z</time></trkpt>
<trkpt lat="45.795844" lon="1.373947"><ele></ele><time>2014-6-3T17:25:11Z</time></trkpt>
<trkpt lat="45.795888" lon="1.373881"><ele></ele><time>2014-6-3T17:25:14Z</time></trkpt>
<trkpt lat="45.795938" lon="1.373811"><ele></ele><time>2014-6-3T17:25:17Z</time></trkpt>
<trkpt lat="45.795979" lon="1.373743"><ele></ele><time>2014-6-3T17:25:20Z</time></trkpt>
<trkpt lat="45.796086" lon="1.373596"><ele></ele><time>2014-6-3T17:25:23Z</time></trkpt>
<trkpt lat="45.796142" lon="1.373537"><ele></ele><time>2014-6-3T17:25:26Z</time></trkpt>
<trkpt lat="45.796207" lon="1.373477"><ele></ele><time>2014-6-3T17:25:29Z</time></trkpt>
<trkpt lat="45.79628" lon="1.373431"><ele></ele><time>2014-6-3T17:25:32Z</time></trkpt>
<trkpt lat="45.796334" lon="1.373352"><ele></ele><time>2014-6-3T17:25:35Z</time></trkpt>
<trkpt lat="45.796387" lon="1.373276"><ele></ele><time>2014-6-3T17:25:38Z</time></trkpt>
<trkpt lat="45.796441" lon="1.373186"><ele></ele><time>2014-6-3T17:25:41Z</time></trkpt>
<trkpt lat="45.7965" lon="1.37309"><ele></ele><time>2014-6-3T17:25:44Z</time></trkpt>
<trkpt lat="45.796559" lon="1.37299"><ele></ele><time>2014-6-3T17:25:47Z</time></trkpt>
<trkpt lat="45.79662" lon="1.372885"><ele></ele><time>2014-6-3T17:25:50Z</time></trkpt>
<trkpt lat="45.796674" lon="1.37278"><ele></ele><time>2014-6-3T17:25:53Z</time></trkpt>
<trkpt lat="45.796741" lon="1.37267"><ele></ele><time>2014-6-3T17:25:56Z</time></trkpt>
<trkpt lat="45.796809" lon="1.372571"><ele></ele><time>2014-6-3T17:25:59Z</time></trkpt>
<trkpt lat="45.796873" lon="1.37245"><ele></ele><time>2014-6-3T17:26:2Z</time></trkpt>
<trkpt lat="45.79693" lon="1.372322"><ele></ele><time>2014-6-3T17:26:5Z</time></trkpt>
<trkpt lat="45.79699" lon="1.37219"><ele></ele><time>2014-6-3T17:26:8Z</time></trkpt>
<trkpt lat="45.797043" lon="1.372057"><ele></ele><time>2014-6-3T17:26:11Z</time></trkpt>
<trkpt lat="45.797107" lon="1.371921"><ele></ele><time>2014-6-3T17:26:14Z</time></trkpt>
<trkpt lat="45.79717" lon="1.371788"><ele></ele><time>2014-6-3T17:26:17Z</time></trkpt>
<trkpt lat="45.79722" lon="1.371658"><ele></ele><time>2014-6-3T17:26:20Z</time></trkpt>
<trkpt lat="45.797275" lon="1.371529"><ele></ele><time>2014-6-3T17:26:23Z</time></trkpt>
<trkpt lat="45.797329" lon="1.371404"><ele></ele><time>2014-6-3T17:26:26Z</time></trkpt>
<trkpt lat="45.797382" lon="1.37129"><ele></ele><time>2014-6-3T17:26:29Z</time></trkpt>
<trkpt lat="45.797437" lon="1.37117"><ele></ele><time>2014-6-3T17:26:32Z</time></trkpt>
<trkpt lat="45.797475" lon="1.371071"><ele></ele><time>2014-6-3T17:26:35Z</time></trkpt>
<trkpt lat="45.797521" lon="1.370955"><ele></ele><time>2014-6-3T17:26:38Z</time></trkpt>
<trkpt lat="45.797561" lon="1.370839"><ele></ele><time>2014-6-3T17:26:41Z</time></trkpt>
<trkpt lat="45.797604" lon="1.370737"><ele></ele><time>2014-6-3T17:26:44Z</time></trkpt>
<trkpt lat="45.797641" lon="1.370644"><ele></ele><time>2014-6-3T17:26:47Z</time></trkpt>
<trkpt lat="45.797694" lon="1.370545"><ele></ele><time>2014-6-3T17:26:50Z</time></trkpt>
<trkpt lat="45.797729" lon="1.370456"><ele></ele><time>2014-6-3T17:26:53Z</time></trkpt>
<trkpt lat="45.797751" lon="1.370378"><ele></ele><time>2014-6-3T17:26:56Z</time></trkpt>
<trkpt lat="45.797778" lon="1.370311"><ele></ele><time>2014-6-3T17:26:59Z</time></trkpt>
<trkpt lat="45.797805" lon="1.370246"><ele></ele><time>2014-6-3T17:27:2Z</time></trkpt>
<trkpt lat="45.797829" lon="1.370175"><ele></ele><time>2014-6-3T17:27:5Z</time></trkpt>
<trkpt lat="45.797866" lon="1.370101"><ele></ele><time>2014-6-3T17:27:8Z</time></trkpt>
<trkpt lat="45.797893" lon="1.370028"><ele></ele><time>2014-6-3T17:27:11Z</time></trkpt>
<trkpt lat="45.797905" lon="1.369955"><ele></ele><time>2014-6-3T17:27:14Z</time></trkpt>
<trkpt lat="45.797937" lon="1.369842"><ele></ele><time>2014-6-3T17:27:17Z</time></trkpt>
<trkpt lat="45.797984" lon="1.369739"><ele></ele><time>2014-6-3T17:27:20Z</time></trkpt>
<trkpt lat="45.798034" lon="1.36964"><ele></ele><time>2014-6-3T17:27:23Z</time></trkpt>
<trkpt lat="45.798071" lon="1.369553"><ele></ele><time>2014-6-3T17:27:26Z</time></trkpt>
<trkpt lat="45.798108" lon="1.369463"><ele></ele><time>2014-6-3T17:27:29Z</time></trkpt>
<trkpt lat="45.798137" lon="1.369373"><ele></ele><time>2014-6-3T17:27:32Z</time></trkpt>
<trkpt lat="45.798162" lon="1.369298"><ele></ele><time>2014-6-3T17:27:35Z</time></trkpt>
<trkpt lat="45.798187" lon="1.369216"><ele></ele><time>2014-6-3T17:27:38Z</time></trkpt>
<trkpt lat="45.798217" lon="1.369129"><ele></ele><time>2014-6-3T17:27:41Z</time></trkpt>
<trkpt lat="45.798237" lon="1.36906"><ele></ele><time>2014-6-3T17:27:44Z</time></trkpt>
<trkpt lat="45.798277" lon="1.368972"><ele></ele><time>2014-6-3T17:27:47Z</time></trkpt>
<trkpt lat="45.798304" lon="1.368883"><ele></ele><time>2014-6-3T17:27:50Z</time></trkpt>
<trkpt lat="45.79833" lon="1.368809"><ele></ele><time>2014-6-3T17:27:53Z</time></trkpt>
<trkpt lat="45.798353" lon="1.368739"><ele></ele><time>2014-6-3T17:27:56Z</time></trkpt>
<trkpt lat="45.798369" lon="1.368669"><ele></ele><time>2014-6-3T17:27:59Z</time></trkpt>
<trkpt lat="45.798381" lon="1.368567"><ele></ele><time>2014-6-3T17:28:2Z</time></trkpt>
<trkpt lat="45.798404" lon="1.368506"><ele></ele><time>2014-6-3T17:28:5Z</time></trkpt>
<trkpt lat="45.79844" lon="1.368441"><ele></ele><time>2014-6-3T17:28:8Z</time></trkpt>
<trkpt lat="45.798496" lon="1.368325"><ele></ele><time>2014-6-3T17:28:11Z</time></trkpt>
<trkpt lat="45.79853" lon="1.36826"><ele></ele><time>2014-6-3T17:28:14Z</time></trkpt>
<trkpt lat="45.798561" lon="1.368202"><ele></ele><time>2014-6-3T17:28:17Z</time></trkpt>
<trkpt lat="45.798611" lon="1.368105"><ele></ele><time>2014-6-3T17:28:20Z</time></trkpt>
<trkpt lat="45.798641" lon="1.368052"><ele></ele><time>2014-6-3T17:28:23Z</time></trkpt>
<trkpt lat="45.798676" lon="1.367968"><ele></ele><time>2014-6-3T17:28:26Z</time></trkpt>
<trkpt lat="45.798708" lon="1.367881"><ele></ele><time>2014-6-3T17:28:29Z</time></trkpt>
<trkpt lat="45.798723" lon="1.367801"><ele></ele><time>2014-6-3T17:28:32Z</time></trkpt>
<trkpt lat="45.798752" lon="1.36774"><ele></ele><time>2014-6-3T17:28:35Z</time></trkpt>
<trkpt lat="45.798795" lon="1.367664"><ele></ele><time>2014-6-3T17:28:38Z</time></trkpt>
<trkpt lat="45.798837" lon="1.367593"><ele></ele><time>2014-6-3T17:28:41Z</time></trkpt>
<trkpt lat="45.798883" lon="1.367503"><ele></ele><time>2014-6-3T17:28:44Z</time></trkpt>
<trkpt lat="45.79891" lon="1.367416"><ele></ele><time>2014-6-3T17:28:47Z</time></trkpt>
<trkpt lat="45.798952" lon="1.367334"><ele></ele><time>2014-6-3T17:28:50Z</time></trkpt>
<trkpt lat="45.798991" lon="1.367264"><ele></ele><time>2014-6-3T17:28:53Z</time></trkpt>
<trkpt lat="45.79904" lon="1.367186"><ele></ele><time>2014-6-3T17:28:56Z</time></trkpt>
<trkpt lat="45.799083" lon="1.367107"><ele></ele><time>2014-6-3T17:28:59Z</time></trkpt>
<trkpt lat="45.799126" lon="1.367028"><ele></ele><time>2014-6-3T17:29:2Z</time></trkpt>
<trkpt lat="45.799164" lon="1.366958"><ele></ele><time>2014-6-3T17:29:5Z</time></trkpt>
<trkpt lat="45.799208" lon="1.366886"><ele></ele><time>2014-6-3T17:29:8Z</time></trkpt>
<trkpt lat="45.799259" lon="1.366808"><ele></ele><time>2014-6-3T17:29:11Z</time></trkpt>
<trkpt lat="45.799299" lon="1.366737"><ele></ele><time>2014-6-3T17:29:14Z</time></trkpt>
<trkpt lat="45.799336" lon="1.366674"><ele></ele><time>2014-6-3T17:29:17Z</time></trkpt>
<trkpt lat="45.799391" lon="1.36661"><ele></ele><time>2014-6-3T17:29:20Z</time></trkpt>
<trkpt lat="45.799424" lon="1.366546"><ele></ele><time>2014-6-3T17:29:23Z</time></trkpt>
<trkpt lat="45.799479" lon="1.366436"><ele></ele><time>2014-6-3T17:29:26Z</time></trkpt>
<trkpt lat="45.799513" lon="1.366378"><ele></ele><time>2014-6-3T17:29:29Z</time></trkpt>
<trkpt lat="45.799541" lon="1.366324"><ele></ele><time>2014-6-3T17:29:32Z</time></trkpt>
<trkpt lat="45.799577" lon="1.366284"><ele></ele><time>2014-6-3T17:29:35Z</time></trkpt>
<trkpt lat="45.799618" lon="1.366225"><ele></ele><time>2014-6-3T17:29:38Z</time></trkpt>
<trkpt lat="45.799644" lon="1.366169"><ele></ele><time>2014-6-3T17:29:41Z</time></trkpt>
<trkpt lat="45.799677" lon="1.366114"><ele></ele><time>2014-6-3T17:29:44Z</time></trkpt>
<trkpt lat="45.799712" lon="1.366053"><ele></ele><time>2014-6-3T17:29:47Z</time></trkpt>
<trkpt lat="45.799769" lon="1.365971"><ele></ele><time>2014-6-3T17:29:50Z</time></trkpt>
<trkpt lat="45.799823" lon="1.365871"><ele></ele><time>2014-6-3T17:29:53Z</time></trkpt>
<trkpt lat="45.799881" lon="1.365751"><ele></ele><time>2014-6-3T17:29:56Z</time></trkpt>
<trkpt lat="45.799911" lon="1.365701"><ele></ele><time>2014-6-3T17:29:59Z</time></trkpt>
<trkpt lat="45.799948" lon="1.365649"><ele></ele><time>2014-6-3T17:30:2Z</time></trkpt>
<trkpt lat="45.799981" lon="1.365601"><ele></ele><time>2014-6-3T17:30:5Z</time></trkpt>
<trkpt lat="45.800017" lon="1.365548"><ele></ele><time>2014-6-3T17:30:8Z</time></trkpt>
<trkpt lat="45.800077" lon="1.365435"><ele></ele><time>2014-6-3T17:30:11Z</time></trkpt>
<trkpt lat="45.800126" lon="1.365342"><ele></ele><time>2014-6-3T17:30:14Z</time></trkpt>
<trkpt lat="45.800162" lon="1.365255"><ele></ele><time>2014-6-3T17:30:17Z</time></trkpt>
<trkpt lat="45.800165" lon="1.365146"><ele></ele><time>2014-6-3T17:30:20Z</time></trkpt>
<trkpt lat="45.800114" lon="1.36505"><ele></ele><time>2014-6-3T17:30:23Z</time></trkpt>
<trkpt lat="45.800088" lon="1.364994"><ele></ele><time>2014-6-3T17:30:26Z</time></trkpt>
<trkpt lat="45.800059" lon="1.36494"><ele></ele><time>2014-6-3T17:30:29Z</time></trkpt>
<trkpt lat="45.800027" lon="1.364875"><ele></ele><time>2014-6-3T17:30:32Z</time></trkpt>
<trkpt lat="45.799931" lon="1.364689"><ele></ele><time>2014-6-3T17:30:35Z</time></trkpt>
<trkpt lat="45.799891" lon="1.364621"><ele></ele><time>2014-6-3T17:30:38Z</time></trkpt>
<trkpt lat="45.799862" lon="1.364548"><ele></ele><time>2014-6-3T17:30:41Z</time></trkpt>
<trkpt lat="45.799826" lon="1.364482"><ele></ele><time>2014-6-3T17:30:44Z</time></trkpt>
<trkpt lat="45.799793" lon="1.364413"><ele></ele><time>2014-6-3T17:30:47Z</time></trkpt>
<trkpt lat="45.799752" lon="1.364338"><ele></ele><time>2014-6-3T17:30:50Z</time></trkpt>
<trkpt lat="45.799712" lon="1.364262"><ele></ele><time>2014-6-3T17:30:53Z</time></trkpt>
<trkpt lat="45.799675" lon="1.364187"><ele></ele><time>2014-6-3T17:30:56Z</time></trkpt>
<trkpt lat="45.799636" lon="1.364113"><ele></ele><time>2014-6-3T17:30:59Z</time></trkpt>
<trkpt lat="45.799605" lon="1.36405"><ele></ele><time>2014-6-3T17:31:2Z</time></trkpt>
<trkpt lat="45.799572" lon="1.363968"><ele></ele><time>2014-6-3T17:31:5Z</time></trkpt>
<trkpt lat="45.799546" lon="1.363886"><ele></ele><time>2014-6-3T17:31:8Z</time></trkpt>
<trkpt lat="45.799496" lon="1.363823"><ele></ele><time>2014-6-3T17:31:11Z</time></trkpt>
<trkpt lat="45.799462" lon="1.363755"><ele></ele><time>2014-6-3T17:31:14Z</time></trkpt>
<trkpt lat="45.799428" lon="1.363685"><ele></ele><time>2014-6-3T17:31:17Z</time></trkpt>
<trkpt lat="45.799399" lon="1.363613"><ele></ele><time>2014-6-3T17:31:20Z</time></trkpt>
<trkpt lat="45.799363" lon="1.363541"><ele></ele><time>2014-6-3T17:31:23Z</time></trkpt>
<trkpt lat="45.799329" lon="1.363467"><ele></ele><time>2014-6-3T17:31:26Z</time></trkpt>
<trkpt lat="45.799295" lon="1.36339"><ele></ele><time>2014-6-3T17:31:29Z</time></trkpt>
<trkpt lat="45.799264" lon="1.363322"><ele></ele><time>2014-6-3T17:31:32Z</time></trkpt>
<trkpt lat="45.799231" lon="1.363234"><ele></ele><time>2014-6-3T17:31:35Z</time></trkpt>
<trkpt lat="45.799191" lon="1.363158"><ele></ele><time>2014-6-3T17:31:38Z</time></trkpt>
<trkpt lat="45.799159" lon="1.363086"><ele></ele><time>2014-6-3T17:31:41Z</time></trkpt>
<trkpt lat="45.799123" lon="1.36301"><ele></ele><time>2014-6-3T17:31:44Z</time></trkpt>
<trkpt lat="45.799085" lon="1.362937"><ele></ele><time>2014-6-3T17:31:47Z</time></trkpt>
<trkpt lat="45.79905" lon="1.362875"><ele></ele><time>2014-6-3T17:31:50Z</time></trkpt>
<trkpt lat="45.799011" lon="1.362805"><ele></ele><time>2014-6-3T17:31:53Z</time></trkpt>
<trkpt lat="45.798974" lon="1.362729"><ele></ele><time>2014-6-3T17:31:56Z</time></trkpt>
<trkpt lat="45.798938" lon="1.362653"><ele></ele><time>2014-6-3T17:31:59Z</time></trkpt>
<trkpt lat="45.798899" lon="1.362575"><ele></ele><time>2014-6-3T17:32:2Z</time></trkpt>
<trkpt lat="45.798857" lon="1.362499"><ele></ele><time>2014-6-3T17:32:5Z</time></trkpt>
<trkpt lat="45.798819" lon="1.362417"><ele></ele><time>2014-6-3T17:32:8Z</time></trkpt>
<trkpt lat="45.798785" lon="1.362336"><ele></ele><time>2014-6-3T17:32:11Z</time></trkpt>
<trkpt lat="45.798754" lon="1.362264"><ele></ele><time>2014-6-3T17:32:14Z</time></trkpt>
<trkpt lat="45.798713" lon="1.3622"><ele></ele><time>2014-6-3T17:32:17Z</time></trkpt>
<trkpt lat="45.798689" lon="1.362137"><ele></ele><time>2014-6-3T17:32:20Z</time></trkpt>
<trkpt lat="45.798662" lon="1.362073"><ele></ele><time>2014-6-3T17:32:23Z</time></trkpt>
<trkpt lat="45.798621" lon="1.361976"><ele></ele><time>2014-6-3T17:32:26Z</time></trkpt>
<trkpt lat="45.798626" lon="1.361871"><ele></ele><time>2014-6-3T17:32:29Z</time></trkpt>
<trkpt lat="45.79866" lon="1.361813"><ele></ele><time>2014-6-3T17:32:32Z</time></trkpt>
<trkpt lat="45.798685" lon="1.361739"><ele></ele><time>2014-6-3T17:32:35Z</time></trkpt>
<trkpt lat="45.798737" lon="1.361624"><ele></ele><time>2014-6-3T17:32:38Z</time></trkpt>
<trkpt lat="45.798761" lon="1.361567"><ele></ele><time>2014-6-3T17:32:41Z</time></trkpt>
<trkpt lat="45.798781" lon="1.361501"><ele></ele><time>2014-6-3T17:32:44Z</time></trkpt>
<trkpt lat="45.798805" lon="1.361423"><ele></ele><time>2014-6-3T17:32:47Z</time></trkpt>
<trkpt lat="45.798845" lon="1.361312"><ele></ele><time>2014-6-3T17:32:50Z</time></trkpt>
<trkpt lat="45.798865" lon="1.361249"><ele></ele><time>2014-6-3T17:32:53Z</time></trkpt>
<trkpt lat="45.79888" lon="1.361186"><ele></ele><time>2014-6-3T17:32:56Z</time></trkpt>
<trkpt lat="45.798901" lon="1.36112"><ele></ele><time>2014-6-3T17:32:59Z</time></trkpt>
<trkpt lat="45.798936" lon="1.360998"><ele></ele><time>2014-6-3T17:33:2Z</time></trkpt>
<trkpt lat="45.798966" lon="1.360938"><ele></ele><time>2014-6-3T17:33:5Z</time></trkpt>
<trkpt lat="45.798986" lon="1.360879"><ele></ele><time>2014-6-3T17:33:8Z</time></trkpt>
<trkpt lat="45.79901" lon="1.360818"><ele></ele><time>2014-6-3T17:33:11Z</time></trkpt>
<trkpt lat="45.799034" lon="1.360752"><ele></ele><time>2014-6-3T17:33:14Z</time></trkpt>
<trkpt lat="45.799076" lon="1.360614"><ele></ele><time>2014-6-3T17:33:17Z</time></trkpt>
<trkpt lat="45.799104" lon="1.360543"><ele></ele><time>2014-6-3T17:33:20Z</time></trkpt>
<trkpt lat="45.799119" lon="1.360473"><ele></ele><time>2014-6-3T17:33:23Z</time></trkpt>
<trkpt lat="45.799142" lon="1.360399"><ele></ele><time>2014-6-3T17:33:26Z</time></trkpt>
<trkpt lat="45.79916" lon="1.360331"><ele></ele><time>2014-6-3T17:33:29Z</time></trkpt>
<trkpt lat="45.79917" lon="1.360266"><ele></ele><time>2014-6-3T17:33:32Z</time></trkpt>
<trkpt lat="45.799185" lon="1.360203"><ele></ele><time>2014-6-3T17:33:35Z</time></trkpt>
<trkpt lat="45.799201" lon="1.360141"><ele></ele><time>2014-6-3T17:33:38Z</time></trkpt>
<trkpt lat="45.799218" lon="1.360078"><ele></ele><time>2014-6-3T17:33:41Z</time></trkpt>
<trkpt lat="45.799228" lon="1.360011"><ele></ele><time>2014-6-3T17:33:44Z</time></trkpt>
<trkpt lat="45.799229" lon="1.359932"><ele></ele><time>2014-6-3T17:33:47Z</time></trkpt>
<trkpt lat="45.799252" lon="1.359847"><ele></ele><time>2014-6-3T17:33:50Z</time></trkpt>
<trkpt lat="45.799278" lon="1.359772"><ele></ele><time>2014-6-3T17:33:53Z</time></trkpt>
<trkpt lat="45.799292" lon="1.359707"><ele></ele><time>2014-6-3T17:33:56Z</time></trkpt>
<trkpt lat="45.799315" lon="1.359644"><ele></ele><time>2014-6-3T17:33:59Z</time></trkpt>
<trkpt lat="45.799382" lon="1.359525"><ele></ele><time>2014-6-3T17:34:2Z</time></trkpt>
<trkpt lat="45.799391" lon="1.359453"><ele></ele><time>2014-6-3T17:34:5Z</time></trkpt>
<trkpt lat="45.799422" lon="1.359398"><ele></ele><time>2014-6-3T17:34:8Z</time></trkpt>
<trkpt lat="45.799446" lon="1.359332"><ele></ele><time>2014-6-3T17:34:11Z</time></trkpt>
<trkpt lat="45.799473" lon="1.359271"><ele></ele><time>2014-6-3T17:34:14Z</time></trkpt>
<trkpt lat="45.7995" lon="1.359213"><ele></ele><time>2014-6-3T17:34:17Z</time></trkpt>
<trkpt lat="45.799537" lon="1.35916"><ele></ele><time>2014-6-3T17:34:20Z</time></trkpt>
<trkpt lat="45.799581" lon="1.359112"><ele></ele><time>2014-6-3T17:34:23Z</time></trkpt>
<trkpt lat="45.799611" lon="1.359048"><ele></ele><time>2014-6-3T17:34:26Z</time></trkpt>
<trkpt lat="45.799606" lon="1.358954"><ele></ele><time>2014-6-3T17:34:29Z</time></trkpt>
<trkpt lat="45.799595" lon="1.358864"><ele></ele><time>2014-6-3T17:34:32Z</time></trkpt>
<trkpt lat="45.799602" lon="1.35878"><ele></ele><time>2014-6-3T17:34:35Z</time></trkpt>
<trkpt lat="45.799592" lon="1.3587"><ele></ele><time>2014-6-3T17:34:38Z</time></trkpt>
<trkpt lat="45.799568" lon="1.358627"><ele></ele><time>2014-6-3T17:34:41Z</time></trkpt>
<trkpt lat="45.799534" lon="1.358556"><ele></ele><time>2014-6-3T17:34:44Z</time></trkpt>
<trkpt lat="45.799493" lon="1.358492"><ele></ele><time>2014-6-3T17:34:47Z</time></trkpt>
<trkpt lat="45.799453" lon="1.358422"><ele></ele><time>2014-6-3T17:34:50Z</time></trkpt>
<trkpt lat="45.799421" lon="1.358369"><ele></ele><time>2014-6-3T17:34:53Z</time></trkpt>
<trkpt lat="45.799391" lon="1.358302"><ele></ele><time>2014-6-3T17:34:56Z</time></trkpt>
<trkpt lat="45.799329" lon="1.358189"><ele></ele><time>2014-6-3T17:34:59Z</time></trkpt>
<trkpt lat="45.799298" lon="1.358129"><ele></ele><time>2014-6-3T17:35:2Z</time></trkpt>
<trkpt lat="45.799247" lon="1.358069"><ele></ele><time>2014-6-3T17:35:5Z</time></trkpt>
<trkpt lat="45.799198" lon="1.358003"><ele></ele><time>2014-6-3T17:35:8Z</time></trkpt>
<trkpt lat="45.799157" lon="1.357943"><ele></ele><time>2014-6-3T17:35:11Z</time></trkpt>
<trkpt lat="45.799115" lon="1.35787"><ele></ele><time>2014-6-3T17:35:14Z</time></trkpt>
<trkpt lat="45.799081" lon="1.357812"><ele></ele><time>2014-6-3T17:35:17Z</time></trkpt>
<trkpt lat="45.799041" lon="1.357743"><ele></ele><time>2014-6-3T17:35:20Z</time></trkpt>
<trkpt lat="45.79899" lon="1.357686"><ele></ele><time>2014-6-3T17:35:23Z</time></trkpt>
<trkpt lat="45.798958" lon="1.357621"><ele></ele><time>2014-6-3T17:35:26Z</time></trkpt>
<trkpt lat="45.798921" lon="1.357561"><ele></ele><time>2014-6-3T17:35:29Z</time></trkpt>
<trkpt lat="45.798865" lon="1.357493"><ele></ele><time>2014-6-3T17:35:32Z</time></trkpt>
<trkpt lat="45.798828" lon="1.357437"><ele></ele><time>2014-6-3T17:35:35Z</time></trkpt>
<trkpt lat="45.79879" lon="1.357381"><ele></ele><time>2014-6-3T17:35:38Z</time></trkpt>
<trkpt lat="45.798746" lon="1.357319"><ele></ele><time>2014-6-3T17:35:41Z</time></trkpt>
<trkpt lat="45.798704" lon="1.357259"><ele></ele><time>2014-6-3T17:35:44Z</time></trkpt>
<trkpt lat="45.798666" lon="1.357198"><ele></ele><time>2014-6-3T17:35:47Z</time></trkpt>
<trkpt lat="45.798623" lon="1.357135"><ele></ele><time>2014-6-3T17:35:50Z</time></trkpt>
<trkpt lat="45.798582" lon="1.357077"><ele></ele><time>2014-6-3T17:35:53Z</time></trkpt>
<trkpt lat="45.798543" lon="1.357017"><ele></ele><time>2014-6-3T17:35:56Z</time></trkpt>
<trkpt lat="45.798505" lon="1.356944"><ele></ele><time>2014-6-3T17:35:59Z</time></trkpt>
<trkpt lat="45.798471" lon="1.356882"><ele></ele><time>2014-6-3T17:36:2Z</time></trkpt>
<trkpt lat="45.798437" lon="1.356816"><ele></ele><time>2014-6-3T17:36:5Z</time></trkpt>
<trkpt lat="45.798389" lon="1.356678"><ele></ele><time>2014-6-3T17:36:8Z</time></trkpt>
<trkpt lat="45.798347" lon="1.356606"><ele></ele><time>2014-6-3T17:36:11Z</time></trkpt>
<trkpt lat="45.798323" lon="1.356529"><ele></ele><time>2014-6-3T17:36:14Z</time></trkpt>
<trkpt lat="45.798297" lon="1.356451"><ele></ele><time>2014-6-3T17:36:17Z</time></trkpt>
<trkpt lat="45.798253" lon="1.356388"><ele></ele><time>2014-6-3T17:36:20Z</time></trkpt>
<trkpt lat="45.798213" lon="1.356322"><ele></ele><time>2014-6-3T17:36:23Z</time></trkpt>
<trkpt lat="45.798153" lon="1.356252"><ele></ele><time>2014-6-3T17:36:26Z</time></trkpt>
<trkpt lat="45.798104" lon="1.356206"><ele></ele><time>2014-6-3T17:36:29Z</time></trkpt>
<trkpt lat="45.797537" lon="1.356125"><ele></ele><time>2014-6-3T17:36:32Z</time></trkpt>
<trkpt lat="45.797466" lon="1.356141"><ele></ele><time>2014-6-3T17:36:35Z</time></trkpt>
<trkpt lat="45.797399" lon="1.356133"><ele></ele><time>2014-6-3T17:36:38Z</time></trkpt>
<trkpt lat="45.797337" lon="1.356121"><ele></ele><time>2014-6-3T17:36:41Z</time></trkpt>
<trkpt lat="45.797264" lon="1.356101"><ele></ele><time>2014-6-3T17:36:44Z</time></trkpt>
<trkpt lat="45.797197" lon="1.356086"><ele></ele><time>2014-6-3T17:36:47Z</time></trkpt>
<trkpt lat="45.797129" lon="1.35607"><ele></ele><time>2014-6-3T17:36:50Z</time></trkpt>
<trkpt lat="45.797065" lon="1.356041"><ele></ele><time>2014-6-3T17:36:53Z</time></trkpt>
<trkpt lat="45.797001" lon="1.356012"><ele></ele><time>2014-6-3T17:36:56Z</time></trkpt>
<trkpt lat="45.796935" lon="1.355979"><ele></ele><time>2014-6-3T17:36:59Z</time></trkpt>
<trkpt lat="45.796871" lon="1.35596"><ele></ele><time>2014-6-3T17:37:2Z</time></trkpt>
<trkpt lat="45.796811" lon="1.35594"><ele></ele><time>2014-6-3T17:37:5Z</time></trkpt>
<trkpt lat="45.79675" lon="1.3559"><ele></ele><time>2014-6-3T17:37:8Z</time></trkpt>
<trkpt lat="45.796678" lon="1.355856"><ele></ele><time>2014-6-3T17:37:11Z</time></trkpt>
<trkpt lat="45.796617" lon="1.355816"><ele></ele><time>2014-6-3T17:37:14Z</time></trkpt>
<trkpt lat="45.79655" lon="1.355764"><ele></ele><time>2014-6-3T17:37:17Z</time></trkpt>
<trkpt lat="45.796476" lon="1.355709"><ele></ele><time>2014-6-3T17:37:20Z</time></trkpt>
<trkpt lat="45.796405" lon="1.355658"><ele></ele><time>2014-6-3T17:37:23Z</time></trkpt>
<trkpt lat="45.796336" lon="1.355599"><ele></ele><time>2014-6-3T17:37:26Z</time></trkpt>
<trkpt lat="45.796272" lon="1.355534"><ele></ele><time>2014-6-3T17:37:29Z</time></trkpt>
<trkpt lat="45.796206" lon="1.355465"><ele></ele><time>2014-6-3T17:37:32Z</time></trkpt>
<trkpt lat="45.796156" lon="1.355407"><ele></ele><time>2014-6-3T17:37:35Z</time></trkpt>
<trkpt lat="45.796111" lon="1.355338"><ele></ele><time>2014-6-3T17:37:38Z</time></trkpt>
<trkpt lat="45.796057" lon="1.355268"><ele></ele><time>2014-6-3T17:37:41Z</time></trkpt>
<trkpt lat="45.79601" lon="1.355204"><ele></ele><time>2014-6-3T17:37:44Z</time></trkpt>
<trkpt lat="45.795968" lon="1.355145"><ele></ele><time>2014-6-3T17:37:47Z</time></trkpt>
<trkpt lat="45.795923" lon="1.355093"><ele></ele><time>2014-6-3T17:37:50Z</time></trkpt>
<trkpt lat="45.795862" lon="1.355043"><ele></ele><time>2014-6-3T17:37:53Z</time></trkpt>
<trkpt lat="45.795825" lon="1.354986"><ele></ele><time>2014-6-3T17:37:56Z</time></trkpt>
<trkpt lat="45.795743" lon="1.355"><ele></ele><time>2014-6-3T17:37:59Z</time></trkpt>
<trkpt lat="45.795696" lon="1.355044"><ele></ele><time>2014-6-3T17:38:2Z</time></trkpt>
<trkpt lat="45.795669" lon="1.355118"><ele></ele><time>2014-6-3T17:38:5Z</time></trkpt>
<trkpt lat="45.795639" lon="1.355176"><ele></ele><time>2014-6-3T17:38:8Z</time></trkpt>
<trkpt lat="45.795599" lon="1.355242"><ele></ele><time>2014-6-3T17:38:11Z</time></trkpt>
<trkpt lat="45.795557" lon="1.355305"><ele></ele><time>2014-6-3T17:38:14Z</time></trkpt>
<trkpt lat="45.795509" lon="1.355392"><ele></ele><time>2014-6-3T17:38:17Z</time></trkpt>
<trkpt lat="45.795462" lon="1.35547"><ele></ele><time>2014-6-3T17:38:20Z</time></trkpt>
<trkpt lat="45.795419" lon="1.355544"><ele></ele><time>2014-6-3T17:38:23Z</time></trkpt>
<trkpt lat="45.795384" lon="1.355613"><ele></ele><time>2014-6-3T17:38:26Z</time></trkpt>
<trkpt lat="45.795344" lon="1.35569"><ele></ele><time>2014-6-3T17:38:29Z</time></trkpt>
<trkpt lat="45.795294" lon="1.355773"><ele></ele><time>2014-6-3T17:38:32Z</time></trkpt>
<trkpt lat="45.79525" lon="1.355854"><ele></ele><time>2014-6-3T17:38:35Z</time></trkpt>
<trkpt lat="45.795197" lon="1.355932"><ele></ele><time>2014-6-3T17:38:38Z</time></trkpt>
<trkpt lat="45.79509" lon="1.3561"><ele></ele><time>2014-6-3T17:38:41Z</time></trkpt>
<trkpt lat="45.795034" lon="1.356187"><ele></ele><time>2014-6-3T17:38:44Z</time></trkpt>
<trkpt lat="45.794983" lon="1.356275"><ele></ele><time>2014-6-3T17:38:47Z</time></trkpt>
<trkpt lat="45.79494" lon="1.356366"><ele></ele><time>2014-6-3T17:38:50Z</time></trkpt>
<trkpt lat="45.794895" lon="1.356451"><ele></ele><time>2014-6-3T17:38:53Z</time></trkpt>
<trkpt lat="45.794822" lon="1.356545"><ele></ele><time>2014-6-3T17:38:56Z</time></trkpt>
<trkpt lat="45.794765" lon="1.356645"><ele></ele><time>2014-6-3T17:38:59Z</time></trkpt>
<trkpt lat="45.794708" lon="1.356727"><ele></ele><time>2014-6-3T17:39:2Z</time></trkpt>
<trkpt lat="45.794656" lon="1.356802"><ele></ele><time>2014-6-3T17:39:5Z</time></trkpt>
<trkpt lat="45.79462" lon="1.356873"><ele></ele><time>2014-6-3T17:39:8Z</time></trkpt>
<trkpt lat="45.794585" lon="1.356943"><ele></ele><time>2014-6-3T17:39:11Z</time></trkpt>
<trkpt lat="45.794563" lon="1.357012"><ele></ele><time>2014-6-3T17:39:14Z</time></trkpt>
<trkpt lat="45.794539" lon="1.357073"><ele></ele><time>2014-6-3T17:39:17Z</time></trkpt>
<trkpt lat="45.794502" lon="1.357126"><ele></ele><time>2014-6-3T17:39:20Z</time></trkpt>
<trkpt lat="45.794472" lon="1.357181"><ele></ele><time>2014-6-3T17:39:23Z</time></trkpt>
<trkpt lat="45.794424" lon="1.357259"><ele></ele><time>2014-6-3T17:39:26Z</time></trkpt>
<trkpt lat="45.794365" lon="1.357254"><ele></ele><time>2014-6-3T17:39:29Z</time></trkpt>
<trkpt lat="45.794301" lon="1.357167"><ele></ele><time>2014-6-3T17:39:32Z</time></trkpt>
<trkpt lat="45.794269" lon="1.357119"><ele></ele><time>2014-6-3T17:39:35Z</time></trkpt>
<trkpt lat="45.794221" lon="1.357017"><ele></ele><time>2014-6-3T17:39:38Z</time></trkpt>
<trkpt lat="45.794174" lon="1.356948"><ele></ele><time>2014-6-3T17:39:41Z</time></trkpt>
<trkpt lat="45.79413" lon="1.3569"><ele></ele><time>2014-6-3T17:39:44Z</time></trkpt>
<trkpt lat="45.794067" lon="1.356795"><ele></ele><time>2014-6-3T17:39:47Z</time></trkpt>
<trkpt lat="45.794019" lon="1.356745"><ele></ele><time>2014-6-3T17:39:50Z</time></trkpt>
<trkpt lat="45.793986" lon="1.356684"><ele></ele><time>2014-6-3T17:39:53Z</time></trkpt>
<trkpt lat="45.793942" lon="1.356632"><ele></ele><time>2014-6-3T17:39:56Z</time></trkpt>
<trkpt lat="45.793891" lon="1.356594"><ele></ele><time>2014-6-3T17:39:59Z</time></trkpt>
<trkpt lat="45.793834" lon="1.356566"><ele></ele><time>2014-6-3T17:40:2Z</time></trkpt>
<trkpt lat="45.793788" lon="1.356537"><ele></ele><time>2014-6-3T17:40:5Z</time></trkpt>
<trkpt lat="45.793718" lon="1.356453"><ele></ele><time>2014-6-3T17:40:8Z</time></trkpt>
<trkpt lat="45.79368" lon="1.35641"><ele></ele><time>2014-6-3T17:40:11Z</time></trkpt>
<trkpt lat="45.793636" lon="1.356383"><ele></ele><time>2014-6-3T17:40:14Z</time></trkpt>
<trkpt lat="45.793544" lon="1.356329"><ele></ele><time>2014-6-3T17:40:17Z</time></trkpt>
<trkpt lat="45.793506" lon="1.356282"><ele></ele><time>2014-6-3T17:40:20Z</time></trkpt>
<trkpt lat="45.793467" lon="1.356234"><ele></ele><time>2014-6-3T17:40:23Z</time></trkpt>
<trkpt lat="45.793416" lon="1.356157"><ele></ele><time>2014-6-3T17:40:26Z</time></trkpt>
<trkpt lat="45.793362" lon="1.356086"><ele></ele><time>2014-6-3T17:40:29Z</time></trkpt>
<trkpt lat="45.793304" lon="1.356063"><ele></ele><time>2014-6-3T17:40:32Z</time></trkpt>
<trkpt lat="45.793237" lon="1.356045"><ele></ele><time>2014-6-3T17:40:35Z</time></trkpt>
<trkpt lat="45.79317" lon="1.356001"><ele></ele><time>2014-6-3T17:40:38Z</time></trkpt>
<trkpt lat="45.793106" lon="1.355941"><ele></ele><time>2014-6-3T17:40:41Z</time></trkpt>
<trkpt lat="45.793039" lon="1.355879"><ele></ele><time>2014-6-3T17:40:44Z</time></trkpt>
<trkpt lat="45.79299" lon="1.355828"><ele></ele><time>2014-6-3T17:40:47Z</time></trkpt>
<trkpt lat="45.792913" lon="1.355754"><ele></ele><time>2014-6-3T17:40:50Z</time></trkpt>
<trkpt lat="45.792881" lon="1.355623"><ele></ele><time>2014-6-3T17:40:53Z</time></trkpt>
<trkpt lat="45.79285" lon="1.35552"><ele></ele><time>2014-6-3T17:40:56Z</time></trkpt>
<trkpt lat="45.792858" lon="1.355424"><ele></ele><time>2014-6-3T17:40:59Z</time></trkpt>
<trkpt lat="45.792838" lon="1.355271"><ele></ele><time>2014-6-3T17:41:2Z</time></trkpt>
<trkpt lat="45.792783" lon="1.355119"><ele></ele><time>2014-6-3T17:41:5Z</time></trkpt>
<trkpt lat="45.792764" lon="1.355034"><ele></ele><time>2014-6-3T17:41:8Z</time></trkpt>
<trkpt lat="45.792761" lon="1.35496"><ele></ele><time>2014-6-3T17:41:11Z</time></trkpt>
<trkpt lat="45.792732" lon="1.354855"><ele></ele><time>2014-6-3T17:41:14Z</time></trkpt>
<trkpt lat="45.792722" lon="1.354774"><ele></ele><time>2014-6-3T17:41:17Z</time></trkpt>
<trkpt lat="45.792692" lon="1.354693"><ele></ele><time>2014-6-3T17:41:20Z</time></trkpt>
<trkpt lat="45.792677" lon="1.354603"><ele></ele><time>2014-6-3T17:41:23Z</time></trkpt>
<trkpt lat="45.792681" lon="1.354531"><ele></ele><time>2014-6-3T17:41:26Z</time></trkpt>
<trkpt lat="45.792676" lon="1.354453"><ele></ele><time>2014-6-3T17:41:29Z</time></trkpt>
<trkpt lat="45.792674" lon="1.354381"><ele></ele><time>2014-6-3T17:41:32Z</time></trkpt>
<trkpt lat="45.792698" lon="1.354309"><ele></ele><time>2014-6-3T17:41:35Z</time></trkpt>
<trkpt lat="45.792683" lon="1.354243"><ele></ele><time>2014-6-3T17:41:38Z</time></trkpt>
<trkpt lat="45.792679" lon="1.354173"><ele></ele><time>2014-6-3T17:41:41Z</time></trkpt>
<trkpt lat="45.79268" lon="1.354078"><ele></ele><time>2014-6-3T17:41:44Z</time></trkpt>
<trkpt lat="45.792681" lon="1.353995"><ele></ele><time>2014-6-3T17:41:47Z</time></trkpt>
<trkpt lat="45.792665" lon="1.353919"><ele></ele><time>2014-6-3T17:41:50Z</time></trkpt>
<trkpt lat="45.792658" lon="1.353836"><ele></ele><time>2014-6-3T17:41:53Z</time></trkpt>
<trkpt lat="45.792612" lon="1.353704"><ele></ele><time>2014-6-3T17:41:56Z</time></trkpt>
<trkpt lat="45.7926" lon="1.353577"><ele></ele><time>2014-6-3T17:41:59Z</time></trkpt>
<trkpt lat="45.792584" lon="1.353472"><ele></ele><time>2014-6-3T17:42:2Z</time></trkpt>
<trkpt lat="45.792563" lon="1.353357"><ele></ele><time>2014-6-3T17:42:5Z</time></trkpt>
<trkpt lat="45.792562" lon="1.35325"><ele></ele><time>2014-6-3T17:42:8Z</time></trkpt>
<trkpt lat="45.792561" lon="1.353145"><ele></ele><time>2014-6-3T17:42:11Z</time></trkpt>
<trkpt lat="45.792557" lon="1.353065"><ele></ele><time>2014-6-3T17:42:14Z</time></trkpt>
<trkpt lat="45.792553" lon="1.352991"><ele></ele><time>2014-6-3T17:42:17Z</time></trkpt>
<trkpt lat="45.792535" lon="1.352927"><ele></ele><time>2014-6-3T17:42:20Z</time></trkpt>
<trkpt lat="45.792531" lon="1.352829"><ele></ele><time>2014-6-3T17:42:23Z</time></trkpt>
<trkpt lat="45.792527" lon="1.352763"><ele></ele><time>2014-6-3T17:42:26Z</time></trkpt>
<trkpt lat="45.792544" lon="1.352645"><ele></ele><time>2014-6-3T17:42:29Z</time></trkpt>
<trkpt lat="45.792556" lon="1.352541"><ele></ele><time>2014-6-3T17:42:32Z</time></trkpt>
<trkpt lat="45.79258" lon="1.352481"><ele></ele><time>2014-6-3T17:42:35Z</time></trkpt>
<trkpt lat="45.792629" lon="1.352421"><ele></ele><time>2014-6-3T17:42:38Z</time></trkpt>
<trkpt lat="45.792675" lon="1.352363"><ele></ele><time>2014-6-3T17:42:41Z</time></trkpt>
<trkpt lat="45.792703" lon="1.352238"><ele></ele><time>2014-6-3T17:42:44Z</time></trkpt>
<trkpt lat="45.792703" lon="1.352117"><ele></ele><time>2014-6-3T17:42:47Z</time></trkpt>
<trkpt lat="45.792699" lon="1.352015"><ele></ele><time>2014-6-3T17:42:50Z</time></trkpt>
<trkpt lat="45.792693" lon="1.351907"><ele></ele><time>2014-6-3T17:42:53Z</time></trkpt>
<trkpt lat="45.792692" lon="1.351836"><ele></ele><time>2014-6-3T17:42:56Z</time></trkpt>
<trkpt lat="45.792651" lon="1.351755"><ele></ele><time>2014-6-3T17:42:59Z</time></trkpt>
<trkpt lat="45.792604" lon="1.351673"><ele></ele><time>2014-6-3T17:43:2Z</time></trkpt>
<trkpt lat="45.792555" lon="1.351609"><ele></ele><time>2014-6-3T17:43:5Z</time></trkpt>
<trkpt lat="45.79253" lon="1.351547"><ele></ele><time>2014-6-3T17:43:8Z</time></trkpt>
<trkpt lat="45.792491" lon="1.351482"><ele></ele><time>2014-6-3T17:43:11Z</time></trkpt>
<trkpt lat="45.792483" lon="1.351413"><ele></ele><time>2014-6-3T17:43:14Z</time></trkpt>
<trkpt lat="45.79245" lon="1.351338"><ele></ele><time>2014-6-3T17:43:17Z</time></trkpt>
<trkpt lat="45.79246" lon="1.351262"><ele></ele><time>2014-6-3T17:43:20Z</time></trkpt>
<trkpt lat="45.792418" lon="1.351203"><ele></ele><time>2014-6-3T17:43:23Z</time></trkpt>
<trkpt lat="45.792396" lon="1.351121"><ele></ele><time>2014-6-3T17:43:26Z</time></trkpt>
<trkpt lat="45.792395" lon="1.351044"><ele></ele><time>2014-6-3T17:43:29Z</time></trkpt>
<trkpt lat="45.792393" lon="1.350979"><ele></ele><time>2014-6-3T17:43:32Z</time></trkpt>
<trkpt lat="45.792374" lon="1.350915"><ele></ele><time>2014-6-3T17:43:35Z</time></trkpt>
<trkpt lat="45.792343" lon="1.350865"><ele></ele><time>2014-6-3T17:43:38Z</time></trkpt>
<trkpt lat="45.792343" lon="1.350865"><ele></ele><time>2014-6-3T17:43:41Z</time></trkpt>
<trkpt lat="45.792359" lon="1.350847"><ele></ele><time>2014-6-3T17:43:44Z</time></trkpt>
<trkpt lat="45.792376" lon="1.350804"><ele></ele><time>2014-6-3T17:43:47Z</time></trkpt>
<trkpt lat="45.792375" lon="1.350702"><ele></ele><time>2014-6-3T17:43:50Z</time></trkpt>
<trkpt lat="45.792415" lon="1.350637"><ele></ele><time>2014-6-3T17:43:53Z</time></trkpt>
<trkpt lat="45.792434" lon="1.350577"><ele></ele><time>2014-6-3T17:43:56Z</time></trkpt>
<trkpt lat="45.792449" lon="1.35051"><ele></ele><time>2014-6-3T17:43:59Z</time></trkpt>
<trkpt lat="45.792474" lon="1.350442"><ele></ele><time>2014-6-3T17:44:2Z</time></trkpt>
<trkpt lat="45.79249" lon="1.350367"><ele></ele><time>2014-6-3T17:44:5Z</time></trkpt>
<trkpt lat="45.792489" lon="1.35025"><ele></ele><time>2014-6-3T17:44:8Z</time></trkpt>
<trkpt lat="45.792451" lon="1.350158"><ele></ele><time>2014-6-3T17:44:11Z</time></trkpt>
<trkpt lat="45.792403" lon="1.350095"><ele></ele><time>2014-6-3T17:44:14Z</time></trkpt>
<trkpt lat="45.792355" lon="1.350052"><ele></ele><time>2014-6-3T17:44:17Z</time></trkpt>
<trkpt lat="45.792249" lon="1.349963"><ele></ele><time>2014-6-3T17:44:20Z</time></trkpt>
<trkpt lat="45.792205" lon="1.349934"><ele></ele><time>2014-6-3T17:44:23Z</time></trkpt>
<trkpt lat="45.792171" lon="1.349881"><ele></ele><time>2014-6-3T17:44:26Z</time></trkpt>
<trkpt lat="45.792129" lon="1.349852"><ele></ele><time>2014-6-3T17:44:29Z</time></trkpt>
<trkpt lat="45.792085" lon="1.349828"><ele></ele><time>2014-6-3T17:44:32Z</time></trkpt>
<trkpt lat="45.79198" lon="1.349765"><ele></ele><time>2014-6-3T17:44:35Z</time></trkpt>
<trkpt lat="45.791946" lon="1.349719"><ele></ele><time>2014-6-3T17:44:38Z</time></trkpt>
<trkpt lat="45.791908" lon="1.349676"><ele></ele><time>2014-6-3T17:44:41Z</time></trkpt>
<trkpt lat="45.791845" lon="1.349594"><ele></ele><time>2014-6-3T17:44:44Z</time></trkpt>
<trkpt lat="45.791793" lon="1.349528"><ele></ele><time>2014-6-3T17:44:47Z</time></trkpt>
<trkpt lat="45.791732" lon="1.349479"><ele></ele><time>2014-6-3T17:44:50Z</time></trkpt>
<trkpt lat="45.791668" lon="1.349401"><ele></ele><time>2014-6-3T17:44:53Z</time></trkpt>
<trkpt lat="45.791686" lon="1.349301"><ele></ele><time>2014-6-3T17:44:56Z</time></trkpt>
<trkpt lat="45.79167" lon="1.349208"><ele></ele><time>2014-6-3T17:44:59Z</time></trkpt>
<trkpt lat="45.791625" lon="1.349115"><ele></ele><time>2014-6-3T17:45:2Z</time></trkpt>
<trkpt lat="45.79164" lon="1.349019"><ele></ele><time>2014-6-3T17:45:5Z</time></trkpt>
<trkpt lat="45.791674" lon="1.348972"><ele></ele><time>2014-6-3T17:45:8Z</time></trkpt>
<trkpt lat="45.791725" lon="1.348884"><ele></ele><time>2014-6-3T17:45:11Z</time></trkpt>
<trkpt lat="45.791789" lon="1.348847"><ele></ele><time>2014-6-3T17:45:14Z</time></trkpt>
<trkpt lat="45.791831" lon="1.348804"><ele></ele><time>2014-6-3T17:45:17Z</time></trkpt>
<trkpt lat="45.791866" lon="1.348758"><ele></ele><time>2014-6-3T17:45:20Z</time></trkpt>
<trkpt lat="45.791899" lon="1.348708"><ele></ele><time>2014-6-3T17:45:23Z</time></trkpt>
<trkpt lat="45.791958" lon="1.348618"><ele></ele><time>2014-6-3T17:45:26Z</time></trkpt>
<trkpt lat="45.792022" lon="1.348522"><ele></ele><time>2014-6-3T17:45:29Z</time></trkpt>
<trkpt lat="45.792088" lon="1.348431"><ele></ele><time>2014-6-3T17:45:32Z</time></trkpt>
<trkpt lat="45.792144" lon="1.348338"><ele></ele><time>2014-6-3T17:45:35Z</time></trkpt>
<trkpt lat="45.792176" lon="1.348291"><ele></ele><time>2014-6-3T17:45:38Z</time></trkpt>
<trkpt lat="45.792235" lon="1.348211"><ele></ele><time>2014-6-3T17:45:41Z</time></trkpt>
<trkpt lat="45.792269" lon="1.348163"><ele></ele><time>2014-6-3T17:45:44Z</time></trkpt>
<trkpt lat="45.792295" lon="1.348109"><ele></ele><time>2014-6-3T17:45:47Z</time></trkpt>
<trkpt lat="45.792332" lon="1.348015"><ele></ele><time>2014-6-3T17:45:50Z</time></trkpt>
<trkpt lat="45.792371" lon="1.347923"><ele></ele><time>2014-6-3T17:45:53Z</time></trkpt>
<trkpt lat="45.792399" lon="1.347833"><ele></ele><time>2014-6-3T17:45:56Z</time></trkpt>
<trkpt lat="45.792415" lon="1.347724"><ele></ele><time>2014-6-3T17:45:59Z</time></trkpt>
<trkpt lat="45.7924" lon="1.3476"><ele></ele><time>2014-6-3T17:46:2Z</time></trkpt>
<trkpt lat="45.792419" lon="1.347481"><ele></ele><time>2014-6-3T17:46:5Z</time></trkpt>
<trkpt lat="45.792397" lon="1.347424"><ele></ele><time>2014-6-3T17:46:8Z</time></trkpt>
<trkpt lat="45.792357" lon="1.347269"><ele></ele><time>2014-6-3T17:46:11Z</time></trkpt>
<trkpt lat="45.792333" lon="1.347184"><ele></ele><time>2014-6-3T17:46:14Z</time></trkpt>
<trkpt lat="45.792309" lon="1.347077"><ele></ele><time>2014-6-3T17:46:17Z</time></trkpt>
<trkpt lat="45.792282" lon="1.346967"><ele></ele><time>2014-6-3T17:46:20Z</time></trkpt>
<trkpt lat="45.792236" lon="1.346877"><ele></ele><time>2014-6-3T17:46:23Z</time></trkpt>
<trkpt lat="45.792192" lon="1.346813"><ele></ele><time>2014-6-3T17:46:26Z</time></trkpt>
<trkpt lat="45.792148" lon="1.346733"><ele></ele><time>2014-6-3T17:46:29Z</time></trkpt>
<trkpt lat="45.792096" lon="1.346649"><ele></ele><time>2014-6-3T17:46:32Z</time></trkpt>
<trkpt lat="45.792041" lon="1.346566"><ele></ele><time>2014-6-3T17:46:35Z</time></trkpt>
<trkpt lat="45.791955" lon="1.346513"><ele></ele><time>2014-6-3T17:46:38Z</time></trkpt>
<trkpt lat="45.791919" lon="1.34647"><ele></ele><time>2014-6-3T17:46:41Z</time></trkpt>
<trkpt lat="45.791876" lon="1.346427"><ele></ele><time>2014-6-3T17:46:44Z</time></trkpt>
<trkpt lat="45.791839" lon="1.346388"><ele></ele><time>2014-6-3T17:46:47Z</time></trkpt>
<trkpt lat="45.791798" lon="1.346308"><ele></ele><time>2014-6-3T17:46:50Z</time></trkpt>
<trkpt lat="45.791733" lon="1.346238"><ele></ele><time>2014-6-3T17:46:53Z</time></trkpt>
<trkpt lat="45.791706" lon="1.346161"><ele></ele><time>2014-6-3T17:46:56Z</time></trkpt>
<trkpt lat="45.791674" lon="1.346047"><ele></ele><time>2014-6-3T17:46:59Z</time></trkpt>
<trkpt lat="45.791618" lon="1.345929"><ele></ele><time>2014-6-3T17:47:2Z</time></trkpt>
<trkpt lat="45.791728" lon="1.345889"><ele></ele><time>2014-6-3T17:47:5Z</time></trkpt>
<trkpt lat="45.791806" lon="1.345814"><ele></ele><time>2014-6-3T17:47:8Z</time></trkpt>
<trkpt lat="45.791853" lon="1.345774"><ele></ele><time>2014-6-3T17:47:11Z</time></trkpt>
<trkpt lat="45.791911" lon="1.345731"><ele></ele><time>2014-6-3T17:47:14Z</time></trkpt>
<trkpt lat="45.791956" lon="1.345701"><ele></ele><time>2014-6-3T17:47:17Z</time></trkpt>
<trkpt lat="45.792001" lon="1.345664"><ele></ele><time>2014-6-3T17:47:20Z</time></trkpt>
<trkpt lat="45.792052" lon="1.345629"><ele></ele><time>2014-6-3T17:47:23Z</time></trkpt>
<trkpt lat="45.792099" lon="1.345603"><ele></ele><time>2014-6-3T17:47:26Z</time></trkpt>
<trkpt lat="45.792146" lon="1.34557"><ele></ele><time>2014-6-3T17:47:29Z</time></trkpt>
<trkpt lat="45.792194" lon="1.345538"><ele></ele><time>2014-6-3T17:47:32Z</time></trkpt>
<trkpt lat="45.792239" lon="1.345502"><ele></ele><time>2014-6-3T17:47:35Z</time></trkpt>
<trkpt lat="45.792292" lon="1.345463"><ele></ele><time>2014-6-3T17:47:38Z</time></trkpt>
<trkpt lat="45.792334" lon="1.345428"><ele></ele><time>2014-6-3T17:47:41Z</time></trkpt>
<trkpt lat="45.792383" lon="1.345389"><ele></ele><time>2014-6-3T17:47:44Z</time></trkpt>
<trkpt lat="45.792431" lon="1.345353"><ele></ele><time>2014-6-3T17:47:47Z</time></trkpt>
<trkpt lat="45.792476" lon="1.345318"><ele></ele><time>2014-6-3T17:47:50Z</time></trkpt>
<trkpt lat="45.792523" lon="1.345279"><ele></ele><time>2014-6-3T17:47:53Z</time></trkpt>
<trkpt lat="45.792574" lon="1.345243"><ele></ele><time>2014-6-3T17:47:56Z</time></trkpt>
<trkpt lat="45.792618" lon="1.345216"><ele></ele><time>2014-6-3T17:47:59Z</time></trkpt>
<trkpt lat="45.792671" lon="1.345189"><ele></ele><time>2014-6-3T17:48:2Z</time></trkpt>
<trkpt lat="45.792729" lon="1.345172"><ele></ele><time>2014-6-3T17:48:5Z</time></trkpt>
<trkpt lat="45.792786" lon="1.345161"><ele></ele><time>2014-6-3T17:48:8Z</time></trkpt>
<trkpt lat="45.792885" lon="1.345143"><ele></ele><time>2014-6-3T17:48:11Z</time></trkpt>
<trkpt lat="45.792933" lon="1.345145"><ele></ele><time>2014-6-3T17:48:14Z</time></trkpt>
<trkpt lat="45.793011" lon="1.345146"><ele></ele><time>2014-6-3T17:48:17Z</time></trkpt>
<trkpt lat="45.793063" lon="1.345147"><ele></ele><time>2014-6-3T17:48:20Z</time></trkpt>
<trkpt lat="45.793114" lon="1.345136"><ele></ele><time>2014-6-3T17:48:23Z</time></trkpt>
<trkpt lat="45.79319" lon="1.345072"><ele></ele><time>2014-6-3T17:48:26Z</time></trkpt>
<trkpt lat="45.793217" lon="1.344984"><ele></ele><time>2014-6-3T17:48:29Z</time></trkpt>
<trkpt lat="45.793229" lon="1.344908"><ele></ele><time>2014-6-3T17:48:32Z</time></trkpt>
<trkpt lat="45.793195" lon="1.344853"><ele></ele><time>2014-6-3T17:48:35Z</time></trkpt>
<trkpt lat="45.793144" lon="1.344781"><ele></ele><time>2014-6-3T17:48:38Z</time></trkpt>
<trkpt lat="45.79311" lon="1.344694"><ele></ele><time>2014-6-3T17:48:41Z</time></trkpt>
<trkpt lat="45.793072" lon="1.344604"><ele></ele><time>2014-6-3T17:48:44Z</time></trkpt>
<trkpt lat="45.793043" lon="1.344531"><ele></ele><time>2014-6-3T17:48:47Z</time></trkpt>
<trkpt lat="45.793017" lon="1.344436"><ele></ele><time>2014-6-3T17:48:50Z</time></trkpt>
<trkpt lat="45.792906" lon="1.34433"><ele></ele><time>2014-6-3T17:48:53Z</time></trkpt>
<trkpt lat="45.792868" lon="1.344225"><ele></ele><time>2014-6-3T17:48:56Z</time></trkpt>
<trkpt lat="45.792844" lon="1.344121"><ele></ele><time>2014-6-3T17:48:59Z</time></trkpt>
<trkpt lat="45.792819" lon="1.344022"><ele></ele><time>2014-6-3T17:49:2Z</time></trkpt>
<trkpt lat="45.792795" lon="1.343921"><ele></ele><time>2014-6-3T17:49:5Z</time></trkpt>
<trkpt lat="45.792798" lon="1.343853"><ele></ele><time>2014-6-3T17:49:8Z</time></trkpt>
<trkpt lat="45.79279" lon="1.343745"><ele></ele><time>2014-6-3T17:49:11Z</time></trkpt>
<trkpt lat="45.792913" lon="1.34368"><ele></ele><time>2014-6-3T17:49:14Z</time></trkpt>
<trkpt lat="45.792959" lon="1.34365"><ele></ele><time>2014-6-3T17:49:17Z</time></trkpt>
<trkpt lat="45.793007" lon="1.343609"><ele></ele><time>2014-6-3T17:49:20Z</time></trkpt>
<trkpt lat="45.79308" lon="1.343546"><ele></ele><time>2014-6-3T17:49:23Z</time></trkpt>
<trkpt lat="45.793134" lon="1.343501"><ele></ele><time>2014-6-3T17:49:26Z</time></trkpt>
<trkpt lat="45.793175" lon="1.343464"><ele></ele><time>2014-6-3T17:49:29Z</time></trkpt>
<trkpt lat="45.79324" lon="1.343395"><ele></ele><time>2014-6-3T17:49:32Z</time></trkpt>
<trkpt lat="45.793313" lon="1.343325"><ele></ele><time>2014-6-3T17:49:35Z</time></trkpt>
<trkpt lat="45.793357" lon="1.34327"><ele></ele><time>2014-6-3T17:49:38Z</time></trkpt>
<trkpt lat="45.793408" lon="1.343209"><ele></ele><time>2014-6-3T17:49:41Z</time></trkpt>
<trkpt lat="45.793461" lon="1.34316"><ele></ele><time>2014-6-3T17:49:44Z</time></trkpt>
<trkpt lat="45.793504" lon="1.343115"><ele></ele><time>2014-6-3T17:49:47Z</time></trkpt>
<trkpt lat="45.793546" lon="1.343059"><ele></ele><time>2014-6-3T17:49:50Z</time></trkpt>
<trkpt lat="45.793608" lon="1.343007"><ele></ele><time>2014-6-3T17:49:53Z</time></trkpt>
<trkpt lat="45.793683" lon="1.342949"><ele></ele><time>2014-6-3T17:49:56Z</time></trkpt>
<trkpt lat="45.79375" lon="1.342895"><ele></ele><time>2014-6-3T17:49:59Z</time></trkpt>
<trkpt lat="45.793806" lon="1.342838"><ele></ele><time>2014-6-3T17:50:2Z</time></trkpt>
<trkpt lat="45.793875" lon="1.342777"><ele></ele><time>2014-6-3T17:50:5Z</time></trkpt>
<trkpt lat="45.793932" lon="1.342715"><ele></ele><time>2014-6-3T17:50:8Z</time></trkpt>
<trkpt lat="45.793993" lon="1.342657"><ele></ele><time>2014-6-3T17:50:11Z</time></trkpt>
<trkpt lat="45.794049" lon="1.342593"><ele></ele><time>2014-6-3T17:50:14Z</time></trkpt>
<trkpt lat="45.794094" lon="1.34255"><ele></ele><time>2014-6-3T17:50:17Z</time></trkpt>
<trkpt lat="45.794151" lon="1.342461"><ele></ele><time>2014-6-3T17:50:20Z</time></trkpt>
<trkpt lat="45.794185" lon="1.342409"><ele></ele><time>2014-6-3T17:50:23Z</time></trkpt>
<trkpt lat="45.79421" lon="1.342314"><ele></ele><time>2014-6-3T17:50:26Z</time></trkpt>
<trkpt lat="45.794223" lon="1.342231"><ele></ele><time>2014-6-3T17:50:29Z</time></trkpt>
<trkpt lat="45.794234" lon="1.342133"><ele></ele><time>2014-6-3T17:50:32Z</time></trkpt>
<trkpt lat="45.794235" lon="1.342022"><ele></ele><time>2014-6-3T17:50:35Z</time></trkpt>
<trkpt lat="45.794256" lon="1.341961"><ele></ele><time>2014-6-3T17:50:38Z</time></trkpt>
<trkpt lat="45.79427" lon="1.341894"><ele></ele><time>2014-6-3T17:50:41Z</time></trkpt>
<trkpt lat="45.794281" lon="1.341778"><ele></ele><time>2014-6-3T17:50:44Z</time></trkpt>
<trkpt lat="45.794289" lon="1.34171"><ele></ele><time>2014-6-3T17:50:47Z</time></trkpt>
<trkpt lat="45.794314" lon="1.341588"><ele></ele><time>2014-6-3T17:50:50Z</time></trkpt>
<trkpt lat="45.794345" lon="1.341497"><ele></ele><time>2014-6-3T17:50:53Z</time></trkpt>
<trkpt lat="45.794365" lon="1.341412"><ele></ele><time>2014-6-3T17:50:56Z</time></trkpt>
<trkpt lat="45.794356" lon="1.341315"><ele></ele><time>2014-6-3T17:50:59Z</time></trkpt>
<trkpt lat="45.794356" lon="1.341229"><ele></ele><time>2014-6-3T17:51:2Z</time></trkpt>
<trkpt lat="45.794361" lon="1.341152"><ele></ele><time>2014-6-3T17:51:5Z</time></trkpt>
<trkpt lat="45.794361" lon="1.341052"><ele></ele><time>2014-6-3T17:51:8Z</time></trkpt>
<trkpt lat="45.794358" lon="1.34097"><ele></ele><time>2014-6-3T17:51:11Z</time></trkpt>
<trkpt lat="45.794366" lon="1.340894"><ele></ele><time>2014-6-3T17:51:14Z</time></trkpt>
<trkpt lat="45.794376" lon="1.34082"><ele></ele><time>2014-6-3T17:51:17Z</time></trkpt>
<trkpt lat="45.794396" lon="1.340746"><ele></ele><time>2014-6-3T17:51:20Z</time></trkpt>
<trkpt lat="45.794402" lon="1.340677"><ele></ele><time>2014-6-3T17:51:23Z</time></trkpt>
<trkpt lat="45.794424" lon="1.340613"><ele></ele><time>2014-6-3T17:51:26Z</time></trkpt>
<trkpt lat="45.794454" lon="1.340537"><ele></ele><time>2014-6-3T17:51:29Z</time></trkpt>
<trkpt lat="45.794485" lon="1.340461"><ele></ele><time>2014-6-3T17:51:32Z</time></trkpt>
<trkpt lat="45.794487" lon="1.340341"><ele></ele><time>2014-6-3T17:51:35Z</time></trkpt>
<trkpt lat="45.794503" lon="1.340277"><ele></ele><time>2014-6-3T17:51:38Z</time></trkpt>
<trkpt lat="45.794531" lon="1.34021"><ele></ele><time>2014-6-3T17:51:41Z</time></trkpt>
<trkpt lat="45.794556" lon="1.340143"><ele></ele><time>2014-6-3T17:51:44Z</time></trkpt>
<trkpt lat="45.794565" lon="1.340072"><ele></ele><time>2014-6-3T17:51:47Z</time></trkpt>
<trkpt lat="45.794604" lon="1.339983"><ele></ele><time>2014-6-3T17:51:50Z</time></trkpt>
<trkpt lat="45.794619" lon="1.339903"><ele></ele><time>2014-6-3T17:51:53Z</time></trkpt>
<trkpt lat="45.794638" lon="1.339824"><ele></ele><time>2014-6-3T17:51:56Z</time></trkpt>
<trkpt lat="45.794644" lon="1.339745"><ele></ele><time>2014-6-3T17:51:59Z</time></trkpt>
<trkpt lat="45.794658" lon="1.339674"><ele></ele><time>2014-6-3T17:52:2Z</time></trkpt>
<trkpt lat="45.794662" lon="1.339587"><ele></ele><time>2014-6-3T17:52:5Z</time></trkpt>
<trkpt lat="45.794674" lon="1.339469"><ele></ele><time>2014-6-3T17:52:8Z</time></trkpt>
<trkpt lat="45.794716" lon="1.339313"><ele></ele><time>2014-6-3T17:52:11Z</time></trkpt>
<trkpt lat="45.794741" lon="1.339174"><ele></ele><time>2014-6-3T17:52:14Z</time></trkpt>
<trkpt lat="45.794761" lon="1.339042"><ele></ele><time>2014-6-3T17:52:17Z</time></trkpt>
<trkpt lat="45.794775" lon="1.338927"><ele></ele><time>2014-6-3T17:52:20Z</time></trkpt>
<trkpt lat="45.794795" lon="1.338812"><ele></ele><time>2014-6-3T17:52:23Z</time></trkpt>
<trkpt lat="45.794799" lon="1.33869"><ele></ele><time>2014-6-3T17:52:26Z</time></trkpt>
<trkpt lat="45.79468" lon="1.338565"><ele></ele><time>2014-6-3T17:52:29Z</time></trkpt>
<trkpt lat="45.794658" lon="1.338451"><ele></ele><time>2014-6-3T17:52:32Z</time></trkpt>
<trkpt lat="45.794629" lon="1.338329"><ele></ele><time>2014-6-3T17:52:35Z</time></trkpt>
<trkpt lat="45.794615" lon="1.338221"><ele></ele><time>2014-6-3T17:52:38Z</time></trkpt>
<trkpt lat="45.794616" lon="1.338126"><ele></ele><time>2014-6-3T17:52:41Z</time></trkpt>
<trkpt lat="45.794752" lon="1.338025"><ele></ele><time>2014-6-3T17:52:44Z</time></trkpt>
<trkpt lat="45.794795" lon="1.337939"><ele></ele><time>2014-6-3T17:52:47Z</time></trkpt>
<trkpt lat="45.794828" lon="1.337848"><ele></ele><time>2014-6-3T17:52:50Z</time></trkpt>
<trkpt lat="45.794869" lon="1.33775"><ele></ele><time>2014-6-3T17:52:53Z</time></trkpt>
<trkpt lat="45.794935" lon="1.337647"><ele></ele><time>2014-6-3T17:52:56Z</time></trkpt>
<trkpt lat="45.794965" lon="1.337519"><ele></ele><time>2014-6-3T17:52:59Z</time></trkpt>
<trkpt lat="45.794979" lon="1.337411"><ele></ele><time>2014-6-3T17:53:2Z</time></trkpt>
<trkpt lat="45.795028" lon="1.337268"><ele></ele><time>2014-6-3T17:53:5Z</time></trkpt>
<trkpt lat="45.795054" lon="1.337126"><ele></ele><time>2014-6-3T17:53:8Z</time></trkpt>
<trkpt lat="45.795039" lon="1.337016"><ele></ele><time>2014-6-3T17:53:11Z</time></trkpt>
<trkpt lat="45.79505" lon="1.336944"><ele></ele><time>2014-6-3T17:53:14Z</time></trkpt>
<trkpt lat="45.795032" lon="1.336877"><ele></ele><time>2014-6-3T17:53:17Z</time></trkpt>
<trkpt lat="45.795085" lon="1.336861"><ele></ele><time>2014-6-3T17:53:20Z</time></trkpt>
<trkpt lat="45.795107" lon="1.336689"><ele></ele><time>2014-6-3T17:53:23Z</time></trkpt>
<trkpt lat="45.795126" lon="1.336525"><ele></ele><time>2014-6-3T17:53:26Z</time></trkpt>
<trkpt lat="45.795141" lon="1.336391"><ele></ele><time>2014-6-3T17:53:29Z</time></trkpt>
<trkpt lat="45.795161" lon="1.336293"><ele></ele><time>2014-6-3T17:53:32Z</time></trkpt>
<trkpt lat="45.795166" lon="1.33621"><ele></ele><time>2014-6-3T17:53:35Z</time></trkpt>
<trkpt lat="45.795168" lon="1.336133"><ele></ele><time>2014-6-3T17:53:38Z</time></trkpt>
<trkpt lat="45.795194" lon="1.336021"><ele></ele><time>2014-6-3T17:53:41Z</time></trkpt>
<trkpt lat="45.79522" lon="1.335929"><ele></ele><time>2014-6-3T17:53:44Z</time></trkpt>
<trkpt lat="45.795277" lon="1.335815"><ele></ele><time>2014-6-3T17:53:47Z</time></trkpt>
<trkpt lat="45.795311" lon="1.335742"><ele></ele><time>2014-6-3T17:53:50Z</time></trkpt>
<trkpt lat="45.795342" lon="1.33563"><ele></ele><time>2014-6-3T17:53:53Z</time></trkpt>
<trkpt lat="45.795366" lon="1.335532"><ele></ele><time>2014-6-3T17:53:56Z</time></trkpt>
<trkpt lat="45.795402" lon="1.335464"><ele></ele><time>2014-6-3T17:53:59Z</time></trkpt>
<trkpt lat="45.795443" lon="1.335383"><ele></ele><time>2014-6-3T17:54:2Z</time></trkpt>
<trkpt lat="45.795491" lon="1.335297"><ele></ele><time>2014-6-3T17:54:5Z</time></trkpt>
<trkpt lat="45.79552" lon="1.335212"><ele></ele><time>2014-6-3T17:54:8Z</time></trkpt>
<trkpt lat="45.795529" lon="1.335109"><ele></ele><time>2014-6-3T17:54:11Z</time></trkpt>
<trkpt lat="45.795545" lon="1.33503"><ele></ele><time>2014-6-3T17:54:14Z</time></trkpt>
<trkpt lat="45.795534" lon="1.334932"><ele></ele><time>2014-6-3T17:54:17Z</time></trkpt>
<trkpt lat="45.795534" lon="1.334858"><ele></ele><time>2014-6-3T17:54:20Z</time></trkpt>
<trkpt lat="45.795517" lon="1.334728"><ele></ele><time>2014-6-3T17:54:23Z</time></trkpt>
<trkpt lat="45.795509" lon="1.334638"><ele></ele><time>2014-6-3T17:54:26Z</time></trkpt>
<trkpt lat="45.795519" lon="1.334533"><ele></ele><time>2014-6-3T17:54:29Z</time></trkpt>
<trkpt lat="45.795523" lon="1.334434"><ele></ele><time>2014-6-3T17:54:32Z</time></trkpt>
<trkpt lat="45.795541" lon="1.334317"><ele></ele><time>2014-6-3T17:54:35Z</time></trkpt>
<trkpt lat="45.795563" lon="1.334235"><ele></ele><time>2014-6-3T17:54:38Z</time></trkpt>
<trkpt lat="45.795572" lon="1.334148"><ele></ele><time>2014-6-3T17:54:41Z</time></trkpt>
<trkpt lat="45.795549" lon="1.334071"><ele></ele><time>2014-6-3T17:54:44Z</time></trkpt>
<trkpt lat="45.795545" lon="1.333959"><ele></ele><time>2014-6-3T17:54:47Z</time></trkpt>
<trkpt lat="45.795583" lon="1.333852"><ele></ele><time>2014-6-3T17:54:50Z</time></trkpt>
<trkpt lat="45.795597" lon="1.333755"><ele></ele><time>2014-6-3T17:54:53Z</time></trkpt>
<trkpt lat="45.79558" lon="1.333676"><ele></ele><time>2014-6-3T17:54:56Z</time></trkpt>
<trkpt lat="45.795568" lon="1.333603"><ele></ele><time>2014-6-3T17:54:59Z</time></trkpt>
<trkpt lat="45.795564" lon="1.333535"><ele></ele><time>2014-6-3T17:55:2Z</time></trkpt>
<trkpt lat="45.79555" lon="1.333448"><ele></ele><time>2014-6-3T17:55:5Z</time></trkpt>
<trkpt lat="45.795555" lon="1.333338"><ele></ele><time>2014-6-3T17:55:8Z</time></trkpt>
<trkpt lat="45.795559" lon="1.333249"><ele></ele><time>2014-6-3T17:55:11Z</time></trkpt>
<trkpt lat="45.795577" lon="1.333122"><ele></ele><time>2014-6-3T17:55:14Z</time></trkpt>
<trkpt lat="45.795588" lon="1.333009"><ele></ele><time>2014-6-3T17:55:17Z</time></trkpt>
<trkpt lat="45.795592" lon="1.332901"><ele></ele><time>2014-6-3T17:55:20Z</time></trkpt>
<trkpt lat="45.795592" lon="1.332901"><ele></ele><time>2014-6-3T17:55:23Z</time></trkpt>
<trkpt lat="45.795606" lon="1.33279"><ele></ele><time>2014-6-3T17:55:26Z</time></trkpt>
<trkpt lat="45.795605" lon="1.332686"><ele></ele><time>2014-6-3T17:55:29Z</time></trkpt>
<trkpt lat="45.79561" lon="1.33258"><ele></ele><time>2014-6-3T17:55:32Z</time></trkpt>
<trkpt lat="45.795635" lon="1.332466"><ele></ele><time>2014-6-3T17:55:35Z</time></trkpt>
<trkpt lat="45.795633" lon="1.332368"><ele></ele><time>2014-6-3T17:55:38Z</time></trkpt>
<trkpt lat="45.795631" lon="1.332266"><ele></ele><time>2014-6-3T17:55:41Z</time></trkpt>
<trkpt lat="45.795625" lon="1.332167"><ele></ele><time>2014-6-3T17:55:44Z</time></trkpt>
<trkpt lat="45.795616" lon="1.33206"><ele></ele><time>2014-6-3T17:55:47Z</time></trkpt>
<trkpt lat="45.795614" lon="1.331949"><ele></ele><time>2014-6-3T17:55:50Z</time></trkpt>
<trkpt lat="45.795615" lon="1.331848"><ele></ele><time>2014-6-3T17:55:53Z</time></trkpt>
<trkpt lat="45.795617" lon="1.331778"><ele></ele><time>2014-6-3T17:55:56Z</time></trkpt>
<trkpt lat="45.795612" lon="1.331712"><ele></ele><time>2014-6-3T17:55:59Z</time></trkpt>
<trkpt lat="45.795604" lon="1.331613"><ele></ele><time>2014-6-3T17:56:2Z</time></trkpt>
<trkpt lat="45.795599" lon="1.331523"><ele></ele><time>2014-6-3T17:56:5Z</time></trkpt>
<trkpt lat="45.795596" lon="1.331433"><ele></ele><time>2014-6-3T17:56:8Z</time></trkpt>
<trkpt lat="45.795584" lon="1.331329"><ele></ele><time>2014-6-3T17:56:11Z</time></trkpt>
<trkpt lat="45.795575" lon="1.331225"><ele></ele><time>2014-6-3T17:56:14Z</time></trkpt>
<trkpt lat="45.795556" lon="1.331142"><ele></ele><time>2014-6-3T17:56:17Z</time></trkpt>
<trkpt lat="45.795538" lon="1.331078"><ele></ele><time>2014-6-3T17:56:20Z</time></trkpt>
<trkpt lat="45.795524" lon="1.331003"><ele></ele><time>2014-6-3T17:56:23Z</time></trkpt>
<trkpt lat="45.795499" lon="1.330936"><ele></ele><time>2014-6-3T17:56:26Z</time></trkpt>
<trkpt lat="45.795509" lon="1.330851"><ele></ele><time>2014-6-3T17:56:29Z</time></trkpt>
<trkpt lat="45.795532" lon="1.330704"><ele></ele><time>2014-6-3T17:56:32Z</time></trkpt>
<trkpt lat="45.79553" lon="1.330639"><ele></ele><time>2014-6-3T17:56:35Z</time></trkpt>
<trkpt lat="45.795553" lon="1.330553"><ele></ele><time>2014-6-3T17:56:38Z</time></trkpt>
<trkpt lat="45.795596" lon="1.330531"><ele></ele><time>2014-6-3T17:56:41Z</time></trkpt>
<trkpt lat="45.795592" lon="1.330532"><ele></ele><time>2014-6-3T17:56:44Z</time></trkpt>
<trkpt lat="45.795616" lon="1.330486"><ele></ele><time>2014-6-3T17:56:47Z</time></trkpt>
<trkpt lat="45.795635" lon="1.330455"><ele></ele><time>2014-6-3T17:56:50Z</time></trkpt>
<trkpt lat="45.795682" lon="1.330388"><ele></ele><time>2014-6-3T17:56:53Z</time></trkpt>
<trkpt lat="45.795763" lon="1.330348"><ele></ele><time>2014-6-3T17:56:56Z</time></trkpt>
<trkpt lat="45.795834" lon="1.33028"><ele></ele><time>2014-6-3T17:56:59Z</time></trkpt>
<trkpt lat="45.795883" lon="1.33021"><ele></ele><time>2014-6-3T17:57:2Z</time></trkpt>
<trkpt lat="45.795927" lon="1.330125"><ele></ele><time>2014-6-3T17:57:5Z</time></trkpt>
<trkpt lat="45.795986" lon="1.330042"><ele></ele><time>2014-6-3T17:57:8Z</time></trkpt>
<trkpt lat="45.796008" lon="1.329924"><ele></ele><time>2014-6-3T17:57:11Z</time></trkpt>
<trkpt lat="45.796032" lon="1.329803"><ele></ele><time>2014-6-3T17:57:14Z</time></trkpt>
<trkpt lat="45.796018" lon="1.329644"><ele></ele><time>2014-6-3T17:57:17Z</time></trkpt>
<trkpt lat="45.796005" lon="1.329551"><ele></ele><time>2014-6-3T17:57:20Z</time></trkpt>
<trkpt lat="45.795998" lon="1.329472"><ele></ele><time>2014-6-3T17:57:23Z</time></trkpt>
<trkpt lat="45.795987" lon="1.329377"><ele></ele><time>2014-6-3T17:57:26Z</time></trkpt>
<trkpt lat="45.795977" lon="1.329287"><ele></ele><time>2014-6-3T17:57:29Z</time></trkpt>
<trkpt lat="45.795939" lon="1.329097"><ele></ele><time>2014-6-3T17:57:32Z</time></trkpt>
<trkpt lat="45.795927" lon="1.328995"><ele></ele><time>2014-6-3T17:57:35Z</time></trkpt>
<trkpt lat="45.795917" lon="1.328884"><ele></ele><time>2014-6-3T17:57:38Z</time></trkpt>
<trkpt lat="45.795963" lon="1.328765"><ele></ele><time>2014-6-3T17:57:41Z</time></trkpt>
<trkpt lat="45.795985" lon="1.328653"><ele></ele><time>2014-6-3T17:57:44Z</time></trkpt>
<trkpt lat="45.796019" lon="1.328536"><ele></ele><time>2014-6-3T17:57:47Z</time></trkpt>
<trkpt lat="45.796056" lon="1.328412"><ele></ele><time>2014-6-3T17:57:50Z</time></trkpt>
<trkpt lat="45.796094" lon="1.328299"><ele></ele><time>2014-6-3T17:57:53Z</time></trkpt>
<trkpt lat="45.796166" lon="1.328251"><ele></ele><time>2014-6-3T17:57:56Z</time></trkpt>
<trkpt lat="45.796277" lon="1.328204"><ele></ele><time>2014-6-3T17:57:59Z</time></trkpt>
<trkpt lat="45.796354" lon="1.328141"><ele></ele><time>2014-6-3T17:58:2Z</time></trkpt>
<trkpt lat="45.796429" lon="1.328097"><ele></ele><time>2014-6-3T17:58:5Z</time></trkpt>
<trkpt lat="45.796537" lon="1.328052"><ele></ele><time>2014-6-3T17:58:8Z</time></trkpt>
<trkpt lat="45.796656" lon="1.328081"><ele></ele><time>2014-6-3T17:58:11Z</time></trkpt>
<trkpt lat="45.796732" lon="1.328088"><ele></ele><time>2014-6-3T17:58:14Z</time></trkpt>
<trkpt lat="45.796809" lon="1.328109"><ele></ele><time>2014-6-3T17:58:17Z</time></trkpt>
<trkpt lat="45.79688" lon="1.328131"><ele></ele><time>2014-6-3T17:58:20Z</time></trkpt>
<trkpt lat="45.796951" lon="1.328148"><ele></ele><time>2014-6-3T17:58:23Z</time></trkpt>
<trkpt lat="45.797049" lon="1.32812"><ele></ele><time>2014-6-3T17:58:26Z</time></trkpt>
<trkpt lat="45.797138" lon="1.328057"><ele></ele><time>2014-6-3T17:58:29Z</time></trkpt>
<trkpt lat="45.797219" lon="1.328027"><ele></ele><time>2014-6-3T17:58:32Z</time></trkpt>
<trkpt lat="45.797297" lon="1.327992"><ele></ele><time>2014-6-3T17:58:35Z</time></trkpt>
<trkpt lat="45.797366" lon="1.327949"><ele></ele><time>2014-6-3T17:58:38Z</time></trkpt>
<trkpt lat="45.797427" lon="1.327877"><ele></ele><time>2014-6-3T17:58:41Z</time></trkpt>
<trkpt lat="45.797451" lon="1.327789"><ele></ele><time>2014-6-3T17:58:44Z</time></trkpt>
<trkpt lat="45.797486" lon="1.327709"><ele></ele><time>2014-6-3T17:58:47Z</time></trkpt>
<trkpt lat="45.79753" lon="1.327645"><ele></ele><time>2014-6-3T17:58:50Z</time></trkpt>
<trkpt lat="45.797567" lon="1.327566"><ele></ele><time>2014-6-3T17:58:53Z</time></trkpt>
<trkpt lat="45.797608" lon="1.327483"><ele></ele><time>2014-6-3T17:58:56Z</time></trkpt>
<trkpt lat="45.797666" lon="1.327419"><ele></ele><time>2014-6-3T17:58:59Z</time></trkpt>
<trkpt lat="45.797719" lon="1.327321"><ele></ele><time>2014-6-3T17:59:2Z</time></trkpt>
<trkpt lat="45.797773" lon="1.327236"><ele></ele><time>2014-6-3T17:59:5Z</time></trkpt>
<trkpt lat="45.797825" lon="1.327158"><ele></ele><time>2014-6-3T17:59:8Z</time></trkpt>
<trkpt lat="45.79786" lon="1.327062"><ele></ele><time>2014-6-3T17:59:11Z</time></trkpt>
<trkpt lat="45.79789" lon="1.326965"><ele></ele><time>2014-6-3T17:59:14Z</time></trkpt>
<trkpt lat="45.797912" lon="1.326871"><ele></ele><time>2014-6-3T17:59:17Z</time></trkpt>
<trkpt lat="45.797959" lon="1.32677"><ele></ele><time>2014-6-3T17:59:20Z</time></trkpt>
<trkpt lat="45.798007" lon="1.32667"><ele></ele><time>2014-6-3T17:59:23Z</time></trkpt>
<trkpt lat="45.798056" lon="1.326595"><ele></ele><time>2014-6-3T17:59:26Z</time></trkpt>
<trkpt lat="45.798105" lon="1.326532"><ele></ele><time>2014-6-3T17:59:29Z</time></trkpt>
<trkpt lat="45.798151" lon="1.326467"><ele></ele><time>2014-6-3T17:59:32Z</time></trkpt>
<trkpt lat="45.798194" lon="1.326412"><ele></ele><time>2014-6-3T17:59:35Z</time></trkpt>
<trkpt lat="45.798239" lon="1.326359"><ele></ele><time>2014-6-3T17:59:38Z</time></trkpt>
<trkpt lat="45.798293" lon="1.326305"><ele></ele><time>2014-6-3T17:59:41Z</time></trkpt>
<trkpt lat="45.798359" lon="1.326256"><ele></ele><time>2014-6-3T17:59:44Z</time></trkpt>
<trkpt lat="45.798417" lon="1.326236"><ele></ele><time>2014-6-3T17:59:47Z</time></trkpt>
<trkpt lat="45.798482" lon="1.326224"><ele></ele><time>2014-6-3T17:59:50Z</time></trkpt>
<trkpt lat="45.798547" lon="1.32621"><ele></ele><time>2014-6-3T17:59:53Z</time></trkpt>
<trkpt lat="45.798616" lon="1.326189"><ele></ele><time>2014-6-3T17:59:56Z</time></trkpt>
<trkpt lat="45.798677" lon="1.326158"><ele></ele><time>2014-6-3T17:59:59Z</time></trkpt>
<trkpt lat="45.798729" lon="1.326101"><ele></ele><time>2014-6-3T18:0:2Z</time></trkpt>
<trkpt lat="45.798788" lon="1.326039"><ele></ele><time>2014-6-3T18:0:5Z</time></trkpt>
<trkpt lat="45.798839" lon="1.32596"><ele></ele><time>2014-6-3T18:0:8Z</time></trkpt>
<trkpt lat="45.798898" lon="1.325859"><ele></ele><time>2014-6-3T18:0:11Z</time></trkpt>
<trkpt lat="45.798954" lon="1.325758"><ele></ele><time>2014-6-3T18:0:14Z</time></trkpt>
<trkpt lat="45.798987" lon="1.325604"><ele></ele><time>2014-6-3T18:0:17Z</time></trkpt>
<trkpt lat="45.799016" lon="1.325487"><ele></ele><time>2014-6-3T18:0:20Z</time></trkpt>
<trkpt lat="45.799053" lon="1.325376"><ele></ele><time>2014-6-3T18:0:23Z</time></trkpt>
<trkpt lat="45.799126" lon="1.32528"><ele></ele><time>2014-6-3T18:0:26Z</time></trkpt>
<trkpt lat="45.799176" lon="1.325193"><ele></ele><time>2014-6-3T18:0:29Z</time></trkpt>
<trkpt lat="45.799227" lon="1.325118"><ele></ele><time>2014-6-3T18:0:32Z</time></trkpt>
<trkpt lat="45.799303" lon="1.325007"><ele></ele><time>2014-6-3T18:0:35Z</time></trkpt>
<trkpt lat="45.799342" lon="1.32492"><ele></ele><time>2014-6-3T18:0:38Z</time></trkpt>
<trkpt lat="45.799393" lon="1.32483"><ele></ele><time>2014-6-3T18:0:41Z</time></trkpt>
<trkpt lat="45.799439" lon="1.324743"><ele></ele><time>2014-6-3T18:0:44Z</time></trkpt>
<trkpt lat="45.799487" lon="1.32465"><ele></ele><time>2014-6-3T18:0:47Z</time></trkpt>
<trkpt lat="45.799497" lon="1.32456"><ele></ele><time>2014-6-3T18:0:50Z</time></trkpt>
<trkpt lat="45.79952" lon="1.324473"><ele></ele><time>2014-6-3T18:0:53Z</time></trkpt>
<trkpt lat="45.799535" lon="1.324393"><ele></ele><time>2014-6-3T18:0:56Z</time></trkpt>
<trkpt lat="45.799561" lon="1.324324"><ele></ele><time>2014-6-3T18:0:59Z</time></trkpt>
<trkpt lat="45.799613" lon="1.324239"><ele></ele><time>2014-6-3T18:1:2Z</time></trkpt>
<trkpt lat="45.799651" lon="1.324168"><ele></ele><time>2014-6-3T18:1:5Z</time></trkpt>
<trkpt lat="45.799797" lon="1.324079"><ele></ele><time>2014-6-3T18:1:8Z</time></trkpt>
<trkpt lat="45.799877" lon="1.324"><ele></ele><time>2014-6-3T18:1:11Z</time></trkpt>
<trkpt lat="45.799961" lon="1.323902"><ele></ele><time>2014-6-3T18:1:14Z</time></trkpt>
<trkpt lat="45.800035" lon="1.323806"><ele></ele><time>2014-6-3T18:1:17Z</time></trkpt>
<trkpt lat="45.800095" lon="1.323736"><ele></ele><time>2014-6-3T18:1:20Z</time></trkpt>
<trkpt lat="45.800178" lon="1.323646"><ele></ele><time>2014-6-3T18:1:23Z</time></trkpt>
<trkpt lat="45.800274" lon="1.323603"><ele></ele><time>2014-6-3T18:1:26Z</time></trkpt>
<trkpt lat="45.800347" lon="1.32358"><ele></ele><time>2014-6-3T18:1:29Z</time></trkpt>
<trkpt lat="45.800414" lon="1.32354"><ele></ele><time>2014-6-3T18:1:32Z</time></trkpt>
<trkpt lat="45.800466" lon="1.323506"><ele></ele><time>2014-6-3T18:1:35Z</time></trkpt>
<trkpt lat="45.800529" lon="1.323444"><ele></ele><time>2014-6-3T18:1:38Z</time></trkpt>
<trkpt lat="45.800565" lon="1.323398"><ele></ele><time>2014-6-3T18:1:41Z</time></trkpt>
<trkpt lat="45.800619" lon="1.323348"><ele></ele><time>2014-6-3T18:1:44Z</time></trkpt>
<trkpt lat="45.800672" lon="1.323289"><ele></ele><time>2014-6-3T18:1:47Z</time></trkpt>
<trkpt lat="45.800738" lon="1.323233"><ele></ele><time>2014-6-3T18:1:50Z</time></trkpt>
<trkpt lat="45.800787" lon="1.323174"><ele></ele><time>2014-6-3T18:1:53Z</time></trkpt>
<trkpt lat="45.800849" lon="1.323112"><ele></ele><time>2014-6-3T18:1:56Z</time></trkpt>
<trkpt lat="45.800942" lon="1.323066"><ele></ele><time>2014-6-3T18:1:59Z</time></trkpt>
<trkpt lat="45.800996" lon="1.323023"><ele></ele><time>2014-6-3T18:2:2Z</time></trkpt>
<trkpt lat="45.801039" lon="1.32299"><ele></ele><time>2014-6-3T18:2:5Z</time></trkpt>
<trkpt lat="45.801111" lon="1.322928"><ele></ele><time>2014-6-3T18:2:8Z</time></trkpt>
<trkpt lat="45.801151" lon="1.322886"><ele></ele><time>2014-6-3T18:2:11Z</time></trkpt>
<trkpt lat="45.801208" lon="1.322794"><ele></ele><time>2014-6-3T18:2:14Z</time></trkpt>
<trkpt lat="45.801271" lon="1.322702"><ele></ele><time>2014-6-3T18:2:17Z</time></trkpt>
<trkpt lat="45.801304" lon="1.322653"><ele></ele><time>2014-6-3T18:2:20Z</time></trkpt>
<trkpt lat="45.801348" lon="1.322587"><ele></ele><time>2014-6-3T18:2:23Z</time></trkpt>
<trkpt lat="45.801381" lon="1.322526"><ele></ele><time>2014-6-3T18:2:26Z</time></trkpt>
<trkpt lat="45.801452" lon="1.322418"><ele></ele><time>2014-6-3T18:2:29Z</time></trkpt>
<trkpt lat="45.801497" lon="1.32235"><ele></ele><time>2014-6-3T18:2:32Z</time></trkpt>
<trkpt lat="45.801534" lon="1.322284"><ele></ele><time>2014-6-3T18:2:35Z</time></trkpt>
<trkpt lat="45.801582" lon="1.322215"><ele></ele><time>2014-6-3T18:2:38Z</time></trkpt>
<trkpt lat="45.80162" lon="1.322143"><ele></ele><time>2014-6-3T18:2:41Z</time></trkpt>
<trkpt lat="45.801662" lon="1.322082"><ele></ele><time>2014-6-3T18:2:44Z</time></trkpt>
<trkpt lat="45.801706" lon="1.32203"><ele></ele><time>2014-6-3T18:2:47Z</time></trkpt>
<trkpt lat="45.801749" lon="1.321967"><ele></ele><time>2014-6-3T18:2:50Z</time></trkpt>
<trkpt lat="45.80179" lon="1.321901"><ele></ele><time>2014-6-3T18:2:53Z</time></trkpt>
<trkpt lat="45.80183" lon="1.321837"><ele></ele><time>2014-6-3T18:2:56Z</time></trkpt>
<trkpt lat="45.801867" lon="1.321774"><ele></ele><time>2014-6-3T18:2:59Z</time></trkpt>
<trkpt lat="45.801903" lon="1.321711"><ele></ele><time>2014-6-3T18:3:2Z</time></trkpt>
<trkpt lat="45.801954" lon="1.321596"><ele></ele><time>2014-6-3T18:3:5Z</time></trkpt>
<trkpt lat="45.801983" lon="1.321533"><ele></ele><time>2014-6-3T18:3:8Z</time></trkpt>
<trkpt lat="45.802008" lon="1.321473"><ele></ele><time>2014-6-3T18:3:11Z</time></trkpt>
<trkpt lat="45.802022" lon="1.32141"><ele></ele><time>2014-6-3T18:3:14Z</time></trkpt>
<trkpt lat="45.802041" lon="1.321346"><ele></ele><time>2014-6-3T18:3:17Z</time></trkpt>
<trkpt lat="45.802062" lon="1.321275"><ele></ele><time>2014-6-3T18:3:20Z</time></trkpt>
<trkpt lat="45.802101" lon="1.321197"><ele></ele><time>2014-6-3T18:3:23Z</time></trkpt>
<trkpt lat="45.802125" lon="1.321156"><ele></ele><time>2014-6-3T18:3:26Z</time></trkpt>
<trkpt lat="45.802159" lon="1.321127"><ele></ele><time>2014-6-3T18:3:29Z</time></trkpt>
<trkpt lat="45.802178" lon="1.321134"><ele></ele><time>2014-6-3T18:3:32Z</time></trkpt>
<trkpt lat="45.802219" lon="1.321214"><ele></ele><time>2014-6-3T18:3:35Z</time></trkpt>
<trkpt lat="45.802213" lon="1.321281"><ele></ele><time>2014-6-3T18:3:38Z</time></trkpt>
<trkpt lat="45.802213" lon="1.321347"><ele></ele><time>2014-6-3T18:3:41Z</time></trkpt>
<trkpt lat="45.802217" lon="1.321475"><ele></ele><time>2014-6-3T18:3:44Z</time></trkpt>
<trkpt lat="45.802221" lon="1.321544"><ele></ele><time>2014-6-3T18:3:47Z</time></trkpt>
<trkpt lat="45.802215" lon="1.321609"><ele></ele><time>2014-6-3T18:3:50Z</time></trkpt>
<trkpt lat="45.802224" lon="1.321685"><ele></ele><time>2014-6-3T18:3:53Z</time></trkpt>
<trkpt lat="45.802233" lon="1.321765"><ele></ele><time>2014-6-3T18:3:56Z</time></trkpt>
<trkpt lat="45.802254" lon="1.321847"><ele></ele><time>2014-6-3T18:3:59Z</time></trkpt>
<trkpt lat="45.802267" lon="1.321931"><ele></ele><time>2014-6-3T18:4:2Z</time></trkpt>
<trkpt lat="45.80228" lon="1.322017"><ele></ele><time>2014-6-3T18:4:5Z</time></trkpt>
<trkpt lat="45.802289" lon="1.322115"><ele></ele><time>2014-6-3T18:4:8Z</time></trkpt>
<trkpt lat="45.802289" lon="1.322206"><ele></ele><time>2014-6-3T18:4:11Z</time></trkpt>
<trkpt lat="45.802295" lon="1.322308"><ele></ele><time>2014-6-3T18:4:14Z</time></trkpt>
<trkpt lat="45.802313" lon="1.322408"><ele></ele><time>2014-6-3T18:4:17Z</time></trkpt>
<trkpt lat="45.802323" lon="1.322501"><ele></ele><time>2014-6-3T18:4:20Z</time></trkpt>
<trkpt lat="45.802316" lon="1.322594"><ele></ele><time>2014-6-3T18:4:23Z</time></trkpt>
<trkpt lat="45.802334" lon="1.322677"><ele></ele><time>2014-6-3T18:4:26Z</time></trkpt>
<trkpt lat="45.802347" lon="1.322767"><ele></ele><time>2014-6-3T18:4:29Z</time></trkpt>
<trkpt lat="45.802363" lon="1.322862"><ele></ele><time>2014-6-3T18:4:32Z</time></trkpt>
<trkpt lat="45.802378" lon="1.322961"><ele></ele><time>2014-6-3T18:4:35Z</time></trkpt>
<trkpt lat="45.802431" lon="1.32305"><ele></ele><time>2014-6-3T18:4:38Z</time></trkpt>
<trkpt lat="45.802454" lon="1.323149"><ele></ele><time>2014-6-3T18:4:41Z</time></trkpt>
<trkpt lat="45.802496" lon="1.323243"><ele></ele><time>2014-6-3T18:4:44Z</time></trkpt>
<trkpt lat="45.802528" lon="1.323335"><ele></ele><time>2014-6-3T18:4:47Z</time></trkpt>
<trkpt lat="45.802569" lon="1.323417"><ele></ele><time>2014-6-3T18:4:50Z</time></trkpt>
<trkpt lat="45.802605" lon="1.323502"><ele></ele><time>2014-6-3T18:4:53Z</time></trkpt>
<trkpt lat="45.802633" lon="1.323578"><ele></ele><time>2014-6-3T18:4:56Z</time></trkpt>
<trkpt lat="45.802667" lon="1.323655"><ele></ele><time>2014-6-3T18:4:59Z</time></trkpt>
<trkpt lat="45.802701" lon="1.323725"><ele></ele><time>2014-6-3T18:5:2Z</time></trkpt>
<trkpt lat="45.802729" lon="1.323791"><ele></ele><time>2014-6-3T18:5:5Z</time></trkpt>
<trkpt lat="45.802766" lon="1.323854"><ele></ele><time>2014-6-3T18:5:8Z</time></trkpt>
<trkpt lat="45.802811" lon="1.323881"><ele></ele><time>2014-6-3T18:5:11Z</time></trkpt>
<trkpt lat="45.802855" lon="1.323923"><ele></ele><time>2014-6-3T18:5:14Z</time></trkpt>
<trkpt lat="45.8029" lon="1.323943"><ele></ele><time>2014-6-3T18:5:17Z</time></trkpt>
<trkpt lat="45.802957" lon="1.323907"><ele></ele><time>2014-6-3T18:5:20Z</time></trkpt>
<trkpt lat="45.802952" lon="1.323826"><ele></ele><time>2014-6-3T18:5:23Z</time></trkpt>
<trkpt lat="45.80295" lon="1.323729"><ele></ele><time>2014-6-3T18:5:26Z</time></trkpt>
<trkpt lat="45.803001" lon="1.323671"><ele></ele><time>2014-6-3T18:5:29Z</time></trkpt>
<trkpt lat="45.80306" lon="1.323595"><ele></ele><time>2014-6-3T18:5:32Z</time></trkpt>
<trkpt lat="45.803116" lon="1.323539"><ele></ele><time>2014-6-3T18:5:35Z</time></trkpt>
<trkpt lat="45.803159" lon="1.323475"><ele></ele><time>2014-6-3T18:5:38Z</time></trkpt>
<trkpt lat="45.803215" lon="1.323409"><ele></ele><time>2014-6-3T18:5:41Z</time></trkpt>
<trkpt lat="45.803275" lon="1.323328"><ele></ele><time>2014-6-3T18:5:44Z</time></trkpt>
<trkpt lat="45.803334" lon="1.323244"><ele></ele><time>2014-6-3T18:5:47Z</time></trkpt>
<trkpt lat="45.80337" lon="1.3232"><ele></ele><time>2014-6-3T18:5:50Z</time></trkpt>
<trkpt lat="45.803438" lon="1.323117"><ele></ele><time>2014-6-3T18:5:53Z</time></trkpt>
<trkpt lat="45.803498" lon="1.323029"><ele></ele><time>2014-6-3T18:5:56Z</time></trkpt>
<trkpt lat="45.803556" lon="1.322931"><ele></ele><time>2014-6-3T18:5:59Z</time></trkpt>
<trkpt lat="45.803617" lon="1.322842"><ele></ele><time>2014-6-3T18:6:2Z</time></trkpt>
<trkpt lat="45.803662" lon="1.322747"><ele></ele><time>2014-6-3T18:6:5Z</time></trkpt>
<trkpt lat="45.803716" lon="1.322655"><ele></ele><time>2014-6-3T18:6:8Z</time></trkpt>
<trkpt lat="45.803752" lon="1.322568"><ele></ele><time>2014-6-3T18:6:11Z</time></trkpt>
<trkpt lat="45.803794" lon="1.322461"><ele></ele><time>2014-6-3T18:6:14Z</time></trkpt>
<trkpt lat="45.803809" lon="1.322393"><ele></ele><time>2014-6-3T18:6:17Z</time></trkpt>
<trkpt lat="45.803839" lon="1.322278"><ele></ele><time>2014-6-3T18:6:20Z</time></trkpt>
<trkpt lat="45.803885" lon="1.32217"><ele></ele><time>2014-6-3T18:6:23Z</time></trkpt>
<trkpt lat="45.803918" lon="1.322121"><ele></ele><time>2014-6-3T18:6:26Z</time></trkpt>
<trkpt lat="45.803957" lon="1.32201"><ele></ele><time>2014-6-3T18:6:29Z</time></trkpt>
<trkpt lat="45.803998" lon="1.321934"><ele></ele><time>2014-6-3T18:6:32Z</time></trkpt>
<trkpt lat="45.804036" lon="1.321874"><ele></ele><time>2014-6-3T18:6:35Z</time></trkpt>
<trkpt lat="45.804055" lon="1.321805"><ele></ele><time>2014-6-3T18:6:38Z</time></trkpt>
<trkpt lat="45.804084" lon="1.321743"><ele></ele><time>2014-6-3T18:6:41Z</time></trkpt>
<trkpt lat="45.804119" lon="1.321674"><ele></ele><time>2014-6-3T18:6:44Z</time></trkpt>
<trkpt lat="45.804195" lon="1.321564"><ele></ele><time>2014-6-3T18:6:47Z</time></trkpt>
<trkpt lat="45.804259" lon="1.321503"><ele></ele><time>2014-6-3T18:6:50Z</time></trkpt>
<trkpt lat="45.804295" lon="1.321383"><ele></ele><time>2014-6-3T18:6:53Z</time></trkpt>
<trkpt lat="45.804326" lon="1.321327"><ele></ele><time>2014-6-3T18:6:56Z</time></trkpt>
<trkpt lat="45.804394" lon="1.321231"><ele></ele><time>2014-6-3T18:6:59Z</time></trkpt>
<trkpt lat="45.804435" lon="1.321185"><ele></ele><time>2014-6-3T18:7:2Z</time></trkpt>
<trkpt lat="45.804473" lon="1.321147"><ele></ele><time>2014-6-3T18:7:5Z</time></trkpt>
<trkpt lat="45.804517" lon="1.321069"><ele></ele><time>2014-6-3T18:7:8Z</time></trkpt>
<trkpt lat="45.804566" lon="1.321013"><ele></ele><time>2014-6-3T18:7:11Z</time></trkpt>
<trkpt lat="45.804605" lon="1.32096"><ele></ele><time>2014-6-3T18:7:14Z</time></trkpt>
<trkpt lat="45.80465" lon="1.320929"><ele></ele><time>2014-6-3T18:7:17Z</time></trkpt>
<trkpt lat="45.804721" lon="1.320872"><ele></ele><time>2014-6-3T18:7:20Z</time></trkpt>
<trkpt lat="45.804762" lon="1.320842"><ele></ele><time>2014-6-3T18:7:23Z</time></trkpt>
<trkpt lat="45.804818" lon="1.32075"><ele></ele><time>2014-6-3T18:7:26Z</time></trkpt>
<trkpt lat="45.804862" lon="1.320655"><ele></ele><time>2014-6-3T18:7:29Z</time></trkpt>
<trkpt lat="45.804899" lon="1.320613"><ele></ele><time>2014-6-3T18:7:32Z</time></trkpt>
<trkpt lat="45.804943" lon="1.320576"><ele></ele><time>2014-6-3T18:7:35Z</time></trkpt>
<trkpt lat="45.805002" lon="1.320505"><ele></ele><time>2014-6-3T18:7:38Z</time></trkpt>
<trkpt lat="45.80507" lon="1.320429"><ele></ele><time>2014-6-3T18:7:41Z</time></trkpt>
<trkpt lat="45.805145" lon="1.320398"><ele></ele><time>2014-6-3T18:7:44Z</time></trkpt>
<trkpt lat="45.805217" lon="1.320373"><ele></ele><time>2014-6-3T18:7:47Z</time></trkpt>
<trkpt lat="45.805266" lon="1.320346"><ele></ele><time>2014-6-3T18:7:50Z</time></trkpt>
<trkpt lat="45.80532" lon="1.320343"><ele></ele><time>2014-6-3T18:7:53Z</time></trkpt>
<trkpt lat="45.80539" lon="1.320362"><ele></ele><time>2014-6-3T18:7:56Z</time></trkpt>
<trkpt lat="45.80544" lon="1.320413"><ele></ele><time>2014-6-3T18:7:59Z</time></trkpt>
<trkpt lat="45.805498" lon="1.320469"><ele></ele><time>2014-6-3T18:8:2Z</time></trkpt>
<trkpt lat="45.805535" lon="1.320545"><ele></ele><time>2014-6-3T18:8:5Z</time></trkpt>
<trkpt lat="45.805567" lon="1.320622"><ele></ele><time>2014-6-3T18:8:8Z</time></trkpt>
<trkpt lat="45.805606" lon="1.320675"><ele></ele><time>2014-6-3T18:8:11Z</time></trkpt>
<trkpt lat="45.805638" lon="1.320735"><ele></ele><time>2014-6-3T18:8:14Z</time></trkpt>
<trkpt lat="45.805663" lon="1.320806"><ele></ele><time>2014-6-3T18:8:17Z</time></trkpt>
<trkpt lat="45.805667" lon="1.320882"><ele></ele><time>2014-6-3T18:8:20Z</time></trkpt>
<trkpt lat="45.805711" lon="1.321007"><ele></ele><time>2014-6-3T18:8:23Z</time></trkpt>
<trkpt lat="45.805732" lon="1.321077"><ele></ele><time>2014-6-3T18:8:26Z</time></trkpt>
<trkpt lat="45.80576" lon="1.321165"><ele></ele><time>2014-6-3T18:8:29Z</time></trkpt>
<trkpt lat="45.805788" lon="1.321242"><ele></ele><time>2014-6-3T18:8:32Z</time></trkpt>
<trkpt lat="45.805802" lon="1.321325"><ele></ele><time>2014-6-3T18:8:35Z</time></trkpt>
<trkpt lat="45.805837" lon="1.321376"><ele></ele><time>2014-6-3T18:8:38Z</time></trkpt>
<trkpt lat="45.805844" lon="1.321448"><ele></ele><time>2014-6-3T18:8:41Z</time></trkpt>
<trkpt lat="45.80586" lon="1.321524"><ele></ele><time>2014-6-3T18:8:44Z</time></trkpt>
<trkpt lat="45.805885" lon="1.321593"><ele></ele><time>2014-6-3T18:8:47Z</time></trkpt>
<trkpt lat="45.805914" lon="1.321656"><ele></ele><time>2014-6-3T18:8:50Z</time></trkpt>
<trkpt lat="45.805937" lon="1.321727"><ele></ele><time>2014-6-3T18:8:53Z</time></trkpt>
<trkpt lat="45.805962" lon="1.321804"><ele></ele><time>2014-6-3T18:8:56Z</time></trkpt>
<trkpt lat="45.805983" lon="1.321894"><ele></ele><time>2014-6-3T18:8:59Z</time></trkpt>
<trkpt lat="45.806011" lon="1.32196"><ele></ele><time>2014-6-3T18:9:2Z</time></trkpt>
<trkpt lat="45.80603" lon="1.322021"><ele></ele><time>2014-6-3T18:9:5Z</time></trkpt>
<trkpt lat="45.806051" lon="1.322093"><ele></ele><time>2014-6-3T18:9:8Z</time></trkpt>
<trkpt lat="45.806083" lon="1.322204"><ele></ele><time>2014-6-3T18:9:11Z</time></trkpt>
<trkpt lat="45.806112" lon="1.322297"><ele></ele><time>2014-6-3T18:9:14Z</time></trkpt>
<trkpt lat="45.806154" lon="1.322341"><ele></ele><time>2014-6-3T18:9:17Z</time></trkpt>
<trkpt lat="45.806196" lon="1.322372"><ele></ele><time>2014-6-3T18:9:20Z</time></trkpt>
<trkpt lat="45.806255" lon="1.322418"><ele></ele><time>2014-6-3T18:9:23Z</time></trkpt>
<trkpt lat="45.806317" lon="1.322449"><ele></ele><time>2014-6-3T18:9:26Z</time></trkpt>
<trkpt lat="45.806365" lon="1.32242"><ele></ele><time>2014-6-3T18:9:29Z</time></trkpt>
<trkpt lat="45.806421" lon="1.32242"><ele></ele><time>2014-6-3T18:9:32Z</time></trkpt>
<trkpt lat="45.806481" lon="1.322416"><ele></ele><time>2014-6-3T18:9:35Z</time></trkpt>
<trkpt lat="45.806532" lon="1.322395"><ele></ele><time>2014-6-3T18:9:38Z</time></trkpt>
<trkpt lat="45.80658" lon="1.322372"><ele></ele><time>2014-6-3T18:9:41Z</time></trkpt>
<trkpt lat="45.806623" lon="1.322342"><ele></ele><time>2014-6-3T18:9:44Z</time></trkpt>
<trkpt lat="45.806675" lon="1.32232"><ele></ele><time>2014-6-3T18:9:47Z</time></trkpt>
<trkpt lat="45.806729" lon="1.322292"><ele></ele><time>2014-6-3T18:9:50Z</time></trkpt>
<trkpt lat="45.806782" lon="1.32223"><ele></ele><time>2014-6-3T18:9:53Z</time></trkpt>
<trkpt lat="45.806818" lon="1.32219"><ele></ele><time>2014-6-3T18:9:56Z</time></trkpt>
<trkpt lat="45.806875" lon="1.322169"><ele></ele><time>2014-6-3T18:9:59Z</time></trkpt>
<trkpt lat="45.806933" lon="1.322133"><ele></ele><time>2014-6-3T18:10:2Z</time></trkpt>
<trkpt lat="45.806979" lon="1.322101"><ele></ele><time>2014-6-3T18:10:5Z</time></trkpt>
<trkpt lat="45.807059" lon="1.322032"><ele></ele><time>2014-6-3T18:10:8Z</time></trkpt>
<trkpt lat="45.807088" lon="1.321961"><ele></ele><time>2014-6-3T18:10:11Z</time></trkpt>
<trkpt lat="45.807123" lon="1.321892"><ele></ele><time>2014-6-3T18:10:14Z</time></trkpt>
<trkpt lat="45.807168" lon="1.321851"><ele></ele><time>2014-6-3T18:10:17Z</time></trkpt>
<trkpt lat="45.807239" lon="1.32179"><ele></ele><time>2014-6-3T18:10:20Z</time></trkpt>
<trkpt lat="45.807269" lon="1.321695"><ele></ele><time>2014-6-3T18:10:23Z</time></trkpt>
<trkpt lat="45.807331" lon="1.321687"><ele></ele><time>2014-6-3T18:10:26Z</time></trkpt>
<trkpt lat="45.807396" lon="1.321689"><ele></ele><time>2014-6-3T18:10:29Z</time></trkpt>
<trkpt lat="45.807455" lon="1.321623"><ele></ele><time>2014-6-3T18:10:32Z</time></trkpt>
<trkpt lat="45.807481" lon="1.321568"><ele></ele><time>2014-6-3T18:10:35Z</time></trkpt>
<trkpt lat="45.807533" lon="1.321508"><ele></ele><time>2014-6-3T18:10:38Z</time></trkpt>
<trkpt lat="45.807586" lon="1.321496"><ele></ele><time>2014-6-3T18:10:41Z</time></trkpt>
<trkpt lat="45.807632" lon="1.321465"><ele></ele><time>2014-6-3T18:10:44Z</time></trkpt>
<trkpt lat="45.807674" lon="1.321434"><ele></ele><time>2014-6-3T18:10:47Z</time></trkpt>
<trkpt lat="45.807725" lon="1.321395"><ele></ele><time>2014-6-3T18:10:50Z</time></trkpt>
<trkpt lat="45.807774" lon="1.321351"><ele></ele><time>2014-6-3T18:10:53Z</time></trkpt>
<trkpt lat="45.807829" lon="1.321315"><ele></ele><time>2014-6-3T18:10:56Z</time></trkpt>
<trkpt lat="45.80791" lon="1.321302"><ele></ele><time>2014-6-3T18:10:59Z</time></trkpt>
<trkpt lat="45.807978" lon="1.321252"><ele></ele><time>2014-6-3T18:11:2Z</time></trkpt>
<trkpt lat="45.808017" lon="1.321199"><ele></ele><time>2014-6-3T18:11:5Z</time></trkpt>
<trkpt lat="45.808047" lon="1.321137"><ele></ele><time>2014-6-3T18:11:8Z</time></trkpt>
<trkpt lat="45.808093" lon="1.321066"><ele></ele><time>2014-6-3T18:11:11Z</time></trkpt>
<trkpt lat="45.808165" lon="1.321053"><ele></ele><time>2014-6-3T18:11:14Z</time></trkpt>
<trkpt lat="45.808226" lon="1.321115"><ele></ele><time>2014-6-3T18:11:17Z</time></trkpt>
<trkpt lat="45.808265" lon="1.321185"><ele></ele><time>2014-6-3T18:11:20Z</time></trkpt>
<trkpt lat="45.808288" lon="1.321253"><ele></ele><time>2014-6-3T18:11:23Z</time></trkpt>
<trkpt lat="45.808302" lon="1.321315"><ele></ele><time>2014-6-3T18:11:26Z</time></trkpt>
<trkpt lat="45.808343" lon="1.321347"><ele></ele><time>2014-6-3T18:11:29Z</time></trkpt>
<trkpt lat="45.80839" lon="1.321334"><ele></ele><time>2014-6-3T18:11:32Z</time></trkpt>
<trkpt lat="45.808438" lon="1.321306"><ele></ele><time>2014-6-3T18:11:35Z</time></trkpt>
<trkpt lat="45.808479" lon="1.321272"><ele></ele><time>2014-6-3T18:11:38Z</time></trkpt>
<trkpt lat="45.808528" lon="1.321242"><ele></ele><time>2014-6-3T18:11:41Z</time></trkpt>
<trkpt lat="45.80858" lon="1.321214"><ele></ele><time>2014-6-3T18:11:44Z</time></trkpt>
<trkpt lat="45.808638" lon="1.321199"><ele></ele><time>2014-6-3T18:11:47Z</time></trkpt>
<trkpt lat="45.8087" lon="1.321177"><ele></ele><time>2014-6-3T18:11:50Z</time></trkpt>
<trkpt lat="45.808745" lon="1.321142"><ele></ele><time>2014-6-3T18:11:53Z</time></trkpt>
<trkpt lat="45.8088" lon="1.321117"><ele></ele><time>2014-6-3T18:11:56Z</time></trkpt>
<trkpt lat="45.808847" lon="1.321145"><ele></ele><time>2014-6-3T18:11:59Z</time></trkpt>
<trkpt lat="45.80891" lon="1.321172"><ele></ele><time>2014-6-3T18:12:2Z</time></trkpt>
<trkpt lat="45.808954" lon="1.321197"><ele></ele><time>2014-6-3T18:12:5Z</time></trkpt>
<trkpt lat="45.808992" lon="1.321296"><ele></ele><time>2014-6-3T18:12:8Z</time></trkpt>
<trkpt lat="45.809009" lon="1.321375"><ele></ele><time>2014-6-3T18:12:11Z</time></trkpt>
<trkpt lat="45.80906" lon="1.321443"><ele></ele><time>2014-6-3T18:12:14Z</time></trkpt>
<trkpt lat="45.809095" lon="1.321515"><ele></ele><time>2014-6-3T18:12:17Z</time></trkpt>
<trkpt lat="45.809113" lon="1.321574"><ele></ele><time>2014-6-3T18:12:20Z</time></trkpt>
<trkpt lat="45.809144" lon="1.321636"><ele></ele><time>2014-6-3T18:12:23Z</time></trkpt>
<trkpt lat="45.809158" lon="1.321703"><ele></ele><time>2014-6-3T18:12:26Z</time></trkpt>
<trkpt lat="45.809181" lon="1.321773"><ele></ele><time>2014-6-3T18:12:29Z</time></trkpt>
<trkpt lat="45.809206" lon="1.321838"><ele></ele><time>2014-6-3T18:12:32Z</time></trkpt>
<trkpt lat="45.809242" lon="1.321904"><ele></ele><time>2014-6-3T18:12:35Z</time></trkpt>
<trkpt lat="45.809274" lon="1.321972"><ele></ele><time>2014-6-3T18:12:38Z</time></trkpt>
<trkpt lat="45.809314" lon="1.32201"><ele></ele><time>2014-6-3T18:12:41Z</time></trkpt>
<trkpt lat="45.809358" lon="1.322039"><ele></ele><time>2014-6-3T18:12:44Z</time></trkpt>
<trkpt lat="45.809411" lon="1.322071"><ele></ele><time>2014-6-3T18:12:47Z</time></trkpt>
<trkpt lat="45.809474" lon="1.322097"><ele></ele><time>2014-6-3T18:12:50Z</time></trkpt>
<trkpt lat="45.809537" lon="1.322127"><ele></ele><time>2014-6-3T18:12:53Z</time></trkpt>
<trkpt lat="45.809594" lon="1.322149"><ele></ele><time>2014-6-3T18:12:56Z</time></trkpt>
<trkpt lat="45.809654" lon="1.322179"><ele></ele><time>2014-6-3T18:12:59Z</time></trkpt>
<trkpt lat="45.809717" lon="1.322196"><ele></ele><time>2014-6-3T18:13:2Z</time></trkpt>
<trkpt lat="45.809764" lon="1.322194"><ele></ele><time>2014-6-3T18:13:5Z</time></trkpt>
<trkpt lat="45.809888" lon="1.322208"><ele></ele><time>2014-6-3T18:13:8Z</time></trkpt>
<trkpt lat="45.809933" lon="1.322212"><ele></ele><time>2014-6-3T18:13:11Z</time></trkpt>
<trkpt lat="45.809979" lon="1.322205"><ele></ele><time>2014-6-3T18:13:14Z</time></trkpt>
<trkpt lat="45.810027" lon="1.322202"><ele></ele><time>2014-6-3T18:13:17Z</time></trkpt>
<trkpt lat="45.81008" lon="1.322203"><ele></ele><time>2014-6-3T18:13:20Z</time></trkpt>
<trkpt lat="45.810126" lon="1.322205"><ele></ele><time>2014-6-3T18:13:23Z</time></trkpt>
<trkpt lat="45.810178" lon="1.322206"><ele></ele><time>2014-6-3T18:13:26Z</time></trkpt>
<trkpt lat="45.810223" lon="1.322201"><ele></ele><time>2014-6-3T18:13:29Z</time></trkpt>
<trkpt lat="45.810271" lon="1.322202"><ele></ele><time>2014-6-3T18:13:32Z</time></trkpt>
<trkpt lat="45.810317" lon="1.322228"><ele></ele><time>2014-6-3T18:13:35Z</time></trkpt>
<trkpt lat="45.810361" lon="1.322244"><ele></ele><time>2014-6-3T18:13:38Z</time></trkpt>
<trkpt lat="45.810438" lon="1.32225"><ele></ele><time>2014-6-3T18:13:41Z</time></trkpt>
<trkpt lat="45.810517" lon="1.322293"><ele></ele><time>2014-6-3T18:13:44Z</time></trkpt>
<trkpt lat="45.810558" lon="1.322332"><ele></ele><time>2014-6-3T18:13:47Z</time></trkpt>
<trkpt lat="45.810635" lon="1.322369"><ele></ele><time>2014-6-3T18:13:50Z</time></trkpt>
<trkpt lat="45.810713" lon="1.322385"><ele></ele><time>2014-6-3T18:13:53Z</time></trkpt>
<trkpt lat="45.810802" lon="1.322413"><ele></ele><time>2014-6-3T18:13:56Z</time></trkpt>
<trkpt lat="45.810868" lon="1.322475"><ele></ele><time>2014-6-3T18:13:59Z</time></trkpt>
<trkpt lat="45.810945" lon="1.322538"><ele></ele><time>2014-6-3T18:14:2Z</time></trkpt>
<trkpt lat="45.810984" lon="1.322574"><ele></ele><time>2014-6-3T18:14:5Z</time></trkpt>
<trkpt lat="45.811036" lon="1.322615"><ele></ele><time>2014-6-3T18:14:8Z</time></trkpt>
<trkpt lat="45.811099" lon="1.322693"><ele></ele><time>2014-6-3T18:14:11Z</time></trkpt>
<trkpt lat="45.811131" lon="1.322738"><ele></ele><time>2014-6-3T18:14:14Z</time></trkpt>
<trkpt lat="45.81117" lon="1.322777"><ele></ele><time>2014-6-3T18:14:17Z</time></trkpt>
<trkpt lat="45.811232" lon="1.322861"><ele></ele><time>2014-6-3T18:14:20Z</time></trkpt>
<trkpt lat="45.811269" lon="1.322907"><ele></ele><time>2014-6-3T18:14:23Z</time></trkpt>
<trkpt lat="45.811317" lon="1.32298"><ele></ele><time>2014-6-3T18:14:26Z</time></trkpt>
<trkpt lat="45.811374" lon="1.323042"><ele></ele><time>2014-6-3T18:14:29Z</time></trkpt>
<trkpt lat="45.811411" lon="1.323096"><ele></ele><time>2014-6-3T18:14:32Z</time></trkpt>
<trkpt lat="45.811444" lon="1.32315"><ele></ele><time>2014-6-3T18:14:35Z</time></trkpt>
<trkpt lat="45.811482" lon="1.323234"><ele></ele><time>2014-6-3T18:14:38Z</time></trkpt>
<trkpt lat="45.811508" lon="1.323314"><ele></ele><time>2014-6-3T18:14:41Z</time></trkpt>
<trkpt lat="45.81153" lon="1.323397"><ele></ele><time>2014-6-3T18:14:44Z</time></trkpt>
<trkpt lat="45.811517" lon="1.32349"><ele></ele><time>2014-6-3T18:14:47Z</time></trkpt>
<trkpt lat="45.81152" lon="1.323558"><ele></ele><time>2014-6-3T18:14:50Z</time></trkpt>
<trkpt lat="45.811513" lon="1.323628"><ele></ele><time>2014-6-3T18:14:53Z</time></trkpt>
<trkpt lat="45.811522" lon="1.323693"><ele></ele><time>2014-6-3T18:14:56Z</time></trkpt>
<trkpt lat="45.811559" lon="1.323745"><ele></ele><time>2014-6-3T18:14:59Z</time></trkpt>
<trkpt lat="45.811569" lon="1.32381"><ele></ele><time>2014-6-3T18:15:2Z</time></trkpt>
<trkpt lat="45.811548" lon="1.323906"><ele></ele><time>2014-6-3T18:15:5Z</time></trkpt>
<trkpt lat="45.811525" lon="1.323994"><ele></ele><time>2014-6-3T18:15:8Z</time></trkpt>
<trkpt lat="45.811497" lon="1.324077"><ele></ele><time>2014-6-3T18:15:11Z</time></trkpt>
<trkpt lat="45.811474" lon="1.324144"><ele></ele><time>2014-6-3T18:15:14Z</time></trkpt>
<trkpt lat="45.811467" lon="1.32422"><ele></ele><time>2014-6-3T18:15:17Z</time></trkpt>
<trkpt lat="45.811495" lon="1.324275"><ele></ele><time>2014-6-3T18:15:20Z</time></trkpt>
<trkpt lat="45.811558" lon="1.32431"><ele></ele><time>2014-6-3T18:15:23Z</time></trkpt>
<trkpt lat="45.811607" lon="1.324325"><ele></ele><time>2014-6-3T18:15:26Z</time></trkpt>
<trkpt lat="45.811681" lon="1.324301"><ele></ele><time>2014-6-3T18:15:29Z</time></trkpt>
<trkpt lat="45.811742" lon="1.324237"><ele></ele><time>2014-6-3T18:15:32Z</time></trkpt>
<trkpt lat="45.811781" lon="1.324195"><ele></ele><time>2014-6-3T18:15:35Z</time></trkpt>
<trkpt lat="45.811823" lon="1.324155"><ele></ele><time>2014-6-3T18:15:38Z</time></trkpt>
<trkpt lat="45.811897" lon="1.324133"><ele></ele><time>2014-6-3T18:15:41Z</time></trkpt>
<trkpt lat="45.811953" lon="1.324108"><ele></ele><time>2014-6-3T18:15:44Z</time></trkpt>
<trkpt lat="45.812011" lon="1.324062"><ele></ele><time>2014-6-3T18:15:47Z</time></trkpt>
<trkpt lat="45.812066" lon="1.324022"><ele></ele><time>2014-6-3T18:15:50Z</time></trkpt>
<trkpt lat="45.812116" lon="1.323977"><ele></ele><time>2014-6-3T18:15:53Z</time></trkpt>
<trkpt lat="45.812169" lon="1.323938"><ele></ele><time>2014-6-3T18:15:56Z</time></trkpt>
<trkpt lat="45.812213" lon="1.3239"><ele></ele><time>2014-6-3T18:15:59Z</time></trkpt>
<trkpt lat="45.812271" lon="1.323858"><ele></ele><time>2014-6-3T18:16:2Z</time></trkpt>
<trkpt lat="45.812323" lon="1.323825"><ele></ele><time>2014-6-3T18:16:5Z</time></trkpt>
<trkpt lat="45.812389" lon="1.323837"><ele></ele><time>2014-6-3T18:16:8Z</time></trkpt>
<trkpt lat="45.812443" lon="1.323824"><ele></ele><time>2014-6-3T18:16:11Z</time></trkpt>
<trkpt lat="45.812501" lon="1.32381"><ele></ele><time>2014-6-3T18:16:14Z</time></trkpt>
<trkpt lat="45.812562" lon="1.32378"><ele></ele><time>2014-6-3T18:16:17Z</time></trkpt>
<trkpt lat="45.812624" lon="1.323759"><ele></ele><time>2014-6-3T18:16:20Z</time></trkpt>
<trkpt lat="45.812683" lon="1.323731"><ele></ele><time>2014-6-3T18:16:23Z</time></trkpt>
<trkpt lat="45.812731" lon="1.323705"><ele></ele><time>2014-6-3T18:16:26Z</time></trkpt>
<trkpt lat="45.812787" lon="1.323675"><ele></ele><time>2014-6-3T18:16:29Z</time></trkpt>
<trkpt lat="45.812835" lon="1.323627"><ele></ele><time>2014-6-3T18:16:32Z</time></trkpt>
<trkpt lat="45.812883" lon="1.323558"><ele></ele><time>2014-6-3T18:16:35Z</time></trkpt>
<trkpt lat="45.81294" lon="1.323524"><ele></ele><time>2014-6-3T18:16:38Z</time></trkpt>
<trkpt lat="45.812994" lon="1.323476"><ele></ele><time>2014-6-3T18:16:41Z</time></trkpt>
<trkpt lat="45.813051" lon="1.323442"><ele></ele><time>2014-6-3T18:16:44Z</time></trkpt>
<trkpt lat="45.813107" lon="1.323394"><ele></ele><time>2014-6-3T18:16:47Z</time></trkpt>
<trkpt lat="45.813155" lon="1.323368"><ele></ele><time>2014-6-3T18:16:50Z</time></trkpt>
<trkpt lat="45.813215" lon="1.32332"><ele></ele><time>2014-6-3T18:16:53Z</time></trkpt>
<trkpt lat="45.813279" lon="1.323295"><ele></ele><time>2014-6-3T18:16:56Z</time></trkpt>
<trkpt lat="45.813318" lon="1.323331"><ele></ele><time>2014-6-3T18:16:59Z</time></trkpt>
<trkpt lat="45.813332" lon="1.323427"><ele></ele><time>2014-6-3T18:17:2Z</time></trkpt>
<trkpt lat="45.813354" lon="1.323494"><ele></ele><time>2014-6-3T18:17:5Z</time></trkpt>
<trkpt lat="45.813379" lon="1.323566"><ele></ele><time>2014-6-3T18:17:8Z</time></trkpt>
<trkpt lat="45.813391" lon="1.323636"><ele></ele><time>2014-6-3T18:17:11Z</time></trkpt>
<trkpt lat="45.813381" lon="1.323713"><ele></ele><time>2014-6-3T18:17:14Z</time></trkpt>
<trkpt lat="45.813352" lon="1.323788"><ele></ele><time>2014-6-3T18:17:17Z</time></trkpt>
<trkpt lat="45.813345" lon="1.323881"><ele></ele><time>2014-6-3T18:17:20Z</time></trkpt>
<trkpt lat="45.813338" lon="1.323964"><ele></ele><time>2014-6-3T18:17:23Z</time></trkpt>
<trkpt lat="45.813321" lon="1.324059"><ele></ele><time>2014-6-3T18:17:26Z</time></trkpt>
<trkpt lat="45.813296" lon="1.324133"><ele></ele><time>2014-6-3T18:17:29Z</time></trkpt>
<trkpt lat="45.81327" lon="1.32421"><ele></ele><time>2014-6-3T18:17:32Z</time></trkpt>
<trkpt lat="45.81325" lon="1.324272"><ele></ele><time>2014-6-3T18:17:35Z</time></trkpt>
<trkpt lat="45.813294" lon="1.324294"><ele></ele><time>2014-6-3T18:17:38Z</time></trkpt>
<trkpt lat="45.813343" lon="1.324323"><ele></ele><time>2014-6-3T18:17:41Z</time></trkpt>
<trkpt lat="45.813413" lon="1.324311"><ele></ele><time>2014-6-3T18:17:44Z</time></trkpt>
<trkpt lat="45.813479" lon="1.324264"><ele></ele><time>2014-6-3T18:17:47Z</time></trkpt>
<trkpt lat="45.813527" lon="1.324213"><ele></ele><time>2014-6-3T18:17:50Z</time></trkpt>
<trkpt lat="45.813609" lon="1.324174"><ele></ele><time>2014-6-3T18:17:53Z</time></trkpt>
<trkpt lat="45.81365" lon="1.324135"><ele></ele><time>2014-6-3T18:17:56Z</time></trkpt>
<trkpt lat="45.813728" lon="1.324084"><ele></ele><time>2014-6-3T18:17:59Z</time></trkpt>
<trkpt lat="45.813791" lon="1.324022"><ele></ele><time>2014-6-3T18:18:2Z</time></trkpt>
<trkpt lat="45.813831" lon="1.32397"><ele></ele><time>2014-6-3T18:18:5Z</time></trkpt>
<trkpt lat="45.813876" lon="1.323925"><ele></ele><time>2014-6-3T18:18:8Z</time></trkpt>
<trkpt lat="45.813926" lon="1.323887"><ele></ele><time>2014-6-3T18:18:11Z</time></trkpt>
<trkpt lat="45.813973" lon="1.323888"><ele></ele><time>2014-6-3T18:18:14Z</time></trkpt>
<trkpt lat="45.814021" lon="1.32389"><ele></ele><time>2014-6-3T18:18:17Z</time></trkpt>
<trkpt lat="45.8141" lon="1.323874"><ele></ele><time>2014-6-3T18:18:20Z</time></trkpt>
<trkpt lat="45.814178" lon="1.32388"><ele></ele><time>2014-6-3T18:18:23Z</time></trkpt>
<trkpt lat="45.814255" lon="1.323899"><ele></ele><time>2014-6-3T18:18:26Z</time></trkpt>
<trkpt lat="45.814311" lon="1.323913"><ele></ele><time>2014-6-3T18:18:29Z</time></trkpt>
<trkpt lat="45.814364" lon="1.323937"><ele></ele><time>2014-6-3T18:18:32Z</time></trkpt>
<trkpt lat="45.814425" lon="1.323956"><ele></ele><time>2014-6-3T18:18:35Z</time></trkpt>
<trkpt lat="45.814476" lon="1.323953"><ele></ele><time>2014-6-3T18:18:38Z</time></trkpt>
<trkpt lat="45.814545" lon="1.323954"><ele></ele><time>2014-6-3T18:18:41Z</time></trkpt>
<trkpt lat="45.814608" lon="1.323943"><ele></ele><time>2014-6-3T18:18:44Z</time></trkpt>
<trkpt lat="45.814675" lon="1.323949"><ele></ele><time>2014-6-3T18:18:47Z</time></trkpt>
<trkpt lat="45.814728" lon="1.323952"><ele></ele><time>2014-6-3T18:18:50Z</time></trkpt>
<trkpt lat="45.814813" lon="1.323946"><ele></ele><time>2014-6-3T18:18:53Z</time></trkpt>
<trkpt lat="45.814894" lon="1.323941"><ele></ele><time>2014-6-3T18:18:56Z</time></trkpt>
<trkpt lat="45.81494" lon="1.323949"><ele></ele><time>2014-6-3T18:18:59Z</time></trkpt>
<trkpt lat="45.814994" lon="1.323948"><ele></ele><time>2014-6-3T18:19:2Z</time></trkpt>
<trkpt lat="45.815041" lon="1.323935"><ele></ele><time>2014-6-3T18:19:5Z</time></trkpt>
<trkpt lat="45.815091" lon="1.323929"><ele></ele><time>2014-6-3T18:19:8Z</time></trkpt>
<trkpt lat="45.815145" lon="1.323921"><ele></ele><time>2014-6-3T18:19:11Z</time></trkpt>
<trkpt lat="45.815189" lon="1.3239"><ele></ele><time>2014-6-3T18:19:14Z</time></trkpt>
<trkpt lat="45.815265" lon="1.323867"><ele></ele><time>2014-6-3T18:19:17Z</time></trkpt>
<trkpt lat="45.815317" lon="1.323861"><ele></ele><time>2014-6-3T18:19:20Z</time></trkpt>
<trkpt lat="45.815389" lon="1.323816"><ele></ele><time>2014-6-3T18:19:23Z</time></trkpt>
<trkpt lat="45.815458" lon="1.323778"><ele></ele><time>2014-6-3T18:19:26Z</time></trkpt>
<trkpt lat="45.815529" lon="1.323739"><ele></ele><time>2014-6-3T18:19:29Z</time></trkpt>
<trkpt lat="45.815602" lon="1.323723"><ele></ele><time>2014-6-3T18:19:32Z</time></trkpt>
<trkpt lat="45.815691" lon="1.323673"><ele></ele><time>2014-6-3T18:19:35Z</time></trkpt>
<trkpt lat="45.815741" lon="1.323665"><ele></ele><time>2014-6-3T18:19:38Z</time></trkpt>
<trkpt lat="45.815806" lon="1.323622"><ele></ele><time>2014-6-3T18:19:41Z</time></trkpt>
<trkpt lat="45.815882" lon="1.323607"><ele></ele><time>2014-6-3T18:19:44Z</time></trkpt>
<trkpt lat="45.815958" lon="1.323587"><ele></ele><time>2014-6-3T18:19:47Z</time></trkpt>
<trkpt lat="45.816006" lon="1.323603"><ele></ele><time>2014-6-3T18:19:50Z</time></trkpt>
<trkpt lat="45.816088" lon="1.323627"><ele></ele><time>2014-6-3T18:19:53Z</time></trkpt>
<trkpt lat="45.816164" lon="1.323652"><ele></ele><time>2014-6-3T18:19:56Z</time></trkpt>
<trkpt lat="45.816238" lon="1.323697"><ele></ele><time>2014-6-3T18:19:59Z</time></trkpt>
<trkpt lat="45.816315" lon="1.323736"><ele></ele><time>2014-6-3T18:20:2Z</time></trkpt>
<trkpt lat="45.816391" lon="1.323774"><ele></ele><time>2014-6-3T18:20:5Z</time></trkpt>
<trkpt lat="45.816438" lon="1.323809"><ele></ele><time>2014-6-3T18:20:8Z</time></trkpt>
<trkpt lat="45.816501" lon="1.323853"><ele></ele><time>2014-6-3T18:20:11Z</time></trkpt>
<trkpt lat="45.816577" lon="1.323901"><ele></ele><time>2014-6-3T18:20:14Z</time></trkpt>
<trkpt lat="45.816621" lon="1.323923"><ele></ele><time>2014-6-3T18:20:17Z</time></trkpt>
<trkpt lat="45.816666" lon="1.323944"><ele></ele><time>2014-6-3T18:20:20Z</time></trkpt>
<trkpt lat="45.816751" lon="1.324003"><ele></ele><time>2014-6-3T18:20:23Z</time></trkpt>
<trkpt lat="45.816793" lon="1.324035"><ele></ele><time>2014-6-3T18:20:26Z</time></trkpt>
<trkpt lat="45.816859" lon="1.324056"><ele></ele><time>2014-6-3T18:20:29Z</time></trkpt>
<trkpt lat="45.81693" lon="1.324106"><ele></ele><time>2014-6-3T18:20:32Z</time></trkpt>
<trkpt lat="45.817025" lon="1.324166"><ele></ele><time>2014-6-3T18:20:35Z</time></trkpt>
<trkpt lat="45.817092" lon="1.324184"><ele></ele><time>2014-6-3T18:20:38Z</time></trkpt>
<trkpt lat="45.817148" lon="1.324207"><ele></ele><time>2014-6-3T18:20:41Z</time></trkpt>
<trkpt lat="45.817211" lon="1.324236"><ele></ele><time>2014-6-3T18:20:44Z</time></trkpt>
<trkpt lat="45.817259" lon="1.324238"><ele></ele><time>2014-6-3T18:20:47Z</time></trkpt>
<trkpt lat="45.817315" lon="1.324217"><ele></ele><time>2014-6-3T18:20:50Z</time></trkpt>
<trkpt lat="45.817386" lon="1.32421"><ele></ele><time>2014-6-3T18:20:53Z</time></trkpt>
<trkpt lat="45.817471" lon="1.324179"><ele></ele><time>2014-6-3T18:20:56Z</time></trkpt>
<trkpt lat="45.817536" lon="1.324139"><ele></ele><time>2014-6-3T18:20:59Z</time></trkpt>
<trkpt lat="45.817583" lon="1.3241"><ele></ele><time>2014-6-3T18:21:2Z</time></trkpt>
<trkpt lat="45.817655" lon="1.324068"><ele></ele><time>2014-6-3T18:21:5Z</time></trkpt>
<trkpt lat="45.817746" lon="1.324036"><ele></ele><time>2014-6-3T18:21:8Z</time></trkpt>
<trkpt lat="45.817826" lon="1.324002"><ele></ele><time>2014-6-3T18:21:11Z</time></trkpt>
<trkpt lat="45.8179" lon="1.323977"><ele></ele><time>2014-6-3T18:21:14Z</time></trkpt>
<trkpt lat="45.817961" lon="1.323943"><ele></ele><time>2014-6-3T18:21:17Z</time></trkpt>
<trkpt lat="45.818026" lon="1.3239"><ele></ele><time>2014-6-3T18:21:20Z</time></trkpt>
<trkpt lat="45.818104" lon="1.323868"><ele></ele><time>2014-6-3T18:21:23Z</time></trkpt>
<trkpt lat="45.818183" lon="1.323838"><ele></ele><time>2014-6-3T18:21:26Z</time></trkpt>
<trkpt lat="45.818256" lon="1.323808"><ele></ele><time>2014-6-3T18:21:29Z</time></trkpt>
<trkpt lat="45.818323" lon="1.323776"><ele></ele><time>2014-6-3T18:21:32Z</time></trkpt>
<trkpt lat="45.818391" lon="1.323748"><ele></ele><time>2014-6-3T18:21:35Z</time></trkpt>
<trkpt lat="45.818453" lon="1.323718"><ele></ele><time>2014-6-3T18:21:38Z</time></trkpt>
<trkpt lat="45.81851" lon="1.323693"><ele></ele><time>2014-6-3T18:21:41Z</time></trkpt>
<trkpt lat="45.818561" lon="1.323671"><ele></ele><time>2014-6-3T18:21:44Z</time></trkpt>
<trkpt lat="45.818619" lon="1.32366"><ele></ele><time>2014-6-3T18:21:47Z</time></trkpt>
<trkpt lat="45.818688" lon="1.323641"><ele></ele><time>2014-6-3T18:21:50Z</time></trkpt>
<trkpt lat="45.818734" lon="1.323652"><ele></ele><time>2014-6-3T18:21:53Z</time></trkpt>
<trkpt lat="45.818779" lon="1.323673"><ele></ele><time>2014-6-3T18:21:56Z</time></trkpt>
<trkpt lat="45.818807" lon="1.323613"><ele></ele><time>2014-6-3T18:21:59Z</time></trkpt>
<trkpt lat="45.818811" lon="1.323527"><ele></ele><time>2014-6-3T18:22:2Z</time></trkpt>
<trkpt lat="45.818835" lon="1.323433"><ele></ele><time>2014-6-3T18:22:5Z</time></trkpt>
<trkpt lat="45.818864" lon="1.323369"><ele></ele><time>2014-6-3T18:22:8Z</time></trkpt>
<trkpt lat="45.818912" lon="1.323269"><ele></ele><time>2014-6-3T18:22:11Z</time></trkpt>
<trkpt lat="45.818932" lon="1.323198"><ele></ele><time>2014-6-3T18:22:14Z</time></trkpt>
<trkpt lat="45.818954" lon="1.323126"><ele></ele><time>2014-6-3T18:22:17Z</time></trkpt>
<trkpt lat="45.818972" lon="1.323061"><ele></ele><time>2014-6-3T18:22:20Z</time></trkpt>
<trkpt lat="45.818999" lon="1.323001"><ele></ele><time>2014-6-3T18:22:23Z</time></trkpt>
<trkpt lat="45.819023" lon="1.322939"><ele></ele><time>2014-6-3T18:22:26Z</time></trkpt>
<trkpt lat="45.819049" lon="1.322858"><ele></ele><time>2014-6-3T18:22:29Z</time></trkpt>
<trkpt lat="45.819074" lon="1.322791"><ele></ele><time>2014-6-3T18:22:32Z</time></trkpt>
<trkpt lat="45.819089" lon="1.322717"><ele></ele><time>2014-6-3T18:22:35Z</time></trkpt>
<trkpt lat="45.819117" lon="1.322643"><ele></ele><time>2014-6-3T18:22:38Z</time></trkpt>
<trkpt lat="45.819128" lon="1.322564"><ele></ele><time>2014-6-3T18:22:41Z</time></trkpt>
<trkpt lat="45.819141" lon="1.32249"><ele></ele><time>2014-6-3T18:22:44Z</time></trkpt>
<trkpt lat="45.819147" lon="1.322422"><ele></ele><time>2014-6-3T18:22:47Z</time></trkpt>
<trkpt lat="45.81916" lon="1.322283"><ele></ele><time>2014-6-3T18:22:50Z</time></trkpt>
<trkpt lat="45.819146" lon="1.322216"><ele></ele><time>2014-6-3T18:22:53Z</time></trkpt>
<trkpt lat="45.81913" lon="1.322096"><ele></ele><time>2014-6-3T18:22:56Z</time></trkpt>
<trkpt lat="45.819117" lon="1.322027"><ele></ele><time>2014-6-3T18:22:59Z</time></trkpt>
<trkpt lat="45.81911" lon="1.321954"><ele></ele><time>2014-6-3T18:23:2Z</time></trkpt>
<trkpt lat="45.819105" lon="1.321884"><ele></ele><time>2014-6-3T18:23:5Z</time></trkpt>
<trkpt lat="45.819102" lon="1.321815"><ele></ele><time>2014-6-3T18:23:8Z</time></trkpt>
<trkpt lat="45.819085" lon="1.321685"><ele></ele><time>2014-6-3T18:23:11Z</time></trkpt>
<trkpt lat="45.81907" lon="1.321568"><ele></ele><time>2014-6-3T18:23:14Z</time></trkpt>
<trkpt lat="45.819057" lon="1.321495"><ele></ele><time>2014-6-3T18:23:17Z</time></trkpt>
<trkpt lat="45.81903" lon="1.321366"><ele></ele><time>2014-6-3T18:23:20Z</time></trkpt>
<trkpt lat="45.819018" lon="1.321297"><ele></ele><time>2014-6-3T18:23:23Z</time></trkpt>
<trkpt lat="45.818993" lon="1.321179"><ele></ele><time>2014-6-3T18:23:26Z</time></trkpt>
<trkpt lat="45.818973" lon="1.321102"><ele></ele><time>2014-6-3T18:23:29Z</time></trkpt>
<trkpt lat="45.818954" lon="1.321031"><ele></ele><time>2014-6-3T18:23:32Z</time></trkpt>
<trkpt lat="45.818959" lon="1.320952"><ele></ele><time>2014-6-3T18:23:35Z</time></trkpt>
<trkpt lat="45.818972" lon="1.32087"><ele></ele><time>2014-6-3T18:23:38Z</time></trkpt>
<trkpt lat="45.818995" lon="1.320797"><ele></ele><time>2014-6-3T18:23:41Z</time></trkpt>
<trkpt lat="45.819005" lon="1.320732"><ele></ele><time>2014-6-3T18:23:44Z</time></trkpt>
<trkpt lat="45.818997" lon="1.320662"><ele></ele><time>2014-6-3T18:23:47Z</time></trkpt>
<trkpt lat="45.818995" lon="1.320593"><ele></ele><time>2014-6-3T18:23:50Z</time></trkpt>
<trkpt lat="45.818989" lon="1.320519"><ele></ele><time>2014-6-3T18:23:53Z</time></trkpt>
<trkpt lat="45.818986" lon="1.320441"><ele></ele><time>2014-6-3T18:23:56Z</time></trkpt>
<trkpt lat="45.818995" lon="1.32036"><ele></ele><time>2014-6-3T18:23:59Z</time></trkpt>
<trkpt lat="45.819034" lon="1.320279"><ele></ele><time>2014-6-3T18:24:2Z</time></trkpt>
<trkpt lat="45.81906" lon="1.320194"><ele></ele><time>2014-6-3T18:24:5Z</time></trkpt>
<trkpt lat="45.819072" lon="1.320091"><ele></ele><time>2014-6-3T18:24:8Z</time></trkpt>
<trkpt lat="45.819087" lon="1.320012"><ele></ele><time>2014-6-3T18:24:11Z</time></trkpt>
<trkpt lat="45.819098" lon="1.31991"><ele></ele><time>2014-6-3T18:24:14Z</time></trkpt>
<trkpt lat="45.819107" lon="1.319808"><ele></ele><time>2014-6-3T18:24:17Z</time></trkpt>
<trkpt lat="45.819102" lon="1.319706"><ele></ele><time>2014-6-3T18:24:20Z</time></trkpt>
<trkpt lat="45.819107" lon="1.319623"><ele></ele><time>2014-6-3T18:24:23Z</time></trkpt>
<trkpt lat="45.819102" lon="1.319532"><ele></ele><time>2014-6-3T18:24:26Z</time></trkpt>
<trkpt lat="45.819078" lon="1.319428"><ele></ele><time>2014-6-3T18:24:29Z</time></trkpt>
<trkpt lat="45.819059" lon="1.319328"><ele></ele><time>2014-6-3T18:24:32Z</time></trkpt>
<trkpt lat="45.819024" lon="1.319218"><ele></ele><time>2014-6-3T18:24:35Z</time></trkpt>
<trkpt lat="45.819011" lon="1.319122"><ele></ele><time>2014-6-3T18:24:38Z</time></trkpt>
<trkpt lat="45.819002" lon="1.319038"><ele></ele><time>2014-6-3T18:24:41Z</time></trkpt>
<trkpt lat="45.818994" lon="1.318959"><ele></ele><time>2014-6-3T18:24:44Z</time></trkpt>
<trkpt lat="45.818986" lon="1.318879"><ele></ele><time>2014-6-3T18:24:47Z</time></trkpt>
<trkpt lat="45.818982" lon="1.318801"><ele></ele><time>2014-6-3T18:24:50Z</time></trkpt>
<trkpt lat="45.818975" lon="1.318721"><ele></ele><time>2014-6-3T18:24:53Z</time></trkpt>
<trkpt lat="45.818966" lon="1.318643"><ele></ele><time>2014-6-3T18:24:56Z</time></trkpt>
<trkpt lat="45.818951" lon="1.318565"><ele></ele><time>2014-6-3T18:24:59Z</time></trkpt>
<trkpt lat="45.818933" lon="1.318487"><ele></ele><time>2014-6-3T18:25:2Z</time></trkpt>
<trkpt lat="45.818911" lon="1.318412"><ele></ele><time>2014-6-3T18:25:5Z</time></trkpt>
<trkpt lat="45.818887" lon="1.318337"><ele></ele><time>2014-6-3T18:25:8Z</time></trkpt>
<trkpt lat="45.818881" lon="1.318269"><ele></ele><time>2014-6-3T18:25:11Z</time></trkpt>
<trkpt lat="45.818865" lon="1.318146"><ele></ele><time>2014-6-3T18:25:14Z</time></trkpt>
<trkpt lat="45.818862" lon="1.318063"><ele></ele><time>2014-6-3T18:25:17Z</time></trkpt>
<trkpt lat="45.818839" lon="1.317987"><ele></ele><time>2014-6-3T18:25:20Z</time></trkpt>
<trkpt lat="45.818821" lon="1.317918"><ele></ele><time>2014-6-3T18:25:23Z</time></trkpt>
<trkpt lat="45.818769" lon="1.317828"><ele></ele><time>2014-6-3T18:25:26Z</time></trkpt>
<trkpt lat="45.818734" lon="1.317729"><ele></ele><time>2014-6-3T18:25:29Z</time></trkpt>
<trkpt lat="45.81871" lon="1.317582"><ele></ele><time>2014-6-3T18:25:32Z</time></trkpt>
<trkpt lat="45.818688" lon="1.3175"><ele></ele><time>2014-6-3T18:25:35Z</time></trkpt>
<trkpt lat="45.818662" lon="1.317369"><ele></ele><time>2014-6-3T18:25:38Z</time></trkpt>
<trkpt lat="45.818736" lon="1.317298"><ele></ele><time>2014-6-3T18:25:41Z</time></trkpt>
<trkpt lat="45.818736" lon="1.317232"><ele></ele><time>2014-6-3T18:25:44Z</time></trkpt>
<trkpt lat="45.818706" lon="1.317161"><ele></ele><time>2014-6-3T18:25:47Z</time></trkpt>
<trkpt lat="45.818691" lon="1.317092"><ele></ele><time>2014-6-3T18:25:50Z</time></trkpt>
<trkpt lat="45.818656" lon="1.317011"><ele></ele><time>2014-6-3T18:25:53Z</time></trkpt>
<trkpt lat="45.818629" lon="1.316895"><ele></ele><time>2014-6-3T18:25:56Z</time></trkpt>
<trkpt lat="45.81858" lon="1.316762"><ele></ele><time>2014-6-3T18:25:59Z</time></trkpt>
<trkpt lat="45.818562" lon="1.316701"><ele></ele><time>2014-6-3T18:26:2Z</time></trkpt>
<trkpt lat="45.818547" lon="1.316633"><ele></ele><time>2014-6-3T18:26:5Z</time></trkpt>
<trkpt lat="45.818493" lon="1.316558"><ele></ele><time>2014-6-3T18:26:8Z</time></trkpt>
<trkpt lat="45.818479" lon="1.316476"><ele></ele><time>2014-6-3T18:26:11Z</time></trkpt>
<trkpt lat="45.81845" lon="1.316294"><ele></ele><time>2014-6-3T18:26:14Z</time></trkpt>
<trkpt lat="45.818445" lon="1.316218"><ele></ele><time>2014-6-3T18:26:17Z</time></trkpt>
<trkpt lat="45.81846" lon="1.316109"><ele></ele><time>2014-6-3T18:26:20Z</time></trkpt>
<trkpt lat="45.818504" lon="1.316047"><ele></ele><time>2014-6-3T18:26:23Z</time></trkpt>
<trkpt lat="45.818537" lon="1.316"><ele></ele><time>2014-6-3T18:26:26Z</time></trkpt>
<trkpt lat="45.818591" lon="1.316025"><ele></ele><time>2014-6-3T18:26:29Z</time></trkpt>
<trkpt lat="45.818655" lon="1.316002"><ele></ele><time>2014-6-3T18:26:32Z</time></trkpt>
<trkpt lat="45.818708" lon="1.315977"><ele></ele><time>2014-6-3T18:26:35Z</time></trkpt>
<trkpt lat="45.818768" lon="1.315952"><ele></ele><time>2014-6-3T18:26:38Z</time></trkpt>
<trkpt lat="45.818831" lon="1.315929"><ele></ele><time>2014-6-3T18:26:41Z</time></trkpt>
<trkpt lat="45.818883" lon="1.315897"><ele></ele><time>2014-6-3T18:26:44Z</time></trkpt>
<trkpt lat="45.818948" lon="1.315922"><ele></ele><time>2014-6-3T18:26:47Z</time></trkpt>
<trkpt lat="45.819002" lon="1.315915"><ele></ele><time>2014-6-3T18:26:50Z</time></trkpt>
<trkpt lat="45.81909" lon="1.315876"><ele></ele><time>2014-6-3T18:26:53Z</time></trkpt>
<trkpt lat="45.819136" lon="1.315861"><ele></ele><time>2014-6-3T18:26:56Z</time></trkpt>
<trkpt lat="45.819186" lon="1.315824"><ele></ele><time>2014-6-3T18:26:59Z</time></trkpt>
<trkpt lat="45.819234" lon="1.315807"><ele></ele><time>2014-6-3T18:27:2Z</time></trkpt>
<trkpt lat="45.81928" lon="1.315788"><ele></ele><time>2014-6-3T18:27:5Z</time></trkpt>
<trkpt lat="45.81933" lon="1.31577"><ele></ele><time>2014-6-3T18:27:8Z</time></trkpt>
<trkpt lat="45.819379" lon="1.315755"><ele></ele><time>2014-6-3T18:27:11Z</time></trkpt>
<trkpt lat="45.819441" lon="1.315733"><ele></ele><time>2014-6-3T18:27:14Z</time></trkpt>
<trkpt lat="45.819509" lon="1.315786"><ele></ele><time>2014-6-3T18:27:17Z</time></trkpt>
<trkpt lat="45.819558" lon="1.315783"><ele></ele><time>2014-6-3T18:27:20Z</time></trkpt>
<trkpt lat="45.819604" lon="1.315786"><ele></ele><time>2014-6-3T18:27:23Z</time></trkpt>
<trkpt lat="45.819661" lon="1.315884"><ele></ele><time>2014-6-3T18:27:26Z</time></trkpt>
<trkpt lat="45.819714" lon="1.315985"><ele></ele><time>2014-6-3T18:27:29Z</time></trkpt>
<trkpt lat="45.819748" lon="1.316066"><ele></ele><time>2014-6-3T18:27:32Z</time></trkpt>
<trkpt lat="45.819813" lon="1.316149"><ele></ele><time>2014-6-3T18:27:35Z</time></trkpt>
<trkpt lat="45.819854" lon="1.316193"><ele></ele><time>2014-6-3T18:27:38Z</time></trkpt>
<trkpt lat="45.819899" lon="1.31625"><ele></ele><time>2014-6-3T18:27:41Z</time></trkpt>
<trkpt lat="45.819947" lon="1.316309"><ele></ele><time>2014-6-3T18:27:44Z</time></trkpt>
<trkpt lat="45.819996" lon="1.316347"><ele></ele><time>2014-6-3T18:27:47Z</time></trkpt>
<trkpt lat="45.820044" lon="1.316385"><ele></ele><time>2014-6-3T18:27:50Z</time></trkpt>
<trkpt lat="45.820099" lon="1.316426"><ele></ele><time>2014-6-3T18:27:53Z</time></trkpt>
<trkpt lat="45.82016" lon="1.316514"><ele></ele><time>2014-6-3T18:27:56Z</time></trkpt>
<trkpt lat="45.820199" lon="1.316557"><ele></ele><time>2014-6-3T18:27:59Z</time></trkpt>
<trkpt lat="45.820245" lon="1.316597"><ele></ele><time>2014-6-3T18:28:2Z</time></trkpt>
<trkpt lat="45.820299" lon="1.316596"><ele></ele><time>2014-6-3T18:28:5Z</time></trkpt>
<trkpt lat="45.820327" lon="1.316542"><ele></ele><time>2014-6-3T18:28:8Z</time></trkpt>
<trkpt lat="45.820374" lon="1.316539"><ele></ele><time>2014-6-3T18:28:11Z</time></trkpt>
<trkpt lat="45.82042" lon="1.316473"><ele></ele><time>2014-6-3T18:28:14Z</time></trkpt>
<trkpt lat="45.820468" lon="1.31643"><ele></ele><time>2014-6-3T18:28:17Z</time></trkpt>
<trkpt lat="45.820515" lon="1.316373"><ele></ele><time>2014-6-3T18:28:20Z</time></trkpt>
<trkpt lat="45.820557" lon="1.316324"><ele></ele><time>2014-6-3T18:28:23Z</time></trkpt>
<trkpt lat="45.820586" lon="1.316253"><ele></ele><time>2014-6-3T18:28:26Z</time></trkpt>
<trkpt lat="45.820614" lon="1.316201"><ele></ele><time>2014-6-3T18:28:29Z</time></trkpt>
<trkpt lat="45.820664" lon="1.316123"><ele></ele><time>2014-6-3T18:28:32Z</time></trkpt>
<trkpt lat="45.820729" lon="1.316053"><ele></ele><time>2014-6-3T18:28:35Z</time></trkpt>
<trkpt lat="45.820782" lon="1.315985"><ele></ele><time>2014-6-3T18:28:38Z</time></trkpt>
<trkpt lat="45.820836" lon="1.315917"><ele></ele><time>2014-6-3T18:28:41Z</time></trkpt>
<trkpt lat="45.820891" lon="1.31584"><ele></ele><time>2014-6-3T18:28:44Z</time></trkpt>
<trkpt lat="45.820949" lon="1.31579"><ele></ele><time>2014-6-3T18:28:47Z</time></trkpt>
<trkpt lat="45.821" lon="1.315754"><ele></ele><time>2014-6-3T18:28:50Z</time></trkpt>
<trkpt lat="45.821057" lon="1.315695"><ele></ele><time>2014-6-3T18:28:53Z</time></trkpt>
<trkpt lat="45.8211" lon="1.315649"><ele></ele><time>2014-6-3T18:28:56Z</time></trkpt>
<trkpt lat="45.821157" lon="1.315594"><ele></ele><time>2014-6-3T18:28:59Z</time></trkpt>
<trkpt lat="45.821228" lon="1.315532"><ele></ele><time>2014-6-3T18:29:2Z</time></trkpt>
<trkpt lat="45.821288" lon="1.31547"><ele></ele><time>2014-6-3T18:29:5Z</time></trkpt>
<trkpt lat="45.821395" lon="1.315423"><ele></ele><time>2014-6-3T18:29:8Z</time></trkpt>
<trkpt lat="45.821468" lon="1.315361"><ele></ele><time>2014-6-3T18:29:11Z</time></trkpt>
<trkpt lat="45.821527" lon="1.315297"><ele></ele><time>2014-6-3T18:29:14Z</time></trkpt>
<trkpt lat="45.821589" lon="1.315231"><ele></ele><time>2014-6-3T18:29:17Z</time></trkpt>
<trkpt lat="45.821656" lon="1.315173"><ele></ele><time>2014-6-3T18:29:20Z</time></trkpt>
<trkpt lat="45.821712" lon="1.315118"><ele></ele><time>2014-6-3T18:29:23Z</time></trkpt>
<trkpt lat="45.82178" lon="1.315062"><ele></ele><time>2014-6-3T18:29:26Z</time></trkpt>
<trkpt lat="45.821835" lon="1.315009"><ele></ele><time>2014-6-3T18:29:29Z</time></trkpt>
<trkpt lat="45.821894" lon="1.314963"><ele></ele><time>2014-6-3T18:29:32Z</time></trkpt>
<trkpt lat="45.821952" lon="1.314911"><ele></ele><time>2014-6-3T18:29:35Z</time></trkpt>
<trkpt lat="45.822018" lon="1.314865"><ele></ele><time>2014-6-3T18:29:38Z</time></trkpt>
<trkpt lat="45.822078" lon="1.314821"><ele></ele><time>2014-6-3T18:29:41Z</time></trkpt>
<trkpt lat="45.822141" lon="1.314754"><ele></ele><time>2014-6-3T18:29:44Z</time></trkpt>
<trkpt lat="45.822166" lon="1.314692"><ele></ele><time>2014-6-3T18:29:47Z</time></trkpt>
<trkpt lat="45.822215" lon="1.31458"><ele></ele><time>2014-6-3T18:29:50Z</time></trkpt>
<trkpt lat="45.822251" lon="1.314531"><ele></ele><time>2014-6-3T18:29:53Z</time></trkpt>
<trkpt lat="45.822311" lon="1.314467"><ele></ele><time>2014-6-3T18:29:56Z</time></trkpt>
<trkpt lat="45.822354" lon="1.314426"><ele></ele><time>2014-6-3T18:29:59Z</time></trkpt>
<trkpt lat="45.822391" lon="1.31434"><ele></ele><time>2014-6-3T18:30:2Z</time></trkpt>
<trkpt lat="45.822396" lon="1.314199"><ele></ele><time>2014-6-3T18:30:5Z</time></trkpt>
<trkpt lat="45.822407" lon="1.314118"><ele></ele><time>2014-6-3T18:30:8Z</time></trkpt>
<trkpt lat="45.822401" lon="1.314052"><ele></ele><time>2014-6-3T18:30:11Z</time></trkpt>
<trkpt lat="45.822401" lon="1.313949"><ele></ele><time>2014-6-3T18:30:14Z</time></trkpt>
<trkpt lat="45.822389" lon="1.31385"><ele></ele><time>2014-6-3T18:30:17Z</time></trkpt>
<trkpt lat="45.822406" lon="1.313734"><ele></ele><time>2014-6-3T18:30:20Z</time></trkpt>
<trkpt lat="45.822469" lon="1.313668"><ele></ele><time>2014-6-3T18:30:23Z</time></trkpt>
<trkpt lat="45.82255" lon="1.313663"><ele></ele><time>2014-6-3T18:30:26Z</time></trkpt>
<trkpt lat="45.822596" lon="1.313669"><ele></ele><time>2014-6-3T18:30:29Z</time></trkpt>
<trkpt lat="45.822653" lon="1.313705"><ele></ele><time>2014-6-3T18:30:32Z</time></trkpt>
<trkpt lat="45.822779" lon="1.313775"><ele></ele><time>2014-6-3T18:30:35Z</time></trkpt>
<trkpt lat="45.822842" lon="1.313746"><ele></ele><time>2014-6-3T18:30:38Z</time></trkpt>
<trkpt lat="45.822914" lon="1.313722"><ele></ele><time>2014-6-3T18:30:41Z</time></trkpt>
<trkpt lat="45.822943" lon="1.313672"><ele></ele><time>2014-6-3T18:30:44Z</time></trkpt>
<trkpt lat="45.822994" lon="1.313588"><ele></ele><time>2014-6-3T18:30:47Z</time></trkpt>
<trkpt lat="45.823055" lon="1.313542"><ele></ele><time>2014-6-3T18:30:50Z</time></trkpt>
<trkpt lat="45.8231" lon="1.313563"><ele></ele><time>2014-6-3T18:30:53Z</time></trkpt>
<trkpt lat="45.823153" lon="1.313584"><ele></ele><time>2014-6-3T18:30:56Z</time></trkpt>
<trkpt lat="45.823203" lon="1.313581"><ele></ele><time>2014-6-3T18:30:59Z</time></trkpt>
<trkpt lat="45.823271" lon="1.313559"><ele></ele><time>2014-6-3T18:31:2Z</time></trkpt>
<trkpt lat="45.82332" lon="1.313567"><ele></ele><time>2014-6-3T18:31:5Z</time></trkpt>
<trkpt lat="45.823401" lon="1.313504"><ele></ele><time>2014-6-3T18:31:8Z</time></trkpt>
<trkpt lat="45.823457" lon="1.313485"><ele></ele><time>2014-6-3T18:31:11Z</time></trkpt>
<trkpt lat="45.823494" lon="1.313446"><ele></ele><time>2014-6-3T18:31:14Z</time></trkpt>
<trkpt lat="45.823557" lon="1.313409"><ele></ele><time>2014-6-3T18:31:17Z</time></trkpt>
<trkpt lat="45.823604" lon="1.313382"><ele></ele><time>2014-6-3T18:31:20Z</time></trkpt>
<trkpt lat="45.823692" lon="1.313364"><ele></ele><time>2014-6-3T18:31:23Z</time></trkpt>
<trkpt lat="45.823735" lon="1.313343"><ele></ele><time>2014-6-3T18:31:26Z</time></trkpt>
<trkpt lat="45.823772" lon="1.313302"><ele></ele><time>2014-6-3T18:31:29Z</time></trkpt>
<trkpt lat="45.823822" lon="1.313249"><ele></ele><time>2014-6-3T18:31:32Z</time></trkpt>
<trkpt lat="45.823854" lon="1.313193"><ele></ele><time>2014-6-3T18:31:35Z</time></trkpt>
<trkpt lat="45.823894" lon="1.313117"><ele></ele><time>2014-6-3T18:31:38Z</time></trkpt>
<trkpt lat="45.823943" lon="1.313035"><ele></ele><time>2014-6-3T18:31:41Z</time></trkpt>
<trkpt lat="45.823994" lon="1.312976"><ele></ele><time>2014-6-3T18:31:44Z</time></trkpt>
<trkpt lat="45.824076" lon="1.312895"><ele></ele><time>2014-6-3T18:31:47Z</time></trkpt>
<trkpt lat="45.824148" lon="1.31282"><ele></ele><time>2014-6-3T18:31:50Z</time></trkpt>
<trkpt lat="45.824223" lon="1.312743"><ele></ele><time>2014-6-3T18:31:53Z</time></trkpt>
<trkpt lat="45.824278" lon="1.312708"><ele></ele><time>2014-6-3T18:31:56Z</time></trkpt>
<trkpt lat="45.824315" lon="1.312665"><ele></ele><time>2014-6-3T18:31:59Z</time></trkpt>
<trkpt lat="45.824377" lon="1.31268"><ele></ele><time>2014-6-3T18:32:2Z</time></trkpt>
<trkpt lat="45.824431" lon="1.312648"><ele></ele><time>2014-6-3T18:32:5Z</time></trkpt>
<trkpt lat="45.824475" lon="1.312593"><ele></ele><time>2014-6-3T18:32:8Z</time></trkpt>
<trkpt lat="45.824508" lon="1.312544"><ele></ele><time>2014-6-3T18:32:11Z</time></trkpt>
<trkpt lat="45.824539" lon="1.312496"><ele></ele><time>2014-6-3T18:32:14Z</time></trkpt>
<trkpt lat="45.824585" lon="1.312414"><ele></ele><time>2014-6-3T18:32:17Z</time></trkpt>
<trkpt lat="45.824655" lon="1.312319"><ele></ele><time>2014-6-3T18:32:20Z</time></trkpt>
<trkpt lat="45.824686" lon="1.312224"><ele></ele><time>2014-6-3T18:32:23Z</time></trkpt>
<trkpt lat="45.82472" lon="1.312156"><ele></ele><time>2014-6-3T18:32:26Z</time></trkpt>
<trkpt lat="45.824767" lon="1.31207"><ele></ele><time>2014-6-3T18:32:29Z</time></trkpt>
<trkpt lat="45.824836" lon="1.312007"><ele></ele><time>2014-6-3T18:32:32Z</time></trkpt>
<trkpt lat="45.824882" lon="1.312009"><ele></ele><time>2014-6-3T18:32:35Z</time></trkpt>
<trkpt lat="45.824942" lon="1.312029"><ele></ele><time>2014-6-3T18:32:38Z</time></trkpt>
<trkpt lat="45.824956" lon="1.312093"><ele></ele><time>2014-6-3T18:32:41Z</time></trkpt>
<trkpt lat="45.825009" lon="1.312138"><ele></ele><time>2014-6-3T18:32:44Z</time></trkpt>
<trkpt lat="45.825049" lon="1.312189"><ele></ele><time>2014-6-3T18:32:47Z</time></trkpt>
<trkpt lat="45.825089" lon="1.312247"><ele></ele><time>2014-6-3T18:32:50Z</time></trkpt>
<trkpt lat="45.825125" lon="1.312304"><ele></ele><time>2014-6-3T18:32:53Z</time></trkpt>
<trkpt lat="45.825161" lon="1.312345"><ele></ele><time>2014-6-3T18:32:56Z</time></trkpt>
<trkpt lat="45.825221" lon="1.312427"><ele></ele><time>2014-6-3T18:32:59Z</time></trkpt>
<trkpt lat="45.825274" lon="1.312474"><ele></ele><time>2014-6-3T18:33:2Z</time></trkpt>
<trkpt lat="45.825319" lon="1.312571"><ele></ele><time>2014-6-3T18:33:5Z</time></trkpt>
<trkpt lat="45.825374" lon="1.31267"><ele></ele><time>2014-6-3T18:33:8Z</time></trkpt>
<trkpt lat="45.825406" lon="1.312752"><ele></ele><time>2014-6-3T18:33:11Z</time></trkpt>
<trkpt lat="45.825423" lon="1.312841"><ele></ele><time>2014-6-3T18:33:14Z</time></trkpt>
<trkpt lat="45.825456" lon="1.312951"><ele></ele><time>2014-6-3T18:33:17Z</time></trkpt>
<trkpt lat="45.825515" lon="1.313008"><ele></ele><time>2014-6-3T18:33:20Z</time></trkpt>
<trkpt lat="45.825542" lon="1.313106"><ele></ele><time>2014-6-3T18:33:23Z</time></trkpt>
<trkpt lat="45.825581" lon="1.313196"><ele></ele><time>2014-6-3T18:33:26Z</time></trkpt>
<trkpt lat="45.82559" lon="1.313306"><ele></ele><time>2014-6-3T18:33:29Z</time></trkpt>
<trkpt lat="45.825567" lon="1.31341"><ele></ele><time>2014-6-3T18:33:32Z</time></trkpt>
<trkpt lat="45.825608" lon="1.313506"><ele></ele><time>2014-6-3T18:33:35Z</time></trkpt>
<trkpt lat="45.825625" lon="1.313566"><ele></ele><time>2014-6-3T18:33:38Z</time></trkpt>
<trkpt lat="45.825645" lon="1.313645"><ele></ele><time>2014-6-3T18:33:41Z</time></trkpt>
<trkpt lat="45.825689" lon="1.313712"><ele></ele><time>2014-6-3T18:33:44Z</time></trkpt>
<trkpt lat="45.825744" lon="1.313771"><ele></ele><time>2014-6-3T18:33:47Z</time></trkpt>
<trkpt lat="45.825774" lon="1.313832"><ele></ele><time>2014-6-3T18:33:50Z</time></trkpt>
<trkpt lat="45.825817" lon="1.313924"><ele></ele><time>2014-6-3T18:33:53Z</time></trkpt>
<trkpt lat="45.825867" lon="1.313932"><ele></ele><time>2014-6-3T18:33:56Z</time></trkpt>
<trkpt lat="45.825947" lon="1.31391"><ele></ele><time>2014-6-3T18:33:59Z</time></trkpt>
<trkpt lat="45.825997" lon="1.313858"><ele></ele><time>2014-6-3T18:34:2Z</time></trkpt>
<trkpt lat="45.826066" lon="1.313818"><ele></ele><time>2014-6-3T18:34:5Z</time></trkpt>
<trkpt lat="45.826103" lon="1.313779"><ele></ele><time>2014-6-3T18:34:8Z</time></trkpt>
<trkpt lat="45.826143" lon="1.31375"><ele></ele><time>2014-6-3T18:34:11Z</time></trkpt>
<trkpt lat="45.826205" lon="1.313666"><ele></ele><time>2014-6-3T18:34:14Z</time></trkpt>
<trkpt lat="45.82626" lon="1.313614"><ele></ele><time>2014-6-3T18:34:17Z</time></trkpt>
<trkpt lat="45.826313" lon="1.313582"><ele></ele><time>2014-6-3T18:34:20Z</time></trkpt>
<trkpt lat="45.826354" lon="1.313547"><ele></ele><time>2014-6-3T18:34:23Z</time></trkpt>
<trkpt lat="45.826413" lon="1.31349"><ele></ele><time>2014-6-3T18:34:26Z</time></trkpt>
<trkpt lat="45.826443" lon="1.313426"><ele></ele><time>2014-6-3T18:34:29Z</time></trkpt>
<trkpt lat="45.826498" lon="1.313377"><ele></ele><time>2014-6-3T18:34:32Z</time></trkpt>
<trkpt lat="45.826587" lon="1.313361"><ele></ele><time>2014-6-3T18:34:35Z</time></trkpt>
<trkpt lat="45.826682" lon="1.313334"><ele></ele><time>2014-6-3T18:34:38Z</time></trkpt>
<trkpt lat="45.826748" lon="1.313331"><ele></ele><time>2014-6-3T18:34:41Z</time></trkpt>
<trkpt lat="45.826806" lon="1.313266"><ele></ele><time>2014-6-3T18:34:44Z</time></trkpt>
<trkpt lat="45.826859" lon="1.313213"><ele></ele><time>2014-6-3T18:34:47Z</time></trkpt>
<trkpt lat="45.826933" lon="1.313154"><ele></ele><time>2014-6-3T18:34:50Z</time></trkpt>
<trkpt lat="45.826982" lon="1.313085"><ele></ele><time>2014-6-3T18:34:53Z</time></trkpt>
<trkpt lat="45.827032" lon="1.313026"><ele></ele><time>2014-6-3T18:34:56Z</time></trkpt>
<trkpt lat="45.827042" lon="1.312947"><ele></ele><time>2014-6-3T18:34:59Z</time></trkpt>
<trkpt lat="45.827076" lon="1.312862"><ele></ele><time>2014-6-3T18:35:2Z</time></trkpt>
<trkpt lat="45.827113" lon="1.312783"><ele></ele><time>2014-6-3T18:35:5Z</time></trkpt>
<trkpt lat="45.827159" lon="1.3127"><ele></ele><time>2014-6-3T18:35:8Z</time></trkpt>
<trkpt lat="45.827179" lon="1.312623"><ele></ele><time>2014-6-3T18:35:11Z</time></trkpt>
<trkpt lat="45.827178" lon="1.312543"><ele></ele><time>2014-6-3T18:35:14Z</time></trkpt>
<trkpt lat="45.827199" lon="1.31246"><ele></ele><time>2014-6-3T18:35:17Z</time></trkpt>
<trkpt lat="45.82723" lon="1.312404"><ele></ele><time>2014-6-3T18:35:20Z</time></trkpt>
<trkpt lat="45.827274" lon="1.312312"><ele></ele><time>2014-6-3T18:35:23Z</time></trkpt>
<trkpt lat="45.827286" lon="1.312211"><ele></ele><time>2014-6-3T18:35:26Z</time></trkpt>
<trkpt lat="45.827262" lon="1.312139"><ele></ele><time>2014-6-3T18:35:29Z</time></trkpt>
<trkpt lat="45.827248" lon="1.312042"><ele></ele><time>2014-6-3T18:35:32Z</time></trkpt>
<trkpt lat="45.827241" lon="1.311972"><ele></ele><time>2014-6-3T18:35:35Z</time></trkpt>
<trkpt lat="45.827228" lon="1.311897"><ele></ele><time>2014-6-3T18:35:38Z</time></trkpt>
<trkpt lat="45.827215" lon="1.311817"><ele></ele><time>2014-6-3T18:35:41Z</time></trkpt>
<trkpt lat="45.827212" lon="1.311741"><ele></ele><time>2014-6-3T18:35:44Z</time></trkpt>
<trkpt lat="45.827219" lon="1.311646"><ele></ele><time>2014-6-3T18:35:47Z</time></trkpt>
<trkpt lat="45.827226" lon="1.311547"><ele></ele><time>2014-6-3T18:35:50Z</time></trkpt>
<trkpt lat="45.827256" lon="1.311467"><ele></ele><time>2014-6-3T18:35:53Z</time></trkpt>
<trkpt lat="45.827286" lon="1.31137"><ele></ele><time>2014-6-3T18:35:56Z</time></trkpt>
<trkpt lat="45.827316" lon="1.3113"><ele></ele><time>2014-6-3T18:35:59Z</time></trkpt>
<trkpt lat="45.827294" lon="1.31119"><ele></ele><time>2014-6-3T18:36:2Z</time></trkpt>
<trkpt lat="45.827306" lon="1.311109"><ele></ele><time>2014-6-3T18:36:5Z</time></trkpt>
<trkpt lat="45.82736" lon="1.311031"><ele></ele><time>2014-6-3T18:36:8Z</time></trkpt>
<trkpt lat="45.827387" lon="1.310948"><ele></ele><time>2014-6-3T18:36:11Z</time></trkpt>
<trkpt lat="45.82741" lon="1.310867"><ele></ele><time>2014-6-3T18:36:14Z</time></trkpt>
<trkpt lat="45.827439" lon="1.310771"><ele></ele><time>2014-6-3T18:36:17Z</time></trkpt>
<trkpt lat="45.827461" lon="1.31071"><ele></ele><time>2014-6-3T18:36:20Z</time></trkpt>
<trkpt lat="45.827489" lon="1.310607"><ele></ele><time>2014-6-3T18:36:23Z</time></trkpt>
<trkpt lat="45.827517" lon="1.310506"><ele></ele><time>2014-6-3T18:36:26Z</time></trkpt>
<trkpt lat="45.827569" lon="1.310422"><ele></ele><time>2014-6-3T18:36:29Z</time></trkpt>
<trkpt lat="45.827588" lon="1.310343"><ele></ele><time>2014-6-3T18:36:32Z</time></trkpt>
<trkpt lat="45.827588" lon="1.310249"><ele></ele><time>2014-6-3T18:36:35Z</time></trkpt>
<trkpt lat="45.827585" lon="1.310157"><ele></ele><time>2014-6-3T18:36:38Z</time></trkpt>
<trkpt lat="45.82762" lon="1.310051"><ele></ele><time>2014-6-3T18:36:41Z</time></trkpt>
<trkpt lat="45.827658" lon="1.309954"><ele></ele><time>2014-6-3T18:36:44Z</time></trkpt>
<trkpt lat="45.827682" lon="1.309856"><ele></ele><time>2014-6-3T18:36:47Z</time></trkpt>
<trkpt lat="45.827713" lon="1.309768"><ele></ele><time>2014-6-3T18:36:50Z</time></trkpt>
<trkpt lat="45.827722" lon="1.309678"><ele></ele><time>2014-6-3T18:36:53Z</time></trkpt>
<trkpt lat="45.827746" lon="1.309592"><ele></ele><time>2014-6-3T18:36:56Z</time></trkpt>
<trkpt lat="45.827773" lon="1.30951"><ele></ele><time>2014-6-3T18:36:59Z</time></trkpt>
<trkpt lat="45.827758" lon="1.309405"><ele></ele><time>2014-6-3T18:37:2Z</time></trkpt>
<trkpt lat="45.827772" lon="1.309307"><ele></ele><time>2014-6-3T18:37:5Z</time></trkpt>
<trkpt lat="45.82778" lon="1.309226"><ele></ele><time>2014-6-3T18:37:8Z</time></trkpt>
<trkpt lat="45.827825" lon="1.309186"><ele></ele><time>2014-6-3T18:37:11Z</time></trkpt>
<trkpt lat="45.827862" lon="1.309117"><ele></ele><time>2014-6-3T18:37:14Z</time></trkpt>
<trkpt lat="45.827881" lon="1.309045"><ele></ele><time>2014-6-3T18:37:17Z</time></trkpt>
<trkpt lat="45.827862" lon="1.30898"><ele></ele><time>2014-6-3T18:37:20Z</time></trkpt>
<trkpt lat="45.827878" lon="1.308919"><ele></ele><time>2014-6-3T18:37:23Z</time></trkpt>
<trkpt lat="45.827937" lon="1.308888"><ele></ele><time>2014-6-3T18:37:26Z</time></trkpt>
<trkpt lat="45.827987" lon="1.308931"><ele></ele><time>2014-6-3T18:37:29Z</time></trkpt>
</trkseg></trk></gpx>